<?xml version="1.0" encoding="UTF-8" standalone="no" ?>
<gpx xmlns="http://www.topografix.com/GPX/1/1" xmlns:xsi="http://www.w3.org/2001/XMLSchema-instance" xsi:schemaLocation="http://www.topografix.com/GPX/1/1 http://www.topografix.com/GPX/1/1/gpx.xsd" version="1.1" creator="VisuGPX - https://www.visugpx.com">
  <metadata>
    <name>Vallee eyne Cambre d\'Aze 2836m</name>
    <desc><![CDATA[Vallee eyne Cambre d\'Aze 2836m]]></desc>
  </metadata>
  <wpt lat="42.44035" lon="2.14118">
    <ele>2767.6</ele>
    <name><![CDATA[17-DSC_8746.JPG]]></name>
  </wpt>
  <wpt lat="42.43453" lon="2.14598">
    <ele>2818.3</ele>
    <name><![CDATA[16-DSC_8720.JPG]]></name>
  </wpt>
  <wpt lat="42.42871" lon="2.15012">
    <ele>2713.3</ele>
    <name><![CDATA[15-DSC_8705.JPG]]></name>
  </wpt>
  <wpt lat="42.42815" lon="2.15089">
    <ele>2691.6</ele>
    <name><![CDATA[14-DSC_8703.JPG]]></name>
  </wpt>
  <wpt lat="42.42577" lon="2.15646">
    <ele>2747.7</ele>
    <name><![CDATA[13-DSC_8691.JPG]]></name>
  </wpt>
  <wpt lat="42.42372" lon="2.15699">
    <ele>2792.8</ele>
    <name><![CDATA[12-DSC_8690.JPG]]></name>
  </wpt>
  <wpt lat="42.42157" lon="2.1533">
    <ele>2721.3</ele>
    <name><![CDATA[11-DSC_8685.JPG]]></name>
  </wpt>
  <wpt lat="42.41978" lon="2.15058">
    <ele>2676.8</ele>
    <name><![CDATA[10-DSC_8673.JPG]]></name>
  </wpt>
  <wpt lat="42.42223" lon="2.14887">
    <ele>2624.6</ele>
    <name><![CDATA[09-DSC_8663.JPG]]></name>
  </wpt>
  <wpt lat="42.42498" lon="2.14739">
    <ele>2507.6</ele>
    <name><![CDATA[08-DSC_8657.JPG]]></name>
  </wpt>
  <wpt lat="42.42603" lon="2.13795">
    <ele>2341</ele>
    <name><![CDATA[07-DSC_8648.JPG]]></name>
  </wpt>
  <wpt lat="42.4264" lon="2.13675">
    <ele>2326.7</ele>
    <name><![CDATA[06-DSC_8645.JPG]]></name>
  </wpt>
  <wpt lat="42.42639" lon="2.13678">
    <ele>2334</ele>
    <name><![CDATA[05-DSC_8643.JPG]]></name>
  </wpt>
  <wpt lat="42.43505" lon="2.12696">
    <ele>2161.5</ele>
    <name><![CDATA[04-DSC_8627.JPG]]></name>
  </wpt>
  <wpt lat="42.4378" lon="2.12279">
    <ele>2130.1</ele>
    <name><![CDATA[03-DSC_8622.JPG]]></name>
  </wpt>
  <wpt lat="42.44804" lon="2.10974">
    <ele>1924.5</ele>
    <name><![CDATA[02-DSC_8612.JPG]]></name>
  </wpt>
  <wpt lat="42.47315" lon="2.09864">
    <ele>1763</ele>
    <name><![CDATA[01-DSC_8588.JPG]]></name>
  </wpt>
  <trk>
    <name><![CDATA[Vallée Eyne, Tour d'Eyne]]></name>
    <trkseg>
      <trkpt lat="42.47543" lon="2.09823">
        <ele>1748</ele>
        <time>2010-07-01T05:05:59Z</time>
      </trkpt>
      <trkpt lat="42.47539" lon="2.09826">
        <ele>1748</ele>
        <time>2010-07-01T05:06:09Z</time>
      </trkpt>
      <trkpt lat="42.47537" lon="2.09828">
        <ele>1748</ele>
        <time>2010-07-01T05:06:19Z</time>
      </trkpt>
      <trkpt lat="42.47535" lon="2.09828">
        <ele>1748</ele>
        <time>2010-07-01T05:06:29Z</time>
      </trkpt>
      <trkpt lat="42.47537" lon="2.09829">
        <ele>1748</ele>
        <time>2010-07-01T05:06:39Z</time>
      </trkpt>
      <trkpt lat="42.47541" lon="2.09826">
        <ele>1748</ele>
        <time>2010-07-01T05:06:49Z</time>
      </trkpt>
      <trkpt lat="42.47541" lon="2.09826">
        <ele>1748</ele>
        <time>2010-07-01T05:06:59Z</time>
      </trkpt>
      <trkpt lat="42.47541" lon="2.09826">
        <ele>1748</ele>
        <time>2010-07-01T05:07:09Z</time>
      </trkpt>
      <trkpt lat="42.47539" lon="2.09826">
        <ele>1749</ele>
        <time>2010-07-01T05:07:19Z</time>
      </trkpt>
      <trkpt lat="42.4754" lon="2.09826">
        <ele>1749</ele>
        <time>2010-07-01T05:07:29Z</time>
      </trkpt>
      <trkpt lat="42.47541" lon="2.09825">
        <ele>1750</ele>
        <time>2010-07-01T05:07:39Z</time>
      </trkpt>
      <trkpt lat="42.47543" lon="2.09825">
        <ele>1751</ele>
        <time>2010-07-01T05:07:49Z</time>
      </trkpt>
      <trkpt lat="42.47542" lon="2.09828">
        <ele>1752</ele>
        <time>2010-07-01T05:07:59Z</time>
      </trkpt>
      <trkpt lat="42.47541" lon="2.0983">
        <ele>1753</ele>
        <time>2010-07-01T05:08:09Z</time>
      </trkpt>
      <trkpt lat="42.47541" lon="2.0983">
        <ele>1753</ele>
        <time>2010-07-01T05:08:19Z</time>
      </trkpt>
      <trkpt lat="42.4754" lon="2.09831">
        <ele>1754</ele>
        <time>2010-07-01T05:08:29Z</time>
      </trkpt>
      <trkpt lat="42.4754" lon="2.09831">
        <ele>1754</ele>
        <time>2010-07-01T05:08:39Z</time>
      </trkpt>
      <trkpt lat="42.4754" lon="2.09832">
        <ele>1752</ele>
        <time>2010-07-01T05:08:49Z</time>
      </trkpt>
      <trkpt lat="42.4754" lon="2.09831">
        <ele>1752</ele>
        <time>2010-07-01T05:08:59Z</time>
      </trkpt>
      <trkpt lat="42.47541" lon="2.0983">
        <ele>1750</ele>
        <time>2010-07-01T05:09:09Z</time>
      </trkpt>
      <trkpt lat="42.47541" lon="2.0983">
        <ele>1750</ele>
        <time>2010-07-01T05:09:19Z</time>
      </trkpt>
      <trkpt lat="42.47541" lon="2.0983">
        <ele>1750</ele>
        <time>2010-07-01T05:09:29Z</time>
      </trkpt>
      <trkpt lat="42.47543" lon="2.09829">
        <ele>1749</ele>
        <time>2010-07-01T05:09:39Z</time>
      </trkpt>
      <trkpt lat="42.47545" lon="2.09829">
        <ele>1747</ele>
        <time>2010-07-01T05:09:49Z</time>
      </trkpt>
      <trkpt lat="42.47546" lon="2.09828">
        <ele>1746</ele>
        <time>2010-07-01T05:09:59Z</time>
      </trkpt>
      <trkpt lat="42.47546" lon="2.09827">
        <ele>1745</ele>
        <time>2010-07-01T05:10:09Z</time>
      </trkpt>
      <trkpt lat="42.47547" lon="2.09826">
        <ele>1745</ele>
        <time>2010-07-01T05:10:19Z</time>
      </trkpt>
      <trkpt lat="42.47548" lon="2.09826">
        <ele>1745</ele>
        <time>2010-07-01T05:10:29Z</time>
      </trkpt>
      <trkpt lat="42.47546" lon="2.09826">
        <ele>1746</ele>
        <time>2010-07-01T05:10:39Z</time>
      </trkpt>
      <trkpt lat="42.47546" lon="2.09825">
        <ele>1746</ele>
        <time>2010-07-01T05:10:49Z</time>
      </trkpt>
      <trkpt lat="42.47546" lon="2.09825">
        <ele>1746</ele>
        <time>2010-07-01T05:10:59Z</time>
      </trkpt>
      <trkpt lat="42.47547" lon="2.09826">
        <ele>1745</ele>
        <time>2010-07-01T05:11:09Z</time>
      </trkpt>
      <trkpt lat="42.47545" lon="2.09827">
        <ele>1744</ele>
        <time>2010-07-01T05:11:18Z</time>
      </trkpt>
      <trkpt lat="42.47544" lon="2.09826">
        <ele>1743</ele>
        <time>2010-07-01T05:11:28Z</time>
      </trkpt>
      <trkpt lat="42.47545" lon="2.09827">
        <ele>1743</ele>
        <time>2010-07-01T05:11:38Z</time>
      </trkpt>
      <trkpt lat="42.47546" lon="2.09827">
        <ele>1742</ele>
        <time>2010-07-01T05:11:48Z</time>
      </trkpt>
      <trkpt lat="42.47546" lon="2.09827">
        <ele>1742</ele>
        <time>2010-07-01T05:11:58Z</time>
      </trkpt>
      <trkpt lat="42.47545" lon="2.09825">
        <ele>1742</ele>
        <time>2010-07-01T05:12:08Z</time>
      </trkpt>
      <trkpt lat="42.47546" lon="2.09827">
        <ele>1742</ele>
        <time>2010-07-01T05:12:18Z</time>
      </trkpt>
      <trkpt lat="42.47546" lon="2.09832">
        <ele>1742</ele>
        <time>2010-07-01T05:12:28Z</time>
      </trkpt>
      <trkpt lat="42.47545" lon="2.09842">
        <ele>1742</ele>
        <time>2010-07-01T05:12:38Z</time>
      </trkpt>
      <trkpt lat="42.47543" lon="2.09848">
        <ele>1742</ele>
        <time>2010-07-01T05:12:48Z</time>
      </trkpt>
      <trkpt lat="42.47533" lon="2.0985">
        <ele>1743</ele>
        <time>2010-07-01T05:12:58Z</time>
      </trkpt>
      <trkpt lat="42.47531" lon="2.09837">
        <ele>1744</ele>
        <time>2010-07-01T05:13:08Z</time>
      </trkpt>
      <trkpt lat="42.47517" lon="2.09849">
        <ele>1745</ele>
        <time>2010-07-01T05:13:18Z</time>
      </trkpt>
      <trkpt lat="42.4751" lon="2.09848">
        <ele>1746</ele>
        <time>2010-07-01T05:13:28Z</time>
      </trkpt>
      <trkpt lat="42.47501" lon="2.09847">
        <ele>1747</ele>
        <time>2010-07-01T05:13:38Z</time>
      </trkpt>
      <trkpt lat="42.47492" lon="2.09848">
        <ele>1748</ele>
        <time>2010-07-01T05:13:48Z</time>
      </trkpt>
      <trkpt lat="42.4748" lon="2.09847">
        <ele>1749</ele>
        <time>2010-07-01T05:13:58Z</time>
      </trkpt>
      <trkpt lat="42.47469" lon="2.09844">
        <ele>1750</ele>
        <time>2010-07-01T05:14:08Z</time>
      </trkpt>
      <trkpt lat="42.4746" lon="2.09841">
        <ele>1751</ele>
        <time>2010-07-01T05:14:18Z</time>
      </trkpt>
      <trkpt lat="42.47455" lon="2.09841">
        <ele>1751</ele>
        <time>2010-07-01T05:14:28Z</time>
      </trkpt>
      <trkpt lat="42.47448" lon="2.0984">
        <ele>1752</ele>
        <time>2010-07-01T05:14:38Z</time>
      </trkpt>
      <trkpt lat="42.47445" lon="2.0984">
        <ele>1753</ele>
        <time>2010-07-01T05:14:48Z</time>
      </trkpt>
      <trkpt lat="42.47437" lon="2.09839">
        <ele>1754</ele>
        <time>2010-07-01T05:14:58Z</time>
      </trkpt>
      <trkpt lat="42.47432" lon="2.09838">
        <ele>1754</ele>
        <time>2010-07-01T05:15:08Z</time>
      </trkpt>
      <trkpt lat="42.47423" lon="2.09839">
        <ele>1755</ele>
        <time>2010-07-01T05:15:18Z</time>
      </trkpt>
      <trkpt lat="42.47411" lon="2.0984">
        <ele>1757</ele>
        <time>2010-07-01T05:15:28Z</time>
      </trkpt>
      <trkpt lat="42.47403" lon="2.0984">
        <ele>1758</ele>
        <time>2010-07-01T05:15:38Z</time>
      </trkpt>
      <trkpt lat="42.47401" lon="2.09845">
        <ele>1758</ele>
        <time>2010-07-01T05:15:48Z</time>
      </trkpt>
      <trkpt lat="42.47392" lon="2.09846">
        <ele>1759</ele>
        <time>2010-07-01T05:15:58Z</time>
      </trkpt>
      <trkpt lat="42.47382" lon="2.09851">
        <ele>1760</ele>
        <time>2010-07-01T05:16:08Z</time>
      </trkpt>
      <trkpt lat="42.47377" lon="2.09855">
        <ele>1760</ele>
        <time>2010-07-01T05:16:18Z</time>
      </trkpt>
      <trkpt lat="42.47372" lon="2.09861">
        <ele>1760</ele>
        <time>2010-07-01T05:16:28Z</time>
      </trkpt>
      <trkpt lat="42.47356" lon="2.09863">
        <ele>1761</ele>
        <time>2010-07-01T05:16:38Z</time>
      </trkpt>
      <trkpt lat="42.47342" lon="2.09859">
        <ele>1762</ele>
        <time>2010-07-01T05:16:48Z</time>
      </trkpt>
      <trkpt lat="42.47337" lon="2.0986">
        <ele>1762</ele>
        <time>2010-07-01T05:16:58Z</time>
      </trkpt>
      <trkpt lat="42.47332" lon="2.09863">
        <ele>1762</ele>
        <time>2010-07-01T05:17:08Z</time>
      </trkpt>
      <trkpt lat="42.47324" lon="2.09863">
        <ele>1762</ele>
        <time>2010-07-01T05:17:18Z</time>
      </trkpt>
      <trkpt lat="42.47315" lon="2.09864">
        <ele>1763</ele>
        <time>2010-07-01T05:17:28Z</time>
      </trkpt>
      <trkpt lat="42.47306" lon="2.09869">
        <ele>1763</ele>
        <time>2010-07-01T05:17:38Z</time>
      </trkpt>
      <trkpt lat="42.47298" lon="2.09876">
        <ele>1763</ele>
        <time>2010-07-01T05:17:48Z</time>
      </trkpt>
      <trkpt lat="42.47289" lon="2.09885">
        <ele>1762</ele>
        <time>2010-07-01T05:17:58Z</time>
      </trkpt>
      <trkpt lat="42.47278" lon="2.09893">
        <ele>1762</ele>
        <time>2010-07-01T05:18:08Z</time>
      </trkpt>
      <trkpt lat="42.4727" lon="2.09901">
        <ele>1761</ele>
        <time>2010-07-01T05:18:18Z</time>
      </trkpt>
      <trkpt lat="42.47265" lon="2.09911">
        <ele>1760</ele>
        <time>2010-07-01T05:18:28Z</time>
      </trkpt>
      <trkpt lat="42.47256" lon="2.09917">
        <ele>1760</ele>
        <time>2010-07-01T05:18:38Z</time>
      </trkpt>
      <trkpt lat="42.47247" lon="2.09922">
        <ele>1759</ele>
        <time>2010-07-01T05:18:48Z</time>
      </trkpt>
      <trkpt lat="42.47238" lon="2.09927">
        <ele>1759</ele>
        <time>2010-07-01T05:18:58Z</time>
      </trkpt>
      <trkpt lat="42.47226" lon="2.09928">
        <ele>1758</ele>
        <time>2010-07-01T05:19:08Z</time>
      </trkpt>
      <trkpt lat="42.47215" lon="2.09929">
        <ele>1758</ele>
        <time>2010-07-01T05:19:18Z</time>
      </trkpt>
      <trkpt lat="42.47202" lon="2.0993">
        <ele>1758</ele>
        <time>2010-07-01T05:19:28Z</time>
      </trkpt>
      <trkpt lat="42.4719" lon="2.09928">
        <ele>1758</ele>
        <time>2010-07-01T05:19:38Z</time>
      </trkpt>
      <trkpt lat="42.47177" lon="2.09926">
        <ele>1758</ele>
        <time>2010-07-01T05:19:48Z</time>
      </trkpt>
      <trkpt lat="42.47167" lon="2.09919">
        <ele>1758</ele>
        <time>2010-07-01T05:19:58Z</time>
      </trkpt>
      <trkpt lat="42.47154" lon="2.09913">
        <ele>1759</ele>
        <time>2010-07-01T05:20:08Z</time>
      </trkpt>
      <trkpt lat="42.47145" lon="2.09909">
        <ele>1759</ele>
        <time>2010-07-01T05:20:18Z</time>
      </trkpt>
      <trkpt lat="42.47138" lon="2.09907">
        <ele>1760</ele>
        <time>2010-07-01T05:20:28Z</time>
      </trkpt>
      <trkpt lat="42.47131" lon="2.09906">
        <ele>1760</ele>
        <time>2010-07-01T05:20:38Z</time>
      </trkpt>
      <trkpt lat="42.47126" lon="2.09905">
        <ele>1761</ele>
        <time>2010-07-01T05:20:48Z</time>
      </trkpt>
      <trkpt lat="42.47119" lon="2.099">
        <ele>1761</ele>
        <time>2010-07-01T05:20:58Z</time>
      </trkpt>
      <trkpt lat="42.47114" lon="2.09898">
        <ele>1762</ele>
        <time>2010-07-01T05:21:08Z</time>
      </trkpt>
      <trkpt lat="42.47108" lon="2.09889">
        <ele>1762</ele>
        <time>2010-07-01T05:21:18Z</time>
      </trkpt>
      <trkpt lat="42.47099" lon="2.09878">
        <ele>1763</ele>
        <time>2010-07-01T05:21:28Z</time>
      </trkpt>
      <trkpt lat="42.47094" lon="2.09866">
        <ele>1764</ele>
        <time>2010-07-01T05:21:38Z</time>
      </trkpt>
      <trkpt lat="42.47087" lon="2.09856">
        <ele>1765</ele>
        <time>2010-07-01T05:21:48Z</time>
      </trkpt>
      <trkpt lat="42.47082" lon="2.09848">
        <ele>1765</ele>
        <time>2010-07-01T05:21:58Z</time>
      </trkpt>
      <trkpt lat="42.47073" lon="2.09843">
        <ele>1765</ele>
        <time>2010-07-01T05:22:08Z</time>
      </trkpt>
      <trkpt lat="42.47066" lon="2.09834">
        <ele>1765</ele>
        <time>2010-07-01T05:22:18Z</time>
      </trkpt>
      <trkpt lat="42.47059" lon="2.09823">
        <ele>1764</ele>
        <time>2010-07-01T05:22:28Z</time>
      </trkpt>
      <trkpt lat="42.47055" lon="2.09812">
        <ele>1764</ele>
        <time>2010-07-01T05:22:38Z</time>
      </trkpt>
      <trkpt lat="42.47054" lon="2.09798">
        <ele>1763</ele>
        <time>2010-07-01T05:22:48Z</time>
      </trkpt>
      <trkpt lat="42.47052" lon="2.09785">
        <ele>1762</ele>
        <time>2010-07-01T05:22:58Z</time>
      </trkpt>
      <trkpt lat="42.47053" lon="2.09773">
        <ele>1762</ele>
        <time>2010-07-01T05:23:08Z</time>
      </trkpt>
      <trkpt lat="42.47053" lon="2.09771">
        <ele>1761</ele>
        <time>2010-07-01T05:23:18Z</time>
      </trkpt>
      <trkpt lat="42.47053" lon="2.0977">
        <ele>1761</ele>
        <time>2010-07-01T05:23:28Z</time>
      </trkpt>
      <trkpt lat="42.47051" lon="2.09768">
        <ele>1761</ele>
        <time>2010-07-01T05:23:38Z</time>
      </trkpt>
      <trkpt lat="42.47053" lon="2.09767">
        <ele>1760</ele>
        <time>2010-07-01T05:23:48Z</time>
      </trkpt>
      <trkpt lat="42.47054" lon="2.09766">
        <ele>1759</ele>
        <time>2010-07-01T05:23:58Z</time>
      </trkpt>
      <trkpt lat="42.47054" lon="2.09766">
        <ele>1759</ele>
        <time>2010-07-01T05:24:08Z</time>
      </trkpt>
      <trkpt lat="42.47054" lon="2.09761">
        <ele>1757</ele>
        <time>2010-07-01T05:24:18Z</time>
      </trkpt>
      <trkpt lat="42.47051" lon="2.09748">
        <ele>1756</ele>
        <time>2010-07-01T05:24:28Z</time>
      </trkpt>
      <trkpt lat="42.47047" lon="2.09737">
        <ele>1757</ele>
        <time>2010-07-01T05:24:38Z</time>
      </trkpt>
      <trkpt lat="42.47044" lon="2.09732">
        <ele>1758</ele>
        <time>2010-07-01T05:24:48Z</time>
      </trkpt>
      <trkpt lat="42.47044" lon="2.0973">
        <ele>1758</ele>
        <time>2010-07-01T05:24:58Z</time>
      </trkpt>
      <trkpt lat="42.47049" lon="2.09731">
        <ele>1758</ele>
        <time>2010-07-01T05:25:08Z</time>
      </trkpt>
      <trkpt lat="42.4705" lon="2.09731">
        <ele>1758</ele>
        <time>2010-07-01T05:25:18Z</time>
      </trkpt>
      <trkpt lat="42.47044" lon="2.09723">
        <ele>1758</ele>
        <time>2010-07-01T05:25:28Z</time>
      </trkpt>
      <trkpt lat="42.47037" lon="2.09709">
        <ele>1757</ele>
        <time>2010-07-01T05:25:38Z</time>
      </trkpt>
      <trkpt lat="42.47027" lon="2.09697">
        <ele>1756</ele>
        <time>2010-07-01T05:25:48Z</time>
      </trkpt>
      <trkpt lat="42.47021" lon="2.0968">
        <ele>1755</ele>
        <time>2010-07-01T05:25:58Z</time>
      </trkpt>
      <trkpt lat="42.4702" lon="2.09667">
        <ele>1754</ele>
        <time>2010-07-01T05:26:08Z</time>
      </trkpt>
      <trkpt lat="42.47018" lon="2.0966">
        <ele>1754</ele>
        <time>2010-07-01T05:26:18Z</time>
      </trkpt>
      <trkpt lat="42.4701" lon="2.09649">
        <ele>1754</ele>
        <time>2010-07-01T05:26:28Z</time>
      </trkpt>
      <trkpt lat="42.47001" lon="2.09639">
        <ele>1754</ele>
        <time>2010-07-01T05:26:38Z</time>
      </trkpt>
      <trkpt lat="42.46993" lon="2.0963">
        <ele>1754</ele>
        <time>2010-07-01T05:26:48Z</time>
      </trkpt>
      <trkpt lat="42.46982" lon="2.09618">
        <ele>1754</ele>
        <time>2010-07-01T05:26:58Z</time>
      </trkpt>
      <trkpt lat="42.46977" lon="2.09609">
        <ele>1753</ele>
        <time>2010-07-01T05:27:08Z</time>
      </trkpt>
      <trkpt lat="42.46975" lon="2.09609">
        <ele>1753</ele>
        <time>2010-07-01T05:27:18Z</time>
      </trkpt>
      <trkpt lat="42.46971" lon="2.0961">
        <ele>1753</ele>
        <time>2010-07-01T05:27:28Z</time>
      </trkpt>
      <trkpt lat="42.46964" lon="2.09605">
        <ele>1753</ele>
        <time>2010-07-01T05:27:38Z</time>
      </trkpt>
      <trkpt lat="42.46959" lon="2.09607">
        <ele>1752</ele>
        <time>2010-07-01T05:27:48Z</time>
      </trkpt>
      <trkpt lat="42.46955" lon="2.09609">
        <ele>1752</ele>
        <time>2010-07-01T05:27:58Z</time>
      </trkpt>
      <trkpt lat="42.46947" lon="2.09606">
        <ele>1752</ele>
        <time>2010-07-01T05:28:08Z</time>
      </trkpt>
      <trkpt lat="42.46939" lon="2.09601">
        <ele>1751</ele>
        <time>2010-07-01T05:28:18Z</time>
      </trkpt>
      <trkpt lat="42.46931" lon="2.09593">
        <ele>1751</ele>
        <time>2010-07-01T05:28:28Z</time>
      </trkpt>
      <trkpt lat="42.46923" lon="2.09587">
        <ele>1751</ele>
        <time>2010-07-01T05:28:38Z</time>
      </trkpt>
      <trkpt lat="42.46927" lon="2.09582">
        <ele>1752</ele>
        <time>2010-07-01T05:28:48Z</time>
      </trkpt>
      <trkpt lat="42.46922" lon="2.09575">
        <ele>1753</ele>
        <time>2010-07-01T05:28:58Z</time>
      </trkpt>
      <trkpt lat="42.46911" lon="2.09562">
        <ele>1756</ele>
        <time>2010-07-01T05:29:08Z</time>
      </trkpt>
      <trkpt lat="42.46903" lon="2.09549">
        <ele>1758</ele>
        <time>2010-07-01T05:29:18Z</time>
      </trkpt>
      <trkpt lat="42.469" lon="2.09538">
        <ele>1759</ele>
        <time>2010-07-01T05:29:28Z</time>
      </trkpt>
      <trkpt lat="42.46886" lon="2.09525">
        <ele>1758</ele>
        <time>2010-07-01T05:29:40Z</time>
      </trkpt>
      <trkpt lat="42.46883" lon="2.09513">
        <ele>1757</ele>
        <time>2010-07-01T05:29:50Z</time>
      </trkpt>
      <trkpt lat="42.46879" lon="2.09501">
        <ele>1757</ele>
        <time>2010-07-01T05:30:00Z</time>
      </trkpt>
      <trkpt lat="42.46871" lon="2.09496">
        <ele>1756</ele>
        <time>2010-07-01T05:30:10Z</time>
      </trkpt>
      <trkpt lat="42.46863" lon="2.09493">
        <ele>1756</ele>
        <time>2010-07-01T05:30:20Z</time>
      </trkpt>
      <trkpt lat="42.46856" lon="2.09486">
        <ele>1756</ele>
        <time>2010-07-01T05:30:30Z</time>
      </trkpt>
      <trkpt lat="42.46848" lon="2.09479">
        <ele>1756</ele>
        <time>2010-07-01T05:30:40Z</time>
      </trkpt>
      <trkpt lat="42.46842" lon="2.09472">
        <ele>1756</ele>
        <time>2010-07-01T05:30:50Z</time>
      </trkpt>
      <trkpt lat="42.46835" lon="2.09463">
        <ele>1757</ele>
        <time>2010-07-01T05:31:00Z</time>
      </trkpt>
      <trkpt lat="42.46831" lon="2.09453">
        <ele>1756</ele>
        <time>2010-07-01T05:31:10Z</time>
      </trkpt>
      <trkpt lat="42.46834" lon="2.09444">
        <ele>1755</ele>
        <time>2010-07-01T05:31:20Z</time>
      </trkpt>
      <trkpt lat="42.46828" lon="2.09425">
        <ele>1754</ele>
        <time>2010-07-01T05:31:32Z</time>
      </trkpt>
      <trkpt lat="42.46826" lon="2.09412">
        <ele>1753</ele>
        <time>2010-07-01T05:31:42Z</time>
      </trkpt>
      <trkpt lat="42.46819" lon="2.09402">
        <ele>1752</ele>
        <time>2010-07-01T05:31:52Z</time>
      </trkpt>
      <trkpt lat="42.46816" lon="2.09391">
        <ele>1752</ele>
        <time>2010-07-01T05:32:02Z</time>
      </trkpt>
      <trkpt lat="42.46811" lon="2.09381">
        <ele>1752</ele>
        <time>2010-07-01T05:32:12Z</time>
      </trkpt>
      <trkpt lat="42.46801" lon="2.09372">
        <ele>1753</ele>
        <time>2010-07-01T05:32:22Z</time>
      </trkpt>
      <trkpt lat="42.46791" lon="2.09359">
        <ele>1754</ele>
        <time>2010-07-01T05:32:34Z</time>
      </trkpt>
      <trkpt lat="42.46789" lon="2.09347">
        <ele>1755</ele>
        <time>2010-07-01T05:32:44Z</time>
      </trkpt>
      <trkpt lat="42.46785" lon="2.09334">
        <ele>1757</ele>
        <time>2010-07-01T05:32:54Z</time>
      </trkpt>
      <trkpt lat="42.4678" lon="2.09326">
        <ele>1759</ele>
        <time>2010-07-01T05:33:04Z</time>
      </trkpt>
      <trkpt lat="42.46774" lon="2.09319">
        <ele>1761</ele>
        <time>2010-07-01T05:33:14Z</time>
      </trkpt>
      <trkpt lat="42.4677" lon="2.09313">
        <ele>1762</ele>
        <time>2010-07-01T05:33:24Z</time>
      </trkpt>
      <trkpt lat="42.46767" lon="2.0931">
        <ele>1764</ele>
        <time>2010-07-01T05:33:34Z</time>
      </trkpt>
      <trkpt lat="42.46765" lon="2.09296">
        <ele>1764</ele>
        <time>2010-07-01T05:33:44Z</time>
      </trkpt>
      <trkpt lat="42.46755" lon="2.09283">
        <ele>1761</ele>
        <time>2010-07-01T05:33:54Z</time>
      </trkpt>
      <trkpt lat="42.4675" lon="2.0927">
        <ele>1760</ele>
        <time>2010-07-01T05:34:04Z</time>
      </trkpt>
      <trkpt lat="42.46745" lon="2.09255">
        <ele>1757</ele>
        <time>2010-07-01T05:34:14Z</time>
      </trkpt>
      <trkpt lat="42.46745" lon="2.09244">
        <ele>1756</ele>
        <time>2010-07-01T05:34:24Z</time>
      </trkpt>
      <trkpt lat="42.4674" lon="2.09233">
        <ele>1755</ele>
        <time>2010-07-01T05:34:34Z</time>
      </trkpt>
      <trkpt lat="42.46732" lon="2.09224">
        <ele>1756</ele>
        <time>2010-07-01T05:34:44Z</time>
      </trkpt>
      <trkpt lat="42.46726" lon="2.09213">
        <ele>1757</ele>
        <time>2010-07-01T05:34:54Z</time>
      </trkpt>
      <trkpt lat="42.46727" lon="2.09203">
        <ele>1758</ele>
        <time>2010-07-01T05:35:04Z</time>
      </trkpt>
      <trkpt lat="42.46723" lon="2.09193">
        <ele>1759</ele>
        <time>2010-07-01T05:35:14Z</time>
      </trkpt>
      <trkpt lat="42.46718" lon="2.09182">
        <ele>1759</ele>
        <time>2010-07-01T05:35:24Z</time>
      </trkpt>
      <trkpt lat="42.4671" lon="2.09169">
        <ele>1758</ele>
        <time>2010-07-01T05:35:34Z</time>
      </trkpt>
      <trkpt lat="42.46705" lon="2.09162">
        <ele>1757</ele>
        <time>2010-07-01T05:35:44Z</time>
      </trkpt>
      <trkpt lat="42.46698" lon="2.09153">
        <ele>1756</ele>
        <time>2010-07-01T05:35:54Z</time>
      </trkpt>
      <trkpt lat="42.46695" lon="2.09146">
        <ele>1756</ele>
        <time>2010-07-01T05:36:04Z</time>
      </trkpt>
      <trkpt lat="42.46691" lon="2.09138">
        <ele>1756</ele>
        <time>2010-07-01T05:36:14Z</time>
      </trkpt>
      <trkpt lat="42.46679" lon="2.0913">
        <ele>1757</ele>
        <time>2010-07-01T05:36:24Z</time>
      </trkpt>
      <trkpt lat="42.46667" lon="2.0912">
        <ele>1758</ele>
        <time>2010-07-01T05:36:36Z</time>
      </trkpt>
      <trkpt lat="42.46659" lon="2.09114">
        <ele>1759</ele>
        <time>2010-07-01T05:36:48Z</time>
      </trkpt>
      <trkpt lat="42.46652" lon="2.09103">
        <ele>1759</ele>
        <time>2010-07-01T05:36:58Z</time>
      </trkpt>
      <trkpt lat="42.46642" lon="2.09098">
        <ele>1760</ele>
        <time>2010-07-01T05:37:14Z</time>
      </trkpt>
      <trkpt lat="42.46628" lon="2.09087">
        <ele>1759</ele>
        <time>2010-07-01T05:37:24Z</time>
      </trkpt>
      <trkpt lat="42.46609" lon="2.09082">
        <ele>1757</ele>
        <time>2010-07-01T05:37:40Z</time>
      </trkpt>
      <trkpt lat="42.46603" lon="2.0908">
        <ele>1757</ele>
        <time>2010-07-01T05:37:50Z</time>
      </trkpt>
      <trkpt lat="42.46598" lon="2.09075">
        <ele>1757</ele>
        <time>2010-07-01T05:38:00Z</time>
      </trkpt>
      <trkpt lat="42.46591" lon="2.09073">
        <ele>1756</ele>
        <time>2010-07-01T05:38:10Z</time>
      </trkpt>
      <trkpt lat="42.46587" lon="2.09079">
        <ele>1755</ele>
        <time>2010-07-01T05:38:20Z</time>
      </trkpt>
      <trkpt lat="42.46585" lon="2.09079">
        <ele>1755</ele>
        <time>2010-07-01T05:38:30Z</time>
      </trkpt>
      <trkpt lat="42.46581" lon="2.09077">
        <ele>1754</ele>
        <time>2010-07-01T05:38:40Z</time>
      </trkpt>
      <trkpt lat="42.46579" lon="2.0908">
        <ele>1754</ele>
        <time>2010-07-01T05:38:50Z</time>
      </trkpt>
      <trkpt lat="42.46579" lon="2.09079">
        <ele>1754</ele>
        <time>2010-07-01T05:39:00Z</time>
      </trkpt>
      <trkpt lat="42.46576" lon="2.09081">
        <ele>1753</ele>
        <time>2010-07-01T05:39:10Z</time>
      </trkpt>
      <trkpt lat="42.46578" lon="2.09081">
        <ele>1753</ele>
        <time>2010-07-01T05:39:20Z</time>
      </trkpt>
      <trkpt lat="42.46578" lon="2.09084">
        <ele>1752</ele>
        <time>2010-07-01T05:39:30Z</time>
      </trkpt>
      <trkpt lat="42.46578" lon="2.09084">
        <ele>1752</ele>
        <time>2010-07-01T05:39:40Z</time>
      </trkpt>
      <trkpt lat="42.46576" lon="2.09085">
        <ele>1752</ele>
        <time>2010-07-01T05:39:50Z</time>
      </trkpt>
      <trkpt lat="42.46573" lon="2.09087">
        <ele>1752</ele>
        <time>2010-07-01T05:40:00Z</time>
      </trkpt>
      <trkpt lat="42.46568" lon="2.09094">
        <ele>1752</ele>
        <time>2010-07-01T05:40:10Z</time>
      </trkpt>
      <trkpt lat="42.46562" lon="2.09099">
        <ele>1752</ele>
        <time>2010-07-01T05:40:20Z</time>
      </trkpt>
      <trkpt lat="42.46557" lon="2.09101">
        <ele>1752</ele>
        <time>2010-07-01T05:40:30Z</time>
      </trkpt>
      <trkpt lat="42.46552" lon="2.09103">
        <ele>1753</ele>
        <time>2010-07-01T05:40:40Z</time>
      </trkpt>
      <trkpt lat="42.46546" lon="2.09108">
        <ele>1753</ele>
        <time>2010-07-01T05:40:50Z</time>
      </trkpt>
      <trkpt lat="42.46542" lon="2.09115">
        <ele>1753</ele>
        <time>2010-07-01T05:41:00Z</time>
      </trkpt>
      <trkpt lat="42.46536" lon="2.09123">
        <ele>1754</ele>
        <time>2010-07-01T05:41:10Z</time>
      </trkpt>
      <trkpt lat="42.46531" lon="2.09129">
        <ele>1754</ele>
        <time>2010-07-01T05:41:20Z</time>
      </trkpt>
      <trkpt lat="42.46526" lon="2.09131">
        <ele>1754</ele>
        <time>2010-07-01T05:41:30Z</time>
      </trkpt>
      <trkpt lat="42.46525" lon="2.0913">
        <ele>1754</ele>
        <time>2010-07-01T05:41:40Z</time>
      </trkpt>
      <trkpt lat="42.46519" lon="2.09136">
        <ele>1755</ele>
        <time>2010-07-01T05:41:50Z</time>
      </trkpt>
      <trkpt lat="42.46511" lon="2.09142">
        <ele>1756</ele>
        <time>2010-07-01T05:42:00Z</time>
      </trkpt>
      <trkpt lat="42.46504" lon="2.09146">
        <ele>1757</ele>
        <time>2010-07-01T05:42:10Z</time>
      </trkpt>
      <trkpt lat="42.46498" lon="2.09147">
        <ele>1758</ele>
        <time>2010-07-01T05:42:20Z</time>
      </trkpt>
      <trkpt lat="42.46488" lon="2.09152">
        <ele>1757</ele>
        <time>2010-07-01T05:42:30Z</time>
      </trkpt>
      <trkpt lat="42.46479" lon="2.09158">
        <ele>1757</ele>
        <time>2010-07-01T05:42:40Z</time>
      </trkpt>
      <trkpt lat="42.46466" lon="2.0916">
        <ele>1756</ele>
        <time>2010-07-01T05:42:53Z</time>
      </trkpt>
      <trkpt lat="42.46452" lon="2.09166">
        <ele>1755</ele>
        <time>2010-07-01T05:43:07Z</time>
      </trkpt>
      <trkpt lat="42.46446" lon="2.09169">
        <ele>1755</ele>
        <time>2010-07-01T05:43:17Z</time>
      </trkpt>
      <trkpt lat="42.46439" lon="2.09174">
        <ele>1755</ele>
        <time>2010-07-01T05:43:29Z</time>
      </trkpt>
      <trkpt lat="42.46428" lon="2.09175">
        <ele>1755</ele>
        <time>2010-07-01T05:43:39Z</time>
      </trkpt>
      <trkpt lat="42.46418" lon="2.09181">
        <ele>1756</ele>
        <time>2010-07-01T05:43:49Z</time>
      </trkpt>
      <trkpt lat="42.4641" lon="2.09185">
        <ele>1756</ele>
        <time>2010-07-01T05:43:59Z</time>
      </trkpt>
      <trkpt lat="42.464" lon="2.09188">
        <ele>1756</ele>
        <time>2010-07-01T05:44:09Z</time>
      </trkpt>
      <trkpt lat="42.46389" lon="2.09196">
        <ele>1755</ele>
        <time>2010-07-01T05:44:21Z</time>
      </trkpt>
      <trkpt lat="42.4638" lon="2.09198">
        <ele>1755</ele>
        <time>2010-07-01T05:44:31Z</time>
      </trkpt>
      <trkpt lat="42.46373" lon="2.09202">
        <ele>1755</ele>
        <time>2010-07-01T05:44:41Z</time>
      </trkpt>
      <trkpt lat="42.46365" lon="2.09202">
        <ele>1754</ele>
        <time>2010-07-01T05:44:51Z</time>
      </trkpt>
      <trkpt lat="42.46361" lon="2.09205">
        <ele>1754</ele>
        <time>2010-07-01T05:45:01Z</time>
      </trkpt>
      <trkpt lat="42.46351" lon="2.09208">
        <ele>1754</ele>
        <time>2010-07-01T05:45:11Z</time>
      </trkpt>
      <trkpt lat="42.46343" lon="2.09209">
        <ele>1754</ele>
        <time>2010-07-01T05:45:21Z</time>
      </trkpt>
      <trkpt lat="42.46336" lon="2.09214">
        <ele>1754</ele>
        <time>2010-07-01T05:45:31Z</time>
      </trkpt>
      <trkpt lat="42.46326" lon="2.09221">
        <ele>1754</ele>
        <time>2010-07-01T05:45:41Z</time>
      </trkpt>
      <trkpt lat="42.46319" lon="2.09227">
        <ele>1754</ele>
        <time>2010-07-01T05:45:51Z</time>
      </trkpt>
      <trkpt lat="42.46312" lon="2.09231">
        <ele>1755</ele>
        <time>2010-07-01T05:46:01Z</time>
      </trkpt>
      <trkpt lat="42.46306" lon="2.09238">
        <ele>1755</ele>
        <time>2010-07-01T05:46:11Z</time>
      </trkpt>
      <trkpt lat="42.46299" lon="2.09238">
        <ele>1755</ele>
        <time>2010-07-01T05:46:21Z</time>
      </trkpt>
      <trkpt lat="42.46289" lon="2.09244">
        <ele>1756</ele>
        <time>2010-07-01T05:46:32Z</time>
      </trkpt>
      <trkpt lat="42.46275" lon="2.09242">
        <ele>1756</ele>
        <time>2010-07-01T05:46:44Z</time>
      </trkpt>
      <trkpt lat="42.46274" lon="2.09249">
        <ele>1756</ele>
        <time>2010-07-01T05:46:54Z</time>
      </trkpt>
      <trkpt lat="42.46268" lon="2.09256">
        <ele>1757</ele>
        <time>2010-07-01T05:47:04Z</time>
      </trkpt>
      <trkpt lat="42.46262" lon="2.0926">
        <ele>1757</ele>
        <time>2010-07-01T05:47:14Z</time>
      </trkpt>
      <trkpt lat="42.46255" lon="2.09264">
        <ele>1757</ele>
        <time>2010-07-01T05:47:24Z</time>
      </trkpt>
      <trkpt lat="42.46249" lon="2.09271">
        <ele>1757</ele>
        <time>2010-07-01T05:47:34Z</time>
      </trkpt>
      <trkpt lat="42.46244" lon="2.09281">
        <ele>1757</ele>
        <time>2010-07-01T05:47:44Z</time>
      </trkpt>
      <trkpt lat="42.46238" lon="2.09289">
        <ele>1757</ele>
        <time>2010-07-01T05:47:54Z</time>
      </trkpt>
      <trkpt lat="42.46233" lon="2.09302">
        <ele>1757</ele>
        <time>2010-07-01T05:48:04Z</time>
      </trkpt>
      <trkpt lat="42.4623" lon="2.09312">
        <ele>1757</ele>
        <time>2010-07-01T05:48:14Z</time>
      </trkpt>
      <trkpt lat="42.46227" lon="2.09318">
        <ele>1757</ele>
        <time>2010-07-01T05:48:24Z</time>
      </trkpt>
      <trkpt lat="42.46221" lon="2.09322">
        <ele>1758</ele>
        <time>2010-07-01T05:48:34Z</time>
      </trkpt>
      <trkpt lat="42.46212" lon="2.09328">
        <ele>1759</ele>
        <time>2010-07-01T05:48:44Z</time>
      </trkpt>
      <trkpt lat="42.46207" lon="2.09335">
        <ele>1760</ele>
        <time>2010-07-01T05:48:54Z</time>
      </trkpt>
      <trkpt lat="42.462" lon="2.09341">
        <ele>1761</ele>
        <time>2010-07-01T05:49:05Z</time>
      </trkpt>
      <trkpt lat="42.46191" lon="2.09344">
        <ele>1761</ele>
        <time>2010-07-01T05:49:15Z</time>
      </trkpt>
      <trkpt lat="42.46184" lon="2.09351">
        <ele>1760</ele>
        <time>2010-07-01T05:49:25Z</time>
      </trkpt>
      <trkpt lat="42.46175" lon="2.0936">
        <ele>1759</ele>
        <time>2010-07-01T05:49:35Z</time>
      </trkpt>
      <trkpt lat="42.46167" lon="2.09367">
        <ele>1758</ele>
        <time>2010-07-01T05:49:45Z</time>
      </trkpt>
      <trkpt lat="42.46159" lon="2.09376">
        <ele>1757</ele>
        <time>2010-07-01T05:49:55Z</time>
      </trkpt>
      <trkpt lat="42.46152" lon="2.09385">
        <ele>1757</ele>
        <time>2010-07-01T05:50:05Z</time>
      </trkpt>
      <trkpt lat="42.46143" lon="2.09393">
        <ele>1759</ele>
        <time>2010-07-01T05:50:17Z</time>
      </trkpt>
      <trkpt lat="42.46134" lon="2.09398">
        <ele>1760</ele>
        <time>2010-07-01T05:50:27Z</time>
      </trkpt>
      <trkpt lat="42.46128" lon="2.09404">
        <ele>1761</ele>
        <time>2010-07-01T05:50:37Z</time>
      </trkpt>
      <trkpt lat="42.46127" lon="2.09407">
        <ele>1762</ele>
        <time>2010-07-01T05:50:47Z</time>
      </trkpt>
      <trkpt lat="42.46124" lon="2.09409">
        <ele>1762</ele>
        <time>2010-07-01T05:50:57Z</time>
      </trkpt>
      <trkpt lat="42.46118" lon="2.09415">
        <ele>1762</ele>
        <time>2010-07-01T05:51:07Z</time>
      </trkpt>
      <trkpt lat="42.46111" lon="2.0942">
        <ele>1761</ele>
        <time>2010-07-01T05:51:17Z</time>
      </trkpt>
      <trkpt lat="42.46105" lon="2.09423">
        <ele>1761</ele>
        <time>2010-07-01T05:51:27Z</time>
      </trkpt>
      <trkpt lat="42.461" lon="2.09429">
        <ele>1761</ele>
        <time>2010-07-01T05:51:37Z</time>
      </trkpt>
      <trkpt lat="42.46092" lon="2.09435">
        <ele>1761</ele>
        <time>2010-07-01T05:51:47Z</time>
      </trkpt>
      <trkpt lat="42.46085" lon="2.09442">
        <ele>1761</ele>
        <time>2010-07-01T05:51:57Z</time>
      </trkpt>
      <trkpt lat="42.46083" lon="2.09447">
        <ele>1761</ele>
        <time>2010-07-01T05:52:07Z</time>
      </trkpt>
      <trkpt lat="42.46076" lon="2.09457">
        <ele>1761</ele>
        <time>2010-07-01T05:52:17Z</time>
      </trkpt>
      <trkpt lat="42.46066" lon="2.09465">
        <ele>1761</ele>
        <time>2010-07-01T05:52:27Z</time>
      </trkpt>
      <trkpt lat="42.4606" lon="2.0947">
        <ele>1761</ele>
        <time>2010-07-01T05:52:37Z</time>
      </trkpt>
      <trkpt lat="42.46052" lon="2.09474">
        <ele>1761</ele>
        <time>2010-07-01T05:52:47Z</time>
      </trkpt>
      <trkpt lat="42.46043" lon="2.09487">
        <ele>1760</ele>
        <time>2010-07-01T05:52:59Z</time>
      </trkpt>
      <trkpt lat="42.46035" lon="2.09495">
        <ele>1760</ele>
        <time>2010-07-01T05:53:09Z</time>
      </trkpt>
      <trkpt lat="42.4603" lon="2.09505">
        <ele>1760</ele>
        <time>2010-07-01T05:53:19Z</time>
      </trkpt>
      <trkpt lat="42.46023" lon="2.09504">
        <ele>1759</ele>
        <time>2010-07-01T05:53:29Z</time>
      </trkpt>
      <trkpt lat="42.46019" lon="2.09511">
        <ele>1759</ele>
        <time>2010-07-01T05:53:39Z</time>
      </trkpt>
      <trkpt lat="42.46013" lon="2.09516">
        <ele>1759</ele>
        <time>2010-07-01T05:53:49Z</time>
      </trkpt>
      <trkpt lat="42.46011" lon="2.09522">
        <ele>1759</ele>
        <time>2010-07-01T05:53:59Z</time>
      </trkpt>
      <trkpt lat="42.46006" lon="2.0953">
        <ele>1758</ele>
        <time>2010-07-01T05:54:09Z</time>
      </trkpt>
      <trkpt lat="42.46002" lon="2.09536">
        <ele>1759</ele>
        <time>2010-07-01T05:54:19Z</time>
      </trkpt>
      <trkpt lat="42.45995" lon="2.09542">
        <ele>1763</ele>
        <time>2010-07-01T05:54:29Z</time>
      </trkpt>
      <trkpt lat="42.45988" lon="2.09548">
        <ele>1766</ele>
        <time>2010-07-01T05:54:39Z</time>
      </trkpt>
      <trkpt lat="42.45981" lon="2.09551">
        <ele>1769</ele>
        <time>2010-07-01T05:54:49Z</time>
      </trkpt>
      <trkpt lat="42.45981" lon="2.09543">
        <ele>1771</ele>
        <time>2010-07-01T05:54:59Z</time>
      </trkpt>
      <trkpt lat="42.45984" lon="2.09549">
        <ele>1771</ele>
        <time>2010-07-01T05:55:09Z</time>
      </trkpt>
      <trkpt lat="42.45975" lon="2.09557">
        <ele>1768</ele>
        <time>2010-07-01T05:55:19Z</time>
      </trkpt>
      <trkpt lat="42.45968" lon="2.09565">
        <ele>1766</ele>
        <time>2010-07-01T05:55:29Z</time>
      </trkpt>
      <trkpt lat="42.45958" lon="2.09571">
        <ele>1764</ele>
        <time>2010-07-01T05:55:39Z</time>
      </trkpt>
      <trkpt lat="42.45955" lon="2.09583">
        <ele>1761</ele>
        <time>2010-07-01T05:55:49Z</time>
      </trkpt>
      <trkpt lat="42.45949" lon="2.0959">
        <ele>1761</ele>
        <time>2010-07-01T05:55:59Z</time>
      </trkpt>
      <trkpt lat="42.45942" lon="2.09597">
        <ele>1762</ele>
        <time>2010-07-01T05:56:09Z</time>
      </trkpt>
      <trkpt lat="42.45937" lon="2.09606">
        <ele>1764</ele>
        <time>2010-07-01T05:56:19Z</time>
      </trkpt>
      <trkpt lat="42.45931" lon="2.09614">
        <ele>1765</ele>
        <time>2010-07-01T05:56:29Z</time>
      </trkpt>
      <trkpt lat="42.45928" lon="2.0962">
        <ele>1766</ele>
        <time>2010-07-01T05:56:39Z</time>
      </trkpt>
      <trkpt lat="42.45922" lon="2.09628">
        <ele>1766</ele>
        <time>2010-07-01T05:56:49Z</time>
      </trkpt>
      <trkpt lat="42.45919" lon="2.09633">
        <ele>1767</ele>
        <time>2010-07-01T05:56:59Z</time>
      </trkpt>
      <trkpt lat="42.45913" lon="2.0964">
        <ele>1767</ele>
        <time>2010-07-01T05:57:09Z</time>
      </trkpt>
      <trkpt lat="42.45908" lon="2.09644">
        <ele>1767</ele>
        <time>2010-07-01T05:57:19Z</time>
      </trkpt>
      <trkpt lat="42.45902" lon="2.0965">
        <ele>1768</ele>
        <time>2010-07-01T05:57:29Z</time>
      </trkpt>
      <trkpt lat="42.45899" lon="2.0965">
        <ele>1769</ele>
        <time>2010-07-01T05:57:39Z</time>
      </trkpt>
      <trkpt lat="42.45899" lon="2.09648">
        <ele>1770</ele>
        <time>2010-07-01T05:57:49Z</time>
      </trkpt>
      <trkpt lat="42.45901" lon="2.09643">
        <ele>1772</ele>
        <time>2010-07-01T05:57:59Z</time>
      </trkpt>
      <trkpt lat="42.459" lon="2.09639">
        <ele>1774</ele>
        <time>2010-07-01T05:58:09Z</time>
      </trkpt>
      <trkpt lat="42.45906" lon="2.09637">
        <ele>1777</ele>
        <time>2010-07-01T05:58:19Z</time>
      </trkpt>
      <trkpt lat="42.45912" lon="2.09649">
        <ele>1775</ele>
        <time>2010-07-01T05:58:29Z</time>
      </trkpt>
      <trkpt lat="42.45909" lon="2.09653">
        <ele>1772</ele>
        <time>2010-07-01T05:58:39Z</time>
      </trkpt>
      <trkpt lat="42.45895" lon="2.09648">
        <ele>1762</ele>
        <time>2010-07-01T05:58:49Z</time>
      </trkpt>
      <trkpt lat="42.45891" lon="2.09657">
        <ele>1757</ele>
        <time>2010-07-01T05:58:59Z</time>
      </trkpt>
      <trkpt lat="42.45891" lon="2.09666">
        <ele>1753</ele>
        <time>2010-07-01T05:59:09Z</time>
      </trkpt>
      <trkpt lat="42.45892" lon="2.09669">
        <ele>1753</ele>
        <time>2010-07-01T05:59:19Z</time>
      </trkpt>
      <trkpt lat="42.45894" lon="2.09671">
        <ele>1755</ele>
        <time>2010-07-01T05:59:29Z</time>
      </trkpt>
      <trkpt lat="42.45895" lon="2.09669">
        <ele>1757</ele>
        <time>2010-07-01T05:59:39Z</time>
      </trkpt>
      <trkpt lat="42.45894" lon="2.09663">
        <ele>1761</ele>
        <time>2010-07-01T05:59:49Z</time>
      </trkpt>
      <trkpt lat="42.45892" lon="2.09658">
        <ele>1766</ele>
        <time>2010-07-01T05:59:59Z</time>
      </trkpt>
      <trkpt lat="42.4589" lon="2.09656">
        <ele>1767</ele>
        <time>2010-07-01T06:00:09Z</time>
      </trkpt>
      <trkpt lat="42.45889" lon="2.09653">
        <ele>1766</ele>
        <time>2010-07-01T06:00:19Z</time>
      </trkpt>
      <trkpt lat="42.4589" lon="2.09648">
        <ele>1766</ele>
        <time>2010-07-01T06:00:29Z</time>
      </trkpt>
      <trkpt lat="42.45886" lon="2.09651">
        <ele>1764</ele>
        <time>2010-07-01T06:00:39Z</time>
      </trkpt>
      <trkpt lat="42.45884" lon="2.09653">
        <ele>1764</ele>
        <time>2010-07-01T06:00:49Z</time>
      </trkpt>
      <trkpt lat="42.45888" lon="2.09647">
        <ele>1763</ele>
        <time>2010-07-01T06:00:59Z</time>
      </trkpt>
      <trkpt lat="42.45886" lon="2.09654">
        <ele>1762</ele>
        <time>2010-07-01T06:01:09Z</time>
      </trkpt>
      <trkpt lat="42.45882" lon="2.09657">
        <ele>1762</ele>
        <time>2010-07-01T06:01:19Z</time>
      </trkpt>
      <trkpt lat="42.45879" lon="2.09651">
        <ele>1762</ele>
        <time>2010-07-01T06:01:29Z</time>
      </trkpt>
      <trkpt lat="42.4588" lon="2.09652">
        <ele>1762</ele>
        <time>2010-07-01T06:01:39Z</time>
      </trkpt>
      <trkpt lat="42.45881" lon="2.09653">
        <ele>1762</ele>
        <time>2010-07-01T06:01:49Z</time>
      </trkpt>
      <trkpt lat="42.45882" lon="2.09653">
        <ele>1762</ele>
        <time>2010-07-01T06:01:59Z</time>
      </trkpt>
      <trkpt lat="42.45881" lon="2.09652">
        <ele>1762</ele>
        <time>2010-07-01T06:02:09Z</time>
      </trkpt>
      <trkpt lat="42.45882" lon="2.09657">
        <ele>1763</ele>
        <time>2010-07-01T06:02:19Z</time>
      </trkpt>
      <trkpt lat="42.45878" lon="2.09653">
        <ele>1764</ele>
        <time>2010-07-01T06:02:29Z</time>
      </trkpt>
      <trkpt lat="42.45881" lon="2.09653">
        <ele>1764</ele>
        <time>2010-07-01T06:02:41Z</time>
      </trkpt>
      <trkpt lat="42.45876" lon="2.09652">
        <ele>1766</ele>
        <time>2010-07-01T06:02:51Z</time>
      </trkpt>
      <trkpt lat="42.4587" lon="2.09657">
        <ele>1769</ele>
        <time>2010-07-01T06:03:01Z</time>
      </trkpt>
      <trkpt lat="42.45858" lon="2.09659">
        <ele>1773</ele>
        <time>2010-07-01T06:03:11Z</time>
      </trkpt>
      <trkpt lat="42.45851" lon="2.0966">
        <ele>1776</ele>
        <time>2010-07-01T06:03:21Z</time>
      </trkpt>
      <trkpt lat="42.45852" lon="2.09661">
        <ele>1776</ele>
        <time>2010-07-01T06:03:31Z</time>
      </trkpt>
      <trkpt lat="42.45845" lon="2.09671">
        <ele>1776</ele>
        <time>2010-07-01T06:03:41Z</time>
      </trkpt>
      <trkpt lat="42.45836" lon="2.09671">
        <ele>1777</ele>
        <time>2010-07-01T06:03:51Z</time>
      </trkpt>
      <trkpt lat="42.45837" lon="2.09662">
        <ele>1778</ele>
        <time>2010-07-01T06:04:01Z</time>
      </trkpt>
      <trkpt lat="42.45834" lon="2.09656">
        <ele>1778</ele>
        <time>2010-07-01T06:04:11Z</time>
      </trkpt>
      <trkpt lat="42.45831" lon="2.09654">
        <ele>1778</ele>
        <time>2010-07-01T06:04:21Z</time>
      </trkpt>
      <trkpt lat="42.45829" lon="2.09653">
        <ele>1778</ele>
        <time>2010-07-01T06:04:31Z</time>
      </trkpt>
      <trkpt lat="42.4583" lon="2.09655">
        <ele>1779</ele>
        <time>2010-07-01T06:04:41Z</time>
      </trkpt>
      <trkpt lat="42.45834" lon="2.09661">
        <ele>1779</ele>
        <time>2010-07-01T06:04:51Z</time>
      </trkpt>
      <trkpt lat="42.45834" lon="2.0966">
        <ele>1779</ele>
        <time>2010-07-01T06:05:01Z</time>
      </trkpt>
      <trkpt lat="42.45834" lon="2.09655">
        <ele>1780</ele>
        <time>2010-07-01T06:05:11Z</time>
      </trkpt>
      <trkpt lat="42.4583" lon="2.09662">
        <ele>1780</ele>
        <time>2010-07-01T06:05:21Z</time>
      </trkpt>
      <trkpt lat="42.45826" lon="2.09667">
        <ele>1781</ele>
        <time>2010-07-01T06:05:31Z</time>
      </trkpt>
      <trkpt lat="42.45825" lon="2.09663">
        <ele>1781</ele>
        <time>2010-07-01T06:05:41Z</time>
      </trkpt>
      <trkpt lat="42.45821" lon="2.09662">
        <ele>1782</ele>
        <time>2010-07-01T06:05:53Z</time>
      </trkpt>
      <trkpt lat="42.45816" lon="2.09668">
        <ele>1783</ele>
        <time>2010-07-01T06:06:03Z</time>
      </trkpt>
      <trkpt lat="42.45812" lon="2.09671">
        <ele>1784</ele>
        <time>2010-07-01T06:06:13Z</time>
      </trkpt>
      <trkpt lat="42.45807" lon="2.0967">
        <ele>1785</ele>
        <time>2010-07-01T06:06:23Z</time>
      </trkpt>
      <trkpt lat="42.45802" lon="2.09664">
        <ele>1786</ele>
        <time>2010-07-01T06:06:33Z</time>
      </trkpt>
      <trkpt lat="42.45802" lon="2.09659">
        <ele>1787</ele>
        <time>2010-07-01T06:06:43Z</time>
      </trkpt>
      <trkpt lat="42.45803" lon="2.09646">
        <ele>1790</ele>
        <time>2010-07-01T06:06:53Z</time>
      </trkpt>
      <trkpt lat="42.45806" lon="2.09641">
        <ele>1791</ele>
        <time>2010-07-01T06:07:03Z</time>
      </trkpt>
      <trkpt lat="42.45808" lon="2.09639">
        <ele>1791</ele>
        <time>2010-07-01T06:07:13Z</time>
      </trkpt>
      <trkpt lat="42.45808" lon="2.09639">
        <ele>1791</ele>
        <time>2010-07-01T06:07:23Z</time>
      </trkpt>
      <trkpt lat="42.45807" lon="2.0964">
        <ele>1792</ele>
        <time>2010-07-01T06:07:33Z</time>
      </trkpt>
      <trkpt lat="42.45802" lon="2.09647">
        <ele>1788</ele>
        <time>2010-07-01T06:07:43Z</time>
      </trkpt>
      <trkpt lat="42.45805" lon="2.09651">
        <ele>1784</ele>
        <time>2010-07-01T06:07:53Z</time>
      </trkpt>
      <trkpt lat="42.4581" lon="2.09653">
        <ele>1780</ele>
        <time>2010-07-01T06:08:03Z</time>
      </trkpt>
      <trkpt lat="42.45805" lon="2.09659">
        <ele>1774</ele>
        <time>2010-07-01T06:08:13Z</time>
      </trkpt>
      <trkpt lat="42.45798" lon="2.09659">
        <ele>1768</ele>
        <time>2010-07-01T06:08:23Z</time>
      </trkpt>
      <trkpt lat="42.45804" lon="2.09662">
        <ele>1767</ele>
        <time>2010-07-01T06:08:33Z</time>
      </trkpt>
      <trkpt lat="42.45805" lon="2.09658">
        <ele>1768</ele>
        <time>2010-07-01T06:08:43Z</time>
      </trkpt>
      <trkpt lat="42.45804" lon="2.09651">
        <ele>1770</ele>
        <time>2010-07-01T06:08:53Z</time>
      </trkpt>
      <trkpt lat="42.45793" lon="2.09655">
        <ele>1774</ele>
        <time>2010-07-01T06:09:03Z</time>
      </trkpt>
      <trkpt lat="42.45785" lon="2.09655">
        <ele>1778</ele>
        <time>2010-07-01T06:09:13Z</time>
      </trkpt>
      <trkpt lat="42.45781" lon="2.09663">
        <ele>1779</ele>
        <time>2010-07-01T06:09:23Z</time>
      </trkpt>
      <trkpt lat="42.45772" lon="2.09664">
        <ele>1780</ele>
        <time>2010-07-01T06:09:33Z</time>
      </trkpt>
      <trkpt lat="42.45767" lon="2.09668">
        <ele>1780</ele>
        <time>2010-07-01T06:09:43Z</time>
      </trkpt>
      <trkpt lat="42.45757" lon="2.09669">
        <ele>1781</ele>
        <time>2010-07-01T06:09:55Z</time>
      </trkpt>
      <trkpt lat="42.45756" lon="2.09674">
        <ele>1781</ele>
        <time>2010-07-01T06:10:05Z</time>
      </trkpt>
      <trkpt lat="42.45746" lon="2.09678">
        <ele>1784</ele>
        <time>2010-07-01T06:10:17Z</time>
      </trkpt>
      <trkpt lat="42.45745" lon="2.09686">
        <ele>1787</ele>
        <time>2010-07-01T06:10:27Z</time>
      </trkpt>
      <trkpt lat="42.45736" lon="2.09692">
        <ele>1792</ele>
        <time>2010-07-01T06:10:37Z</time>
      </trkpt>
      <trkpt lat="42.4573" lon="2.09698">
        <ele>1795</ele>
        <time>2010-07-01T06:10:47Z</time>
      </trkpt>
      <trkpt lat="42.45733" lon="2.09705">
        <ele>1797</ele>
        <time>2010-07-01T06:10:57Z</time>
      </trkpt>
      <trkpt lat="42.45728" lon="2.09713">
        <ele>1799</ele>
        <time>2010-07-01T06:11:07Z</time>
      </trkpt>
      <trkpt lat="42.4572" lon="2.09726">
        <ele>1799</ele>
        <time>2010-07-01T06:11:17Z</time>
      </trkpt>
      <trkpt lat="42.45713" lon="2.09736">
        <ele>1798</ele>
        <time>2010-07-01T06:11:27Z</time>
      </trkpt>
      <trkpt lat="42.45705" lon="2.09744">
        <ele>1798</ele>
        <time>2010-07-01T06:11:37Z</time>
      </trkpt>
      <trkpt lat="42.45704" lon="2.09747">
        <ele>1798</ele>
        <time>2010-07-01T06:11:47Z</time>
      </trkpt>
      <trkpt lat="42.45701" lon="2.09752">
        <ele>1798</ele>
        <time>2010-07-01T06:11:57Z</time>
      </trkpt>
      <trkpt lat="42.45702" lon="2.09757">
        <ele>1798</ele>
        <time>2010-07-01T06:12:07Z</time>
      </trkpt>
      <trkpt lat="42.45697" lon="2.09764">
        <ele>1799</ele>
        <time>2010-07-01T06:12:17Z</time>
      </trkpt>
      <trkpt lat="42.45686" lon="2.09773">
        <ele>1800</ele>
        <time>2010-07-01T06:12:27Z</time>
      </trkpt>
      <trkpt lat="42.45683" lon="2.09781">
        <ele>1801</ele>
        <time>2010-07-01T06:12:37Z</time>
      </trkpt>
      <trkpt lat="42.4568" lon="2.09787">
        <ele>1801</ele>
        <time>2010-07-01T06:12:47Z</time>
      </trkpt>
      <trkpt lat="42.45678" lon="2.09798">
        <ele>1802</ele>
        <time>2010-07-01T06:12:57Z</time>
      </trkpt>
      <trkpt lat="42.45673" lon="2.09806">
        <ele>1803</ele>
        <time>2010-07-01T06:13:07Z</time>
      </trkpt>
      <trkpt lat="42.45664" lon="2.09816">
        <ele>1805</ele>
        <time>2010-07-01T06:13:17Z</time>
      </trkpt>
      <trkpt lat="42.45664" lon="2.09821">
        <ele>1805</ele>
        <time>2010-07-01T06:13:27Z</time>
      </trkpt>
      <trkpt lat="42.45657" lon="2.0983">
        <ele>1807</ele>
        <time>2010-07-01T06:13:37Z</time>
      </trkpt>
      <trkpt lat="42.45652" lon="2.09832">
        <ele>1809</ele>
        <time>2010-07-01T06:13:47Z</time>
      </trkpt>
      <trkpt lat="42.45651" lon="2.09843">
        <ele>1812</ele>
        <time>2010-07-01T06:13:57Z</time>
      </trkpt>
      <trkpt lat="42.45649" lon="2.0985">
        <ele>1813</ele>
        <time>2010-07-01T06:14:07Z</time>
      </trkpt>
      <trkpt lat="42.45644" lon="2.09854">
        <ele>1815</ele>
        <time>2010-07-01T06:14:17Z</time>
      </trkpt>
      <trkpt lat="42.45642" lon="2.09864">
        <ele>1816</ele>
        <time>2010-07-01T06:14:27Z</time>
      </trkpt>
      <trkpt lat="42.45639" lon="2.0987">
        <ele>1815</ele>
        <time>2010-07-01T06:14:37Z</time>
      </trkpt>
      <trkpt lat="42.45635" lon="2.0988">
        <ele>1814</ele>
        <time>2010-07-01T06:14:47Z</time>
      </trkpt>
      <trkpt lat="42.45625" lon="2.09889">
        <ele>1813</ele>
        <time>2010-07-01T06:14:57Z</time>
      </trkpt>
      <trkpt lat="42.45618" lon="2.09896">
        <ele>1811</ele>
        <time>2010-07-01T06:15:07Z</time>
      </trkpt>
      <trkpt lat="42.45607" lon="2.09903">
        <ele>1813</ele>
        <time>2010-07-01T06:15:17Z</time>
      </trkpt>
      <trkpt lat="42.45601" lon="2.09908">
        <ele>1815</ele>
        <time>2010-07-01T06:15:27Z</time>
      </trkpt>
      <trkpt lat="42.45602" lon="2.09909">
        <ele>1815</ele>
        <time>2010-07-01T06:15:37Z</time>
      </trkpt>
      <trkpt lat="42.45593" lon="2.09914">
        <ele>1819</ele>
        <time>2010-07-01T06:15:47Z</time>
      </trkpt>
      <trkpt lat="42.45592" lon="2.09924">
        <ele>1821</ele>
        <time>2010-07-01T06:15:57Z</time>
      </trkpt>
      <trkpt lat="42.45593" lon="2.09931">
        <ele>1823</ele>
        <time>2010-07-01T06:16:07Z</time>
      </trkpt>
      <trkpt lat="42.45586" lon="2.09937">
        <ele>1824</ele>
        <time>2010-07-01T06:16:17Z</time>
      </trkpt>
      <trkpt lat="42.45577" lon="2.09943">
        <ele>1825</ele>
        <time>2010-07-01T06:16:27Z</time>
      </trkpt>
      <trkpt lat="42.45574" lon="2.09948">
        <ele>1826</ele>
        <time>2010-07-01T06:16:37Z</time>
      </trkpt>
      <trkpt lat="42.45567" lon="2.09952">
        <ele>1827</ele>
        <time>2010-07-01T06:16:47Z</time>
      </trkpt>
      <trkpt lat="42.45564" lon="2.09961">
        <ele>1827</ele>
        <time>2010-07-01T06:16:57Z</time>
      </trkpt>
      <trkpt lat="42.4556" lon="2.09969">
        <ele>1827</ele>
        <time>2010-07-01T06:17:07Z</time>
      </trkpt>
      <trkpt lat="42.45559" lon="2.09976">
        <ele>1826</ele>
        <time>2010-07-01T06:17:17Z</time>
      </trkpt>
      <trkpt lat="42.45551" lon="2.09984">
        <ele>1826</ele>
        <time>2010-07-01T06:17:27Z</time>
      </trkpt>
      <trkpt lat="42.45541" lon="2.0999">
        <ele>1826</ele>
        <time>2010-07-01T06:17:37Z</time>
      </trkpt>
      <trkpt lat="42.45538" lon="2.09994">
        <ele>1826</ele>
        <time>2010-07-01T06:17:47Z</time>
      </trkpt>
      <trkpt lat="42.45531" lon="2.09998">
        <ele>1829</ele>
        <time>2010-07-01T06:17:57Z</time>
      </trkpt>
      <trkpt lat="42.45528" lon="2.10001">
        <ele>1830</ele>
        <time>2010-07-01T06:18:07Z</time>
      </trkpt>
      <trkpt lat="42.45527" lon="2.10007">
        <ele>1832</ele>
        <time>2010-07-01T06:18:17Z</time>
      </trkpt>
      <trkpt lat="42.45526" lon="2.10013">
        <ele>1834</ele>
        <time>2010-07-01T06:18:27Z</time>
      </trkpt>
      <trkpt lat="42.45523" lon="2.1002">
        <ele>1835</ele>
        <time>2010-07-01T06:18:37Z</time>
      </trkpt>
      <trkpt lat="42.45524" lon="2.10026">
        <ele>1836</ele>
        <time>2010-07-01T06:18:47Z</time>
      </trkpt>
      <trkpt lat="42.45521" lon="2.10035">
        <ele>1838</ele>
        <time>2010-07-01T06:18:57Z</time>
      </trkpt>
      <trkpt lat="42.45518" lon="2.10045">
        <ele>1839</ele>
        <time>2010-07-01T06:19:07Z</time>
      </trkpt>
      <trkpt lat="42.45512" lon="2.10057">
        <ele>1841</ele>
        <time>2010-07-01T06:19:17Z</time>
      </trkpt>
      <trkpt lat="42.45516" lon="2.10066">
        <ele>1842</ele>
        <time>2010-07-01T06:19:27Z</time>
      </trkpt>
      <trkpt lat="42.45518" lon="2.10075">
        <ele>1841</ele>
        <time>2010-07-01T06:19:37Z</time>
      </trkpt>
      <trkpt lat="42.45507" lon="2.10085">
        <ele>1840</ele>
        <time>2010-07-01T06:19:47Z</time>
      </trkpt>
      <trkpt lat="42.45501" lon="2.10092">
        <ele>1840</ele>
        <time>2010-07-01T06:19:57Z</time>
      </trkpt>
      <trkpt lat="42.45495" lon="2.10098">
        <ele>1839</ele>
        <time>2010-07-01T06:20:07Z</time>
      </trkpt>
      <trkpt lat="42.45484" lon="2.10105">
        <ele>1840</ele>
        <time>2010-07-01T06:20:17Z</time>
      </trkpt>
      <trkpt lat="42.45478" lon="2.10109">
        <ele>1841</ele>
        <time>2010-07-01T06:20:27Z</time>
      </trkpt>
      <trkpt lat="42.45469" lon="2.10116">
        <ele>1844</ele>
        <time>2010-07-01T06:20:37Z</time>
      </trkpt>
      <trkpt lat="42.45464" lon="2.10119">
        <ele>1845</ele>
        <time>2010-07-01T06:20:47Z</time>
      </trkpt>
      <trkpt lat="42.45459" lon="2.10121">
        <ele>1846</ele>
        <time>2010-07-01T06:20:57Z</time>
      </trkpt>
      <trkpt lat="42.45458" lon="2.10125">
        <ele>1846</ele>
        <time>2010-07-01T06:21:07Z</time>
      </trkpt>
      <trkpt lat="42.45459" lon="2.10132">
        <ele>1845</ele>
        <time>2010-07-01T06:21:17Z</time>
      </trkpt>
      <trkpt lat="42.45451" lon="2.10137">
        <ele>1842</ele>
        <time>2010-07-01T06:21:27Z</time>
      </trkpt>
      <trkpt lat="42.45448" lon="2.10142">
        <ele>1840</ele>
        <time>2010-07-01T06:21:37Z</time>
      </trkpt>
      <trkpt lat="42.45439" lon="2.10149">
        <ele>1837</ele>
        <time>2010-07-01T06:21:47Z</time>
      </trkpt>
      <trkpt lat="42.45435" lon="2.10153">
        <ele>1838</ele>
        <time>2010-07-01T06:21:57Z</time>
      </trkpt>
      <trkpt lat="42.45432" lon="2.10158">
        <ele>1841</ele>
        <time>2010-07-01T06:22:07Z</time>
      </trkpt>
      <trkpt lat="42.45426" lon="2.1016">
        <ele>1844</ele>
        <time>2010-07-01T06:22:17Z</time>
      </trkpt>
      <trkpt lat="42.45421" lon="2.10163">
        <ele>1848</ele>
        <time>2010-07-01T06:22:27Z</time>
      </trkpt>
      <trkpt lat="42.45416" lon="2.10163">
        <ele>1850</ele>
        <time>2010-07-01T06:22:37Z</time>
      </trkpt>
      <trkpt lat="42.45414" lon="2.10163">
        <ele>1851</ele>
        <time>2010-07-01T06:22:47Z</time>
      </trkpt>
      <trkpt lat="42.45409" lon="2.10166">
        <ele>1851</ele>
        <time>2010-07-01T06:22:57Z</time>
      </trkpt>
      <trkpt lat="42.45403" lon="2.10167">
        <ele>1851</ele>
        <time>2010-07-01T06:23:07Z</time>
      </trkpt>
      <trkpt lat="42.45403" lon="2.10174">
        <ele>1852</ele>
        <time>2010-07-01T06:23:17Z</time>
      </trkpt>
      <trkpt lat="42.45401" lon="2.10181">
        <ele>1852</ele>
        <time>2010-07-01T06:23:27Z</time>
      </trkpt>
      <trkpt lat="42.45397" lon="2.10187">
        <ele>1852</ele>
        <time>2010-07-01T06:23:37Z</time>
      </trkpt>
      <trkpt lat="42.45393" lon="2.10194">
        <ele>1852</ele>
        <time>2010-07-01T06:23:47Z</time>
      </trkpt>
      <trkpt lat="42.45387" lon="2.10204">
        <ele>1853</ele>
        <time>2010-07-01T06:23:57Z</time>
      </trkpt>
      <trkpt lat="42.45381" lon="2.10208">
        <ele>1853</ele>
        <time>2010-07-01T06:24:07Z</time>
      </trkpt>
      <trkpt lat="42.4538" lon="2.10216">
        <ele>1853</ele>
        <time>2010-07-01T06:24:17Z</time>
      </trkpt>
      <trkpt lat="42.45374" lon="2.10221">
        <ele>1853</ele>
        <time>2010-07-01T06:24:27Z</time>
      </trkpt>
      <trkpt lat="42.45368" lon="2.10227">
        <ele>1853</ele>
        <time>2010-07-01T06:24:37Z</time>
      </trkpt>
      <trkpt lat="42.45366" lon="2.10231">
        <ele>1853</ele>
        <time>2010-07-01T06:24:47Z</time>
      </trkpt>
      <trkpt lat="42.45365" lon="2.10239">
        <ele>1853</ele>
        <time>2010-07-01T06:24:57Z</time>
      </trkpt>
      <trkpt lat="42.45362" lon="2.10246">
        <ele>1853</ele>
        <time>2010-07-01T06:25:07Z</time>
      </trkpt>
      <trkpt lat="42.45356" lon="2.10251">
        <ele>1854</ele>
        <time>2010-07-01T06:25:17Z</time>
      </trkpt>
      <trkpt lat="42.45355" lon="2.10253">
        <ele>1854</ele>
        <time>2010-07-01T06:25:27Z</time>
      </trkpt>
      <trkpt lat="42.45349" lon="2.10259">
        <ele>1856</ele>
        <time>2010-07-01T06:25:37Z</time>
      </trkpt>
      <trkpt lat="42.45343" lon="2.10266">
        <ele>1858</ele>
        <time>2010-07-01T06:25:47Z</time>
      </trkpt>
      <trkpt lat="42.4534" lon="2.10273">
        <ele>1859</ele>
        <time>2010-07-01T06:25:57Z</time>
      </trkpt>
      <trkpt lat="42.45337" lon="2.1028">
        <ele>1861</ele>
        <time>2010-07-01T06:26:07Z</time>
      </trkpt>
      <trkpt lat="42.45332" lon="2.10288">
        <ele>1862</ele>
        <time>2010-07-01T06:26:17Z</time>
      </trkpt>
      <trkpt lat="42.45329" lon="2.10292">
        <ele>1862</ele>
        <time>2010-07-01T06:26:27Z</time>
      </trkpt>
      <trkpt lat="42.45326" lon="2.10296">
        <ele>1863</ele>
        <time>2010-07-01T06:26:37Z</time>
      </trkpt>
      <trkpt lat="42.45321" lon="2.10304">
        <ele>1864</ele>
        <time>2010-07-01T06:26:47Z</time>
      </trkpt>
      <trkpt lat="42.45315" lon="2.10312">
        <ele>1865</ele>
        <time>2010-07-01T06:26:57Z</time>
      </trkpt>
      <trkpt lat="42.45313" lon="2.10319">
        <ele>1865</ele>
        <time>2010-07-01T06:27:07Z</time>
      </trkpt>
      <trkpt lat="42.45307" lon="2.10324">
        <ele>1866</ele>
        <time>2010-07-01T06:27:17Z</time>
      </trkpt>
      <trkpt lat="42.45303" lon="2.10328">
        <ele>1866</ele>
        <time>2010-07-01T06:27:27Z</time>
      </trkpt>
      <trkpt lat="42.45298" lon="2.10333">
        <ele>1867</ele>
        <time>2010-07-01T06:27:37Z</time>
      </trkpt>
      <trkpt lat="42.45297" lon="2.10338">
        <ele>1867</ele>
        <time>2010-07-01T06:27:47Z</time>
      </trkpt>
      <trkpt lat="42.45298" lon="2.10339">
        <ele>1867</ele>
        <time>2010-07-01T06:27:57Z</time>
      </trkpt>
      <trkpt lat="42.4529" lon="2.10342">
        <ele>1868</ele>
        <time>2010-07-01T06:28:07Z</time>
      </trkpt>
      <trkpt lat="42.45285" lon="2.10346">
        <ele>1869</ele>
        <time>2010-07-01T06:28:17Z</time>
      </trkpt>
      <trkpt lat="42.45279" lon="2.10352">
        <ele>1870</ele>
        <time>2010-07-01T06:28:27Z</time>
      </trkpt>
      <trkpt lat="42.45273" lon="2.10359">
        <ele>1870</ele>
        <time>2010-07-01T06:28:37Z</time>
      </trkpt>
      <trkpt lat="42.45267" lon="2.10363">
        <ele>1871</ele>
        <time>2010-07-01T06:28:47Z</time>
      </trkpt>
      <trkpt lat="42.45264" lon="2.10368">
        <ele>1872</ele>
        <time>2010-07-01T06:28:57Z</time>
      </trkpt>
      <trkpt lat="42.45263" lon="2.1037">
        <ele>1872</ele>
        <time>2010-07-01T06:29:07Z</time>
      </trkpt>
      <trkpt lat="42.45262" lon="2.10376">
        <ele>1872</ele>
        <time>2010-07-01T06:29:17Z</time>
      </trkpt>
      <trkpt lat="42.4526" lon="2.10379">
        <ele>1873</ele>
        <time>2010-07-01T06:29:27Z</time>
      </trkpt>
      <trkpt lat="42.45255" lon="2.10384">
        <ele>1874</ele>
        <time>2010-07-01T06:29:37Z</time>
      </trkpt>
      <trkpt lat="42.45252" lon="2.10389">
        <ele>1875</ele>
        <time>2010-07-01T06:29:47Z</time>
      </trkpt>
      <trkpt lat="42.45249" lon="2.10395">
        <ele>1876</ele>
        <time>2010-07-01T06:29:57Z</time>
      </trkpt>
      <trkpt lat="42.45251" lon="2.10401">
        <ele>1877</ele>
        <time>2010-07-01T06:30:07Z</time>
      </trkpt>
      <trkpt lat="42.45249" lon="2.1041">
        <ele>1878</ele>
        <time>2010-07-01T06:30:17Z</time>
      </trkpt>
      <trkpt lat="42.45243" lon="2.10415">
        <ele>1881</ele>
        <time>2010-07-01T06:30:27Z</time>
      </trkpt>
      <trkpt lat="42.45242" lon="2.10416">
        <ele>1881</ele>
        <time>2010-07-01T06:30:37Z</time>
      </trkpt>
      <trkpt lat="42.45248" lon="2.10422">
        <ele>1883</ele>
        <time>2010-07-01T06:30:47Z</time>
      </trkpt>
      <trkpt lat="42.45251" lon="2.10429">
        <ele>1885</ele>
        <time>2010-07-01T06:30:57Z</time>
      </trkpt>
      <trkpt lat="42.45239" lon="2.10438">
        <ele>1887</ele>
        <time>2010-07-01T06:31:07Z</time>
      </trkpt>
      <trkpt lat="42.45237" lon="2.10444">
        <ele>1887</ele>
        <time>2010-07-01T06:31:17Z</time>
      </trkpt>
      <trkpt lat="42.45232" lon="2.10451">
        <ele>1887</ele>
        <time>2010-07-01T06:31:27Z</time>
      </trkpt>
      <trkpt lat="42.45228" lon="2.10456">
        <ele>1886</ele>
        <time>2010-07-01T06:31:37Z</time>
      </trkpt>
      <trkpt lat="42.45226" lon="2.10464">
        <ele>1886</ele>
        <time>2010-07-01T06:31:47Z</time>
      </trkpt>
      <trkpt lat="42.45223" lon="2.10471">
        <ele>1886</ele>
        <time>2010-07-01T06:31:57Z</time>
      </trkpt>
      <trkpt lat="42.45219" lon="2.10478">
        <ele>1887</ele>
        <time>2010-07-01T06:32:07Z</time>
      </trkpt>
      <trkpt lat="42.45217" lon="2.10485">
        <ele>1887</ele>
        <time>2010-07-01T06:32:17Z</time>
      </trkpt>
      <trkpt lat="42.45213" lon="2.1049">
        <ele>1888</ele>
        <time>2010-07-01T06:32:27Z</time>
      </trkpt>
      <trkpt lat="42.45209" lon="2.10496">
        <ele>1888</ele>
        <time>2010-07-01T06:32:37Z</time>
      </trkpt>
      <trkpt lat="42.45205" lon="2.10504">
        <ele>1889</ele>
        <time>2010-07-01T06:32:47Z</time>
      </trkpt>
      <trkpt lat="42.452" lon="2.1051">
        <ele>1890</ele>
        <time>2010-07-01T06:32:57Z</time>
      </trkpt>
      <trkpt lat="42.45194" lon="2.10515">
        <ele>1890</ele>
        <time>2010-07-01T06:33:07Z</time>
      </trkpt>
      <trkpt lat="42.45188" lon="2.10519">
        <ele>1891</ele>
        <time>2010-07-01T06:33:17Z</time>
      </trkpt>
      <trkpt lat="42.45183" lon="2.10521">
        <ele>1892</ele>
        <time>2010-07-01T06:33:27Z</time>
      </trkpt>
      <trkpt lat="42.45178" lon="2.10523">
        <ele>1893</ele>
        <time>2010-07-01T06:33:37Z</time>
      </trkpt>
      <trkpt lat="42.45173" lon="2.1053">
        <ele>1893</ele>
        <time>2010-07-01T06:33:47Z</time>
      </trkpt>
      <trkpt lat="42.45168" lon="2.10534">
        <ele>1894</ele>
        <time>2010-07-01T06:33:57Z</time>
      </trkpt>
      <trkpt lat="42.45165" lon="2.10539">
        <ele>1895</ele>
        <time>2010-07-01T06:34:07Z</time>
      </trkpt>
      <trkpt lat="42.45161" lon="2.10544">
        <ele>1895</ele>
        <time>2010-07-01T06:34:17Z</time>
      </trkpt>
      <trkpt lat="42.45158" lon="2.10548">
        <ele>1896</ele>
        <time>2010-07-01T06:34:27Z</time>
      </trkpt>
      <trkpt lat="42.45158" lon="2.10552">
        <ele>1897</ele>
        <time>2010-07-01T06:34:37Z</time>
      </trkpt>
      <trkpt lat="42.45153" lon="2.10559">
        <ele>1899</ele>
        <time>2010-07-01T06:34:47Z</time>
      </trkpt>
      <trkpt lat="42.4515" lon="2.1056">
        <ele>1900</ele>
        <time>2010-07-01T06:34:57Z</time>
      </trkpt>
      <trkpt lat="42.45143" lon="2.10562">
        <ele>1902</ele>
        <time>2010-07-01T06:35:07Z</time>
      </trkpt>
      <trkpt lat="42.45139" lon="2.10568">
        <ele>1903</ele>
        <time>2010-07-01T06:35:17Z</time>
      </trkpt>
      <trkpt lat="42.45133" lon="2.10574">
        <ele>1904</ele>
        <time>2010-07-01T06:35:27Z</time>
      </trkpt>
      <trkpt lat="42.45129" lon="2.10578">
        <ele>1904</ele>
        <time>2010-07-01T06:35:37Z</time>
      </trkpt>
      <trkpt lat="42.45123" lon="2.10584">
        <ele>1905</ele>
        <time>2010-07-01T06:35:47Z</time>
      </trkpt>
      <trkpt lat="42.4512" lon="2.10592">
        <ele>1905</ele>
        <time>2010-07-01T06:35:57Z</time>
      </trkpt>
      <trkpt lat="42.45117" lon="2.10599">
        <ele>1906</ele>
        <time>2010-07-01T06:36:07Z</time>
      </trkpt>
      <trkpt lat="42.45111" lon="2.10607">
        <ele>1907</ele>
        <time>2010-07-01T06:36:17Z</time>
      </trkpt>
      <trkpt lat="42.45107" lon="2.10615">
        <ele>1908</ele>
        <time>2010-07-01T06:36:27Z</time>
      </trkpt>
      <trkpt lat="42.45104" lon="2.1062">
        <ele>1908</ele>
        <time>2010-07-01T06:36:37Z</time>
      </trkpt>
      <trkpt lat="42.45102" lon="2.10627">
        <ele>1909</ele>
        <time>2010-07-01T06:36:47Z</time>
      </trkpt>
      <trkpt lat="42.45098" lon="2.10634">
        <ele>1910</ele>
        <time>2010-07-01T06:36:57Z</time>
      </trkpt>
      <trkpt lat="42.45094" lon="2.1064">
        <ele>1911</ele>
        <time>2010-07-01T06:37:07Z</time>
      </trkpt>
      <trkpt lat="42.4509" lon="2.10646">
        <ele>1913</ele>
        <time>2010-07-01T06:37:17Z</time>
      </trkpt>
      <trkpt lat="42.45081" lon="2.10652">
        <ele>1914</ele>
        <time>2010-07-01T06:37:27Z</time>
      </trkpt>
      <trkpt lat="42.45076" lon="2.10659">
        <ele>1916</ele>
        <time>2010-07-01T06:37:37Z</time>
      </trkpt>
      <trkpt lat="42.45076" lon="2.10667">
        <ele>1916</ele>
        <time>2010-07-01T06:37:47Z</time>
      </trkpt>
      <trkpt lat="42.45077" lon="2.10675">
        <ele>1917</ele>
        <time>2010-07-01T06:37:57Z</time>
      </trkpt>
      <trkpt lat="42.45069" lon="2.10683">
        <ele>1917</ele>
        <time>2010-07-01T06:38:07Z</time>
      </trkpt>
      <trkpt lat="42.45061" lon="2.10688">
        <ele>1917</ele>
        <time>2010-07-01T06:38:17Z</time>
      </trkpt>
      <trkpt lat="42.45056" lon="2.10694">
        <ele>1917</ele>
        <time>2010-07-01T06:38:27Z</time>
      </trkpt>
      <trkpt lat="42.45052" lon="2.10698">
        <ele>1917</ele>
        <time>2010-07-01T06:38:37Z</time>
      </trkpt>
      <trkpt lat="42.45048" lon="2.10701">
        <ele>1917</ele>
        <time>2010-07-01T06:38:47Z</time>
      </trkpt>
      <trkpt lat="42.45041" lon="2.107">
        <ele>1917</ele>
        <time>2010-07-01T06:38:57Z</time>
      </trkpt>
      <trkpt lat="42.45039" lon="2.10703">
        <ele>1917</ele>
        <time>2010-07-01T06:39:07Z</time>
      </trkpt>
      <trkpt lat="42.45038" lon="2.10704">
        <ele>1917</ele>
        <time>2010-07-01T06:39:17Z</time>
      </trkpt>
      <trkpt lat="42.45035" lon="2.10708">
        <ele>1917</ele>
        <time>2010-07-01T06:39:27Z</time>
      </trkpt>
      <trkpt lat="42.45034" lon="2.10712">
        <ele>1918</ele>
        <time>2010-07-01T06:39:37Z</time>
      </trkpt>
      <trkpt lat="42.45028" lon="2.10719">
        <ele>1921</ele>
        <time>2010-07-01T06:39:47Z</time>
      </trkpt>
      <trkpt lat="42.45026" lon="2.10724">
        <ele>1922</ele>
        <time>2010-07-01T06:39:57Z</time>
      </trkpt>
      <trkpt lat="42.45018" lon="2.10734">
        <ele>1925</ele>
        <time>2010-07-01T06:40:07Z</time>
      </trkpt>
      <trkpt lat="42.45013" lon="2.10742">
        <ele>1926</ele>
        <time>2010-07-01T06:40:17Z</time>
      </trkpt>
      <trkpt lat="42.45013" lon="2.10743">
        <ele>1927</ele>
        <time>2010-07-01T06:40:27Z</time>
      </trkpt>
      <trkpt lat="42.4501" lon="2.10746">
        <ele>1927</ele>
        <time>2010-07-01T06:40:37Z</time>
      </trkpt>
      <trkpt lat="42.44999" lon="2.10751">
        <ele>1927</ele>
        <time>2010-07-01T06:40:47Z</time>
      </trkpt>
      <trkpt lat="42.44995" lon="2.10752">
        <ele>1927</ele>
        <time>2010-07-01T06:40:57Z</time>
      </trkpt>
      <trkpt lat="42.44993" lon="2.10755">
        <ele>1927</ele>
        <time>2010-07-01T06:41:07Z</time>
      </trkpt>
      <trkpt lat="42.44987" lon="2.10759">
        <ele>1927</ele>
        <time>2010-07-01T06:41:17Z</time>
      </trkpt>
      <trkpt lat="42.44983" lon="2.10768">
        <ele>1927</ele>
        <time>2010-07-01T06:41:27Z</time>
      </trkpt>
      <trkpt lat="42.44976" lon="2.10776">
        <ele>1927</ele>
        <time>2010-07-01T06:41:37Z</time>
      </trkpt>
      <trkpt lat="42.44972" lon="2.10781">
        <ele>1927</ele>
        <time>2010-07-01T06:41:47Z</time>
      </trkpt>
      <trkpt lat="42.44968" lon="2.10785">
        <ele>1927</ele>
        <time>2010-07-01T06:41:57Z</time>
      </trkpt>
      <trkpt lat="42.44962" lon="2.10795">
        <ele>1927</ele>
        <time>2010-07-01T06:42:07Z</time>
      </trkpt>
      <trkpt lat="42.44959" lon="2.10808">
        <ele>1927</ele>
        <time>2010-07-01T06:42:17Z</time>
      </trkpt>
      <trkpt lat="42.44963" lon="2.10813">
        <ele>1927</ele>
        <time>2010-07-01T06:42:27Z</time>
      </trkpt>
      <trkpt lat="42.44951" lon="2.10825">
        <ele>1927</ele>
        <time>2010-07-01T06:42:37Z</time>
      </trkpt>
      <trkpt lat="42.44947" lon="2.10828">
        <ele>1927</ele>
        <time>2010-07-01T06:42:47Z</time>
      </trkpt>
      <trkpt lat="42.44939" lon="2.10831">
        <ele>1927</ele>
        <time>2010-07-01T06:42:57Z</time>
      </trkpt>
      <trkpt lat="42.44932" lon="2.1083">
        <ele>1927</ele>
        <time>2010-07-01T06:43:07Z</time>
      </trkpt>
      <trkpt lat="42.44926" lon="2.10839">
        <ele>1927</ele>
        <time>2010-07-01T06:43:17Z</time>
      </trkpt>
      <trkpt lat="42.4492" lon="2.10844">
        <ele>1927</ele>
        <time>2010-07-01T06:43:27Z</time>
      </trkpt>
      <trkpt lat="42.44916" lon="2.10856">
        <ele>1927</ele>
        <time>2010-07-01T06:43:37Z</time>
      </trkpt>
      <trkpt lat="42.44912" lon="2.10863">
        <ele>1927</ele>
        <time>2010-07-01T06:43:47Z</time>
      </trkpt>
      <trkpt lat="42.44903" lon="2.10871">
        <ele>1927</ele>
        <time>2010-07-01T06:43:57Z</time>
      </trkpt>
      <trkpt lat="42.44895" lon="2.10877">
        <ele>1927</ele>
        <time>2010-07-01T06:44:07Z</time>
      </trkpt>
      <trkpt lat="42.4489" lon="2.10884">
        <ele>1927</ele>
        <time>2010-07-01T06:44:17Z</time>
      </trkpt>
      <trkpt lat="42.44884" lon="2.10895">
        <ele>1927</ele>
        <time>2010-07-01T06:44:27Z</time>
      </trkpt>
      <trkpt lat="42.44878" lon="2.10898">
        <ele>1927</ele>
        <time>2010-07-01T06:44:37Z</time>
      </trkpt>
      <trkpt lat="42.44875" lon="2.10906">
        <ele>1927</ele>
        <time>2010-07-01T06:44:47Z</time>
      </trkpt>
      <trkpt lat="42.44872" lon="2.10905">
        <ele>1927</ele>
        <time>2010-07-01T06:44:57Z</time>
      </trkpt>
      <trkpt lat="42.4487" lon="2.10903">
        <ele>1927</ele>
        <time>2010-07-01T06:45:07Z</time>
      </trkpt>
      <trkpt lat="42.44866" lon="2.10913">
        <ele>1927</ele>
        <time>2010-07-01T06:45:17Z</time>
      </trkpt>
      <trkpt lat="42.44858" lon="2.10918">
        <ele>1927</ele>
        <time>2010-07-01T06:45:27Z</time>
      </trkpt>
      <trkpt lat="42.44852" lon="2.10919">
        <ele>1927</ele>
        <time>2010-07-01T06:45:37Z</time>
      </trkpt>
      <trkpt lat="42.44847" lon="2.10925">
        <ele>1927</ele>
        <time>2010-07-01T06:45:47Z</time>
      </trkpt>
      <trkpt lat="42.44842" lon="2.10934">
        <ele>1927</ele>
        <time>2010-07-01T06:45:57Z</time>
      </trkpt>
      <trkpt lat="42.44837" lon="2.10941">
        <ele>1927</ele>
        <time>2010-07-01T06:46:07Z</time>
      </trkpt>
      <trkpt lat="42.44832" lon="2.10952">
        <ele>1927</ele>
        <time>2010-07-01T06:46:17Z</time>
      </trkpt>
      <trkpt lat="42.44824" lon="2.10958">
        <ele>1927</ele>
        <time>2010-07-01T06:46:27Z</time>
      </trkpt>
      <trkpt lat="42.44819" lon="2.10957">
        <ele>1926</ele>
        <time>2010-07-01T06:46:37Z</time>
      </trkpt>
      <trkpt lat="42.44818" lon="2.10956">
        <ele>1926</ele>
        <time>2010-07-01T06:46:47Z</time>
      </trkpt>
      <trkpt lat="42.44813" lon="2.10965">
        <ele>1926</ele>
        <time>2010-07-01T06:46:57Z</time>
      </trkpt>
      <trkpt lat="42.44811" lon="2.10968">
        <ele>1925</ele>
        <time>2010-07-01T06:47:07Z</time>
      </trkpt>
      <trkpt lat="42.44804" lon="2.10974">
        <ele>1924</ele>
        <time>2010-07-01T06:47:17Z</time>
      </trkpt>
      <trkpt lat="42.44798" lon="2.10982">
        <ele>1922</ele>
        <time>2010-07-01T06:47:27Z</time>
      </trkpt>
      <trkpt lat="42.44793" lon="2.10991">
        <ele>1921</ele>
        <time>2010-07-01T06:47:37Z</time>
      </trkpt>
      <trkpt lat="42.44788" lon="2.10994">
        <ele>1921</ele>
        <time>2010-07-01T06:47:47Z</time>
      </trkpt>
      <trkpt lat="42.44779" lon="2.10995">
        <ele>1923</ele>
        <time>2010-07-01T06:47:57Z</time>
      </trkpt>
      <trkpt lat="42.4477" lon="2.10993">
        <ele>1925</ele>
        <time>2010-07-01T06:48:07Z</time>
      </trkpt>
      <trkpt lat="42.44761" lon="2.10998">
        <ele>1927</ele>
        <time>2010-07-01T06:48:17Z</time>
      </trkpt>
      <trkpt lat="42.44756" lon="2.11005">
        <ele>1929</ele>
        <time>2010-07-01T06:48:27Z</time>
      </trkpt>
      <trkpt lat="42.44752" lon="2.11011">
        <ele>1931</ele>
        <time>2010-07-01T06:48:37Z</time>
      </trkpt>
      <trkpt lat="42.44746" lon="2.11013">
        <ele>1933</ele>
        <time>2010-07-01T06:48:47Z</time>
      </trkpt>
      <trkpt lat="42.44738" lon="2.11013">
        <ele>1935</ele>
        <time>2010-07-01T06:48:57Z</time>
      </trkpt>
      <trkpt lat="42.44732" lon="2.11019">
        <ele>1937</ele>
        <time>2010-07-01T06:49:07Z</time>
      </trkpt>
      <trkpt lat="42.44728" lon="2.11028">
        <ele>1939</ele>
        <time>2010-07-01T06:49:17Z</time>
      </trkpt>
      <trkpt lat="42.44723" lon="2.11032">
        <ele>1941</ele>
        <time>2010-07-01T06:49:27Z</time>
      </trkpt>
      <trkpt lat="42.44721" lon="2.11037">
        <ele>1942</ele>
        <time>2010-07-01T06:49:37Z</time>
      </trkpt>
      <trkpt lat="42.44718" lon="2.11046">
        <ele>1944</ele>
        <time>2010-07-01T06:49:47Z</time>
      </trkpt>
      <trkpt lat="42.44714" lon="2.11053">
        <ele>1947</ele>
        <time>2010-07-01T06:49:57Z</time>
      </trkpt>
      <trkpt lat="42.44705" lon="2.11059">
        <ele>1950</ele>
        <time>2010-07-01T06:50:07Z</time>
      </trkpt>
      <trkpt lat="42.44701" lon="2.11063">
        <ele>1951</ele>
        <time>2010-07-01T06:50:17Z</time>
      </trkpt>
      <trkpt lat="42.44701" lon="2.11073">
        <ele>1952</ele>
        <time>2010-07-01T06:50:27Z</time>
      </trkpt>
      <trkpt lat="42.44697" lon="2.11085">
        <ele>1954</ele>
        <time>2010-07-01T06:50:37Z</time>
      </trkpt>
      <trkpt lat="42.44692" lon="2.11098">
        <ele>1956</ele>
        <time>2010-07-01T06:50:47Z</time>
      </trkpt>
      <trkpt lat="42.44688" lon="2.11111">
        <ele>1958</ele>
        <time>2010-07-01T06:50:57Z</time>
      </trkpt>
      <trkpt lat="42.44679" lon="2.11116">
        <ele>1960</ele>
        <time>2010-07-01T06:51:07Z</time>
      </trkpt>
      <trkpt lat="42.44677" lon="2.11121">
        <ele>1961</ele>
        <time>2010-07-01T06:51:17Z</time>
      </trkpt>
      <trkpt lat="42.44687" lon="2.11126">
        <ele>1963</ele>
        <time>2010-07-01T06:51:27Z</time>
      </trkpt>
      <trkpt lat="42.4468" lon="2.11138">
        <ele>1965</ele>
        <time>2010-07-01T06:51:37Z</time>
      </trkpt>
      <trkpt lat="42.44672" lon="2.11147">
        <ele>1967</ele>
        <time>2010-07-01T06:51:47Z</time>
      </trkpt>
      <trkpt lat="42.4467" lon="2.11155">
        <ele>1969</ele>
        <time>2010-07-01T06:51:57Z</time>
      </trkpt>
      <trkpt lat="42.4467" lon="2.11166">
        <ele>1971</ele>
        <time>2010-07-01T06:52:07Z</time>
      </trkpt>
      <trkpt lat="42.44666" lon="2.11172">
        <ele>1973</ele>
        <time>2010-07-01T06:52:17Z</time>
      </trkpt>
      <trkpt lat="42.44666" lon="2.11181">
        <ele>1974</ele>
        <time>2010-07-01T06:52:27Z</time>
      </trkpt>
      <trkpt lat="42.44665" lon="2.1119">
        <ele>1976</ele>
        <time>2010-07-01T06:52:37Z</time>
      </trkpt>
      <trkpt lat="42.44663" lon="2.11196">
        <ele>1977</ele>
        <time>2010-07-01T06:52:47Z</time>
      </trkpt>
      <trkpt lat="42.44657" lon="2.11205">
        <ele>1980</ele>
        <time>2010-07-01T06:52:57Z</time>
      </trkpt>
      <trkpt lat="42.44651" lon="2.11211">
        <ele>1982</ele>
        <time>2010-07-01T06:53:07Z</time>
      </trkpt>
      <trkpt lat="42.44647" lon="2.11216">
        <ele>1983</ele>
        <time>2010-07-01T06:53:17Z</time>
      </trkpt>
      <trkpt lat="42.44646" lon="2.11223">
        <ele>1985</ele>
        <time>2010-07-01T06:53:27Z</time>
      </trkpt>
      <trkpt lat="42.44643" lon="2.11228">
        <ele>1986</ele>
        <time>2010-07-01T06:53:37Z</time>
      </trkpt>
      <trkpt lat="42.44638" lon="2.11236">
        <ele>1987</ele>
        <time>2010-07-01T06:53:47Z</time>
      </trkpt>
      <trkpt lat="42.44631" lon="2.11246">
        <ele>1989</ele>
        <time>2010-07-01T06:53:57Z</time>
      </trkpt>
      <trkpt lat="42.44625" lon="2.11255">
        <ele>1991</ele>
        <time>2010-07-01T06:54:07Z</time>
      </trkpt>
      <trkpt lat="42.44615" lon="2.11262">
        <ele>1993</ele>
        <time>2010-07-01T06:54:17Z</time>
      </trkpt>
      <trkpt lat="42.44607" lon="2.11267">
        <ele>1996</ele>
        <time>2010-07-01T06:54:27Z</time>
      </trkpt>
      <trkpt lat="42.44604" lon="2.11268">
        <ele>1996</ele>
        <time>2010-07-01T06:54:37Z</time>
      </trkpt>
      <trkpt lat="42.44605" lon="2.11269">
        <ele>1997</ele>
        <time>2010-07-01T06:54:47Z</time>
      </trkpt>
      <trkpt lat="42.44596" lon="2.11274">
        <ele>1999</ele>
        <time>2010-07-01T06:54:57Z</time>
      </trkpt>
      <trkpt lat="42.44588" lon="2.11281">
        <ele>2002</ele>
        <time>2010-07-01T06:55:07Z</time>
      </trkpt>
      <trkpt lat="42.44586" lon="2.11284">
        <ele>2002</ele>
        <time>2010-07-01T06:55:17Z</time>
      </trkpt>
      <trkpt lat="42.44576" lon="2.11291">
        <ele>2001</ele>
        <time>2010-07-01T06:55:27Z</time>
      </trkpt>
      <trkpt lat="42.44571" lon="2.11297">
        <ele>2000</ele>
        <time>2010-07-01T06:55:37Z</time>
      </trkpt>
      <trkpt lat="42.44568" lon="2.11305">
        <ele>2000</ele>
        <time>2010-07-01T06:55:47Z</time>
      </trkpt>
      <trkpt lat="42.44564" lon="2.11311">
        <ele>1999</ele>
        <time>2010-07-01T06:55:57Z</time>
      </trkpt>
      <trkpt lat="42.44558" lon="2.11319">
        <ele>1999</ele>
        <time>2010-07-01T06:56:07Z</time>
      </trkpt>
      <trkpt lat="42.44556" lon="2.11325">
        <ele>1999</ele>
        <time>2010-07-01T06:56:17Z</time>
      </trkpt>
      <trkpt lat="42.4455" lon="2.11333">
        <ele>1999</ele>
        <time>2010-07-01T06:56:27Z</time>
      </trkpt>
      <trkpt lat="42.44547" lon="2.11342">
        <ele>1999</ele>
        <time>2010-07-01T06:56:37Z</time>
      </trkpt>
      <trkpt lat="42.44546" lon="2.11347">
        <ele>1999</ele>
        <time>2010-07-01T06:56:47Z</time>
      </trkpt>
      <trkpt lat="42.44542" lon="2.11355">
        <ele>2000</ele>
        <time>2010-07-01T06:56:57Z</time>
      </trkpt>
      <trkpt lat="42.44537" lon="2.11362">
        <ele>2001</ele>
        <time>2010-07-01T06:57:07Z</time>
      </trkpt>
      <trkpt lat="42.44536" lon="2.1137">
        <ele>2002</ele>
        <time>2010-07-01T06:57:17Z</time>
      </trkpt>
      <trkpt lat="42.44531" lon="2.11377">
        <ele>2004</ele>
        <time>2010-07-01T06:57:27Z</time>
      </trkpt>
      <trkpt lat="42.44526" lon="2.11384">
        <ele>2005</ele>
        <time>2010-07-01T06:57:37Z</time>
      </trkpt>
      <trkpt lat="42.44521" lon="2.1139">
        <ele>2007</ele>
        <time>2010-07-01T06:57:47Z</time>
      </trkpt>
      <trkpt lat="42.44515" lon="2.11396">
        <ele>2008</ele>
        <time>2010-07-01T06:57:57Z</time>
      </trkpt>
      <trkpt lat="42.44511" lon="2.11404">
        <ele>2009</ele>
        <time>2010-07-01T06:58:07Z</time>
      </trkpt>
      <trkpt lat="42.44508" lon="2.1141">
        <ele>2010</ele>
        <time>2010-07-01T06:58:17Z</time>
      </trkpt>
      <trkpt lat="42.44507" lon="2.11411">
        <ele>2010</ele>
        <time>2010-07-01T06:58:27Z</time>
      </trkpt>
      <trkpt lat="42.44503" lon="2.1142">
        <ele>2012</ele>
        <time>2010-07-01T06:58:37Z</time>
      </trkpt>
      <trkpt lat="42.44499" lon="2.11428">
        <ele>2014</ele>
        <time>2010-07-01T06:58:47Z</time>
      </trkpt>
      <trkpt lat="42.44494" lon="2.11438">
        <ele>2016</ele>
        <time>2010-07-01T06:58:57Z</time>
      </trkpt>
      <trkpt lat="42.44491" lon="2.11439">
        <ele>2016</ele>
        <time>2010-07-01T06:59:07Z</time>
      </trkpt>
      <trkpt lat="42.4449" lon="2.11445">
        <ele>2017</ele>
        <time>2010-07-01T06:59:17Z</time>
      </trkpt>
      <trkpt lat="42.44487" lon="2.11456">
        <ele>2018</ele>
        <time>2010-07-01T06:59:27Z</time>
      </trkpt>
      <trkpt lat="42.44481" lon="2.11465">
        <ele>2017</ele>
        <time>2010-07-01T06:59:37Z</time>
      </trkpt>
      <trkpt lat="42.44478" lon="2.11475">
        <ele>2016</ele>
        <time>2010-07-01T06:59:47Z</time>
      </trkpt>
      <trkpt lat="42.44473" lon="2.11479">
        <ele>2015</ele>
        <time>2010-07-01T06:59:57Z</time>
      </trkpt>
      <trkpt lat="42.44468" lon="2.1148">
        <ele>2014</ele>
        <time>2010-07-01T07:00:07Z</time>
      </trkpt>
      <trkpt lat="42.4446" lon="2.11488">
        <ele>2013</ele>
        <time>2010-07-01T07:00:17Z</time>
      </trkpt>
      <trkpt lat="42.44456" lon="2.11488">
        <ele>2013</ele>
        <time>2010-07-01T07:00:27Z</time>
      </trkpt>
      <trkpt lat="42.44455" lon="2.11489">
        <ele>2013</ele>
        <time>2010-07-01T07:00:37Z</time>
      </trkpt>
      <trkpt lat="42.44455" lon="2.11491">
        <ele>2013</ele>
        <time>2010-07-01T07:00:47Z</time>
      </trkpt>
      <trkpt lat="42.44456" lon="2.1149">
        <ele>2013</ele>
        <time>2010-07-01T07:00:57Z</time>
      </trkpt>
      <trkpt lat="42.44456" lon="2.11489">
        <ele>2013</ele>
        <time>2010-07-01T07:01:07Z</time>
      </trkpt>
      <trkpt lat="42.44456" lon="2.11488">
        <ele>2014</ele>
        <time>2010-07-01T07:01:17Z</time>
      </trkpt>
      <trkpt lat="42.44456" lon="2.11486">
        <ele>2015</ele>
        <time>2010-07-01T07:01:27Z</time>
      </trkpt>
      <trkpt lat="42.44456" lon="2.11484">
        <ele>2016</ele>
        <time>2010-07-01T07:01:37Z</time>
      </trkpt>
      <trkpt lat="42.44455" lon="2.11482">
        <ele>2018</ele>
        <time>2010-07-01T07:01:47Z</time>
      </trkpt>
      <trkpt lat="42.44457" lon="2.11485">
        <ele>2019</ele>
        <time>2010-07-01T07:01:57Z</time>
      </trkpt>
      <trkpt lat="42.44457" lon="2.11486">
        <ele>2019</ele>
        <time>2010-07-01T07:02:07Z</time>
      </trkpt>
      <trkpt lat="42.44458" lon="2.11488">
        <ele>2020</ele>
        <time>2010-07-01T07:02:17Z</time>
      </trkpt>
      <trkpt lat="42.44458" lon="2.11487">
        <ele>2020</ele>
        <time>2010-07-01T07:02:27Z</time>
      </trkpt>
      <trkpt lat="42.44458" lon="2.11485">
        <ele>2020</ele>
        <time>2010-07-01T07:02:37Z</time>
      </trkpt>
      <trkpt lat="42.44459" lon="2.11488">
        <ele>2020</ele>
        <time>2010-07-01T07:02:47Z</time>
      </trkpt>
      <trkpt lat="42.44459" lon="2.11489">
        <ele>2020</ele>
        <time>2010-07-01T07:02:57Z</time>
      </trkpt>
      <trkpt lat="42.44459" lon="2.11489">
        <ele>2020</ele>
        <time>2010-07-01T07:03:07Z</time>
      </trkpt>
      <trkpt lat="42.44453" lon="2.1149">
        <ele>2021</ele>
        <time>2010-07-01T07:03:17Z</time>
      </trkpt>
      <trkpt lat="42.44458" lon="2.11489">
        <ele>2021</ele>
        <time>2010-07-01T07:03:27Z</time>
      </trkpt>
      <trkpt lat="42.4446" lon="2.11488">
        <ele>2021</ele>
        <time>2010-07-01T07:03:37Z</time>
      </trkpt>
      <trkpt lat="42.44461" lon="2.11488">
        <ele>2021</ele>
        <time>2010-07-01T07:03:47Z</time>
      </trkpt>
      <trkpt lat="42.4446" lon="2.11487">
        <ele>2021</ele>
        <time>2010-07-01T07:03:57Z</time>
      </trkpt>
      <trkpt lat="42.44459" lon="2.11494">
        <ele>2020</ele>
        <time>2010-07-01T07:04:07Z</time>
      </trkpt>
      <trkpt lat="42.4446" lon="2.11503">
        <ele>2019</ele>
        <time>2010-07-01T07:04:17Z</time>
      </trkpt>
      <trkpt lat="42.4446" lon="2.11507">
        <ele>2018</ele>
        <time>2010-07-01T07:04:27Z</time>
      </trkpt>
      <trkpt lat="42.44463" lon="2.11507">
        <ele>2018</ele>
        <time>2010-07-01T07:04:37Z</time>
      </trkpt>
      <trkpt lat="42.44464" lon="2.11507">
        <ele>2018</ele>
        <time>2010-07-01T07:04:47Z</time>
      </trkpt>
      <trkpt lat="42.44463" lon="2.11508">
        <ele>2018</ele>
        <time>2010-07-01T07:04:57Z</time>
      </trkpt>
      <trkpt lat="42.44463" lon="2.11509">
        <ele>2018</ele>
        <time>2010-07-01T07:05:07Z</time>
      </trkpt>
      <trkpt lat="42.44464" lon="2.11508">
        <ele>2018</ele>
        <time>2010-07-01T07:05:17Z</time>
      </trkpt>
      <trkpt lat="42.44462" lon="2.11508">
        <ele>2019</ele>
        <time>2010-07-01T07:05:27Z</time>
      </trkpt>
      <trkpt lat="42.44465" lon="2.11508">
        <ele>2020</ele>
        <time>2010-07-01T07:05:37Z</time>
      </trkpt>
      <trkpt lat="42.44466" lon="2.11509">
        <ele>2020</ele>
        <time>2010-07-01T07:05:47Z</time>
      </trkpt>
      <trkpt lat="42.44466" lon="2.11509">
        <ele>2020</ele>
        <time>2010-07-01T07:05:57Z</time>
      </trkpt>
      <trkpt lat="42.44466" lon="2.11508">
        <ele>2020</ele>
        <time>2010-07-01T07:06:07Z</time>
      </trkpt>
      <trkpt lat="42.44466" lon="2.11508">
        <ele>2020</ele>
        <time>2010-07-01T07:06:17Z</time>
      </trkpt>
      <trkpt lat="42.44465" lon="2.11511">
        <ele>2018</ele>
        <time>2010-07-01T07:06:27Z</time>
      </trkpt>
      <trkpt lat="42.44464" lon="2.11508">
        <ele>2017</ele>
        <time>2010-07-01T07:06:37Z</time>
      </trkpt>
      <trkpt lat="42.44464" lon="2.11504">
        <ele>2016</ele>
        <time>2010-07-01T07:06:47Z</time>
      </trkpt>
      <trkpt lat="42.44462" lon="2.11514">
        <ele>2014</ele>
        <time>2010-07-01T07:06:57Z</time>
      </trkpt>
      <trkpt lat="42.44459" lon="2.11523">
        <ele>2014</ele>
        <time>2010-07-01T07:07:07Z</time>
      </trkpt>
      <trkpt lat="42.44458" lon="2.11531">
        <ele>2014</ele>
        <time>2010-07-01T07:07:17Z</time>
      </trkpt>
      <trkpt lat="42.44456" lon="2.11535">
        <ele>2014</ele>
        <time>2010-07-01T07:07:27Z</time>
      </trkpt>
      <trkpt lat="42.44457" lon="2.11535">
        <ele>2014</ele>
        <time>2010-07-01T07:07:37Z</time>
      </trkpt>
      <trkpt lat="42.44456" lon="2.11533">
        <ele>2014</ele>
        <time>2010-07-01T07:07:47Z</time>
      </trkpt>
      <trkpt lat="42.44455" lon="2.11533">
        <ele>2015</ele>
        <time>2010-07-01T07:07:57Z</time>
      </trkpt>
      <trkpt lat="42.44456" lon="2.11537">
        <ele>2016</ele>
        <time>2010-07-01T07:08:07Z</time>
      </trkpt>
      <trkpt lat="42.44454" lon="2.11533">
        <ele>2017</ele>
        <time>2010-07-01T07:08:17Z</time>
      </trkpt>
      <trkpt lat="42.44452" lon="2.11531">
        <ele>2018</ele>
        <time>2010-07-01T07:08:27Z</time>
      </trkpt>
      <trkpt lat="42.4445" lon="2.11539">
        <ele>2019</ele>
        <time>2010-07-01T07:08:37Z</time>
      </trkpt>
      <trkpt lat="42.44449" lon="2.11549">
        <ele>2018</ele>
        <time>2010-07-01T07:08:47Z</time>
      </trkpt>
      <trkpt lat="42.4444" lon="2.11559">
        <ele>2017</ele>
        <time>2010-07-01T07:08:57Z</time>
      </trkpt>
      <trkpt lat="42.44436" lon="2.11566">
        <ele>2016</ele>
        <time>2010-07-01T07:09:07Z</time>
      </trkpt>
      <trkpt lat="42.44433" lon="2.11572">
        <ele>2016</ele>
        <time>2010-07-01T07:09:17Z</time>
      </trkpt>
      <trkpt lat="42.44428" lon="2.11579">
        <ele>2016</ele>
        <time>2010-07-01T07:09:27Z</time>
      </trkpt>
      <trkpt lat="42.44422" lon="2.11585">
        <ele>2019</ele>
        <time>2010-07-01T07:09:37Z</time>
      </trkpt>
      <trkpt lat="42.44418" lon="2.11588">
        <ele>2020</ele>
        <time>2010-07-01T07:09:47Z</time>
      </trkpt>
      <trkpt lat="42.44414" lon="2.11595">
        <ele>2022</ele>
        <time>2010-07-01T07:09:57Z</time>
      </trkpt>
      <trkpt lat="42.44412" lon="2.116">
        <ele>2023</ele>
        <time>2010-07-01T07:10:07Z</time>
      </trkpt>
      <trkpt lat="42.44406" lon="2.11605">
        <ele>2025</ele>
        <time>2010-07-01T07:10:17Z</time>
      </trkpt>
      <trkpt lat="42.444" lon="2.11613">
        <ele>2026</ele>
        <time>2010-07-01T07:10:27Z</time>
      </trkpt>
      <trkpt lat="42.44396" lon="2.11618">
        <ele>2027</ele>
        <time>2010-07-01T07:10:37Z</time>
      </trkpt>
      <trkpt lat="42.44393" lon="2.11624">
        <ele>2028</ele>
        <time>2010-07-01T07:10:47Z</time>
      </trkpt>
      <trkpt lat="42.44389" lon="2.11619">
        <ele>2029</ele>
        <time>2010-07-01T07:10:57Z</time>
      </trkpt>
      <trkpt lat="42.44385" lon="2.11616">
        <ele>2029</ele>
        <time>2010-07-01T07:11:07Z</time>
      </trkpt>
      <trkpt lat="42.44385" lon="2.11615">
        <ele>2029</ele>
        <time>2010-07-01T07:11:17Z</time>
      </trkpt>
      <trkpt lat="42.44384" lon="2.11615">
        <ele>2029</ele>
        <time>2010-07-01T07:11:27Z</time>
      </trkpt>
      <trkpt lat="42.44383" lon="2.1163">
        <ele>2029</ele>
        <time>2010-07-01T07:11:37Z</time>
      </trkpt>
      <trkpt lat="42.44381" lon="2.11643">
        <ele>2029</ele>
        <time>2010-07-01T07:11:47Z</time>
      </trkpt>
      <trkpt lat="42.44378" lon="2.11653">
        <ele>2028</ele>
        <time>2010-07-01T07:11:57Z</time>
      </trkpt>
      <trkpt lat="42.44374" lon="2.11663">
        <ele>2028</ele>
        <time>2010-07-01T07:12:07Z</time>
      </trkpt>
      <trkpt lat="42.44369" lon="2.11674">
        <ele>2028</ele>
        <time>2010-07-01T07:12:17Z</time>
      </trkpt>
      <trkpt lat="42.44363" lon="2.11684">
        <ele>2028</ele>
        <time>2010-07-01T07:12:27Z</time>
      </trkpt>
      <trkpt lat="42.44359" lon="2.11693">
        <ele>2028</ele>
        <time>2010-07-01T07:12:37Z</time>
      </trkpt>
      <trkpt lat="42.44353" lon="2.117">
        <ele>2028</ele>
        <time>2010-07-01T07:12:47Z</time>
      </trkpt>
      <trkpt lat="42.44349" lon="2.11709">
        <ele>2029</ele>
        <time>2010-07-01T07:12:57Z</time>
      </trkpt>
      <trkpt lat="42.44345" lon="2.11714">
        <ele>2030</ele>
        <time>2010-07-01T07:13:07Z</time>
      </trkpt>
      <trkpt lat="42.44344" lon="2.11722">
        <ele>2031</ele>
        <time>2010-07-01T07:13:17Z</time>
      </trkpt>
      <trkpt lat="42.44339" lon="2.11727">
        <ele>2031</ele>
        <time>2010-07-01T07:13:27Z</time>
      </trkpt>
      <trkpt lat="42.44331" lon="2.11733">
        <ele>2033</ele>
        <time>2010-07-01T07:13:37Z</time>
      </trkpt>
      <trkpt lat="42.44327" lon="2.11736">
        <ele>2034</ele>
        <time>2010-07-01T07:13:47Z</time>
      </trkpt>
      <trkpt lat="42.44322" lon="2.11744">
        <ele>2035</ele>
        <time>2010-07-01T07:13:57Z</time>
      </trkpt>
      <trkpt lat="42.44316" lon="2.11751">
        <ele>2037</ele>
        <time>2010-07-01T07:14:07Z</time>
      </trkpt>
      <trkpt lat="42.44313" lon="2.1176">
        <ele>2038</ele>
        <time>2010-07-01T07:14:17Z</time>
      </trkpt>
      <trkpt lat="42.4431" lon="2.11767">
        <ele>2039</ele>
        <time>2010-07-01T07:14:27Z</time>
      </trkpt>
      <trkpt lat="42.44306" lon="2.11772">
        <ele>2040</ele>
        <time>2010-07-01T07:14:37Z</time>
      </trkpt>
      <trkpt lat="42.44303" lon="2.11779">
        <ele>2041</ele>
        <time>2010-07-01T07:14:47Z</time>
      </trkpt>
      <trkpt lat="42.44299" lon="2.11785">
        <ele>2042</ele>
        <time>2010-07-01T07:14:57Z</time>
      </trkpt>
      <trkpt lat="42.44293" lon="2.11791">
        <ele>2044</ele>
        <time>2010-07-01T07:15:07Z</time>
      </trkpt>
      <trkpt lat="42.44288" lon="2.11794">
        <ele>2045</ele>
        <time>2010-07-01T07:15:17Z</time>
      </trkpt>
      <trkpt lat="42.44286" lon="2.11797">
        <ele>2045</ele>
        <time>2010-07-01T07:15:27Z</time>
      </trkpt>
      <trkpt lat="42.44283" lon="2.11801">
        <ele>2046</ele>
        <time>2010-07-01T07:15:37Z</time>
      </trkpt>
      <trkpt lat="42.44281" lon="2.11806">
        <ele>2047</ele>
        <time>2010-07-01T07:15:47Z</time>
      </trkpt>
      <trkpt lat="42.44276" lon="2.1181">
        <ele>2048</ele>
        <time>2010-07-01T07:15:57Z</time>
      </trkpt>
      <trkpt lat="42.44273" lon="2.11813">
        <ele>2048</ele>
        <time>2010-07-01T07:16:07Z</time>
      </trkpt>
      <trkpt lat="42.44269" lon="2.11815">
        <ele>2050</ele>
        <time>2010-07-01T07:16:17Z</time>
      </trkpt>
      <trkpt lat="42.44265" lon="2.1182">
        <ele>2051</ele>
        <time>2010-07-01T07:16:27Z</time>
      </trkpt>
      <trkpt lat="42.44261" lon="2.11826">
        <ele>2052</ele>
        <time>2010-07-01T07:16:37Z</time>
      </trkpt>
      <trkpt lat="42.44257" lon="2.11831">
        <ele>2054</ele>
        <time>2010-07-01T07:16:47Z</time>
      </trkpt>
      <trkpt lat="42.44253" lon="2.11837">
        <ele>2054</ele>
        <time>2010-07-01T07:16:57Z</time>
      </trkpt>
      <trkpt lat="42.44247" lon="2.11847">
        <ele>2055</ele>
        <time>2010-07-01T07:17:07Z</time>
      </trkpt>
      <trkpt lat="42.44245" lon="2.11856">
        <ele>2055</ele>
        <time>2010-07-01T07:17:17Z</time>
      </trkpt>
      <trkpt lat="42.44243" lon="2.11869">
        <ele>2056</ele>
        <time>2010-07-01T07:17:27Z</time>
      </trkpt>
      <trkpt lat="42.44237" lon="2.11878">
        <ele>2056</ele>
        <time>2010-07-01T07:17:37Z</time>
      </trkpt>
      <trkpt lat="42.44232" lon="2.11887">
        <ele>2059</ele>
        <time>2010-07-01T07:17:47Z</time>
      </trkpt>
      <trkpt lat="42.44227" lon="2.11894">
        <ele>2063</ele>
        <time>2010-07-01T07:17:57Z</time>
      </trkpt>
      <trkpt lat="42.44224" lon="2.11895">
        <ele>2064</ele>
        <time>2010-07-01T07:18:07Z</time>
      </trkpt>
      <trkpt lat="42.44224" lon="2.11896">
        <ele>2065</ele>
        <time>2010-07-01T07:18:17Z</time>
      </trkpt>
      <trkpt lat="42.44221" lon="2.11902">
        <ele>2068</ele>
        <time>2010-07-01T07:18:27Z</time>
      </trkpt>
      <trkpt lat="42.4422" lon="2.11905">
        <ele>2069</ele>
        <time>2010-07-01T07:18:37Z</time>
      </trkpt>
      <trkpt lat="42.44216" lon="2.11913">
        <ele>2071</ele>
        <time>2010-07-01T07:18:47Z</time>
      </trkpt>
      <trkpt lat="42.44214" lon="2.11918">
        <ele>2073</ele>
        <time>2010-07-01T07:18:57Z</time>
      </trkpt>
      <trkpt lat="42.44211" lon="2.11924">
        <ele>2075</ele>
        <time>2010-07-01T07:19:07Z</time>
      </trkpt>
      <trkpt lat="42.44211" lon="2.11928">
        <ele>2076</ele>
        <time>2010-07-01T07:19:17Z</time>
      </trkpt>
      <trkpt lat="42.4421" lon="2.11934">
        <ele>2078</ele>
        <time>2010-07-01T07:19:27Z</time>
      </trkpt>
      <trkpt lat="42.44207" lon="2.11939">
        <ele>2080</ele>
        <time>2010-07-01T07:19:37Z</time>
      </trkpt>
      <trkpt lat="42.44204" lon="2.11943">
        <ele>2082</ele>
        <time>2010-07-01T07:19:47Z</time>
      </trkpt>
      <trkpt lat="42.44202" lon="2.11943">
        <ele>2083</ele>
        <time>2010-07-01T07:19:57Z</time>
      </trkpt>
      <trkpt lat="42.44199" lon="2.11943">
        <ele>2084</ele>
        <time>2010-07-01T07:20:07Z</time>
      </trkpt>
      <trkpt lat="42.44207" lon="2.11945">
        <ele>2085</ele>
        <time>2010-07-01T07:20:17Z</time>
      </trkpt>
      <trkpt lat="42.44204" lon="2.11947">
        <ele>2083</ele>
        <time>2010-07-01T07:20:27Z</time>
      </trkpt>
      <trkpt lat="42.44201" lon="2.11951">
        <ele>2082</ele>
        <time>2010-07-01T07:20:37Z</time>
      </trkpt>
      <trkpt lat="42.44198" lon="2.11954">
        <ele>2081</ele>
        <time>2010-07-01T07:20:47Z</time>
      </trkpt>
      <trkpt lat="42.44191" lon="2.11953">
        <ele>2078</ele>
        <time>2010-07-01T07:20:57Z</time>
      </trkpt>
      <trkpt lat="42.4419" lon="2.11955">
        <ele>2078</ele>
        <time>2010-07-01T07:21:07Z</time>
      </trkpt>
      <trkpt lat="42.44191" lon="2.11955">
        <ele>2079</ele>
        <time>2010-07-01T07:21:17Z</time>
      </trkpt>
      <trkpt lat="42.4419" lon="2.11955">
        <ele>2080</ele>
        <time>2010-07-01T07:21:27Z</time>
      </trkpt>
      <trkpt lat="42.44184" lon="2.11956">
        <ele>2083</ele>
        <time>2010-07-01T07:21:37Z</time>
      </trkpt>
      <trkpt lat="42.44183" lon="2.11957">
        <ele>2084</ele>
        <time>2010-07-01T07:21:47Z</time>
      </trkpt>
      <trkpt lat="42.44185" lon="2.11958">
        <ele>2085</ele>
        <time>2010-07-01T07:21:57Z</time>
      </trkpt>
      <trkpt lat="42.4419" lon="2.1195">
        <ele>2084</ele>
        <time>2010-07-01T07:22:07Z</time>
      </trkpt>
      <trkpt lat="42.44188" lon="2.11959">
        <ele>2084</ele>
        <time>2010-07-01T07:22:17Z</time>
      </trkpt>
      <trkpt lat="42.44177" lon="2.11968">
        <ele>2083</ele>
        <time>2010-07-01T07:22:27Z</time>
      </trkpt>
      <trkpt lat="42.44172" lon="2.11966">
        <ele>2083</ele>
        <time>2010-07-01T07:22:37Z</time>
      </trkpt>
      <trkpt lat="42.44167" lon="2.11969">
        <ele>2083</ele>
        <time>2010-07-01T07:22:47Z</time>
      </trkpt>
      <trkpt lat="42.44162" lon="2.11971">
        <ele>2084</ele>
        <time>2010-07-01T07:22:57Z</time>
      </trkpt>
      <trkpt lat="42.44162" lon="2.1197">
        <ele>2084</ele>
        <time>2010-07-01T07:23:07Z</time>
      </trkpt>
      <trkpt lat="42.44155" lon="2.11975">
        <ele>2085</ele>
        <time>2010-07-01T07:23:17Z</time>
      </trkpt>
      <trkpt lat="42.44151" lon="2.11977">
        <ele>2086</ele>
        <time>2010-07-01T07:23:27Z</time>
      </trkpt>
      <trkpt lat="42.44147" lon="2.11981">
        <ele>2087</ele>
        <time>2010-07-01T07:23:37Z</time>
      </trkpt>
      <trkpt lat="42.44145" lon="2.11985">
        <ele>2087</ele>
        <time>2010-07-01T07:23:47Z</time>
      </trkpt>
      <trkpt lat="42.44139" lon="2.11987">
        <ele>2088</ele>
        <time>2010-07-01T07:23:57Z</time>
      </trkpt>
      <trkpt lat="42.44135" lon="2.1199">
        <ele>2088</ele>
        <time>2010-07-01T07:24:07Z</time>
      </trkpt>
      <trkpt lat="42.4413" lon="2.11992">
        <ele>2089</ele>
        <time>2010-07-01T07:24:17Z</time>
      </trkpt>
      <trkpt lat="42.44125" lon="2.11994">
        <ele>2091</ele>
        <time>2010-07-01T07:24:27Z</time>
      </trkpt>
      <trkpt lat="42.44122" lon="2.11993">
        <ele>2092</ele>
        <time>2010-07-01T07:24:37Z</time>
      </trkpt>
      <trkpt lat="42.44122" lon="2.11993">
        <ele>2092</ele>
        <time>2010-07-01T07:24:47Z</time>
      </trkpt>
      <trkpt lat="42.44118" lon="2.11996">
        <ele>2094</ele>
        <time>2010-07-01T07:24:57Z</time>
      </trkpt>
      <trkpt lat="42.44115" lon="2.12002">
        <ele>2097</ele>
        <time>2010-07-01T07:25:07Z</time>
      </trkpt>
      <trkpt lat="42.4411" lon="2.1201">
        <ele>2099</ele>
        <time>2010-07-01T07:25:17Z</time>
      </trkpt>
      <trkpt lat="42.44106" lon="2.12016">
        <ele>2100</ele>
        <time>2010-07-01T07:25:27Z</time>
      </trkpt>
      <trkpt lat="42.44101" lon="2.12021">
        <ele>2100</ele>
        <time>2010-07-01T07:25:37Z</time>
      </trkpt>
      <trkpt lat="42.44096" lon="2.12026">
        <ele>2101</ele>
        <time>2010-07-01T07:25:47Z</time>
      </trkpt>
      <trkpt lat="42.44089" lon="2.1203">
        <ele>2101</ele>
        <time>2010-07-01T07:25:57Z</time>
      </trkpt>
      <trkpt lat="42.44082" lon="2.12031">
        <ele>2103</ele>
        <time>2010-07-01T07:26:07Z</time>
      </trkpt>
      <trkpt lat="42.44075" lon="2.1203">
        <ele>2105</ele>
        <time>2010-07-01T07:26:17Z</time>
      </trkpt>
      <trkpt lat="42.44072" lon="2.12032">
        <ele>2107</ele>
        <time>2010-07-01T07:26:27Z</time>
      </trkpt>
      <trkpt lat="42.44069" lon="2.12035">
        <ele>2108</ele>
        <time>2010-07-01T07:26:37Z</time>
      </trkpt>
      <trkpt lat="42.44066" lon="2.12036">
        <ele>2109</ele>
        <time>2010-07-01T07:26:47Z</time>
      </trkpt>
      <trkpt lat="42.44062" lon="2.12038">
        <ele>2110</ele>
        <time>2010-07-01T07:26:57Z</time>
      </trkpt>
      <trkpt lat="42.44059" lon="2.12042">
        <ele>2111</ele>
        <time>2010-07-01T07:27:07Z</time>
      </trkpt>
      <trkpt lat="42.44055" lon="2.12042">
        <ele>2112</ele>
        <time>2010-07-01T07:27:17Z</time>
      </trkpt>
      <trkpt lat="42.44058" lon="2.12045">
        <ele>2113</ele>
        <time>2010-07-01T07:27:27Z</time>
      </trkpt>
      <trkpt lat="42.44052" lon="2.12048">
        <ele>2115</ele>
        <time>2010-07-01T07:27:37Z</time>
      </trkpt>
      <trkpt lat="42.44046" lon="2.12049">
        <ele>2116</ele>
        <time>2010-07-01T07:27:47Z</time>
      </trkpt>
      <trkpt lat="42.44042" lon="2.12045">
        <ele>2118</ele>
        <time>2010-07-01T07:27:57Z</time>
      </trkpt>
      <trkpt lat="42.44041" lon="2.12042">
        <ele>2119</ele>
        <time>2010-07-01T07:28:07Z</time>
      </trkpt>
      <trkpt lat="42.44038" lon="2.12044">
        <ele>2121</ele>
        <time>2010-07-01T07:28:17Z</time>
      </trkpt>
      <trkpt lat="42.44037" lon="2.12047">
        <ele>2121</ele>
        <time>2010-07-01T07:28:27Z</time>
      </trkpt>
      <trkpt lat="42.44032" lon="2.1205">
        <ele>2123</ele>
        <time>2010-07-01T07:28:37Z</time>
      </trkpt>
      <trkpt lat="42.4403" lon="2.1205">
        <ele>2123</ele>
        <time>2010-07-01T07:28:47Z</time>
      </trkpt>
      <trkpt lat="42.44029" lon="2.12057">
        <ele>2123</ele>
        <time>2010-07-01T07:28:57Z</time>
      </trkpt>
      <trkpt lat="42.44022" lon="2.12061">
        <ele>2123</ele>
        <time>2010-07-01T07:29:07Z</time>
      </trkpt>
      <trkpt lat="42.44018" lon="2.12068">
        <ele>2123</ele>
        <time>2010-07-01T07:29:17Z</time>
      </trkpt>
      <trkpt lat="42.44011" lon="2.12073">
        <ele>2123</ele>
        <time>2010-07-01T07:29:27Z</time>
      </trkpt>
      <trkpt lat="42.4401" lon="2.12074">
        <ele>2123</ele>
        <time>2010-07-01T07:29:37Z</time>
      </trkpt>
      <trkpt lat="42.44008" lon="2.12077">
        <ele>2124</ele>
        <time>2010-07-01T07:29:47Z</time>
      </trkpt>
      <trkpt lat="42.44008" lon="2.12079">
        <ele>2124</ele>
        <time>2010-07-01T07:29:57Z</time>
      </trkpt>
      <trkpt lat="42.44008" lon="2.12077">
        <ele>2124</ele>
        <time>2010-07-01T07:30:07Z</time>
      </trkpt>
      <trkpt lat="42.44008" lon="2.12079">
        <ele>2125</ele>
        <time>2010-07-01T07:30:17Z</time>
      </trkpt>
      <trkpt lat="42.44007" lon="2.1208">
        <ele>2126</ele>
        <time>2010-07-01T07:30:27Z</time>
      </trkpt>
      <trkpt lat="42.44008" lon="2.12079">
        <ele>2126</ele>
        <time>2010-07-01T07:30:37Z</time>
      </trkpt>
      <trkpt lat="42.44009" lon="2.12078">
        <ele>2129</ele>
        <time>2010-07-01T07:30:47Z</time>
      </trkpt>
      <trkpt lat="42.44012" lon="2.12077">
        <ele>2133</ele>
        <time>2010-07-01T07:30:57Z</time>
      </trkpt>
      <trkpt lat="42.44011" lon="2.12076">
        <ele>2133</ele>
        <time>2010-07-01T07:31:07Z</time>
      </trkpt>
      <trkpt lat="42.44012" lon="2.12078">
        <ele>2133</ele>
        <time>2010-07-01T07:31:17Z</time>
      </trkpt>
      <trkpt lat="42.44013" lon="2.12078">
        <ele>2133</ele>
        <time>2010-07-01T07:31:27Z</time>
      </trkpt>
      <trkpt lat="42.44008" lon="2.12085">
        <ele>2133</ele>
        <time>2010-07-01T07:31:37Z</time>
      </trkpt>
      <trkpt lat="42.44" lon="2.12092">
        <ele>2132</ele>
        <time>2010-07-01T07:31:47Z</time>
      </trkpt>
      <trkpt lat="42.43993" lon="2.121">
        <ele>2130</ele>
        <time>2010-07-01T07:31:57Z</time>
      </trkpt>
      <trkpt lat="42.43987" lon="2.12108">
        <ele>2129</ele>
        <time>2010-07-01T07:32:07Z</time>
      </trkpt>
      <trkpt lat="42.43985" lon="2.12117">
        <ele>2128</ele>
        <time>2010-07-01T07:32:17Z</time>
      </trkpt>
      <trkpt lat="42.43979" lon="2.12126">
        <ele>2126</ele>
        <time>2010-07-01T07:32:27Z</time>
      </trkpt>
      <trkpt lat="42.43965" lon="2.12129">
        <ele>2124</ele>
        <time>2010-07-01T07:32:37Z</time>
      </trkpt>
      <trkpt lat="42.43955" lon="2.12135">
        <ele>2122</ele>
        <time>2010-07-01T07:32:47Z</time>
      </trkpt>
      <trkpt lat="42.43945" lon="2.12146">
        <ele>2122</ele>
        <time>2010-07-01T07:32:57Z</time>
      </trkpt>
      <trkpt lat="42.43937" lon="2.12156">
        <ele>2122</ele>
        <time>2010-07-01T07:33:07Z</time>
      </trkpt>
      <trkpt lat="42.4393" lon="2.12164">
        <ele>2122</ele>
        <time>2010-07-01T07:33:17Z</time>
      </trkpt>
      <trkpt lat="42.43925" lon="2.12178">
        <ele>2122</ele>
        <time>2010-07-01T07:33:27Z</time>
      </trkpt>
      <trkpt lat="42.43919" lon="2.12189">
        <ele>2123</ele>
        <time>2010-07-01T07:33:37Z</time>
      </trkpt>
      <trkpt lat="42.43911" lon="2.122">
        <ele>2124</ele>
        <time>2010-07-01T07:33:47Z</time>
      </trkpt>
      <trkpt lat="42.43907" lon="2.12208">
        <ele>2124</ele>
        <time>2010-07-01T07:33:57Z</time>
      </trkpt>
      <trkpt lat="42.43901" lon="2.12215">
        <ele>2125</ele>
        <time>2010-07-01T07:34:07Z</time>
      </trkpt>
      <trkpt lat="42.43895" lon="2.12222">
        <ele>2126</ele>
        <time>2010-07-01T07:34:17Z</time>
      </trkpt>
      <trkpt lat="42.4389" lon="2.12226">
        <ele>2126</ele>
        <time>2010-07-01T07:34:27Z</time>
      </trkpt>
      <trkpt lat="42.43886" lon="2.1223">
        <ele>2127</ele>
        <time>2010-07-01T07:34:37Z</time>
      </trkpt>
      <trkpt lat="42.43882" lon="2.12234">
        <ele>2127</ele>
        <time>2010-07-01T07:34:47Z</time>
      </trkpt>
      <trkpt lat="42.43877" lon="2.12236">
        <ele>2127</ele>
        <time>2010-07-01T07:34:57Z</time>
      </trkpt>
      <trkpt lat="42.43871" lon="2.1224">
        <ele>2128</ele>
        <time>2010-07-01T07:35:07Z</time>
      </trkpt>
      <trkpt lat="42.4386" lon="2.12244">
        <ele>2128</ele>
        <time>2010-07-01T07:35:17Z</time>
      </trkpt>
      <trkpt lat="42.43853" lon="2.12248">
        <ele>2128</ele>
        <time>2010-07-01T07:35:27Z</time>
      </trkpt>
      <trkpt lat="42.43846" lon="2.12249">
        <ele>2128</ele>
        <time>2010-07-01T07:35:37Z</time>
      </trkpt>
      <trkpt lat="42.43839" lon="2.12251">
        <ele>2128</ele>
        <time>2010-07-01T07:35:47Z</time>
      </trkpt>
      <trkpt lat="42.43834" lon="2.12254">
        <ele>2128</ele>
        <time>2010-07-01T07:35:57Z</time>
      </trkpt>
      <trkpt lat="42.43826" lon="2.12258">
        <ele>2128</ele>
        <time>2010-07-01T07:36:07Z</time>
      </trkpt>
      <trkpt lat="42.4382" lon="2.12258">
        <ele>2128</ele>
        <time>2010-07-01T07:36:17Z</time>
      </trkpt>
      <trkpt lat="42.43809" lon="2.12256">
        <ele>2129</ele>
        <time>2010-07-01T07:36:27Z</time>
      </trkpt>
      <trkpt lat="42.43803" lon="2.12258">
        <ele>2129</ele>
        <time>2010-07-01T07:36:37Z</time>
      </trkpt>
      <trkpt lat="42.43796" lon="2.12263">
        <ele>2129</ele>
        <time>2010-07-01T07:36:47Z</time>
      </trkpt>
      <trkpt lat="42.43789" lon="2.12271">
        <ele>2129</ele>
        <time>2010-07-01T07:36:57Z</time>
      </trkpt>
      <trkpt lat="42.4378" lon="2.12279">
        <ele>2130</ele>
        <time>2010-07-01T07:37:07Z</time>
      </trkpt>
      <trkpt lat="42.43773" lon="2.12287">
        <ele>2131</ele>
        <time>2010-07-01T07:37:17Z</time>
      </trkpt>
      <trkpt lat="42.43768" lon="2.12297">
        <ele>2131</ele>
        <time>2010-07-01T07:37:27Z</time>
      </trkpt>
      <trkpt lat="42.43764" lon="2.12306">
        <ele>2132</ele>
        <time>2010-07-01T07:37:37Z</time>
      </trkpt>
      <trkpt lat="42.43761" lon="2.12315">
        <ele>2132</ele>
        <time>2010-07-01T07:37:47Z</time>
      </trkpt>
      <trkpt lat="42.43756" lon="2.12323">
        <ele>2134</ele>
        <time>2010-07-01T07:37:57Z</time>
      </trkpt>
      <trkpt lat="42.43752" lon="2.12328">
        <ele>2135</ele>
        <time>2010-07-01T07:38:07Z</time>
      </trkpt>
      <trkpt lat="42.4375" lon="2.12333">
        <ele>2135</ele>
        <time>2010-07-01T07:38:17Z</time>
      </trkpt>
      <trkpt lat="42.43745" lon="2.12338">
        <ele>2136</ele>
        <time>2010-07-01T07:38:27Z</time>
      </trkpt>
      <trkpt lat="42.43744" lon="2.12346">
        <ele>2137</ele>
        <time>2010-07-01T07:38:37Z</time>
      </trkpt>
      <trkpt lat="42.43742" lon="2.12354">
        <ele>2137</ele>
        <time>2010-07-01T07:38:47Z</time>
      </trkpt>
      <trkpt lat="42.43734" lon="2.12359">
        <ele>2137</ele>
        <time>2010-07-01T07:38:57Z</time>
      </trkpt>
      <trkpt lat="42.43729" lon="2.1236">
        <ele>2137</ele>
        <time>2010-07-01T07:39:07Z</time>
      </trkpt>
      <trkpt lat="42.43727" lon="2.12372">
        <ele>2137</ele>
        <time>2010-07-01T07:39:17Z</time>
      </trkpt>
      <trkpt lat="42.43726" lon="2.12384">
        <ele>2137</ele>
        <time>2010-07-01T07:39:27Z</time>
      </trkpt>
      <trkpt lat="42.43723" lon="2.12396">
        <ele>2138</ele>
        <time>2010-07-01T07:39:37Z</time>
      </trkpt>
      <trkpt lat="42.43722" lon="2.12403">
        <ele>2138</ele>
        <time>2010-07-01T07:39:47Z</time>
      </trkpt>
      <trkpt lat="42.43709" lon="2.12411">
        <ele>2139</ele>
        <time>2010-07-01T07:39:57Z</time>
      </trkpt>
      <trkpt lat="42.43699" lon="2.12417">
        <ele>2140</ele>
        <time>2010-07-01T07:40:07Z</time>
      </trkpt>
      <trkpt lat="42.43691" lon="2.12425">
        <ele>2141</ele>
        <time>2010-07-01T07:40:17Z</time>
      </trkpt>
      <trkpt lat="42.43686" lon="2.12436">
        <ele>2142</ele>
        <time>2010-07-01T07:40:27Z</time>
      </trkpt>
      <trkpt lat="42.4368" lon="2.12444">
        <ele>2143</ele>
        <time>2010-07-01T07:40:37Z</time>
      </trkpt>
      <trkpt lat="42.43678" lon="2.12452">
        <ele>2143</ele>
        <time>2010-07-01T07:40:47Z</time>
      </trkpt>
      <trkpt lat="42.43675" lon="2.12463">
        <ele>2144</ele>
        <time>2010-07-01T07:40:57Z</time>
      </trkpt>
      <trkpt lat="42.4367" lon="2.12473">
        <ele>2144</ele>
        <time>2010-07-01T07:41:07Z</time>
      </trkpt>
      <trkpt lat="42.43663" lon="2.12482">
        <ele>2143</ele>
        <time>2010-07-01T07:41:17Z</time>
      </trkpt>
      <trkpt lat="42.43658" lon="2.12494">
        <ele>2142</ele>
        <time>2010-07-01T07:41:27Z</time>
      </trkpt>
      <trkpt lat="42.43651" lon="2.12505">
        <ele>2142</ele>
        <time>2010-07-01T07:41:37Z</time>
      </trkpt>
      <trkpt lat="42.43649" lon="2.12506">
        <ele>2141</ele>
        <time>2010-07-01T07:41:47Z</time>
      </trkpt>
      <trkpt lat="42.43648" lon="2.12507">
        <ele>2142</ele>
        <time>2010-07-01T07:41:57Z</time>
      </trkpt>
      <trkpt lat="42.43648" lon="2.12511">
        <ele>2142</ele>
        <time>2010-07-01T07:42:07Z</time>
      </trkpt>
      <trkpt lat="42.43646" lon="2.12515">
        <ele>2143</ele>
        <time>2010-07-01T07:42:17Z</time>
      </trkpt>
      <trkpt lat="42.43641" lon="2.12522">
        <ele>2146</ele>
        <time>2010-07-01T07:42:27Z</time>
      </trkpt>
      <trkpt lat="42.43636" lon="2.12527">
        <ele>2148</ele>
        <time>2010-07-01T07:42:37Z</time>
      </trkpt>
      <trkpt lat="42.43634" lon="2.12534">
        <ele>2149</ele>
        <time>2010-07-01T07:42:47Z</time>
      </trkpt>
      <trkpt lat="42.43627" lon="2.12538">
        <ele>2151</ele>
        <time>2010-07-01T07:42:57Z</time>
      </trkpt>
      <trkpt lat="42.43624" lon="2.12543">
        <ele>2152</ele>
        <time>2010-07-01T07:43:07Z</time>
      </trkpt>
      <trkpt lat="42.43619" lon="2.12545">
        <ele>2153</ele>
        <time>2010-07-01T07:43:17Z</time>
      </trkpt>
      <trkpt lat="42.43614" lon="2.1255">
        <ele>2155</ele>
        <time>2010-07-01T07:43:27Z</time>
      </trkpt>
      <trkpt lat="42.43606" lon="2.12554">
        <ele>2156</ele>
        <time>2010-07-01T07:43:37Z</time>
      </trkpt>
      <trkpt lat="42.43601" lon="2.12559">
        <ele>2156</ele>
        <time>2010-07-01T07:43:47Z</time>
      </trkpt>
      <trkpt lat="42.43594" lon="2.12561">
        <ele>2157</ele>
        <time>2010-07-01T07:43:57Z</time>
      </trkpt>
      <trkpt lat="42.43592" lon="2.1257">
        <ele>2157</ele>
        <time>2010-07-01T07:44:07Z</time>
      </trkpt>
      <trkpt lat="42.43589" lon="2.12579">
        <ele>2158</ele>
        <time>2010-07-01T07:44:17Z</time>
      </trkpt>
      <trkpt lat="42.43583" lon="2.12588">
        <ele>2158</ele>
        <time>2010-07-01T07:44:27Z</time>
      </trkpt>
      <trkpt lat="42.43575" lon="2.12597">
        <ele>2158</ele>
        <time>2010-07-01T07:44:37Z</time>
      </trkpt>
      <trkpt lat="42.43567" lon="2.12606">
        <ele>2158</ele>
        <time>2010-07-01T07:44:47Z</time>
      </trkpt>
      <trkpt lat="42.43562" lon="2.12614">
        <ele>2158</ele>
        <time>2010-07-01T07:44:57Z</time>
      </trkpt>
      <trkpt lat="42.43555" lon="2.12622">
        <ele>2158</ele>
        <time>2010-07-01T07:45:07Z</time>
      </trkpt>
      <trkpt lat="42.43551" lon="2.12629">
        <ele>2159</ele>
        <time>2010-07-01T07:45:17Z</time>
      </trkpt>
      <trkpt lat="42.43546" lon="2.12634">
        <ele>2159</ele>
        <time>2010-07-01T07:45:27Z</time>
      </trkpt>
      <trkpt lat="42.4354" lon="2.1264">
        <ele>2160</ele>
        <time>2010-07-01T07:45:37Z</time>
      </trkpt>
      <trkpt lat="42.43536" lon="2.12648">
        <ele>2161</ele>
        <time>2010-07-01T07:45:47Z</time>
      </trkpt>
      <trkpt lat="42.43532" lon="2.12653">
        <ele>2162</ele>
        <time>2010-07-01T07:45:57Z</time>
      </trkpt>
      <trkpt lat="42.43526" lon="2.1266">
        <ele>2162</ele>
        <time>2010-07-01T07:46:07Z</time>
      </trkpt>
      <trkpt lat="42.4352" lon="2.1267">
        <ele>2162</ele>
        <time>2010-07-01T07:46:17Z</time>
      </trkpt>
      <trkpt lat="42.43515" lon="2.12673">
        <ele>2161</ele>
        <time>2010-07-01T07:46:27Z</time>
      </trkpt>
      <trkpt lat="42.43511" lon="2.12682">
        <ele>2161</ele>
        <time>2010-07-01T07:46:37Z</time>
      </trkpt>
      <trkpt lat="42.43509" lon="2.1269">
        <ele>2160</ele>
        <time>2010-07-01T07:46:47Z</time>
      </trkpt>
      <trkpt lat="42.43505" lon="2.12696">
        <ele>2160</ele>
        <time>2010-07-01T07:46:57Z</time>
      </trkpt>
      <trkpt lat="42.43501" lon="2.12705">
        <ele>2160</ele>
        <time>2010-07-01T07:47:07Z</time>
      </trkpt>
      <trkpt lat="42.435" lon="2.12713">
        <ele>2160</ele>
        <time>2010-07-01T07:47:17Z</time>
      </trkpt>
      <trkpt lat="42.43499" lon="2.12722">
        <ele>2160</ele>
        <time>2010-07-01T07:47:27Z</time>
      </trkpt>
      <trkpt lat="42.43494" lon="2.12731">
        <ele>2160</ele>
        <time>2010-07-01T07:47:37Z</time>
      </trkpt>
      <trkpt lat="42.4349" lon="2.12741">
        <ele>2161</ele>
        <time>2010-07-01T07:47:47Z</time>
      </trkpt>
      <trkpt lat="42.43488" lon="2.1275">
        <ele>2162</ele>
        <time>2010-07-01T07:47:57Z</time>
      </trkpt>
      <trkpt lat="42.43487" lon="2.1276">
        <ele>2163</ele>
        <time>2010-07-01T07:48:07Z</time>
      </trkpt>
      <trkpt lat="42.43486" lon="2.12768">
        <ele>2163</ele>
        <time>2010-07-01T07:48:17Z</time>
      </trkpt>
      <trkpt lat="42.43484" lon="2.12776">
        <ele>2164</ele>
        <time>2010-07-01T07:48:27Z</time>
      </trkpt>
      <trkpt lat="42.4348" lon="2.12784">
        <ele>2166</ele>
        <time>2010-07-01T07:48:37Z</time>
      </trkpt>
      <trkpt lat="42.43477" lon="2.12788">
        <ele>2169</ele>
        <time>2010-07-01T07:48:47Z</time>
      </trkpt>
      <trkpt lat="42.43476" lon="2.12793">
        <ele>2170</ele>
        <time>2010-07-01T07:48:57Z</time>
      </trkpt>
      <trkpt lat="42.43477" lon="2.12798">
        <ele>2172</ele>
        <time>2010-07-01T07:49:07Z</time>
      </trkpt>
      <trkpt lat="42.43476" lon="2.12803">
        <ele>2174</ele>
        <time>2010-07-01T07:49:17Z</time>
      </trkpt>
      <trkpt lat="42.43473" lon="2.12811">
        <ele>2175</ele>
        <time>2010-07-01T07:49:27Z</time>
      </trkpt>
      <trkpt lat="42.43475" lon="2.12815">
        <ele>2175</ele>
        <time>2010-07-01T07:49:37Z</time>
      </trkpt>
      <trkpt lat="42.43475" lon="2.12823">
        <ele>2174</ele>
        <time>2010-07-01T07:49:47Z</time>
      </trkpt>
      <trkpt lat="42.43471" lon="2.1283">
        <ele>2173</ele>
        <time>2010-07-01T07:49:57Z</time>
      </trkpt>
      <trkpt lat="42.43465" lon="2.12832">
        <ele>2173</ele>
        <time>2010-07-01T07:50:07Z</time>
      </trkpt>
      <trkpt lat="42.43466" lon="2.12839">
        <ele>2172</ele>
        <time>2010-07-01T07:50:17Z</time>
      </trkpt>
      <trkpt lat="42.43461" lon="2.12848">
        <ele>2173</ele>
        <time>2010-07-01T07:50:27Z</time>
      </trkpt>
      <trkpt lat="42.43461" lon="2.12857">
        <ele>2174</ele>
        <time>2010-07-01T07:50:37Z</time>
      </trkpt>
      <trkpt lat="42.43462" lon="2.12865">
        <ele>2175</ele>
        <time>2010-07-01T07:50:47Z</time>
      </trkpt>
      <trkpt lat="42.43461" lon="2.12874">
        <ele>2176</ele>
        <time>2010-07-01T07:50:57Z</time>
      </trkpt>
      <trkpt lat="42.43461" lon="2.12879">
        <ele>2177</ele>
        <time>2010-07-01T07:51:07Z</time>
      </trkpt>
      <trkpt lat="42.43462" lon="2.12879">
        <ele>2177</ele>
        <time>2010-07-01T07:51:17Z</time>
      </trkpt>
      <trkpt lat="42.43463" lon="2.12879">
        <ele>2178</ele>
        <time>2010-07-01T07:51:27Z</time>
      </trkpt>
      <trkpt lat="42.43468" lon="2.12879">
        <ele>2180</ele>
        <time>2010-07-01T07:51:37Z</time>
      </trkpt>
      <trkpt lat="42.4347" lon="2.1288">
        <ele>2180</ele>
        <time>2010-07-01T07:51:47Z</time>
      </trkpt>
      <trkpt lat="42.43473" lon="2.12879">
        <ele>2181</ele>
        <time>2010-07-01T07:51:57Z</time>
      </trkpt>
      <trkpt lat="42.43472" lon="2.1288">
        <ele>2181</ele>
        <time>2010-07-01T07:52:07Z</time>
      </trkpt>
      <trkpt lat="42.43463" lon="2.12884">
        <ele>2181</ele>
        <time>2010-07-01T07:52:17Z</time>
      </trkpt>
      <trkpt lat="42.43457" lon="2.12886">
        <ele>2181</ele>
        <time>2010-07-01T07:52:27Z</time>
      </trkpt>
      <trkpt lat="42.43457" lon="2.12894">
        <ele>2181</ele>
        <time>2010-07-01T07:52:37Z</time>
      </trkpt>
      <trkpt lat="42.43454" lon="2.129">
        <ele>2182</ele>
        <time>2010-07-01T07:52:47Z</time>
      </trkpt>
      <trkpt lat="42.43452" lon="2.12908">
        <ele>2182</ele>
        <time>2010-07-01T07:52:57Z</time>
      </trkpt>
      <trkpt lat="42.43448" lon="2.12917">
        <ele>2182</ele>
        <time>2010-07-01T07:53:07Z</time>
      </trkpt>
      <trkpt lat="42.43441" lon="2.12923">
        <ele>2183</ele>
        <time>2010-07-01T07:53:17Z</time>
      </trkpt>
      <trkpt lat="42.43441" lon="2.12928">
        <ele>2183</ele>
        <time>2010-07-01T07:53:27Z</time>
      </trkpt>
      <trkpt lat="42.43438" lon="2.12934">
        <ele>2183</ele>
        <time>2010-07-01T07:53:37Z</time>
      </trkpt>
      <trkpt lat="42.43438" lon="2.12939">
        <ele>2184</ele>
        <time>2010-07-01T07:53:47Z</time>
      </trkpt>
      <trkpt lat="42.43441" lon="2.12945">
        <ele>2185</ele>
        <time>2010-07-01T07:53:57Z</time>
      </trkpt>
      <trkpt lat="42.43438" lon="2.12948">
        <ele>2186</ele>
        <time>2010-07-01T07:54:07Z</time>
      </trkpt>
      <trkpt lat="42.43433" lon="2.12951">
        <ele>2187</ele>
        <time>2010-07-01T07:54:17Z</time>
      </trkpt>
      <trkpt lat="42.43429" lon="2.12955">
        <ele>2189</ele>
        <time>2010-07-01T07:54:27Z</time>
      </trkpt>
      <trkpt lat="42.43429" lon="2.12959">
        <ele>2191</ele>
        <time>2010-07-01T07:54:37Z</time>
      </trkpt>
      <trkpt lat="42.43428" lon="2.12962">
        <ele>2193</ele>
        <time>2010-07-01T07:54:47Z</time>
      </trkpt>
      <trkpt lat="42.43425" lon="2.12963">
        <ele>2195</ele>
        <time>2010-07-01T07:54:57Z</time>
      </trkpt>
      <trkpt lat="42.43425" lon="2.12966">
        <ele>2196</ele>
        <time>2010-07-01T07:55:07Z</time>
      </trkpt>
      <trkpt lat="42.43425" lon="2.12972">
        <ele>2199</ele>
        <time>2010-07-01T07:55:17Z</time>
      </trkpt>
      <trkpt lat="42.43427" lon="2.12976">
        <ele>2202</ele>
        <time>2010-07-01T07:55:27Z</time>
      </trkpt>
      <trkpt lat="42.43427" lon="2.12981">
        <ele>2204</ele>
        <time>2010-07-01T07:55:37Z</time>
      </trkpt>
      <trkpt lat="42.43429" lon="2.12984">
        <ele>2206</ele>
        <time>2010-07-01T07:55:47Z</time>
      </trkpt>
      <trkpt lat="42.43427" lon="2.12987">
        <ele>2208</ele>
        <time>2010-07-01T07:55:57Z</time>
      </trkpt>
      <trkpt lat="42.43423" lon="2.1299">
        <ele>2209</ele>
        <time>2010-07-01T07:56:07Z</time>
      </trkpt>
      <trkpt lat="42.4342" lon="2.12992">
        <ele>2209</ele>
        <time>2010-07-01T07:56:17Z</time>
      </trkpt>
      <trkpt lat="42.43418" lon="2.12995">
        <ele>2210</ele>
        <time>2010-07-01T07:56:27Z</time>
      </trkpt>
      <trkpt lat="42.43417" lon="2.13">
        <ele>2210</ele>
        <time>2010-07-01T07:56:37Z</time>
      </trkpt>
      <trkpt lat="42.43416" lon="2.13005">
        <ele>2210</ele>
        <time>2010-07-01T07:56:47Z</time>
      </trkpt>
      <trkpt lat="42.43412" lon="2.13008">
        <ele>2210</ele>
        <time>2010-07-01T07:56:57Z</time>
      </trkpt>
      <trkpt lat="42.43411" lon="2.13015">
        <ele>2212</ele>
        <time>2010-07-01T07:57:07Z</time>
      </trkpt>
      <trkpt lat="42.43409" lon="2.13021">
        <ele>2213</ele>
        <time>2010-07-01T07:57:17Z</time>
      </trkpt>
      <trkpt lat="42.43406" lon="2.13025">
        <ele>2215</ele>
        <time>2010-07-01T07:57:27Z</time>
      </trkpt>
      <trkpt lat="42.43404" lon="2.1303">
        <ele>2216</ele>
        <time>2010-07-01T07:57:37Z</time>
      </trkpt>
      <trkpt lat="42.43401" lon="2.13033">
        <ele>2217</ele>
        <time>2010-07-01T07:57:47Z</time>
      </trkpt>
      <trkpt lat="42.43398" lon="2.13033">
        <ele>2217</ele>
        <time>2010-07-01T07:57:57Z</time>
      </trkpt>
      <trkpt lat="42.43398" lon="2.13035">
        <ele>2217</ele>
        <time>2010-07-01T07:58:07Z</time>
      </trkpt>
      <trkpt lat="42.43396" lon="2.13036">
        <ele>2218</ele>
        <time>2010-07-01T07:58:17Z</time>
      </trkpt>
      <trkpt lat="42.43397" lon="2.13039">
        <ele>2218</ele>
        <time>2010-07-01T07:58:27Z</time>
      </trkpt>
      <trkpt lat="42.43398" lon="2.13039">
        <ele>2218</ele>
        <time>2010-07-01T07:58:37Z</time>
      </trkpt>
      <trkpt lat="42.43396" lon="2.1304">
        <ele>2219</ele>
        <time>2010-07-01T07:58:47Z</time>
      </trkpt>
      <trkpt lat="42.43393" lon="2.13045">
        <ele>2219</ele>
        <time>2010-07-01T07:58:57Z</time>
      </trkpt>
      <trkpt lat="42.43397" lon="2.13044">
        <ele>2220</ele>
        <time>2010-07-01T07:59:07Z</time>
      </trkpt>
      <trkpt lat="42.43398" lon="2.13044">
        <ele>2220</ele>
        <time>2010-07-01T07:59:17Z</time>
      </trkpt>
      <trkpt lat="42.43398" lon="2.13043">
        <ele>2220</ele>
        <time>2010-07-01T07:59:27Z</time>
      </trkpt>
      <trkpt lat="42.4339" lon="2.13039">
        <ele>2218</ele>
        <time>2010-07-01T07:59:37Z</time>
      </trkpt>
      <trkpt lat="42.43392" lon="2.1304">
        <ele>2218</ele>
        <time>2010-07-01T07:59:47Z</time>
      </trkpt>
      <trkpt lat="42.43394" lon="2.1304">
        <ele>2218</ele>
        <time>2010-07-01T07:59:57Z</time>
      </trkpt>
      <trkpt lat="42.43392" lon="2.13039">
        <ele>2217</ele>
        <time>2010-07-01T08:00:07Z</time>
      </trkpt>
      <trkpt lat="42.43391" lon="2.13039">
        <ele>2217</ele>
        <time>2010-07-01T08:00:17Z</time>
      </trkpt>
      <trkpt lat="42.43392" lon="2.13046">
        <ele>2218</ele>
        <time>2010-07-01T08:00:27Z</time>
      </trkpt>
      <trkpt lat="42.43388" lon="2.13054">
        <ele>2220</ele>
        <time>2010-07-01T08:00:37Z</time>
      </trkpt>
      <trkpt lat="42.43386" lon="2.13062">
        <ele>2221</ele>
        <time>2010-07-01T08:00:47Z</time>
      </trkpt>
      <trkpt lat="42.43383" lon="2.13068">
        <ele>2222</ele>
        <time>2010-07-01T08:00:57Z</time>
      </trkpt>
      <trkpt lat="42.43375" lon="2.13069">
        <ele>2224</ele>
        <time>2010-07-01T08:01:07Z</time>
      </trkpt>
      <trkpt lat="42.43372" lon="2.13071">
        <ele>2226</ele>
        <time>2010-07-01T08:01:17Z</time>
      </trkpt>
      <trkpt lat="42.43371" lon="2.13071">
        <ele>2226</ele>
        <time>2010-07-01T08:01:27Z</time>
      </trkpt>
      <trkpt lat="42.43368" lon="2.13072">
        <ele>2227</ele>
        <time>2010-07-01T08:01:37Z</time>
      </trkpt>
      <trkpt lat="42.43367" lon="2.13071">
        <ele>2228</ele>
        <time>2010-07-01T08:01:47Z</time>
      </trkpt>
      <trkpt lat="42.43364" lon="2.13071">
        <ele>2228</ele>
        <time>2010-07-01T08:01:57Z</time>
      </trkpt>
      <trkpt lat="42.43361" lon="2.13073">
        <ele>2229</ele>
        <time>2010-07-01T08:02:07Z</time>
      </trkpt>
      <trkpt lat="42.4336" lon="2.13076">
        <ele>2229</ele>
        <time>2010-07-01T08:02:17Z</time>
      </trkpt>
      <trkpt lat="42.43354" lon="2.13073">
        <ele>2230</ele>
        <time>2010-07-01T08:02:27Z</time>
      </trkpt>
      <trkpt lat="42.43349" lon="2.13075">
        <ele>2231</ele>
        <time>2010-07-01T08:02:37Z</time>
      </trkpt>
      <trkpt lat="42.43346" lon="2.13077">
        <ele>2232</ele>
        <time>2010-07-01T08:02:47Z</time>
      </trkpt>
      <trkpt lat="42.43342" lon="2.13073">
        <ele>2235</ele>
        <time>2010-07-01T08:02:57Z</time>
      </trkpt>
      <trkpt lat="42.43343" lon="2.1307">
        <ele>2237</ele>
        <time>2010-07-01T08:03:07Z</time>
      </trkpt>
      <trkpt lat="42.43343" lon="2.13069">
        <ele>2237</ele>
        <time>2010-07-01T08:03:17Z</time>
      </trkpt>
      <trkpt lat="42.43345" lon="2.1307">
        <ele>2238</ele>
        <time>2010-07-01T08:03:27Z</time>
      </trkpt>
      <trkpt lat="42.43342" lon="2.13073">
        <ele>2240</ele>
        <time>2010-07-01T08:03:37Z</time>
      </trkpt>
      <trkpt lat="42.43339" lon="2.13077">
        <ele>2240</ele>
        <time>2010-07-01T08:03:47Z</time>
      </trkpt>
      <trkpt lat="42.43338" lon="2.13079">
        <ele>2240</ele>
        <time>2010-07-01T08:03:57Z</time>
      </trkpt>
      <trkpt lat="42.43335" lon="2.13081">
        <ele>2241</ele>
        <time>2010-07-01T08:04:07Z</time>
      </trkpt>
      <trkpt lat="42.4333" lon="2.13079">
        <ele>2241</ele>
        <time>2010-07-01T08:04:17Z</time>
      </trkpt>
      <trkpt lat="42.43327" lon="2.13078">
        <ele>2242</ele>
        <time>2010-07-01T08:04:27Z</time>
      </trkpt>
      <trkpt lat="42.43324" lon="2.13077">
        <ele>2242</ele>
        <time>2010-07-01T08:04:37Z</time>
      </trkpt>
      <trkpt lat="42.43322" lon="2.13076">
        <ele>2243</ele>
        <time>2010-07-01T08:04:47Z</time>
      </trkpt>
      <trkpt lat="42.43321" lon="2.13074">
        <ele>2243</ele>
        <time>2010-07-01T08:04:57Z</time>
      </trkpt>
      <trkpt lat="42.43317" lon="2.13075">
        <ele>2244</ele>
        <time>2010-07-01T08:05:07Z</time>
      </trkpt>
      <trkpt lat="42.43313" lon="2.13076">
        <ele>2243</ele>
        <time>2010-07-01T08:05:17Z</time>
      </trkpt>
      <trkpt lat="42.43311" lon="2.13079">
        <ele>2242</ele>
        <time>2010-07-01T08:05:27Z</time>
      </trkpt>
      <trkpt lat="42.43306" lon="2.13081">
        <ele>2241</ele>
        <time>2010-07-01T08:05:37Z</time>
      </trkpt>
      <trkpt lat="42.43305" lon="2.1308">
        <ele>2241</ele>
        <time>2010-07-01T08:05:47Z</time>
      </trkpt>
      <trkpt lat="42.43306" lon="2.1308">
        <ele>2241</ele>
        <time>2010-07-01T08:05:57Z</time>
      </trkpt>
      <trkpt lat="42.43306" lon="2.13083">
        <ele>2240</ele>
        <time>2010-07-01T08:06:07Z</time>
      </trkpt>
      <trkpt lat="42.43303" lon="2.13087">
        <ele>2241</ele>
        <time>2010-07-01T08:06:17Z</time>
      </trkpt>
      <trkpt lat="42.43301" lon="2.13092">
        <ele>2242</ele>
        <time>2010-07-01T08:06:27Z</time>
      </trkpt>
      <trkpt lat="42.43293" lon="2.13094">
        <ele>2243</ele>
        <time>2010-07-01T08:06:37Z</time>
      </trkpt>
      <trkpt lat="42.43284" lon="2.13097">
        <ele>2245</ele>
        <time>2010-07-01T08:06:47Z</time>
      </trkpt>
      <trkpt lat="42.43278" lon="2.13097">
        <ele>2246</ele>
        <time>2010-07-01T08:06:57Z</time>
      </trkpt>
      <trkpt lat="42.43272" lon="2.13094">
        <ele>2246</ele>
        <time>2010-07-01T08:07:07Z</time>
      </trkpt>
      <trkpt lat="42.43265" lon="2.13095">
        <ele>2246</ele>
        <time>2010-07-01T08:07:17Z</time>
      </trkpt>
      <trkpt lat="42.43258" lon="2.13097">
        <ele>2246</ele>
        <time>2010-07-01T08:07:27Z</time>
      </trkpt>
      <trkpt lat="42.43252" lon="2.13098">
        <ele>2246</ele>
        <time>2010-07-01T08:07:37Z</time>
      </trkpt>
      <trkpt lat="42.43247" lon="2.13099">
        <ele>2246</ele>
        <time>2010-07-01T08:07:47Z</time>
      </trkpt>
      <trkpt lat="42.43242" lon="2.13101">
        <ele>2246</ele>
        <time>2010-07-01T08:07:57Z</time>
      </trkpt>
      <trkpt lat="42.43239" lon="2.13101">
        <ele>2246</ele>
        <time>2010-07-01T08:08:07Z</time>
      </trkpt>
      <trkpt lat="42.43233" lon="2.13101">
        <ele>2246</ele>
        <time>2010-07-01T08:08:17Z</time>
      </trkpt>
      <trkpt lat="42.43228" lon="2.131">
        <ele>2247</ele>
        <time>2010-07-01T08:08:27Z</time>
      </trkpt>
      <trkpt lat="42.43226" lon="2.13098">
        <ele>2247</ele>
        <time>2010-07-01T08:08:37Z</time>
      </trkpt>
      <trkpt lat="42.43219" lon="2.131">
        <ele>2249</ele>
        <time>2010-07-01T08:08:47Z</time>
      </trkpt>
      <trkpt lat="42.4321" lon="2.13103">
        <ele>2252</ele>
        <time>2010-07-01T08:08:57Z</time>
      </trkpt>
      <trkpt lat="42.43203" lon="2.13104">
        <ele>2254</ele>
        <time>2010-07-01T08:09:07Z</time>
      </trkpt>
      <trkpt lat="42.432" lon="2.13104">
        <ele>2255</ele>
        <time>2010-07-01T08:09:17Z</time>
      </trkpt>
      <trkpt lat="42.43192" lon="2.13105">
        <ele>2258</ele>
        <time>2010-07-01T08:09:27Z</time>
      </trkpt>
      <trkpt lat="42.4319" lon="2.13105">
        <ele>2259</ele>
        <time>2010-07-01T08:09:37Z</time>
      </trkpt>
      <trkpt lat="42.43184" lon="2.1311">
        <ele>2262</ele>
        <time>2010-07-01T08:09:47Z</time>
      </trkpt>
      <trkpt lat="42.43184" lon="2.13116">
        <ele>2263</ele>
        <time>2010-07-01T08:09:57Z</time>
      </trkpt>
      <trkpt lat="42.43182" lon="2.13121">
        <ele>2265</ele>
        <time>2010-07-01T08:10:07Z</time>
      </trkpt>
      <trkpt lat="42.43179" lon="2.13124">
        <ele>2266</ele>
        <time>2010-07-01T08:10:17Z</time>
      </trkpt>
      <trkpt lat="42.4317" lon="2.13125">
        <ele>2265</ele>
        <time>2010-07-01T08:10:27Z</time>
      </trkpt>
      <trkpt lat="42.43163" lon="2.13127">
        <ele>2264</ele>
        <time>2010-07-01T08:10:37Z</time>
      </trkpt>
      <trkpt lat="42.43157" lon="2.13132">
        <ele>2263</ele>
        <time>2010-07-01T08:10:47Z</time>
      </trkpt>
      <trkpt lat="42.43152" lon="2.13136">
        <ele>2262</ele>
        <time>2010-07-01T08:10:57Z</time>
      </trkpt>
      <trkpt lat="42.43144" lon="2.13139">
        <ele>2262</ele>
        <time>2010-07-01T08:11:07Z</time>
      </trkpt>
      <trkpt lat="42.43137" lon="2.13141">
        <ele>2262</ele>
        <time>2010-07-01T08:11:17Z</time>
      </trkpt>
      <trkpt lat="42.43131" lon="2.1314">
        <ele>2262</ele>
        <time>2010-07-01T08:11:27Z</time>
      </trkpt>
      <trkpt lat="42.4312" lon="2.13139">
        <ele>2261</ele>
        <time>2010-07-01T08:11:37Z</time>
      </trkpt>
      <trkpt lat="42.43113" lon="2.13134">
        <ele>2261</ele>
        <time>2010-07-01T08:11:47Z</time>
      </trkpt>
      <trkpt lat="42.43106" lon="2.13139">
        <ele>2262</ele>
        <time>2010-07-01T08:11:57Z</time>
      </trkpt>
      <trkpt lat="42.43102" lon="2.1314">
        <ele>2264</ele>
        <time>2010-07-01T08:12:07Z</time>
      </trkpt>
      <trkpt lat="42.43099" lon="2.13141">
        <ele>2265</ele>
        <time>2010-07-01T08:12:17Z</time>
      </trkpt>
      <trkpt lat="42.43092" lon="2.13141">
        <ele>2267</ele>
        <time>2010-07-01T08:12:27Z</time>
      </trkpt>
      <trkpt lat="42.43086" lon="2.1314">
        <ele>2269</ele>
        <time>2010-07-01T08:12:37Z</time>
      </trkpt>
      <trkpt lat="42.4308" lon="2.13138">
        <ele>2270</ele>
        <time>2010-07-01T08:12:47Z</time>
      </trkpt>
      <trkpt lat="42.43073" lon="2.13139">
        <ele>2270</ele>
        <time>2010-07-01T08:12:57Z</time>
      </trkpt>
      <trkpt lat="42.43073" lon="2.1314">
        <ele>2271</ele>
        <time>2010-07-01T08:13:07Z</time>
      </trkpt>
      <trkpt lat="42.43066" lon="2.13141">
        <ele>2271</ele>
        <time>2010-07-01T08:13:17Z</time>
      </trkpt>
      <trkpt lat="42.43062" lon="2.1314">
        <ele>2271</ele>
        <time>2010-07-01T08:13:27Z</time>
      </trkpt>
      <trkpt lat="42.43058" lon="2.13136">
        <ele>2271</ele>
        <time>2010-07-01T08:13:37Z</time>
      </trkpt>
      <trkpt lat="42.43057" lon="2.13136">
        <ele>2271</ele>
        <time>2010-07-01T08:13:47Z</time>
      </trkpt>
      <trkpt lat="42.43057" lon="2.13136">
        <ele>2271</ele>
        <time>2010-07-01T08:13:57Z</time>
      </trkpt>
      <trkpt lat="42.43058" lon="2.13136">
        <ele>2271</ele>
        <time>2010-07-01T08:14:07Z</time>
      </trkpt>
      <trkpt lat="42.43057" lon="2.13136">
        <ele>2271</ele>
        <time>2010-07-01T08:14:17Z</time>
      </trkpt>
      <trkpt lat="42.43055" lon="2.13137">
        <ele>2271</ele>
        <time>2010-07-01T08:14:27Z</time>
      </trkpt>
      <trkpt lat="42.43054" lon="2.13137">
        <ele>2271</ele>
        <time>2010-07-01T08:14:37Z</time>
      </trkpt>
      <trkpt lat="42.43055" lon="2.13138">
        <ele>2271</ele>
        <time>2010-07-01T08:14:47Z</time>
      </trkpt>
      <trkpt lat="42.43057" lon="2.13141">
        <ele>2271</ele>
        <time>2010-07-01T08:14:57Z</time>
      </trkpt>
      <trkpt lat="42.4306" lon="2.13141">
        <ele>2270</ele>
        <time>2010-07-01T08:15:07Z</time>
      </trkpt>
      <trkpt lat="42.43061" lon="2.13142">
        <ele>2269</ele>
        <time>2010-07-01T08:15:17Z</time>
      </trkpt>
      <trkpt lat="42.43059" lon="2.13143">
        <ele>2265</ele>
        <time>2010-07-01T08:15:27Z</time>
      </trkpt>
      <trkpt lat="42.43057" lon="2.13143">
        <ele>2260</ele>
        <time>2010-07-01T08:15:37Z</time>
      </trkpt>
      <trkpt lat="42.43057" lon="2.13143">
        <ele>2259</ele>
        <time>2010-07-01T08:15:47Z</time>
      </trkpt>
      <trkpt lat="42.43056" lon="2.13144">
        <ele>2256</ele>
        <time>2010-07-01T08:15:57Z</time>
      </trkpt>
      <trkpt lat="42.43057" lon="2.13144">
        <ele>2255</ele>
        <time>2010-07-01T08:16:07Z</time>
      </trkpt>
      <trkpt lat="42.43057" lon="2.13142">
        <ele>2257</ele>
        <time>2010-07-01T08:16:17Z</time>
      </trkpt>
      <trkpt lat="42.43058" lon="2.13141">
        <ele>2258</ele>
        <time>2010-07-01T08:16:27Z</time>
      </trkpt>
      <trkpt lat="42.4306" lon="2.1314">
        <ele>2259</ele>
        <time>2010-07-01T08:16:37Z</time>
      </trkpt>
      <trkpt lat="42.4306" lon="2.13139">
        <ele>2260</ele>
        <time>2010-07-01T08:16:47Z</time>
      </trkpt>
      <trkpt lat="42.4306" lon="2.13139">
        <ele>2260</ele>
        <time>2010-07-01T08:16:57Z</time>
      </trkpt>
      <trkpt lat="42.43059" lon="2.1314">
        <ele>2259</ele>
        <time>2010-07-01T08:17:07Z</time>
      </trkpt>
      <trkpt lat="42.43059" lon="2.1314">
        <ele>2259</ele>
        <time>2010-07-01T08:17:17Z</time>
      </trkpt>
      <trkpt lat="42.43058" lon="2.1314">
        <ele>2259</ele>
        <time>2010-07-01T08:17:27Z</time>
      </trkpt>
      <trkpt lat="42.43058" lon="2.13144">
        <ele>2257</ele>
        <time>2010-07-01T08:17:37Z</time>
      </trkpt>
      <trkpt lat="42.43061" lon="2.13144">
        <ele>2256</ele>
        <time>2010-07-01T08:17:47Z</time>
      </trkpt>
      <trkpt lat="42.4306" lon="2.13144">
        <ele>2256</ele>
        <time>2010-07-01T08:17:57Z</time>
      </trkpt>
      <trkpt lat="42.43063" lon="2.13144">
        <ele>2256</ele>
        <time>2010-07-01T08:18:07Z</time>
      </trkpt>
      <trkpt lat="42.4306" lon="2.13142">
        <ele>2256</ele>
        <time>2010-07-01T08:18:17Z</time>
      </trkpt>
      <trkpt lat="42.43059" lon="2.13143">
        <ele>2256</ele>
        <time>2010-07-01T08:18:27Z</time>
      </trkpt>
      <trkpt lat="42.43053" lon="2.13144">
        <ele>2256</ele>
        <time>2010-07-01T08:18:37Z</time>
      </trkpt>
      <trkpt lat="42.43056" lon="2.13145">
        <ele>2257</ele>
        <time>2010-07-01T08:18:47Z</time>
      </trkpt>
      <trkpt lat="42.43049" lon="2.13142">
        <ele>2257</ele>
        <time>2010-07-01T08:18:57Z</time>
      </trkpt>
      <trkpt lat="42.43037" lon="2.13147">
        <ele>2258</ele>
        <time>2010-07-01T08:19:07Z</time>
      </trkpt>
      <trkpt lat="42.43028" lon="2.13151">
        <ele>2258</ele>
        <time>2010-07-01T08:19:17Z</time>
      </trkpt>
      <trkpt lat="42.43018" lon="2.1316">
        <ele>2259</ele>
        <time>2010-07-01T08:19:27Z</time>
      </trkpt>
      <trkpt lat="42.43012" lon="2.13165">
        <ele>2259</ele>
        <time>2010-07-01T08:19:37Z</time>
      </trkpt>
      <trkpt lat="42.43004" lon="2.13166">
        <ele>2260</ele>
        <time>2010-07-01T08:19:47Z</time>
      </trkpt>
      <trkpt lat="42.42993" lon="2.13167">
        <ele>2260</ele>
        <time>2010-07-01T08:19:57Z</time>
      </trkpt>
      <trkpt lat="42.42985" lon="2.13164">
        <ele>2261</ele>
        <time>2010-07-01T08:20:07Z</time>
      </trkpt>
      <trkpt lat="42.42978" lon="2.13163">
        <ele>2261</ele>
        <time>2010-07-01T08:20:17Z</time>
      </trkpt>
      <trkpt lat="42.42973" lon="2.13164">
        <ele>2262</ele>
        <time>2010-07-01T08:20:27Z</time>
      </trkpt>
      <trkpt lat="42.42972" lon="2.13163">
        <ele>2262</ele>
        <time>2010-07-01T08:20:37Z</time>
      </trkpt>
      <trkpt lat="42.42968" lon="2.13164">
        <ele>2262</ele>
        <time>2010-07-01T08:20:47Z</time>
      </trkpt>
      <trkpt lat="42.42959" lon="2.1317">
        <ele>2264</ele>
        <time>2010-07-01T08:20:57Z</time>
      </trkpt>
      <trkpt lat="42.42954" lon="2.13174">
        <ele>2265</ele>
        <time>2010-07-01T08:21:07Z</time>
      </trkpt>
      <trkpt lat="42.4295" lon="2.13179">
        <ele>2267</ele>
        <time>2010-07-01T08:21:17Z</time>
      </trkpt>
      <trkpt lat="42.42942" lon="2.13183">
        <ele>2271</ele>
        <time>2010-07-01T08:21:27Z</time>
      </trkpt>
      <trkpt lat="42.42935" lon="2.13182">
        <ele>2274</ele>
        <time>2010-07-01T08:21:37Z</time>
      </trkpt>
      <trkpt lat="42.42939" lon="2.13173">
        <ele>2277</ele>
        <time>2010-07-01T08:21:47Z</time>
      </trkpt>
      <trkpt lat="42.42941" lon="2.1317">
        <ele>2277</ele>
        <time>2010-07-01T08:21:57Z</time>
      </trkpt>
      <trkpt lat="42.42938" lon="2.13173">
        <ele>2277</ele>
        <time>2010-07-01T08:22:07Z</time>
      </trkpt>
      <trkpt lat="42.42931" lon="2.13179">
        <ele>2276</ele>
        <time>2010-07-01T08:22:17Z</time>
      </trkpt>
      <trkpt lat="42.42927" lon="2.13176">
        <ele>2275</ele>
        <time>2010-07-01T08:22:27Z</time>
      </trkpt>
      <trkpt lat="42.42922" lon="2.13181">
        <ele>2274</ele>
        <time>2010-07-01T08:22:37Z</time>
      </trkpt>
      <trkpt lat="42.42916" lon="2.13186">
        <ele>2274</ele>
        <time>2010-07-01T08:22:47Z</time>
      </trkpt>
      <trkpt lat="42.42912" lon="2.1319">
        <ele>2274</ele>
        <time>2010-07-01T08:22:57Z</time>
      </trkpt>
      <trkpt lat="42.42906" lon="2.13195">
        <ele>2275</ele>
        <time>2010-07-01T08:23:07Z</time>
      </trkpt>
      <trkpt lat="42.42902" lon="2.13204">
        <ele>2276</ele>
        <time>2010-07-01T08:23:17Z</time>
      </trkpt>
      <trkpt lat="42.42898" lon="2.13208">
        <ele>2277</ele>
        <time>2010-07-01T08:23:27Z</time>
      </trkpt>
      <trkpt lat="42.42895" lon="2.13209">
        <ele>2277</ele>
        <time>2010-07-01T08:23:37Z</time>
      </trkpt>
      <trkpt lat="42.42891" lon="2.13215">
        <ele>2278</ele>
        <time>2010-07-01T08:23:47Z</time>
      </trkpt>
      <trkpt lat="42.42889" lon="2.13223">
        <ele>2279</ele>
        <time>2010-07-01T08:23:57Z</time>
      </trkpt>
      <trkpt lat="42.42888" lon="2.13228">
        <ele>2280</ele>
        <time>2010-07-01T08:24:07Z</time>
      </trkpt>
      <trkpt lat="42.42886" lon="2.13237">
        <ele>2281</ele>
        <time>2010-07-01T08:24:17Z</time>
      </trkpt>
      <trkpt lat="42.42884" lon="2.13243">
        <ele>2282</ele>
        <time>2010-07-01T08:24:27Z</time>
      </trkpt>
      <trkpt lat="42.42881" lon="2.13249">
        <ele>2285</ele>
        <time>2010-07-01T08:24:37Z</time>
      </trkpt>
      <trkpt lat="42.42879" lon="2.13255">
        <ele>2287</ele>
        <time>2010-07-01T08:24:47Z</time>
      </trkpt>
      <trkpt lat="42.4288" lon="2.13258">
        <ele>2288</ele>
        <time>2010-07-01T08:24:57Z</time>
      </trkpt>
      <trkpt lat="42.42873" lon="2.13259">
        <ele>2291</ele>
        <time>2010-07-01T08:25:07Z</time>
      </trkpt>
      <trkpt lat="42.42875" lon="2.13262">
        <ele>2292</ele>
        <time>2010-07-01T08:25:17Z</time>
      </trkpt>
      <trkpt lat="42.42867" lon="2.13264">
        <ele>2292</ele>
        <time>2010-07-01T08:25:27Z</time>
      </trkpt>
      <trkpt lat="42.4286" lon="2.13268">
        <ele>2293</ele>
        <time>2010-07-01T08:25:37Z</time>
      </trkpt>
      <trkpt lat="42.42859" lon="2.13272">
        <ele>2293</ele>
        <time>2010-07-01T08:25:47Z</time>
      </trkpt>
      <trkpt lat="42.42854" lon="2.13276">
        <ele>2293</ele>
        <time>2010-07-01T08:25:57Z</time>
      </trkpt>
      <trkpt lat="42.42851" lon="2.1328">
        <ele>2294</ele>
        <time>2010-07-01T08:26:07Z</time>
      </trkpt>
      <trkpt lat="42.42849" lon="2.13281">
        <ele>2294</ele>
        <time>2010-07-01T08:26:17Z</time>
      </trkpt>
      <trkpt lat="42.4285" lon="2.13286">
        <ele>2295</ele>
        <time>2010-07-01T08:26:27Z</time>
      </trkpt>
      <trkpt lat="42.42844" lon="2.13291">
        <ele>2296</ele>
        <time>2010-07-01T08:26:37Z</time>
      </trkpt>
      <trkpt lat="42.42841" lon="2.13295">
        <ele>2297</ele>
        <time>2010-07-01T08:26:47Z</time>
      </trkpt>
      <trkpt lat="42.4284" lon="2.133">
        <ele>2297</ele>
        <time>2010-07-01T08:26:57Z</time>
      </trkpt>
      <trkpt lat="42.42838" lon="2.13304">
        <ele>2297</ele>
        <time>2010-07-01T08:27:07Z</time>
      </trkpt>
      <trkpt lat="42.42834" lon="2.13309">
        <ele>2296</ele>
        <time>2010-07-01T08:27:17Z</time>
      </trkpt>
      <trkpt lat="42.42833" lon="2.13311">
        <ele>2295</ele>
        <time>2010-07-01T08:27:27Z</time>
      </trkpt>
      <trkpt lat="42.42828" lon="2.13317">
        <ele>2294</ele>
        <time>2010-07-01T08:27:37Z</time>
      </trkpt>
      <trkpt lat="42.42826" lon="2.13322">
        <ele>2295</ele>
        <time>2010-07-01T08:27:47Z</time>
      </trkpt>
      <trkpt lat="42.42823" lon="2.13327">
        <ele>2297</ele>
        <time>2010-07-01T08:27:57Z</time>
      </trkpt>
      <trkpt lat="42.42819" lon="2.13328">
        <ele>2299</ele>
        <time>2010-07-01T08:28:07Z</time>
      </trkpt>
      <trkpt lat="42.42817" lon="2.13328">
        <ele>2299</ele>
        <time>2010-07-01T08:28:17Z</time>
      </trkpt>
      <trkpt lat="42.42816" lon="2.13327">
        <ele>2300</ele>
        <time>2010-07-01T08:28:27Z</time>
      </trkpt>
      <trkpt lat="42.42817" lon="2.13329">
        <ele>2300</ele>
        <time>2010-07-01T08:28:37Z</time>
      </trkpt>
      <trkpt lat="42.42816" lon="2.13326">
        <ele>2300</ele>
        <time>2010-07-01T08:28:47Z</time>
      </trkpt>
      <trkpt lat="42.42816" lon="2.13326">
        <ele>2299</ele>
        <time>2010-07-01T08:28:57Z</time>
      </trkpt>
      <trkpt lat="42.42815" lon="2.13323">
        <ele>2299</ele>
        <time>2010-07-01T08:29:07Z</time>
      </trkpt>
      <trkpt lat="42.42814" lon="2.13328">
        <ele>2298</ele>
        <time>2010-07-01T08:29:17Z</time>
      </trkpt>
      <trkpt lat="42.42815" lon="2.13329">
        <ele>2298</ele>
        <time>2010-07-01T08:29:27Z</time>
      </trkpt>
      <trkpt lat="42.42815" lon="2.13333">
        <ele>2300</ele>
        <time>2010-07-01T08:29:37Z</time>
      </trkpt>
      <trkpt lat="42.42816" lon="2.13334">
        <ele>2301</ele>
        <time>2010-07-01T08:29:47Z</time>
      </trkpt>
      <trkpt lat="42.42817" lon="2.13332">
        <ele>2302</ele>
        <time>2010-07-01T08:29:57Z</time>
      </trkpt>
      <trkpt lat="42.42817" lon="2.13333">
        <ele>2302</ele>
        <time>2010-07-01T08:30:07Z</time>
      </trkpt>
      <trkpt lat="42.42819" lon="2.13338">
        <ele>2303</ele>
        <time>2010-07-01T08:30:17Z</time>
      </trkpt>
      <trkpt lat="42.42822" lon="2.13345">
        <ele>2301</ele>
        <time>2010-07-01T08:30:27Z</time>
      </trkpt>
      <trkpt lat="42.42822" lon="2.13351">
        <ele>2300</ele>
        <time>2010-07-01T08:30:37Z</time>
      </trkpt>
      <trkpt lat="42.42817" lon="2.13357">
        <ele>2299</ele>
        <time>2010-07-01T08:30:47Z</time>
      </trkpt>
      <trkpt lat="42.42814" lon="2.13356">
        <ele>2298</ele>
        <time>2010-07-01T08:30:57Z</time>
      </trkpt>
      <trkpt lat="42.42811" lon="2.13356">
        <ele>2298</ele>
        <time>2010-07-01T08:31:07Z</time>
      </trkpt>
      <trkpt lat="42.42809" lon="2.13358">
        <ele>2298</ele>
        <time>2010-07-01T08:31:17Z</time>
      </trkpt>
      <trkpt lat="42.4281" lon="2.13364">
        <ele>2299</ele>
        <time>2010-07-01T08:31:27Z</time>
      </trkpt>
      <trkpt lat="42.4281" lon="2.13371">
        <ele>2300</ele>
        <time>2010-07-01T08:31:37Z</time>
      </trkpt>
      <trkpt lat="42.42806" lon="2.13378">
        <ele>2301</ele>
        <time>2010-07-01T08:31:47Z</time>
      </trkpt>
      <trkpt lat="42.42801" lon="2.13386">
        <ele>2302</ele>
        <time>2010-07-01T08:31:57Z</time>
      </trkpt>
      <trkpt lat="42.42795" lon="2.1339">
        <ele>2303</ele>
        <time>2010-07-01T08:32:07Z</time>
      </trkpt>
      <trkpt lat="42.42792" lon="2.13395">
        <ele>2303</ele>
        <time>2010-07-01T08:32:17Z</time>
      </trkpt>
      <trkpt lat="42.4279" lon="2.13398">
        <ele>2303</ele>
        <time>2010-07-01T08:32:27Z</time>
      </trkpt>
      <trkpt lat="42.42788" lon="2.13399">
        <ele>2303</ele>
        <time>2010-07-01T08:32:37Z</time>
      </trkpt>
      <trkpt lat="42.42784" lon="2.13404">
        <ele>2304</ele>
        <time>2010-07-01T08:32:47Z</time>
      </trkpt>
      <trkpt lat="42.42781" lon="2.13407">
        <ele>2305</ele>
        <time>2010-07-01T08:32:57Z</time>
      </trkpt>
      <trkpt lat="42.42775" lon="2.13412">
        <ele>2306</ele>
        <time>2010-07-01T08:33:07Z</time>
      </trkpt>
      <trkpt lat="42.42766" lon="2.13421">
        <ele>2308</ele>
        <time>2010-07-01T08:33:17Z</time>
      </trkpt>
      <trkpt lat="42.42768" lon="2.13422">
        <ele>2308</ele>
        <time>2010-07-01T08:33:27Z</time>
      </trkpt>
      <trkpt lat="42.42765" lon="2.13425">
        <ele>2309</ele>
        <time>2010-07-01T08:33:37Z</time>
      </trkpt>
      <trkpt lat="42.42757" lon="2.13434">
        <ele>2310</ele>
        <time>2010-07-01T08:33:47Z</time>
      </trkpt>
      <trkpt lat="42.42757" lon="2.1344">
        <ele>2311</ele>
        <time>2010-07-01T08:33:57Z</time>
      </trkpt>
      <trkpt lat="42.42757" lon="2.13445">
        <ele>2311</ele>
        <time>2010-07-01T08:34:07Z</time>
      </trkpt>
      <trkpt lat="42.42755" lon="2.1345">
        <ele>2312</ele>
        <time>2010-07-01T08:34:17Z</time>
      </trkpt>
      <trkpt lat="42.42754" lon="2.13456">
        <ele>2311</ele>
        <time>2010-07-01T08:34:27Z</time>
      </trkpt>
      <trkpt lat="42.42753" lon="2.13459">
        <ele>2310</ele>
        <time>2010-07-01T08:34:37Z</time>
      </trkpt>
      <trkpt lat="42.42749" lon="2.13466">
        <ele>2308</ele>
        <time>2010-07-01T08:34:47Z</time>
      </trkpt>
      <trkpt lat="42.42746" lon="2.13473">
        <ele>2306</ele>
        <time>2010-07-01T08:34:57Z</time>
      </trkpt>
      <trkpt lat="42.42739" lon="2.13484">
        <ele>2303</ele>
        <time>2010-07-01T08:35:07Z</time>
      </trkpt>
      <trkpt lat="42.42736" lon="2.13496">
        <ele>2301</ele>
        <time>2010-07-01T08:35:17Z</time>
      </trkpt>
      <trkpt lat="42.42734" lon="2.13502">
        <ele>2301</ele>
        <time>2010-07-01T08:35:27Z</time>
      </trkpt>
      <trkpt lat="42.42732" lon="2.1351">
        <ele>2301</ele>
        <time>2010-07-01T08:35:37Z</time>
      </trkpt>
      <trkpt lat="42.42729" lon="2.13519">
        <ele>2301</ele>
        <time>2010-07-01T08:35:47Z</time>
      </trkpt>
      <trkpt lat="42.42726" lon="2.13527">
        <ele>2300</ele>
        <time>2010-07-01T08:35:57Z</time>
      </trkpt>
      <trkpt lat="42.42725" lon="2.13536">
        <ele>2301</ele>
        <time>2010-07-01T08:36:07Z</time>
      </trkpt>
      <trkpt lat="42.4272" lon="2.13544">
        <ele>2301</ele>
        <time>2010-07-01T08:36:17Z</time>
      </trkpt>
      <trkpt lat="42.42711" lon="2.1355">
        <ele>2302</ele>
        <time>2010-07-01T08:36:27Z</time>
      </trkpt>
      <trkpt lat="42.42705" lon="2.13558">
        <ele>2303</ele>
        <time>2010-07-01T08:36:37Z</time>
      </trkpt>
      <trkpt lat="42.42701" lon="2.13568">
        <ele>2303</ele>
        <time>2010-07-01T08:36:47Z</time>
      </trkpt>
      <trkpt lat="42.427" lon="2.13581">
        <ele>2304</ele>
        <time>2010-07-01T08:36:57Z</time>
      </trkpt>
      <trkpt lat="42.42696" lon="2.13588">
        <ele>2304</ele>
        <time>2010-07-01T08:37:07Z</time>
      </trkpt>
      <trkpt lat="42.42691" lon="2.13596">
        <ele>2305</ele>
        <time>2010-07-01T08:37:17Z</time>
      </trkpt>
      <trkpt lat="42.42687" lon="2.13603">
        <ele>2305</ele>
        <time>2010-07-01T08:37:27Z</time>
      </trkpt>
      <trkpt lat="42.42686" lon="2.13609">
        <ele>2305</ele>
        <time>2010-07-01T08:37:37Z</time>
      </trkpt>
      <trkpt lat="42.4268" lon="2.13616">
        <ele>2308</ele>
        <time>2010-07-01T08:37:47Z</time>
      </trkpt>
      <trkpt lat="42.42671" lon="2.13623">
        <ele>2312</ele>
        <time>2010-07-01T08:37:57Z</time>
      </trkpt>
      <trkpt lat="42.42664" lon="2.13629">
        <ele>2315</ele>
        <time>2010-07-01T08:38:07Z</time>
      </trkpt>
      <trkpt lat="42.4266" lon="2.13636">
        <ele>2318</ele>
        <time>2010-07-01T08:38:17Z</time>
      </trkpt>
      <trkpt lat="42.42656" lon="2.13645">
        <ele>2321</ele>
        <time>2010-07-01T08:38:27Z</time>
      </trkpt>
      <trkpt lat="42.4265" lon="2.13653">
        <ele>2324</ele>
        <time>2010-07-01T08:38:37Z</time>
      </trkpt>
      <trkpt lat="42.42648" lon="2.13661">
        <ele>2325</ele>
        <time>2010-07-01T08:38:47Z</time>
      </trkpt>
      <trkpt lat="42.42645" lon="2.13675">
        <ele>2326</ele>
        <time>2010-07-01T08:38:57Z</time>
      </trkpt>
      <trkpt lat="42.42645" lon="2.13678">
        <ele>2326</ele>
        <time>2010-07-01T08:39:07Z</time>
      </trkpt>
      <trkpt lat="42.42644" lon="2.13681">
        <ele>2327</ele>
        <time>2010-07-01T08:39:17Z</time>
      </trkpt>
      <trkpt lat="42.42642" lon="2.13679">
        <ele>2327</ele>
        <time>2010-07-01T08:39:27Z</time>
      </trkpt>
      <trkpt lat="42.42639" lon="2.13678">
        <ele>2328</ele>
        <time>2010-07-01T08:39:37Z</time>
      </trkpt>
      <trkpt lat="42.42639" lon="2.13679">
        <ele>2329</ele>
        <time>2010-07-01T08:39:47Z</time>
      </trkpt>
      <trkpt lat="42.42636" lon="2.13677">
        <ele>2330</ele>
        <time>2010-07-01T08:39:57Z</time>
      </trkpt>
      <trkpt lat="42.42638" lon="2.13676">
        <ele>2331</ele>
        <time>2010-07-01T08:40:07Z</time>
      </trkpt>
      <trkpt lat="42.4264" lon="2.13675">
        <ele>2332</ele>
        <time>2010-07-01T08:40:17Z</time>
      </trkpt>
      <trkpt lat="42.42639" lon="2.13677">
        <ele>2333</ele>
        <time>2010-07-01T08:40:27Z</time>
      </trkpt>
      <trkpt lat="42.4264" lon="2.13679">
        <ele>2334</ele>
        <time>2010-07-01T08:40:37Z</time>
      </trkpt>
      <trkpt lat="42.4264" lon="2.1368">
        <ele>2335</ele>
        <time>2010-07-01T08:40:47Z</time>
      </trkpt>
      <trkpt lat="42.4264" lon="2.13679">
        <ele>2335</ele>
        <time>2010-07-01T08:40:57Z</time>
      </trkpt>
      <trkpt lat="42.42639" lon="2.13681">
        <ele>2336</ele>
        <time>2010-07-01T08:41:07Z</time>
      </trkpt>
      <trkpt lat="42.42642" lon="2.1368">
        <ele>2336</ele>
        <time>2010-07-01T08:41:17Z</time>
      </trkpt>
      <trkpt lat="42.42634" lon="2.13682">
        <ele>2338</ele>
        <time>2010-07-01T08:41:27Z</time>
      </trkpt>
      <trkpt lat="42.42636" lon="2.13681">
        <ele>2338</ele>
        <time>2010-07-01T08:41:37Z</time>
      </trkpt>
      <trkpt lat="42.42635" lon="2.13682">
        <ele>2338</ele>
        <time>2010-07-01T08:41:47Z</time>
      </trkpt>
      <trkpt lat="42.42635" lon="2.13682">
        <ele>2338</ele>
        <time>2010-07-01T08:41:57Z</time>
      </trkpt>
      <trkpt lat="42.42632" lon="2.13678">
        <ele>2337</ele>
        <time>2010-07-01T08:42:07Z</time>
      </trkpt>
      <trkpt lat="42.42632" lon="2.13678">
        <ele>2337</ele>
        <time>2010-07-01T08:42:17Z</time>
      </trkpt>
      <trkpt lat="42.42635" lon="2.13682">
        <ele>2337</ele>
        <time>2010-07-01T08:42:27Z</time>
      </trkpt>
      <trkpt lat="42.42633" lon="2.13691">
        <ele>2336</ele>
        <time>2010-07-01T08:42:37Z</time>
      </trkpt>
      <trkpt lat="42.42627" lon="2.13693">
        <ele>2335</ele>
        <time>2010-07-01T08:42:47Z</time>
      </trkpt>
      <trkpt lat="42.42626" lon="2.13706">
        <ele>2335</ele>
        <time>2010-07-01T08:42:57Z</time>
      </trkpt>
      <trkpt lat="42.42624" lon="2.13713">
        <ele>2334</ele>
        <time>2010-07-01T08:43:07Z</time>
      </trkpt>
      <trkpt lat="42.42618" lon="2.13725">
        <ele>2334</ele>
        <time>2010-07-01T08:43:17Z</time>
      </trkpt>
      <trkpt lat="42.42617" lon="2.13735">
        <ele>2333</ele>
        <time>2010-07-01T08:43:27Z</time>
      </trkpt>
      <trkpt lat="42.42611" lon="2.13741">
        <ele>2333</ele>
        <time>2010-07-01T08:43:37Z</time>
      </trkpt>
      <trkpt lat="42.42611" lon="2.13753">
        <ele>2333</ele>
        <time>2010-07-01T08:43:47Z</time>
      </trkpt>
      <trkpt lat="42.42609" lon="2.13759">
        <ele>2333</ele>
        <time>2010-07-01T08:43:57Z</time>
      </trkpt>
      <trkpt lat="42.42608" lon="2.13774">
        <ele>2333</ele>
        <time>2010-07-01T08:44:07Z</time>
      </trkpt>
      <trkpt lat="42.42609" lon="2.13778">
        <ele>2333</ele>
        <time>2010-07-01T08:44:17Z</time>
      </trkpt>
      <trkpt lat="42.42609" lon="2.13781">
        <ele>2333</ele>
        <time>2010-07-01T08:44:27Z</time>
      </trkpt>
      <trkpt lat="42.42607" lon="2.13782">
        <ele>2335</ele>
        <time>2010-07-01T08:44:37Z</time>
      </trkpt>
      <trkpt lat="42.42605" lon="2.13791">
        <ele>2338</ele>
        <time>2010-07-01T08:44:47Z</time>
      </trkpt>
      <trkpt lat="42.42607" lon="2.13794">
        <ele>2339</ele>
        <time>2010-07-01T08:44:57Z</time>
      </trkpt>
      <trkpt lat="42.42603" lon="2.13795">
        <ele>2342</ele>
        <time>2010-07-01T08:45:07Z</time>
      </trkpt>
      <trkpt lat="42.426" lon="2.13794">
        <ele>2342</ele>
        <time>2010-07-01T08:45:17Z</time>
      </trkpt>
      <trkpt lat="42.42602" lon="2.13802">
        <ele>2343</ele>
        <time>2010-07-01T08:45:27Z</time>
      </trkpt>
      <trkpt lat="42.42607" lon="2.13814">
        <ele>2344</ele>
        <time>2010-07-01T08:45:37Z</time>
      </trkpt>
      <trkpt lat="42.42608" lon="2.13825">
        <ele>2344</ele>
        <time>2010-07-01T08:45:47Z</time>
      </trkpt>
      <trkpt lat="42.42609" lon="2.13839">
        <ele>2345</ele>
        <time>2010-07-01T08:45:57Z</time>
      </trkpt>
      <trkpt lat="42.42611" lon="2.13853">
        <ele>2347</ele>
        <time>2010-07-01T08:46:07Z</time>
      </trkpt>
      <trkpt lat="42.42611" lon="2.13862">
        <ele>2348</ele>
        <time>2010-07-01T08:46:17Z</time>
      </trkpt>
      <trkpt lat="42.42611" lon="2.13866">
        <ele>2349</ele>
        <time>2010-07-01T08:46:27Z</time>
      </trkpt>
      <trkpt lat="42.42609" lon="2.13877">
        <ele>2351</ele>
        <time>2010-07-01T08:46:37Z</time>
      </trkpt>
      <trkpt lat="42.42608" lon="2.1388">
        <ele>2351</ele>
        <time>2010-07-01T08:46:47Z</time>
      </trkpt>
      <trkpt lat="42.42607" lon="2.13884">
        <ele>2351</ele>
        <time>2010-07-01T08:46:57Z</time>
      </trkpt>
      <trkpt lat="42.42604" lon="2.13888">
        <ele>2351</ele>
        <time>2010-07-01T08:47:07Z</time>
      </trkpt>
      <trkpt lat="42.42603" lon="2.13896">
        <ele>2351</ele>
        <time>2010-07-01T08:47:17Z</time>
      </trkpt>
      <trkpt lat="42.42604" lon="2.13899">
        <ele>2351</ele>
        <time>2010-07-01T08:47:27Z</time>
      </trkpt>
      <trkpt lat="42.42605" lon="2.13909">
        <ele>2350</ele>
        <time>2010-07-01T08:47:37Z</time>
      </trkpt>
      <trkpt lat="42.42602" lon="2.13919">
        <ele>2351</ele>
        <time>2010-07-01T08:47:47Z</time>
      </trkpt>
      <trkpt lat="42.42601" lon="2.13931">
        <ele>2353</ele>
        <time>2010-07-01T08:47:57Z</time>
      </trkpt>
      <trkpt lat="42.42601" lon="2.13942">
        <ele>2355</ele>
        <time>2010-07-01T08:48:07Z</time>
      </trkpt>
      <trkpt lat="42.42598" lon="2.13951">
        <ele>2357</ele>
        <time>2010-07-01T08:48:17Z</time>
      </trkpt>
      <trkpt lat="42.42595" lon="2.13961">
        <ele>2359</ele>
        <time>2010-07-01T08:48:27Z</time>
      </trkpt>
      <trkpt lat="42.42589" lon="2.13963">
        <ele>2360</ele>
        <time>2010-07-01T08:48:37Z</time>
      </trkpt>
      <trkpt lat="42.4259" lon="2.13971">
        <ele>2360</ele>
        <time>2010-07-01T08:48:47Z</time>
      </trkpt>
      <trkpt lat="42.42597" lon="2.13985">
        <ele>2360</ele>
        <time>2010-07-01T08:48:57Z</time>
      </trkpt>
      <trkpt lat="42.42597" lon="2.13995">
        <ele>2359</ele>
        <time>2010-07-01T08:49:07Z</time>
      </trkpt>
      <trkpt lat="42.42598" lon="2.14011">
        <ele>2359</ele>
        <time>2010-07-01T08:49:17Z</time>
      </trkpt>
      <trkpt lat="42.42598" lon="2.14021">
        <ele>2359</ele>
        <time>2010-07-01T08:49:27Z</time>
      </trkpt>
      <trkpt lat="42.42605" lon="2.14031">
        <ele>2360</ele>
        <time>2010-07-01T08:49:37Z</time>
      </trkpt>
      <trkpt lat="42.42607" lon="2.1404">
        <ele>2361</ele>
        <time>2010-07-01T08:49:47Z</time>
      </trkpt>
      <trkpt lat="42.42607" lon="2.14048">
        <ele>2361</ele>
        <time>2010-07-01T08:49:57Z</time>
      </trkpt>
      <trkpt lat="42.42603" lon="2.14057">
        <ele>2362</ele>
        <time>2010-07-01T08:50:07Z</time>
      </trkpt>
      <trkpt lat="42.42603" lon="2.14061">
        <ele>2362</ele>
        <time>2010-07-01T08:50:17Z</time>
      </trkpt>
      <trkpt lat="42.42601" lon="2.14069">
        <ele>2364</ele>
        <time>2010-07-01T08:50:27Z</time>
      </trkpt>
      <trkpt lat="42.42601" lon="2.14076">
        <ele>2366</ele>
        <time>2010-07-01T08:50:37Z</time>
      </trkpt>
      <trkpt lat="42.42596" lon="2.14082">
        <ele>2368</ele>
        <time>2010-07-01T08:50:47Z</time>
      </trkpt>
      <trkpt lat="42.42596" lon="2.14085">
        <ele>2369</ele>
        <time>2010-07-01T08:50:57Z</time>
      </trkpt>
      <trkpt lat="42.42594" lon="2.14092">
        <ele>2372</ele>
        <time>2010-07-01T08:51:07Z</time>
      </trkpt>
      <trkpt lat="42.42594" lon="2.14094">
        <ele>2373</ele>
        <time>2010-07-01T08:51:17Z</time>
      </trkpt>
      <trkpt lat="42.42591" lon="2.14095">
        <ele>2375</ele>
        <time>2010-07-01T08:51:27Z</time>
      </trkpt>
      <trkpt lat="42.42592" lon="2.14099">
        <ele>2377</ele>
        <time>2010-07-01T08:51:37Z</time>
      </trkpt>
      <trkpt lat="42.42591" lon="2.14103">
        <ele>2380</ele>
        <time>2010-07-01T08:51:47Z</time>
      </trkpt>
      <trkpt lat="42.4259" lon="2.14102">
        <ele>2381</ele>
        <time>2010-07-01T08:51:57Z</time>
      </trkpt>
      <trkpt lat="42.4259" lon="2.14101">
        <ele>2381</ele>
        <time>2010-07-01T08:52:07Z</time>
      </trkpt>
      <trkpt lat="42.42588" lon="2.14095">
        <ele>2380</ele>
        <time>2010-07-01T08:52:17Z</time>
      </trkpt>
      <trkpt lat="42.4259" lon="2.14109">
        <ele>2380</ele>
        <time>2010-07-01T08:52:27Z</time>
      </trkpt>
      <trkpt lat="42.42589" lon="2.14115">
        <ele>2380</ele>
        <time>2010-07-01T08:52:37Z</time>
      </trkpt>
      <trkpt lat="42.42586" lon="2.14123">
        <ele>2381</ele>
        <time>2010-07-01T08:52:47Z</time>
      </trkpt>
      <trkpt lat="42.42585" lon="2.14128">
        <ele>2382</ele>
        <time>2010-07-01T08:52:57Z</time>
      </trkpt>
      <trkpt lat="42.42584" lon="2.14138">
        <ele>2384</ele>
        <time>2010-07-01T08:53:07Z</time>
      </trkpt>
      <trkpt lat="42.42581" lon="2.14139">
        <ele>2385</ele>
        <time>2010-07-01T08:53:17Z</time>
      </trkpt>
      <trkpt lat="42.4258" lon="2.14141">
        <ele>2385</ele>
        <time>2010-07-01T08:53:27Z</time>
      </trkpt>
      <trkpt lat="42.42578" lon="2.14148">
        <ele>2387</ele>
        <time>2010-07-01T08:53:37Z</time>
      </trkpt>
      <trkpt lat="42.42579" lon="2.14151">
        <ele>2388</ele>
        <time>2010-07-01T08:53:47Z</time>
      </trkpt>
      <trkpt lat="42.42579" lon="2.14156">
        <ele>2389</ele>
        <time>2010-07-01T08:53:57Z</time>
      </trkpt>
      <trkpt lat="42.42575" lon="2.14158">
        <ele>2390</ele>
        <time>2010-07-01T08:54:07Z</time>
      </trkpt>
      <trkpt lat="42.42575" lon="2.14166">
        <ele>2392</ele>
        <time>2010-07-01T08:54:17Z</time>
      </trkpt>
      <trkpt lat="42.42576" lon="2.14168">
        <ele>2393</ele>
        <time>2010-07-01T08:54:27Z</time>
      </trkpt>
      <trkpt lat="42.42574" lon="2.14169">
        <ele>2393</ele>
        <time>2010-07-01T08:54:37Z</time>
      </trkpt>
      <trkpt lat="42.42573" lon="2.14175">
        <ele>2395</ele>
        <time>2010-07-01T08:54:47Z</time>
      </trkpt>
      <trkpt lat="42.42574" lon="2.14181">
        <ele>2396</ele>
        <time>2010-07-01T08:54:57Z</time>
      </trkpt>
      <trkpt lat="42.42577" lon="2.14186">
        <ele>2398</ele>
        <time>2010-07-01T08:55:07Z</time>
      </trkpt>
      <trkpt lat="42.42576" lon="2.14187">
        <ele>2398</ele>
        <time>2010-07-01T08:55:17Z</time>
      </trkpt>
      <trkpt lat="42.42574" lon="2.1419">
        <ele>2399</ele>
        <time>2010-07-01T08:55:27Z</time>
      </trkpt>
      <trkpt lat="42.42573" lon="2.14198">
        <ele>2402</ele>
        <time>2010-07-01T08:55:37Z</time>
      </trkpt>
      <trkpt lat="42.42575" lon="2.14205">
        <ele>2405</ele>
        <time>2010-07-01T08:55:47Z</time>
      </trkpt>
      <trkpt lat="42.42577" lon="2.1421">
        <ele>2407</ele>
        <time>2010-07-01T08:55:57Z</time>
      </trkpt>
      <trkpt lat="42.42574" lon="2.14212">
        <ele>2407</ele>
        <time>2010-07-01T08:56:07Z</time>
      </trkpt>
      <trkpt lat="42.42575" lon="2.14222">
        <ele>2407</ele>
        <time>2010-07-01T08:56:17Z</time>
      </trkpt>
      <trkpt lat="42.42575" lon="2.14227">
        <ele>2407</ele>
        <time>2010-07-01T08:56:27Z</time>
      </trkpt>
      <trkpt lat="42.42574" lon="2.14233">
        <ele>2406</ele>
        <time>2010-07-01T08:56:37Z</time>
      </trkpt>
      <trkpt lat="42.42574" lon="2.14244">
        <ele>2406</ele>
        <time>2010-07-01T08:56:47Z</time>
      </trkpt>
      <trkpt lat="42.42574" lon="2.14248">
        <ele>2408</ele>
        <time>2010-07-01T08:56:57Z</time>
      </trkpt>
      <trkpt lat="42.42574" lon="2.1425">
        <ele>2410</ele>
        <time>2010-07-01T08:57:07Z</time>
      </trkpt>
      <trkpt lat="42.42575" lon="2.14256">
        <ele>2418</ele>
        <time>2010-07-01T08:57:17Z</time>
      </trkpt>
      <trkpt lat="42.42574" lon="2.14255">
        <ele>2420</ele>
        <time>2010-07-01T08:57:27Z</time>
      </trkpt>
      <trkpt lat="42.42574" lon="2.14257">
        <ele>2422</ele>
        <time>2010-07-01T08:57:37Z</time>
      </trkpt>
      <trkpt lat="42.42572" lon="2.14255">
        <ele>2424</ele>
        <time>2010-07-01T08:57:47Z</time>
      </trkpt>
      <trkpt lat="42.42571" lon="2.14255">
        <ele>2424</ele>
        <time>2010-07-01T08:57:57Z</time>
      </trkpt>
      <trkpt lat="42.42568" lon="2.14251">
        <ele>2424</ele>
        <time>2010-07-01T08:58:07Z</time>
      </trkpt>
      <trkpt lat="42.42569" lon="2.14252">
        <ele>2425</ele>
        <time>2010-07-01T08:58:17Z</time>
      </trkpt>
      <trkpt lat="42.42572" lon="2.14267">
        <ele>2425</ele>
        <time>2010-07-01T08:58:27Z</time>
      </trkpt>
      <trkpt lat="42.42574" lon="2.14278">
        <ele>2423</ele>
        <time>2010-07-01T08:58:37Z</time>
      </trkpt>
      <trkpt lat="42.42575" lon="2.14286">
        <ele>2421</ele>
        <time>2010-07-01T08:58:47Z</time>
      </trkpt>
      <trkpt lat="42.42576" lon="2.14297">
        <ele>2418</ele>
        <time>2010-07-01T08:58:57Z</time>
      </trkpt>
      <trkpt lat="42.42578" lon="2.14307">
        <ele>2414</ele>
        <time>2010-07-01T08:59:07Z</time>
      </trkpt>
      <trkpt lat="42.42579" lon="2.14319">
        <ele>2411</ele>
        <time>2010-07-01T08:59:17Z</time>
      </trkpt>
      <trkpt lat="42.4258" lon="2.14324">
        <ele>2411</ele>
        <time>2010-07-01T08:59:27Z</time>
      </trkpt>
      <trkpt lat="42.42576" lon="2.14323">
        <ele>2415</ele>
        <time>2010-07-01T08:59:37Z</time>
      </trkpt>
      <trkpt lat="42.42572" lon="2.14325">
        <ele>2418</ele>
        <time>2010-07-01T08:59:47Z</time>
      </trkpt>
      <trkpt lat="42.42568" lon="2.1433">
        <ele>2422</ele>
        <time>2010-07-01T08:59:57Z</time>
      </trkpt>
      <trkpt lat="42.42567" lon="2.14335">
        <ele>2425</ele>
        <time>2010-07-01T09:00:07Z</time>
      </trkpt>
      <trkpt lat="42.42568" lon="2.14341">
        <ele>2428</ele>
        <time>2010-07-01T09:00:17Z</time>
      </trkpt>
      <trkpt lat="42.42569" lon="2.14348">
        <ele>2429</ele>
        <time>2010-07-01T09:00:27Z</time>
      </trkpt>
      <trkpt lat="42.42567" lon="2.14353">
        <ele>2430</ele>
        <time>2010-07-01T09:00:37Z</time>
      </trkpt>
      <trkpt lat="42.42566" lon="2.14358">
        <ele>2431</ele>
        <time>2010-07-01T09:00:47Z</time>
      </trkpt>
      <trkpt lat="42.42568" lon="2.14364">
        <ele>2433</ele>
        <time>2010-07-01T09:00:57Z</time>
      </trkpt>
      <trkpt lat="42.42568" lon="2.14368">
        <ele>2433</ele>
        <time>2010-07-01T09:01:07Z</time>
      </trkpt>
      <trkpt lat="42.42565" lon="2.14373">
        <ele>2434</ele>
        <time>2010-07-01T09:01:17Z</time>
      </trkpt>
      <trkpt lat="42.42565" lon="2.14378">
        <ele>2435</ele>
        <time>2010-07-01T09:01:27Z</time>
      </trkpt>
      <trkpt lat="42.42566" lon="2.14384">
        <ele>2436</ele>
        <time>2010-07-01T09:01:37Z</time>
      </trkpt>
      <trkpt lat="42.42565" lon="2.14388">
        <ele>2437</ele>
        <time>2010-07-01T09:01:47Z</time>
      </trkpt>
      <trkpt lat="42.42565" lon="2.14395">
        <ele>2439</ele>
        <time>2010-07-01T09:01:57Z</time>
      </trkpt>
      <trkpt lat="42.42563" lon="2.14399">
        <ele>2441</ele>
        <time>2010-07-01T09:02:07Z</time>
      </trkpt>
      <trkpt lat="42.4256" lon="2.14402">
        <ele>2442</ele>
        <time>2010-07-01T09:02:17Z</time>
      </trkpt>
      <trkpt lat="42.42558" lon="2.144">
        <ele>2443</ele>
        <time>2010-07-01T09:02:27Z</time>
      </trkpt>
      <trkpt lat="42.42557" lon="2.14404">
        <ele>2445</ele>
        <time>2010-07-01T09:02:37Z</time>
      </trkpt>
      <trkpt lat="42.42555" lon="2.14409">
        <ele>2446</ele>
        <time>2010-07-01T09:02:47Z</time>
      </trkpt>
      <trkpt lat="42.42556" lon="2.14416">
        <ele>2448</ele>
        <time>2010-07-01T09:02:57Z</time>
      </trkpt>
      <trkpt lat="42.42554" lon="2.14423">
        <ele>2449</ele>
        <time>2010-07-01T09:03:07Z</time>
      </trkpt>
      <trkpt lat="42.42553" lon="2.1443">
        <ele>2450</ele>
        <time>2010-07-01T09:03:17Z</time>
      </trkpt>
      <trkpt lat="42.42552" lon="2.14437">
        <ele>2452</ele>
        <time>2010-07-01T09:03:27Z</time>
      </trkpt>
      <trkpt lat="42.42551" lon="2.14445">
        <ele>2453</ele>
        <time>2010-07-01T09:03:37Z</time>
      </trkpt>
      <trkpt lat="42.42548" lon="2.14448">
        <ele>2454</ele>
        <time>2010-07-01T09:03:47Z</time>
      </trkpt>
      <trkpt lat="42.42544" lon="2.14453">
        <ele>2455</ele>
        <time>2010-07-01T09:03:57Z</time>
      </trkpt>
      <trkpt lat="42.42545" lon="2.14459">
        <ele>2456</ele>
        <time>2010-07-01T09:04:07Z</time>
      </trkpt>
      <trkpt lat="42.42545" lon="2.14465">
        <ele>2457</ele>
        <time>2010-07-01T09:04:17Z</time>
      </trkpt>
      <trkpt lat="42.42544" lon="2.14472">
        <ele>2458</ele>
        <time>2010-07-01T09:04:27Z</time>
      </trkpt>
      <trkpt lat="42.42545" lon="2.14477">
        <ele>2460</ele>
        <time>2010-07-01T09:04:37Z</time>
      </trkpt>
      <trkpt lat="42.42543" lon="2.14482">
        <ele>2462</ele>
        <time>2010-07-01T09:04:47Z</time>
      </trkpt>
      <trkpt lat="42.42537" lon="2.14483">
        <ele>2465</ele>
        <time>2010-07-01T09:04:57Z</time>
      </trkpt>
      <trkpt lat="42.42534" lon="2.14489">
        <ele>2468</ele>
        <time>2010-07-01T09:05:07Z</time>
      </trkpt>
      <trkpt lat="42.42532" lon="2.14494">
        <ele>2470</ele>
        <time>2010-07-01T09:05:17Z</time>
      </trkpt>
      <trkpt lat="42.42533" lon="2.14501">
        <ele>2471</ele>
        <time>2010-07-01T09:05:27Z</time>
      </trkpt>
      <trkpt lat="42.42532" lon="2.14508">
        <ele>2472</ele>
        <time>2010-07-01T09:05:37Z</time>
      </trkpt>
      <trkpt lat="42.42531" lon="2.14513">
        <ele>2473</ele>
        <time>2010-07-01T09:05:47Z</time>
      </trkpt>
      <trkpt lat="42.42528" lon="2.14521">
        <ele>2475</ele>
        <time>2010-07-01T09:05:57Z</time>
      </trkpt>
      <trkpt lat="42.42526" lon="2.14526">
        <ele>2475</ele>
        <time>2010-07-01T09:06:07Z</time>
      </trkpt>
      <trkpt lat="42.42526" lon="2.14529">
        <ele>2474</ele>
        <time>2010-07-01T09:06:17Z</time>
      </trkpt>
      <trkpt lat="42.42529" lon="2.1453">
        <ele>2473</ele>
        <time>2010-07-01T09:06:27Z</time>
      </trkpt>
      <trkpt lat="42.42532" lon="2.1453">
        <ele>2473</ele>
        <time>2010-07-01T09:06:37Z</time>
      </trkpt>
      <trkpt lat="42.42535" lon="2.14528">
        <ele>2472</ele>
        <time>2010-07-01T09:06:47Z</time>
      </trkpt>
      <trkpt lat="42.42531" lon="2.14534">
        <ele>2471</ele>
        <time>2010-07-01T09:06:57Z</time>
      </trkpt>
      <trkpt lat="42.42527" lon="2.14541">
        <ele>2472</ele>
        <time>2010-07-01T09:07:07Z</time>
      </trkpt>
      <trkpt lat="42.42525" lon="2.14551">
        <ele>2473</ele>
        <time>2010-07-01T09:07:17Z</time>
      </trkpt>
      <trkpt lat="42.42521" lon="2.14557">
        <ele>2474</ele>
        <time>2010-07-01T09:07:27Z</time>
      </trkpt>
      <trkpt lat="42.42521" lon="2.14567">
        <ele>2475</ele>
        <time>2010-07-01T09:07:37Z</time>
      </trkpt>
      <trkpt lat="42.42519" lon="2.14573">
        <ele>2475</ele>
        <time>2010-07-01T09:07:47Z</time>
      </trkpt>
      <trkpt lat="42.42518" lon="2.14577">
        <ele>2476</ele>
        <time>2010-07-01T09:07:57Z</time>
      </trkpt>
      <trkpt lat="42.42515" lon="2.14582">
        <ele>2476</ele>
        <time>2010-07-01T09:08:07Z</time>
      </trkpt>
      <trkpt lat="42.42515" lon="2.14587">
        <ele>2476</ele>
        <time>2010-07-01T09:08:17Z</time>
      </trkpt>
      <trkpt lat="42.42513" lon="2.14592">
        <ele>2477</ele>
        <time>2010-07-01T09:08:27Z</time>
      </trkpt>
      <trkpt lat="42.42513" lon="2.14598">
        <ele>2477</ele>
        <time>2010-07-01T09:08:37Z</time>
      </trkpt>
      <trkpt lat="42.42511" lon="2.14602">
        <ele>2478</ele>
        <time>2010-07-01T09:08:47Z</time>
      </trkpt>
      <trkpt lat="42.42511" lon="2.14607">
        <ele>2478</ele>
        <time>2010-07-01T09:08:57Z</time>
      </trkpt>
      <trkpt lat="42.4251" lon="2.14611">
        <ele>2478</ele>
        <time>2010-07-01T09:09:07Z</time>
      </trkpt>
      <trkpt lat="42.42509" lon="2.14618">
        <ele>2479</ele>
        <time>2010-07-01T09:09:17Z</time>
      </trkpt>
      <trkpt lat="42.42508" lon="2.14623">
        <ele>2480</ele>
        <time>2010-07-01T09:09:27Z</time>
      </trkpt>
      <trkpt lat="42.42508" lon="2.14628">
        <ele>2483</ele>
        <time>2010-07-01T09:09:37Z</time>
      </trkpt>
      <trkpt lat="42.42511" lon="2.14632">
        <ele>2486</ele>
        <time>2010-07-01T09:09:47Z</time>
      </trkpt>
      <trkpt lat="42.42511" lon="2.14637">
        <ele>2488</ele>
        <time>2010-07-01T09:09:57Z</time>
      </trkpt>
      <trkpt lat="42.42511" lon="2.14646">
        <ele>2493</ele>
        <time>2010-07-01T09:10:07Z</time>
      </trkpt>
      <trkpt lat="42.4251" lon="2.14654">
        <ele>2496</ele>
        <time>2010-07-01T09:10:17Z</time>
      </trkpt>
      <trkpt lat="42.42511" lon="2.14659">
        <ele>2496</ele>
        <time>2010-07-01T09:10:27Z</time>
      </trkpt>
      <trkpt lat="42.4251" lon="2.14665">
        <ele>2497</ele>
        <time>2010-07-01T09:10:37Z</time>
      </trkpt>
      <trkpt lat="42.42511" lon="2.14672">
        <ele>2498</ele>
        <time>2010-07-01T09:10:47Z</time>
      </trkpt>
      <trkpt lat="42.42513" lon="2.14677">
        <ele>2498</ele>
        <time>2010-07-01T09:10:57Z</time>
      </trkpt>
      <trkpt lat="42.4251" lon="2.14685">
        <ele>2499</ele>
        <time>2010-07-01T09:11:07Z</time>
      </trkpt>
      <trkpt lat="42.42508" lon="2.14691">
        <ele>2499</ele>
        <time>2010-07-01T09:11:17Z</time>
      </trkpt>
      <trkpt lat="42.4251" lon="2.14697">
        <ele>2499</ele>
        <time>2010-07-01T09:11:27Z</time>
      </trkpt>
      <trkpt lat="42.4251" lon="2.14704">
        <ele>2498</ele>
        <time>2010-07-01T09:11:37Z</time>
      </trkpt>
      <trkpt lat="42.42509" lon="2.14714">
        <ele>2498</ele>
        <time>2010-07-01T09:11:47Z</time>
      </trkpt>
      <trkpt lat="42.42511" lon="2.14721">
        <ele>2499</ele>
        <time>2010-07-01T09:11:57Z</time>
      </trkpt>
      <trkpt lat="42.42509" lon="2.14727">
        <ele>2500</ele>
        <time>2010-07-01T09:12:07Z</time>
      </trkpt>
      <trkpt lat="42.42508" lon="2.14728">
        <ele>2501</ele>
        <time>2010-07-01T09:12:17Z</time>
      </trkpt>
      <trkpt lat="42.42506" lon="2.14734">
        <ele>2502</ele>
        <time>2010-07-01T09:12:27Z</time>
      </trkpt>
      <trkpt lat="42.42508" lon="2.14741">
        <ele>2503</ele>
        <time>2010-07-01T09:12:37Z</time>
      </trkpt>
      <trkpt lat="42.42505" lon="2.14748">
        <ele>2504</ele>
        <time>2010-07-01T09:12:47Z</time>
      </trkpt>
      <trkpt lat="42.42505" lon="2.14746">
        <ele>2505</ele>
        <time>2010-07-01T09:12:57Z</time>
      </trkpt>
      <trkpt lat="42.42504" lon="2.14745">
        <ele>2505</ele>
        <time>2010-07-01T09:13:07Z</time>
      </trkpt>
      <trkpt lat="42.42502" lon="2.14743">
        <ele>2506</ele>
        <time>2010-07-01T09:13:17Z</time>
      </trkpt>
      <trkpt lat="42.42498" lon="2.14739">
        <ele>2507</ele>
        <time>2010-07-01T09:13:27Z</time>
      </trkpt>
      <trkpt lat="42.42498" lon="2.14739">
        <ele>2507</ele>
        <time>2010-07-01T09:13:37Z</time>
      </trkpt>
      <trkpt lat="42.42496" lon="2.14738">
        <ele>2507</ele>
        <time>2010-07-01T09:13:47Z</time>
      </trkpt>
      <trkpt lat="42.42497" lon="2.14738">
        <ele>2507</ele>
        <time>2010-07-01T09:13:57Z</time>
      </trkpt>
      <trkpt lat="42.42499" lon="2.14742">
        <ele>2507</ele>
        <time>2010-07-01T09:14:07Z</time>
      </trkpt>
      <trkpt lat="42.42494" lon="2.14733">
        <ele>2508</ele>
        <time>2010-07-01T09:14:17Z</time>
      </trkpt>
      <trkpt lat="42.42491" lon="2.1473">
        <ele>2509</ele>
        <time>2010-07-01T09:14:27Z</time>
      </trkpt>
      <trkpt lat="42.42486" lon="2.14724">
        <ele>2512</ele>
        <time>2010-07-01T09:14:37Z</time>
      </trkpt>
      <trkpt lat="42.4248" lon="2.14718">
        <ele>2516</ele>
        <time>2010-07-01T09:14:47Z</time>
      </trkpt>
      <trkpt lat="42.42474" lon="2.14717">
        <ele>2519</ele>
        <time>2010-07-01T09:14:57Z</time>
      </trkpt>
      <trkpt lat="42.42469" lon="2.14709">
        <ele>2523</ele>
        <time>2010-07-01T09:15:07Z</time>
      </trkpt>
      <trkpt lat="42.42464" lon="2.14702">
        <ele>2526</ele>
        <time>2010-07-01T09:15:17Z</time>
      </trkpt>
      <trkpt lat="42.4246" lon="2.147">
        <ele>2528</ele>
        <time>2010-07-01T09:15:27Z</time>
      </trkpt>
      <trkpt lat="42.42455" lon="2.14699">
        <ele>2530</ele>
        <time>2010-07-01T09:15:37Z</time>
      </trkpt>
      <trkpt lat="42.42453" lon="2.14694">
        <ele>2531</ele>
        <time>2010-07-01T09:15:47Z</time>
      </trkpt>
      <trkpt lat="42.42454" lon="2.14697">
        <ele>2533</ele>
        <time>2010-07-01T09:15:57Z</time>
      </trkpt>
      <trkpt lat="42.42455" lon="2.14702">
        <ele>2533</ele>
        <time>2010-07-01T09:16:07Z</time>
      </trkpt>
      <trkpt lat="42.42453" lon="2.14707">
        <ele>2533</ele>
        <time>2010-07-01T09:16:17Z</time>
      </trkpt>
      <trkpt lat="42.42453" lon="2.14714">
        <ele>2533</ele>
        <time>2010-07-01T09:16:27Z</time>
      </trkpt>
      <trkpt lat="42.42451" lon="2.1472">
        <ele>2533</ele>
        <time>2010-07-01T09:16:37Z</time>
      </trkpt>
      <trkpt lat="42.42451" lon="2.14725">
        <ele>2533</ele>
        <time>2010-07-01T09:16:47Z</time>
      </trkpt>
      <trkpt lat="42.42449" lon="2.14731">
        <ele>2532</ele>
        <time>2010-07-01T09:16:57Z</time>
      </trkpt>
      <trkpt lat="42.42447" lon="2.14734">
        <ele>2532</ele>
        <time>2010-07-01T09:17:07Z</time>
      </trkpt>
      <trkpt lat="42.42445" lon="2.1474">
        <ele>2532</ele>
        <time>2010-07-01T09:17:17Z</time>
      </trkpt>
      <trkpt lat="42.42445" lon="2.14744">
        <ele>2532</ele>
        <time>2010-07-01T09:17:27Z</time>
      </trkpt>
      <trkpt lat="42.42444" lon="2.14748">
        <ele>2532</ele>
        <time>2010-07-01T09:17:37Z</time>
      </trkpt>
      <trkpt lat="42.4244" lon="2.14747">
        <ele>2532</ele>
        <time>2010-07-01T09:17:47Z</time>
      </trkpt>
      <trkpt lat="42.42438" lon="2.14744">
        <ele>2534</ele>
        <time>2010-07-01T09:17:57Z</time>
      </trkpt>
      <trkpt lat="42.42436" lon="2.14745">
        <ele>2534</ele>
        <time>2010-07-01T09:18:07Z</time>
      </trkpt>
      <trkpt lat="42.42431" lon="2.14746">
        <ele>2536</ele>
        <time>2010-07-01T09:18:17Z</time>
      </trkpt>
      <trkpt lat="42.42431" lon="2.14748">
        <ele>2537</ele>
        <time>2010-07-01T09:18:27Z</time>
      </trkpt>
      <trkpt lat="42.42429" lon="2.14751">
        <ele>2538</ele>
        <time>2010-07-01T09:18:37Z</time>
      </trkpt>
      <trkpt lat="42.42427" lon="2.14748">
        <ele>2539</ele>
        <time>2010-07-01T09:18:47Z</time>
      </trkpt>
      <trkpt lat="42.42424" lon="2.14747">
        <ele>2541</ele>
        <time>2010-07-01T09:18:57Z</time>
      </trkpt>
      <trkpt lat="42.42423" lon="2.14744">
        <ele>2542</ele>
        <time>2010-07-01T09:19:07Z</time>
      </trkpt>
      <trkpt lat="42.42419" lon="2.14745">
        <ele>2544</ele>
        <time>2010-07-01T09:19:17Z</time>
      </trkpt>
      <trkpt lat="42.42418" lon="2.14748">
        <ele>2545</ele>
        <time>2010-07-01T09:19:27Z</time>
      </trkpt>
      <trkpt lat="42.42416" lon="2.1475">
        <ele>2546</ele>
        <time>2010-07-01T09:19:37Z</time>
      </trkpt>
      <trkpt lat="42.42415" lon="2.14751">
        <ele>2547</ele>
        <time>2010-07-01T09:19:47Z</time>
      </trkpt>
      <trkpt lat="42.42415" lon="2.1475">
        <ele>2547</ele>
        <time>2010-07-01T09:19:57Z</time>
      </trkpt>
      <trkpt lat="42.42414" lon="2.14755">
        <ele>2550</ele>
        <time>2010-07-01T09:20:07Z</time>
      </trkpt>
      <trkpt lat="42.4241" lon="2.14759">
        <ele>2552</ele>
        <time>2010-07-01T09:20:17Z</time>
      </trkpt>
      <trkpt lat="42.42408" lon="2.14763">
        <ele>2553</ele>
        <time>2010-07-01T09:20:27Z</time>
      </trkpt>
      <trkpt lat="42.42407" lon="2.14769">
        <ele>2554</ele>
        <time>2010-07-01T09:20:37Z</time>
      </trkpt>
      <trkpt lat="42.42404" lon="2.1477">
        <ele>2555</ele>
        <time>2010-07-01T09:20:47Z</time>
      </trkpt>
      <trkpt lat="42.42402" lon="2.14775">
        <ele>2556</ele>
        <time>2010-07-01T09:20:57Z</time>
      </trkpt>
      <trkpt lat="42.424" lon="2.14779">
        <ele>2557</ele>
        <time>2010-07-01T09:21:07Z</time>
      </trkpt>
      <trkpt lat="42.42398" lon="2.14782">
        <ele>2558</ele>
        <time>2010-07-01T09:21:17Z</time>
      </trkpt>
      <trkpt lat="42.42395" lon="2.14785">
        <ele>2559</ele>
        <time>2010-07-01T09:21:27Z</time>
      </trkpt>
      <trkpt lat="42.42392" lon="2.14788">
        <ele>2560</ele>
        <time>2010-07-01T09:21:37Z</time>
      </trkpt>
      <trkpt lat="42.42389" lon="2.14791">
        <ele>2561</ele>
        <time>2010-07-01T09:21:47Z</time>
      </trkpt>
      <trkpt lat="42.42385" lon="2.14796">
        <ele>2561</ele>
        <time>2010-07-01T09:21:57Z</time>
      </trkpt>
      <trkpt lat="42.42383" lon="2.14799">
        <ele>2562</ele>
        <time>2010-07-01T09:22:07Z</time>
      </trkpt>
      <trkpt lat="42.4238" lon="2.14801">
        <ele>2562</ele>
        <time>2010-07-01T09:22:17Z</time>
      </trkpt>
      <trkpt lat="42.42377" lon="2.14805">
        <ele>2563</ele>
        <time>2010-07-01T09:22:27Z</time>
      </trkpt>
      <trkpt lat="42.42372" lon="2.14807">
        <ele>2563</ele>
        <time>2010-07-01T09:22:37Z</time>
      </trkpt>
      <trkpt lat="42.42369" lon="2.14813">
        <ele>2565</ele>
        <time>2010-07-01T09:22:47Z</time>
      </trkpt>
      <trkpt lat="42.42365" lon="2.14818">
        <ele>2567</ele>
        <time>2010-07-01T09:22:57Z</time>
      </trkpt>
      <trkpt lat="42.42358" lon="2.14818">
        <ele>2570</ele>
        <time>2010-07-01T09:23:07Z</time>
      </trkpt>
      <trkpt lat="42.42352" lon="2.14821">
        <ele>2573</ele>
        <time>2010-07-01T09:23:17Z</time>
      </trkpt>
      <trkpt lat="42.42349" lon="2.14824">
        <ele>2574</ele>
        <time>2010-07-01T09:23:27Z</time>
      </trkpt>
      <trkpt lat="42.42345" lon="2.14828">
        <ele>2577</ele>
        <time>2010-07-01T09:23:37Z</time>
      </trkpt>
      <trkpt lat="42.42344" lon="2.1483">
        <ele>2578</ele>
        <time>2010-07-01T09:23:47Z</time>
      </trkpt>
      <trkpt lat="42.42346" lon="2.14834">
        <ele>2580</ele>
        <time>2010-07-01T09:23:57Z</time>
      </trkpt>
      <trkpt lat="42.42342" lon="2.14836">
        <ele>2582</ele>
        <time>2010-07-01T09:24:07Z</time>
      </trkpt>
      <trkpt lat="42.42338" lon="2.14833">
        <ele>2585</ele>
        <time>2010-07-01T09:24:17Z</time>
      </trkpt>
      <trkpt lat="42.42334" lon="2.14836">
        <ele>2586</ele>
        <time>2010-07-01T09:24:27Z</time>
      </trkpt>
      <trkpt lat="42.42329" lon="2.14841">
        <ele>2585</ele>
        <time>2010-07-01T09:24:37Z</time>
      </trkpt>
      <trkpt lat="42.42328" lon="2.14847">
        <ele>2585</ele>
        <time>2010-07-01T09:24:47Z</time>
      </trkpt>
      <trkpt lat="42.42325" lon="2.14849">
        <ele>2585</ele>
        <time>2010-07-01T09:24:57Z</time>
      </trkpt>
      <trkpt lat="42.42322" lon="2.14853">
        <ele>2584</ele>
        <time>2010-07-01T09:25:07Z</time>
      </trkpt>
      <trkpt lat="42.4232" lon="2.14858">
        <ele>2584</ele>
        <time>2010-07-01T09:25:17Z</time>
      </trkpt>
      <trkpt lat="42.42316" lon="2.1486">
        <ele>2585</ele>
        <time>2010-07-01T09:25:27Z</time>
      </trkpt>
      <trkpt lat="42.42315" lon="2.14864">
        <ele>2586</ele>
        <time>2010-07-01T09:25:37Z</time>
      </trkpt>
      <trkpt lat="42.42312" lon="2.14868">
        <ele>2586</ele>
        <time>2010-07-01T09:25:47Z</time>
      </trkpt>
      <trkpt lat="42.42309" lon="2.14869">
        <ele>2587</ele>
        <time>2010-07-01T09:25:57Z</time>
      </trkpt>
      <trkpt lat="42.42306" lon="2.14866">
        <ele>2588</ele>
        <time>2010-07-01T09:26:07Z</time>
      </trkpt>
      <trkpt lat="42.42304" lon="2.14861">
        <ele>2591</ele>
        <time>2010-07-01T09:26:17Z</time>
      </trkpt>
      <trkpt lat="42.42302" lon="2.14859">
        <ele>2592</ele>
        <time>2010-07-01T09:26:27Z</time>
      </trkpt>
      <trkpt lat="42.42299" lon="2.14861">
        <ele>2594</ele>
        <time>2010-07-01T09:26:37Z</time>
      </trkpt>
      <trkpt lat="42.42297" lon="2.14861">
        <ele>2596</ele>
        <time>2010-07-01T09:26:47Z</time>
      </trkpt>
      <trkpt lat="42.42295" lon="2.14863">
        <ele>2597</ele>
        <time>2010-07-01T09:26:57Z</time>
      </trkpt>
      <trkpt lat="42.42294" lon="2.14868">
        <ele>2598</ele>
        <time>2010-07-01T09:27:07Z</time>
      </trkpt>
      <trkpt lat="42.42291" lon="2.14871">
        <ele>2600</ele>
        <time>2010-07-01T09:27:17Z</time>
      </trkpt>
      <trkpt lat="42.42288" lon="2.14868">
        <ele>2602</ele>
        <time>2010-07-01T09:27:27Z</time>
      </trkpt>
      <trkpt lat="42.42284" lon="2.14864">
        <ele>2603</ele>
        <time>2010-07-01T09:27:37Z</time>
      </trkpt>
      <trkpt lat="42.42283" lon="2.14861">
        <ele>2605</ele>
        <time>2010-07-01T09:27:47Z</time>
      </trkpt>
      <trkpt lat="42.42279" lon="2.14858">
        <ele>2607</ele>
        <time>2010-07-01T09:27:57Z</time>
      </trkpt>
      <trkpt lat="42.42276" lon="2.14856">
        <ele>2609</ele>
        <time>2010-07-01T09:28:07Z</time>
      </trkpt>
      <trkpt lat="42.42274" lon="2.14854">
        <ele>2611</ele>
        <time>2010-07-01T09:28:17Z</time>
      </trkpt>
      <trkpt lat="42.42274" lon="2.14854">
        <ele>2611</ele>
        <time>2010-07-01T09:28:27Z</time>
      </trkpt>
      <trkpt lat="42.42274" lon="2.14855">
        <ele>2611</ele>
        <time>2010-07-01T09:28:37Z</time>
      </trkpt>
      <trkpt lat="42.42272" lon="2.14853">
        <ele>2612</ele>
        <time>2010-07-01T09:28:47Z</time>
      </trkpt>
      <trkpt lat="42.42271" lon="2.1485">
        <ele>2612</ele>
        <time>2010-07-01T09:28:57Z</time>
      </trkpt>
      <trkpt lat="42.42271" lon="2.1485">
        <ele>2612</ele>
        <time>2010-07-01T09:29:07Z</time>
      </trkpt>
      <trkpt lat="42.42272" lon="2.1485">
        <ele>2613</ele>
        <time>2010-07-01T09:29:17Z</time>
      </trkpt>
      <trkpt lat="42.4227" lon="2.14847">
        <ele>2613</ele>
        <time>2010-07-01T09:29:27Z</time>
      </trkpt>
      <trkpt lat="42.42267" lon="2.14846">
        <ele>2614</ele>
        <time>2010-07-01T09:29:37Z</time>
      </trkpt>
      <trkpt lat="42.42263" lon="2.14848">
        <ele>2614</ele>
        <time>2010-07-01T09:29:47Z</time>
      </trkpt>
      <trkpt lat="42.4226" lon="2.14851">
        <ele>2615</ele>
        <time>2010-07-01T09:29:57Z</time>
      </trkpt>
      <trkpt lat="42.42255" lon="2.14855">
        <ele>2616</ele>
        <time>2010-07-01T09:30:07Z</time>
      </trkpt>
      <trkpt lat="42.42252" lon="2.14856">
        <ele>2617</ele>
        <time>2010-07-01T09:30:17Z</time>
      </trkpt>
      <trkpt lat="42.42251" lon="2.14857">
        <ele>2617</ele>
        <time>2010-07-01T09:30:27Z</time>
      </trkpt>
      <trkpt lat="42.42249" lon="2.1486">
        <ele>2618</ele>
        <time>2010-07-01T09:30:37Z</time>
      </trkpt>
      <trkpt lat="42.42245" lon="2.14863">
        <ele>2619</ele>
        <time>2010-07-01T09:30:47Z</time>
      </trkpt>
      <trkpt lat="42.42241" lon="2.14866">
        <ele>2621</ele>
        <time>2010-07-01T09:30:57Z</time>
      </trkpt>
      <trkpt lat="42.42239" lon="2.14869">
        <ele>2622</ele>
        <time>2010-07-01T09:31:07Z</time>
      </trkpt>
      <trkpt lat="42.42236" lon="2.14871">
        <ele>2623</ele>
        <time>2010-07-01T09:31:17Z</time>
      </trkpt>
      <trkpt lat="42.42235" lon="2.14874">
        <ele>2624</ele>
        <time>2010-07-01T09:31:27Z</time>
      </trkpt>
      <trkpt lat="42.42232" lon="2.14877">
        <ele>2625</ele>
        <time>2010-07-01T09:31:37Z</time>
      </trkpt>
      <trkpt lat="42.4223" lon="2.14881">
        <ele>2626</ele>
        <time>2010-07-01T09:31:47Z</time>
      </trkpt>
      <trkpt lat="42.42228" lon="2.14883">
        <ele>2627</ele>
        <time>2010-07-01T09:31:57Z</time>
      </trkpt>
      <trkpt lat="42.42226" lon="2.14886">
        <ele>2628</ele>
        <time>2010-07-01T09:32:07Z</time>
      </trkpt>
      <trkpt lat="42.42226" lon="2.14886">
        <ele>2628</ele>
        <time>2010-07-01T09:32:17Z</time>
      </trkpt>
      <trkpt lat="42.42225" lon="2.14886">
        <ele>2629</ele>
        <time>2010-07-01T09:32:27Z</time>
      </trkpt>
      <trkpt lat="42.42231" lon="2.14885">
        <ele>2631</ele>
        <time>2010-07-01T09:32:37Z</time>
      </trkpt>
      <trkpt lat="42.42232" lon="2.14885">
        <ele>2631</ele>
        <time>2010-07-01T09:32:47Z</time>
      </trkpt>
      <trkpt lat="42.42227" lon="2.14886">
        <ele>2629</ele>
        <time>2010-07-01T09:32:57Z</time>
      </trkpt>
      <trkpt lat="42.42227" lon="2.14886">
        <ele>2629</ele>
        <time>2010-07-01T09:33:07Z</time>
      </trkpt>
      <trkpt lat="42.42227" lon="2.14886">
        <ele>2629</ele>
        <time>2010-07-01T09:33:17Z</time>
      </trkpt>
      <trkpt lat="42.42228" lon="2.14886">
        <ele>2629</ele>
        <time>2010-07-01T09:33:27Z</time>
      </trkpt>
      <trkpt lat="42.42228" lon="2.14886">
        <ele>2628</ele>
        <time>2010-07-01T09:33:37Z</time>
      </trkpt>
      <trkpt lat="42.42228" lon="2.14885">
        <ele>2628</ele>
        <time>2010-07-01T09:33:47Z</time>
      </trkpt>
      <trkpt lat="42.42228" lon="2.14885">
        <ele>2628</ele>
        <time>2010-07-01T09:33:57Z</time>
      </trkpt>
      <trkpt lat="42.42225" lon="2.14886">
        <ele>2626</ele>
        <time>2010-07-01T09:34:07Z</time>
      </trkpt>
      <trkpt lat="42.42223" lon="2.14887">
        <ele>2625</ele>
        <time>2010-07-01T09:34:17Z</time>
      </trkpt>
      <trkpt lat="42.42224" lon="2.14887">
        <ele>2625</ele>
        <time>2010-07-01T09:34:27Z</time>
      </trkpt>
      <trkpt lat="42.42225" lon="2.14887">
        <ele>2625</ele>
        <time>2010-07-01T09:34:37Z</time>
      </trkpt>
      <trkpt lat="42.42225" lon="2.14887">
        <ele>2625</ele>
        <time>2010-07-01T09:34:47Z</time>
      </trkpt>
      <trkpt lat="42.42225" lon="2.14887">
        <ele>2625</ele>
        <time>2010-07-01T09:34:57Z</time>
      </trkpt>
      <trkpt lat="42.42227" lon="2.14886">
        <ele>2624</ele>
        <time>2010-07-01T09:35:07Z</time>
      </trkpt>
      <trkpt lat="42.42223" lon="2.14887">
        <ele>2623</ele>
        <time>2010-07-01T09:35:17Z</time>
      </trkpt>
      <trkpt lat="42.42224" lon="2.14886">
        <ele>2623</ele>
        <time>2010-07-01T09:35:27Z</time>
      </trkpt>
      <trkpt lat="42.42225" lon="2.14886">
        <ele>2623</ele>
        <time>2010-07-01T09:35:37Z</time>
      </trkpt>
      <trkpt lat="42.42226" lon="2.14886">
        <ele>2623</ele>
        <time>2010-07-01T09:35:47Z</time>
      </trkpt>
      <trkpt lat="42.42222" lon="2.14887">
        <ele>2622</ele>
        <time>2010-07-01T09:35:57Z</time>
      </trkpt>
      <trkpt lat="42.42225" lon="2.14891">
        <ele>2620</ele>
        <time>2010-07-01T09:36:07Z</time>
      </trkpt>
      <trkpt lat="42.42226" lon="2.1489">
        <ele>2620</ele>
        <time>2010-07-01T09:36:17Z</time>
      </trkpt>
      <trkpt lat="42.42227" lon="2.14891">
        <ele>2619</ele>
        <time>2010-07-01T09:36:27Z</time>
      </trkpt>
      <trkpt lat="42.42225" lon="2.14892">
        <ele>2618</ele>
        <time>2010-07-01T09:36:37Z</time>
      </trkpt>
      <trkpt lat="42.42223" lon="2.14895">
        <ele>2616</ele>
        <time>2010-07-01T09:36:47Z</time>
      </trkpt>
      <trkpt lat="42.42223" lon="2.14897">
        <ele>2617</ele>
        <time>2010-07-01T09:36:57Z</time>
      </trkpt>
      <trkpt lat="42.42224" lon="2.14902">
        <ele>2621</ele>
        <time>2010-07-01T09:37:07Z</time>
      </trkpt>
      <trkpt lat="42.42222" lon="2.14906">
        <ele>2624</ele>
        <time>2010-07-01T09:37:17Z</time>
      </trkpt>
      <trkpt lat="42.4222" lon="2.14909">
        <ele>2628</ele>
        <time>2010-07-01T09:37:27Z</time>
      </trkpt>
      <trkpt lat="42.42218" lon="2.14913">
        <ele>2632</ele>
        <time>2010-07-01T09:37:37Z</time>
      </trkpt>
      <trkpt lat="42.42215" lon="2.14916">
        <ele>2635</ele>
        <time>2010-07-01T09:37:47Z</time>
      </trkpt>
      <trkpt lat="42.42212" lon="2.14918">
        <ele>2638</ele>
        <time>2010-07-01T09:37:57Z</time>
      </trkpt>
      <trkpt lat="42.42209" lon="2.1492">
        <ele>2640</ele>
        <time>2010-07-01T09:38:07Z</time>
      </trkpt>
      <trkpt lat="42.42206" lon="2.1492">
        <ele>2642</ele>
        <time>2010-07-01T09:38:17Z</time>
      </trkpt>
      <trkpt lat="42.42202" lon="2.14922">
        <ele>2645</ele>
        <time>2010-07-01T09:38:27Z</time>
      </trkpt>
      <trkpt lat="42.42199" lon="2.14923">
        <ele>2647</ele>
        <time>2010-07-01T09:38:37Z</time>
      </trkpt>
      <trkpt lat="42.42197" lon="2.14924">
        <ele>2647</ele>
        <time>2010-07-01T09:38:47Z</time>
      </trkpt>
      <trkpt lat="42.42194" lon="2.14926">
        <ele>2648</ele>
        <time>2010-07-01T09:38:57Z</time>
      </trkpt>
      <trkpt lat="42.42192" lon="2.14926">
        <ele>2648</ele>
        <time>2010-07-01T09:39:07Z</time>
      </trkpt>
      <trkpt lat="42.42188" lon="2.14928">
        <ele>2649</ele>
        <time>2010-07-01T09:39:17Z</time>
      </trkpt>
      <trkpt lat="42.42186" lon="2.14931">
        <ele>2650</ele>
        <time>2010-07-01T09:39:27Z</time>
      </trkpt>
      <trkpt lat="42.42183" lon="2.14934">
        <ele>2650</ele>
        <time>2010-07-01T09:39:37Z</time>
      </trkpt>
      <trkpt lat="42.42182" lon="2.14937">
        <ele>2651</ele>
        <time>2010-07-01T09:39:47Z</time>
      </trkpt>
      <trkpt lat="42.4218" lon="2.14939">
        <ele>2651</ele>
        <time>2010-07-01T09:39:57Z</time>
      </trkpt>
      <trkpt lat="42.42176" lon="2.14942">
        <ele>2652</ele>
        <time>2010-07-01T09:40:07Z</time>
      </trkpt>
      <trkpt lat="42.42173" lon="2.14944">
        <ele>2653</ele>
        <time>2010-07-01T09:40:17Z</time>
      </trkpt>
      <trkpt lat="42.4217" lon="2.14947">
        <ele>2655</ele>
        <time>2010-07-01T09:40:27Z</time>
      </trkpt>
      <trkpt lat="42.42169" lon="2.14949">
        <ele>2656</ele>
        <time>2010-07-01T09:40:37Z</time>
      </trkpt>
      <trkpt lat="42.42166" lon="2.14951">
        <ele>2657</ele>
        <time>2010-07-01T09:40:47Z</time>
      </trkpt>
      <trkpt lat="42.42163" lon="2.14952">
        <ele>2659</ele>
        <time>2010-07-01T09:40:57Z</time>
      </trkpt>
      <trkpt lat="42.42159" lon="2.14953">
        <ele>2661</ele>
        <time>2010-07-01T09:41:07Z</time>
      </trkpt>
      <trkpt lat="42.42159" lon="2.1495">
        <ele>2664</ele>
        <time>2010-07-01T09:41:17Z</time>
      </trkpt>
      <trkpt lat="42.42157" lon="2.14948">
        <ele>2666</ele>
        <time>2010-07-01T09:41:27Z</time>
      </trkpt>
      <trkpt lat="42.42156" lon="2.14947">
        <ele>2667</ele>
        <time>2010-07-01T09:41:37Z</time>
      </trkpt>
      <trkpt lat="42.42154" lon="2.14947">
        <ele>2668</ele>
        <time>2010-07-01T09:41:47Z</time>
      </trkpt>
      <trkpt lat="42.42152" lon="2.14949">
        <ele>2670</ele>
        <time>2010-07-01T09:41:57Z</time>
      </trkpt>
      <trkpt lat="42.42148" lon="2.1495">
        <ele>2671</ele>
        <time>2010-07-01T09:42:07Z</time>
      </trkpt>
      <trkpt lat="42.42145" lon="2.1495">
        <ele>2672</ele>
        <time>2010-07-01T09:42:17Z</time>
      </trkpt>
      <trkpt lat="42.42143" lon="2.14952">
        <ele>2672</ele>
        <time>2010-07-01T09:42:27Z</time>
      </trkpt>
      <trkpt lat="42.4214" lon="2.14952">
        <ele>2673</ele>
        <time>2010-07-01T09:42:37Z</time>
      </trkpt>
      <trkpt lat="42.42137" lon="2.14954">
        <ele>2674</ele>
        <time>2010-07-01T09:42:47Z</time>
      </trkpt>
      <trkpt lat="42.42135" lon="2.14956">
        <ele>2676</ele>
        <time>2010-07-01T09:42:57Z</time>
      </trkpt>
      <trkpt lat="42.42133" lon="2.14959">
        <ele>2677</ele>
        <time>2010-07-01T09:43:07Z</time>
      </trkpt>
      <trkpt lat="42.42131" lon="2.1496">
        <ele>2678</ele>
        <time>2010-07-01T09:43:17Z</time>
      </trkpt>
      <trkpt lat="42.42127" lon="2.14961">
        <ele>2679</ele>
        <time>2010-07-01T09:43:27Z</time>
      </trkpt>
      <trkpt lat="42.42125" lon="2.14963">
        <ele>2680</ele>
        <time>2010-07-01T09:43:37Z</time>
      </trkpt>
      <trkpt lat="42.42123" lon="2.14966">
        <ele>2681</ele>
        <time>2010-07-01T09:43:47Z</time>
      </trkpt>
      <trkpt lat="42.42119" lon="2.14972">
        <ele>2683</ele>
        <time>2010-07-01T09:43:57Z</time>
      </trkpt>
      <trkpt lat="42.42118" lon="2.14975">
        <ele>2684</ele>
        <time>2010-07-01T09:44:07Z</time>
      </trkpt>
      <trkpt lat="42.42115" lon="2.14982">
        <ele>2686</ele>
        <time>2010-07-01T09:44:17Z</time>
      </trkpt>
      <trkpt lat="42.42113" lon="2.1499">
        <ele>2689</ele>
        <time>2010-07-01T09:44:27Z</time>
      </trkpt>
      <trkpt lat="42.4211" lon="2.14991">
        <ele>2691</ele>
        <time>2010-07-01T09:44:37Z</time>
      </trkpt>
      <trkpt lat="42.42108" lon="2.14991">
        <ele>2692</ele>
        <time>2010-07-01T09:44:47Z</time>
      </trkpt>
      <trkpt lat="42.42109" lon="2.1499">
        <ele>2693</ele>
        <time>2010-07-01T09:44:57Z</time>
      </trkpt>
      <trkpt lat="42.42109" lon="2.1499">
        <ele>2693</ele>
        <time>2010-07-01T09:45:07Z</time>
      </trkpt>
      <trkpt lat="42.42109" lon="2.1499">
        <ele>2693</ele>
        <time>2010-07-01T09:45:17Z</time>
      </trkpt>
      <trkpt lat="42.42109" lon="2.14991">
        <ele>2693</ele>
        <time>2010-07-01T09:45:27Z</time>
      </trkpt>
      <trkpt lat="42.42109" lon="2.14991">
        <ele>2693</ele>
        <time>2010-07-01T09:45:37Z</time>
      </trkpt>
      <trkpt lat="42.4211" lon="2.14991">
        <ele>2693</ele>
        <time>2010-07-01T09:45:47Z</time>
      </trkpt>
      <trkpt lat="42.42109" lon="2.14991">
        <ele>2693</ele>
        <time>2010-07-01T09:45:57Z</time>
      </trkpt>
      <trkpt lat="42.42108" lon="2.14991">
        <ele>2693</ele>
        <time>2010-07-01T09:46:07Z</time>
      </trkpt>
      <trkpt lat="42.42108" lon="2.14991">
        <ele>2693</ele>
        <time>2010-07-01T09:46:17Z</time>
      </trkpt>
      <trkpt lat="42.42107" lon="2.14994">
        <ele>2693</ele>
        <time>2010-07-01T09:46:27Z</time>
      </trkpt>
      <trkpt lat="42.42106" lon="2.14999">
        <ele>2693</ele>
        <time>2010-07-01T09:46:37Z</time>
      </trkpt>
      <trkpt lat="42.42108" lon="2.14999">
        <ele>2693</ele>
        <time>2010-07-01T09:46:47Z</time>
      </trkpt>
      <trkpt lat="42.42107" lon="2.15001">
        <ele>2693</ele>
        <time>2010-07-01T09:46:57Z</time>
      </trkpt>
      <trkpt lat="42.42107" lon="2.15001">
        <ele>2693</ele>
        <time>2010-07-01T09:47:07Z</time>
      </trkpt>
      <trkpt lat="42.42107" lon="2.15002">
        <ele>2693</ele>
        <time>2010-07-01T09:47:17Z</time>
      </trkpt>
      <trkpt lat="42.42107" lon="2.15001">
        <ele>2693</ele>
        <time>2010-07-01T09:47:27Z</time>
      </trkpt>
      <trkpt lat="42.42106" lon="2.15001">
        <ele>2693</ele>
        <time>2010-07-01T09:47:37Z</time>
      </trkpt>
      <trkpt lat="42.42106" lon="2.15001">
        <ele>2693</ele>
        <time>2010-07-01T09:47:47Z</time>
      </trkpt>
      <trkpt lat="42.42099" lon="2.15006">
        <ele>2692</ele>
        <time>2010-07-01T09:47:57Z</time>
      </trkpt>
      <trkpt lat="42.42088" lon="2.15012">
        <ele>2690</ele>
        <time>2010-07-01T09:48:07Z</time>
      </trkpt>
      <trkpt lat="42.4208" lon="2.15019">
        <ele>2688</ele>
        <time>2010-07-01T09:48:17Z</time>
      </trkpt>
      <trkpt lat="42.42073" lon="2.15025">
        <ele>2686</ele>
        <time>2010-07-01T09:48:27Z</time>
      </trkpt>
      <trkpt lat="42.42064" lon="2.15028">
        <ele>2685</ele>
        <time>2010-07-01T09:48:37Z</time>
      </trkpt>
      <trkpt lat="42.42056" lon="2.15033">
        <ele>2684</ele>
        <time>2010-07-01T09:48:47Z</time>
      </trkpt>
      <trkpt lat="42.42054" lon="2.15032">
        <ele>2684</ele>
        <time>2010-07-01T09:48:57Z</time>
      </trkpt>
      <trkpt lat="42.42054" lon="2.15034">
        <ele>2684</ele>
        <time>2010-07-01T09:49:07Z</time>
      </trkpt>
      <trkpt lat="42.42054" lon="2.15042">
        <ele>2683</ele>
        <time>2010-07-01T09:49:17Z</time>
      </trkpt>
      <trkpt lat="42.42054" lon="2.15043">
        <ele>2684</ele>
        <time>2010-07-01T09:49:27Z</time>
      </trkpt>
      <trkpt lat="42.42053" lon="2.15044">
        <ele>2684</ele>
        <time>2010-07-01T09:49:37Z</time>
      </trkpt>
      <trkpt lat="42.42053" lon="2.15043">
        <ele>2684</ele>
        <time>2010-07-01T09:49:47Z</time>
      </trkpt>
      <trkpt lat="42.42053" lon="2.15042">
        <ele>2685</ele>
        <time>2010-07-01T09:49:57Z</time>
      </trkpt>
      <trkpt lat="42.42053" lon="2.15041">
        <ele>2685</ele>
        <time>2010-07-01T09:50:07Z</time>
      </trkpt>
      <trkpt lat="42.42052" lon="2.15041">
        <ele>2685</ele>
        <time>2010-07-01T09:50:17Z</time>
      </trkpt>
      <trkpt lat="42.42052" lon="2.15041">
        <ele>2685</ele>
        <time>2010-07-01T09:50:27Z</time>
      </trkpt>
      <trkpt lat="42.42052" lon="2.1504">
        <ele>2685</ele>
        <time>2010-07-01T09:50:37Z</time>
      </trkpt>
      <trkpt lat="42.42052" lon="2.15041">
        <ele>2685</ele>
        <time>2010-07-01T09:50:47Z</time>
      </trkpt>
      <trkpt lat="42.42051" lon="2.15042">
        <ele>2685</ele>
        <time>2010-07-01T09:50:57Z</time>
      </trkpt>
      <trkpt lat="42.42043" lon="2.15038">
        <ele>2684</ele>
        <time>2010-07-01T09:51:07Z</time>
      </trkpt>
      <trkpt lat="42.42033" lon="2.15033">
        <ele>2683</ele>
        <time>2010-07-01T09:51:17Z</time>
      </trkpt>
      <trkpt lat="42.42024" lon="2.15026">
        <ele>2682</ele>
        <time>2010-07-01T09:51:27Z</time>
      </trkpt>
      <trkpt lat="42.42015" lon="2.1502">
        <ele>2681</ele>
        <time>2010-07-01T09:51:37Z</time>
      </trkpt>
      <trkpt lat="42.42006" lon="2.15013">
        <ele>2680</ele>
        <time>2010-07-01T09:51:47Z</time>
      </trkpt>
      <trkpt lat="42.41997" lon="2.15008">
        <ele>2679</ele>
        <time>2010-07-01T09:51:57Z</time>
      </trkpt>
      <trkpt lat="42.4199" lon="2.15004">
        <ele>2678</ele>
        <time>2010-07-01T09:52:07Z</time>
      </trkpt>
      <trkpt lat="42.41985" lon="2.14998">
        <ele>2678</ele>
        <time>2010-07-01T09:52:17Z</time>
      </trkpt>
      <trkpt lat="42.41983" lon="2.14994">
        <ele>2677</ele>
        <time>2010-07-01T09:52:27Z</time>
      </trkpt>
      <trkpt lat="42.41983" lon="2.14995">
        <ele>2677</ele>
        <time>2010-07-01T09:52:37Z</time>
      </trkpt>
      <trkpt lat="42.41983" lon="2.14994">
        <ele>2678</ele>
        <time>2010-07-01T09:52:47Z</time>
      </trkpt>
      <trkpt lat="42.41982" lon="2.14994">
        <ele>2679</ele>
        <time>2010-07-01T09:52:57Z</time>
      </trkpt>
      <trkpt lat="42.41982" lon="2.14993">
        <ele>2679</ele>
        <time>2010-07-01T09:53:07Z</time>
      </trkpt>
      <trkpt lat="42.41982" lon="2.14992">
        <ele>2680</ele>
        <time>2010-07-01T09:53:17Z</time>
      </trkpt>
      <trkpt lat="42.41982" lon="2.14992">
        <ele>2681</ele>
        <time>2010-07-01T09:53:27Z</time>
      </trkpt>
      <trkpt lat="42.41981" lon="2.14992">
        <ele>2682</ele>
        <time>2010-07-01T09:53:37Z</time>
      </trkpt>
      <trkpt lat="42.41981" lon="2.14991">
        <ele>2683</ele>
        <time>2010-07-01T09:53:47Z</time>
      </trkpt>
      <trkpt lat="42.41982" lon="2.14991">
        <ele>2684</ele>
        <time>2010-07-01T09:53:57Z</time>
      </trkpt>
      <trkpt lat="42.41982" lon="2.14991">
        <ele>2684</ele>
        <time>2010-07-01T09:54:07Z</time>
      </trkpt>
      <trkpt lat="42.41981" lon="2.14991">
        <ele>2684</ele>
        <time>2010-07-01T09:54:17Z</time>
      </trkpt>
      <trkpt lat="42.41981" lon="2.14992">
        <ele>2685</ele>
        <time>2010-07-01T09:54:27Z</time>
      </trkpt>
      <trkpt lat="42.41981" lon="2.14991">
        <ele>2685</ele>
        <time>2010-07-01T09:54:37Z</time>
      </trkpt>
      <trkpt lat="42.41981" lon="2.14991">
        <ele>2685</ele>
        <time>2010-07-01T09:54:47Z</time>
      </trkpt>
      <trkpt lat="42.41981" lon="2.14992">
        <ele>2685</ele>
        <time>2010-07-01T09:54:57Z</time>
      </trkpt>
      <trkpt lat="42.41981" lon="2.14991">
        <ele>2685</ele>
        <time>2010-07-01T09:55:07Z</time>
      </trkpt>
      <trkpt lat="42.41981" lon="2.14992">
        <ele>2685</ele>
        <time>2010-07-01T09:55:17Z</time>
      </trkpt>
      <trkpt lat="42.41982" lon="2.14996">
        <ele>2684</ele>
        <time>2010-07-01T09:55:27Z</time>
      </trkpt>
      <trkpt lat="42.41987" lon="2.15005">
        <ele>2683</ele>
        <time>2010-07-01T09:55:37Z</time>
      </trkpt>
      <trkpt lat="42.41989" lon="2.15015">
        <ele>2681</ele>
        <time>2010-07-01T09:55:47Z</time>
      </trkpt>
      <trkpt lat="42.4199" lon="2.15025">
        <ele>2679</ele>
        <time>2010-07-01T09:55:57Z</time>
      </trkpt>
      <trkpt lat="42.41992" lon="2.15036">
        <ele>2678</ele>
        <time>2010-07-01T09:56:07Z</time>
      </trkpt>
      <trkpt lat="42.4199" lon="2.15045">
        <ele>2677</ele>
        <time>2010-07-01T09:56:17Z</time>
      </trkpt>
      <trkpt lat="42.41985" lon="2.15051">
        <ele>2676</ele>
        <time>2010-07-01T09:56:27Z</time>
      </trkpt>
      <trkpt lat="42.41982" lon="2.15057">
        <ele>2675</ele>
        <time>2010-07-01T09:56:37Z</time>
      </trkpt>
      <trkpt lat="42.41981" lon="2.15065">
        <ele>2674</ele>
        <time>2010-07-01T09:56:47Z</time>
      </trkpt>
      <trkpt lat="42.41974" lon="2.1507">
        <ele>2673</ele>
        <time>2010-07-01T09:56:57Z</time>
      </trkpt>
      <trkpt lat="42.41968" lon="2.15072">
        <ele>2671</ele>
        <time>2010-07-01T09:57:07Z</time>
      </trkpt>
      <trkpt lat="42.41962" lon="2.15072">
        <ele>2670</ele>
        <time>2010-07-01T09:57:17Z</time>
      </trkpt>
      <trkpt lat="42.41956" lon="2.15076">
        <ele>2669</ele>
        <time>2010-07-01T09:57:27Z</time>
      </trkpt>
      <trkpt lat="42.41953" lon="2.15081">
        <ele>2668</ele>
        <time>2010-07-01T09:57:37Z</time>
      </trkpt>
      <trkpt lat="42.41958" lon="2.1508">
        <ele>2669</ele>
        <time>2010-07-01T09:57:47Z</time>
      </trkpt>
      <trkpt lat="42.41961" lon="2.15079">
        <ele>2670</ele>
        <time>2010-07-01T09:57:57Z</time>
      </trkpt>
      <trkpt lat="42.41964" lon="2.15076">
        <ele>2671</ele>
        <time>2010-07-01T09:58:07Z</time>
      </trkpt>
      <trkpt lat="42.41967" lon="2.15073">
        <ele>2673</ele>
        <time>2010-07-01T09:58:17Z</time>
      </trkpt>
      <trkpt lat="42.41971" lon="2.15069">
        <ele>2674</ele>
        <time>2010-07-01T09:58:27Z</time>
      </trkpt>
      <trkpt lat="42.41975" lon="2.15066">
        <ele>2675</ele>
        <time>2010-07-01T09:58:37Z</time>
      </trkpt>
      <trkpt lat="42.41976" lon="2.15059">
        <ele>2676</ele>
        <time>2010-07-01T09:58:47Z</time>
      </trkpt>
      <trkpt lat="42.41977" lon="2.15058">
        <ele>2676</ele>
        <time>2010-07-01T09:58:57Z</time>
      </trkpt>
      <trkpt lat="42.41977" lon="2.15057">
        <ele>2676</ele>
        <time>2010-07-01T09:59:07Z</time>
      </trkpt>
      <trkpt lat="42.41978" lon="2.15058">
        <ele>2676</ele>
        <time>2010-07-01T09:59:17Z</time>
      </trkpt>
      <trkpt lat="42.41978" lon="2.15059">
        <ele>2676</ele>
        <time>2010-07-01T09:59:27Z</time>
      </trkpt>
      <trkpt lat="42.41977" lon="2.1506">
        <ele>2676</ele>
        <time>2010-07-01T09:59:37Z</time>
      </trkpt>
      <trkpt lat="42.41977" lon="2.1506">
        <ele>2675</ele>
        <time>2010-07-01T09:59:47Z</time>
      </trkpt>
      <trkpt lat="42.41977" lon="2.1506">
        <ele>2675</ele>
        <time>2010-07-01T09:59:57Z</time>
      </trkpt>
      <trkpt lat="42.41977" lon="2.1506">
        <ele>2675</ele>
        <time>2010-07-01T10:00:07Z</time>
      </trkpt>
      <trkpt lat="42.41978" lon="2.1506">
        <ele>2674</ele>
        <time>2010-07-01T10:00:17Z</time>
      </trkpt>
      <trkpt lat="42.41979" lon="2.15059">
        <ele>2673</ele>
        <time>2010-07-01T10:00:27Z</time>
      </trkpt>
      <trkpt lat="42.41979" lon="2.15059">
        <ele>2673</ele>
        <time>2010-07-01T10:00:37Z</time>
      </trkpt>
      <trkpt lat="42.41979" lon="2.1506">
        <ele>2673</ele>
        <time>2010-07-01T10:00:47Z</time>
      </trkpt>
      <trkpt lat="42.41979" lon="2.1506">
        <ele>2672</ele>
        <time>2010-07-01T10:00:57Z</time>
      </trkpt>
      <trkpt lat="42.41979" lon="2.1506">
        <ele>2672</ele>
        <time>2010-07-01T10:01:07Z</time>
      </trkpt>
      <trkpt lat="42.41979" lon="2.15059">
        <ele>2673</ele>
        <time>2010-07-01T10:01:17Z</time>
      </trkpt>
      <trkpt lat="42.4198" lon="2.15058">
        <ele>2673</ele>
        <time>2010-07-01T10:01:27Z</time>
      </trkpt>
      <trkpt lat="42.41979" lon="2.15058">
        <ele>2674</ele>
        <time>2010-07-01T10:01:37Z</time>
      </trkpt>
      <trkpt lat="42.41979" lon="2.15058">
        <ele>2674</ele>
        <time>2010-07-01T10:01:47Z</time>
      </trkpt>
      <trkpt lat="42.41979" lon="2.15058">
        <ele>2674</ele>
        <time>2010-07-01T10:01:57Z</time>
      </trkpt>
      <trkpt lat="42.41979" lon="2.15058">
        <ele>2674</ele>
        <time>2010-07-01T10:02:07Z</time>
      </trkpt>
      <trkpt lat="42.41979" lon="2.15058">
        <ele>2674</ele>
        <time>2010-07-01T10:02:17Z</time>
      </trkpt>
      <trkpt lat="42.41979" lon="2.15058">
        <ele>2674</ele>
        <time>2010-07-01T10:02:27Z</time>
      </trkpt>
      <trkpt lat="42.41979" lon="2.15058">
        <ele>2674</ele>
        <time>2010-07-01T10:02:37Z</time>
      </trkpt>
      <trkpt lat="42.41979" lon="2.15058">
        <ele>2674</ele>
        <time>2010-07-01T10:02:47Z</time>
      </trkpt>
      <trkpt lat="42.41979" lon="2.15058">
        <ele>2674</ele>
        <time>2010-07-01T10:02:57Z</time>
      </trkpt>
      <trkpt lat="42.41979" lon="2.15058">
        <ele>2674</ele>
        <time>2010-07-01T10:03:07Z</time>
      </trkpt>
      <trkpt lat="42.41978" lon="2.15058">
        <ele>2675</ele>
        <time>2010-07-01T10:03:17Z</time>
      </trkpt>
      <trkpt lat="42.41978" lon="2.15058">
        <ele>2675</ele>
        <time>2010-07-01T10:03:27Z</time>
      </trkpt>
      <trkpt lat="42.41978" lon="2.15058">
        <ele>2675</ele>
        <time>2010-07-01T10:03:37Z</time>
      </trkpt>
      <trkpt lat="42.41978" lon="2.15058">
        <ele>2675</ele>
        <time>2010-07-01T10:03:47Z</time>
      </trkpt>
      <trkpt lat="42.41978" lon="2.15058">
        <ele>2675</ele>
        <time>2010-07-01T10:03:57Z</time>
      </trkpt>
      <trkpt lat="42.41978" lon="2.15058">
        <ele>2675</ele>
        <time>2010-07-01T10:04:07Z</time>
      </trkpt>
      <trkpt lat="42.41978" lon="2.15058">
        <ele>2676</ele>
        <time>2010-07-01T10:04:17Z</time>
      </trkpt>
      <trkpt lat="42.41978" lon="2.15058">
        <ele>2676</ele>
        <time>2010-07-01T10:04:27Z</time>
      </trkpt>
      <trkpt lat="42.41978" lon="2.15058">
        <ele>2676</ele>
        <time>2010-07-01T10:04:37Z</time>
      </trkpt>
      <trkpt lat="42.41978" lon="2.15058">
        <ele>2676</ele>
        <time>2010-07-01T10:04:47Z</time>
      </trkpt>
      <trkpt lat="42.41978" lon="2.15058">
        <ele>2676</ele>
        <time>2010-07-01T10:04:57Z</time>
      </trkpt>
      <trkpt lat="42.41978" lon="2.15058">
        <ele>2676</ele>
        <time>2010-07-01T10:05:07Z</time>
      </trkpt>
      <trkpt lat="42.41978" lon="2.15058">
        <ele>2676</ele>
        <time>2010-07-01T10:05:17Z</time>
      </trkpt>
      <trkpt lat="42.41978" lon="2.15058">
        <ele>2676</ele>
        <time>2010-07-01T10:05:27Z</time>
      </trkpt>
      <trkpt lat="42.41978" lon="2.15058">
        <ele>2676</ele>
        <time>2010-07-01T10:05:37Z</time>
      </trkpt>
      <trkpt lat="42.41977" lon="2.15058">
        <ele>2676</ele>
        <time>2010-07-01T10:05:47Z</time>
      </trkpt>
      <trkpt lat="42.41978" lon="2.15059">
        <ele>2676</ele>
        <time>2010-07-01T10:05:57Z</time>
      </trkpt>
      <trkpt lat="42.41978" lon="2.15058">
        <ele>2676</ele>
        <time>2010-07-01T10:06:07Z</time>
      </trkpt>
      <trkpt lat="42.41978" lon="2.15057">
        <ele>2676</ele>
        <time>2010-07-01T10:06:17Z</time>
      </trkpt>
      <trkpt lat="42.41979" lon="2.15058">
        <ele>2676</ele>
        <time>2010-07-01T10:06:27Z</time>
      </trkpt>
      <trkpt lat="42.41978" lon="2.15057">
        <ele>2677</ele>
        <time>2010-07-01T10:06:37Z</time>
      </trkpt>
      <trkpt lat="42.41979" lon="2.15058">
        <ele>2677</ele>
        <time>2010-07-01T10:06:47Z</time>
      </trkpt>
      <trkpt lat="42.41979" lon="2.15058">
        <ele>2677</ele>
        <time>2010-07-01T10:06:57Z</time>
      </trkpt>
      <trkpt lat="42.41979" lon="2.15058">
        <ele>2677</ele>
        <time>2010-07-01T10:07:07Z</time>
      </trkpt>
      <trkpt lat="42.41978" lon="2.15057">
        <ele>2677</ele>
        <time>2010-07-01T10:07:17Z</time>
      </trkpt>
      <trkpt lat="42.41978" lon="2.15057">
        <ele>2677</ele>
        <time>2010-07-01T10:07:27Z</time>
      </trkpt>
      <trkpt lat="42.41979" lon="2.15058">
        <ele>2678</ele>
        <time>2010-07-01T10:07:37Z</time>
      </trkpt>
      <trkpt lat="42.41978" lon="2.15057">
        <ele>2678</ele>
        <time>2010-07-01T10:07:47Z</time>
      </trkpt>
      <trkpt lat="42.41978" lon="2.15056">
        <ele>2678</ele>
        <time>2010-07-01T10:07:57Z</time>
      </trkpt>
      <trkpt lat="42.41977" lon="2.15056">
        <ele>2678</ele>
        <time>2010-07-01T10:08:07Z</time>
      </trkpt>
      <trkpt lat="42.41977" lon="2.15056">
        <ele>2678</ele>
        <time>2010-07-01T10:08:17Z</time>
      </trkpt>
      <trkpt lat="42.41977" lon="2.15056">
        <ele>2678</ele>
        <time>2010-07-01T10:08:27Z</time>
      </trkpt>
      <trkpt lat="42.41978" lon="2.15058">
        <ele>2677</ele>
        <time>2010-07-01T10:08:37Z</time>
      </trkpt>
      <trkpt lat="42.41979" lon="2.1506">
        <ele>2677</ele>
        <time>2010-07-01T10:08:47Z</time>
      </trkpt>
      <trkpt lat="42.41979" lon="2.1506">
        <ele>2677</ele>
        <time>2010-07-01T10:08:57Z</time>
      </trkpt>
      <trkpt lat="42.41979" lon="2.1506">
        <ele>2677</ele>
        <time>2010-07-01T10:09:07Z</time>
      </trkpt>
      <trkpt lat="42.41979" lon="2.15059">
        <ele>2676</ele>
        <time>2010-07-01T10:09:17Z</time>
      </trkpt>
      <trkpt lat="42.41979" lon="2.15059">
        <ele>2676</ele>
        <time>2010-07-01T10:09:27Z</time>
      </trkpt>
      <trkpt lat="42.41979" lon="2.15058">
        <ele>2676</ele>
        <time>2010-07-01T10:09:37Z</time>
      </trkpt>
      <trkpt lat="42.41978" lon="2.15058">
        <ele>2677</ele>
        <time>2010-07-01T10:09:47Z</time>
      </trkpt>
      <trkpt lat="42.41978" lon="2.15058">
        <ele>2677</ele>
        <time>2010-07-01T10:09:57Z</time>
      </trkpt>
      <trkpt lat="42.41978" lon="2.15058">
        <ele>2677</ele>
        <time>2010-07-01T10:10:07Z</time>
      </trkpt>
      <trkpt lat="42.41978" lon="2.15058">
        <ele>2677</ele>
        <time>2010-07-01T10:10:17Z</time>
      </trkpt>
      <trkpt lat="42.41977" lon="2.15056">
        <ele>2676</ele>
        <time>2010-07-01T10:10:27Z</time>
      </trkpt>
      <trkpt lat="42.41977" lon="2.15057">
        <ele>2676</ele>
        <time>2010-07-01T10:10:37Z</time>
      </trkpt>
      <trkpt lat="42.41977" lon="2.15057">
        <ele>2676</ele>
        <time>2010-07-01T10:10:47Z</time>
      </trkpt>
      <trkpt lat="42.41977" lon="2.15058">
        <ele>2675</ele>
        <time>2010-07-01T10:10:57Z</time>
      </trkpt>
      <trkpt lat="42.41977" lon="2.15059">
        <ele>2674</ele>
        <time>2010-07-01T10:11:07Z</time>
      </trkpt>
      <trkpt lat="42.41977" lon="2.15059">
        <ele>2673</ele>
        <time>2010-07-01T10:11:17Z</time>
      </trkpt>
      <trkpt lat="42.41977" lon="2.15061">
        <ele>2672</ele>
        <time>2010-07-01T10:11:27Z</time>
      </trkpt>
      <trkpt lat="42.41977" lon="2.1506">
        <ele>2671</ele>
        <time>2010-07-01T10:11:37Z</time>
      </trkpt>
      <trkpt lat="42.41977" lon="2.1506">
        <ele>2671</ele>
        <time>2010-07-01T10:11:47Z</time>
      </trkpt>
      <trkpt lat="42.41977" lon="2.15059">
        <ele>2670</ele>
        <time>2010-07-01T10:11:57Z</time>
      </trkpt>
      <trkpt lat="42.41977" lon="2.1506">
        <ele>2670</ele>
        <time>2010-07-01T10:12:07Z</time>
      </trkpt>
      <trkpt lat="42.41977" lon="2.15059">
        <ele>2670</ele>
        <time>2010-07-01T10:12:17Z</time>
      </trkpt>
      <trkpt lat="42.41976" lon="2.15059">
        <ele>2671</ele>
        <time>2010-07-01T10:12:27Z</time>
      </trkpt>
      <trkpt lat="42.41977" lon="2.15059">
        <ele>2671</ele>
        <time>2010-07-01T10:12:37Z</time>
      </trkpt>
      <trkpt lat="42.41977" lon="2.1506">
        <ele>2671</ele>
        <time>2010-07-01T10:12:47Z</time>
      </trkpt>
      <trkpt lat="42.41977" lon="2.15059">
        <ele>2671</ele>
        <time>2010-07-01T10:12:57Z</time>
      </trkpt>
      <trkpt lat="42.41977" lon="2.15059">
        <ele>2671</ele>
        <time>2010-07-01T10:13:07Z</time>
      </trkpt>
      <trkpt lat="42.41977" lon="2.1506">
        <ele>2671</ele>
        <time>2010-07-01T10:13:17Z</time>
      </trkpt>
      <trkpt lat="42.41977" lon="2.15059">
        <ele>2671</ele>
        <time>2010-07-01T10:13:27Z</time>
      </trkpt>
      <trkpt lat="42.41977" lon="2.1506">
        <ele>2671</ele>
        <time>2010-07-01T10:13:37Z</time>
      </trkpt>
      <trkpt lat="42.41977" lon="2.1506">
        <ele>2671</ele>
        <time>2010-07-01T10:13:47Z</time>
      </trkpt>
      <trkpt lat="42.41977" lon="2.1506">
        <ele>2671</ele>
        <time>2010-07-01T10:13:57Z</time>
      </trkpt>
      <trkpt lat="42.41977" lon="2.1506">
        <ele>2672</ele>
        <time>2010-07-01T10:14:07Z</time>
      </trkpt>
      <trkpt lat="42.41977" lon="2.15059">
        <ele>2672</ele>
        <time>2010-07-01T10:14:17Z</time>
      </trkpt>
      <trkpt lat="42.41977" lon="2.1506">
        <ele>2672</ele>
        <time>2010-07-01T10:14:27Z</time>
      </trkpt>
      <trkpt lat="42.41977" lon="2.1506">
        <ele>2672</ele>
        <time>2010-07-01T10:14:37Z</time>
      </trkpt>
      <trkpt lat="42.41977" lon="2.1506">
        <ele>2672</ele>
        <time>2010-07-01T10:14:47Z</time>
      </trkpt>
      <trkpt lat="42.41977" lon="2.1506">
        <ele>2672</ele>
        <time>2010-07-01T10:14:57Z</time>
      </trkpt>
      <trkpt lat="42.41977" lon="2.1506">
        <ele>2672</ele>
        <time>2010-07-01T10:15:07Z</time>
      </trkpt>
      <trkpt lat="42.41977" lon="2.1506">
        <ele>2672</ele>
        <time>2010-07-01T10:15:17Z</time>
      </trkpt>
      <trkpt lat="42.41977" lon="2.15059">
        <ele>2672</ele>
        <time>2010-07-01T10:15:27Z</time>
      </trkpt>
      <trkpt lat="42.41977" lon="2.15058">
        <ele>2672</ele>
        <time>2010-07-01T10:15:37Z</time>
      </trkpt>
      <trkpt lat="42.41977" lon="2.15057">
        <ele>2672</ele>
        <time>2010-07-01T10:15:47Z</time>
      </trkpt>
      <trkpt lat="42.41977" lon="2.15058">
        <ele>2673</ele>
        <time>2010-07-01T10:15:57Z</time>
      </trkpt>
      <trkpt lat="42.41977" lon="2.15059">
        <ele>2672</ele>
        <time>2010-07-01T10:16:07Z</time>
      </trkpt>
      <trkpt lat="42.41977" lon="2.1506">
        <ele>2672</ele>
        <time>2010-07-01T10:16:17Z</time>
      </trkpt>
      <trkpt lat="42.41977" lon="2.1506">
        <ele>2672</ele>
        <time>2010-07-01T10:16:27Z</time>
      </trkpt>
      <trkpt lat="42.41978" lon="2.15061">
        <ele>2671</ele>
        <time>2010-07-01T10:16:37Z</time>
      </trkpt>
      <trkpt lat="42.41977" lon="2.1506">
        <ele>2671</ele>
        <time>2010-07-01T10:16:47Z</time>
      </trkpt>
      <trkpt lat="42.41977" lon="2.15061">
        <ele>2671</ele>
        <time>2010-07-01T10:16:57Z</time>
      </trkpt>
      <trkpt lat="42.41977" lon="2.15061">
        <ele>2671</ele>
        <time>2010-07-01T10:17:07Z</time>
      </trkpt>
      <trkpt lat="42.41978" lon="2.1506">
        <ele>2671</ele>
        <time>2010-07-01T10:17:17Z</time>
      </trkpt>
      <trkpt lat="42.41978" lon="2.1506">
        <ele>2671</ele>
        <time>2010-07-01T10:17:27Z</time>
      </trkpt>
      <trkpt lat="42.41978" lon="2.1506">
        <ele>2671</ele>
        <time>2010-07-01T10:17:37Z</time>
      </trkpt>
      <trkpt lat="42.41978" lon="2.1506">
        <ele>2670</ele>
        <time>2010-07-01T10:17:47Z</time>
      </trkpt>
      <trkpt lat="42.41977" lon="2.15059">
        <ele>2670</ele>
        <time>2010-07-01T10:17:57Z</time>
      </trkpt>
      <trkpt lat="42.41977" lon="2.15059">
        <ele>2670</ele>
        <time>2010-07-01T10:18:07Z</time>
      </trkpt>
      <trkpt lat="42.41977" lon="2.1506">
        <ele>2669</ele>
        <time>2010-07-01T10:18:17Z</time>
      </trkpt>
      <trkpt lat="42.41978" lon="2.1506">
        <ele>2669</ele>
        <time>2010-07-01T10:18:27Z</time>
      </trkpt>
      <trkpt lat="42.41978" lon="2.15062">
        <ele>2668</ele>
        <time>2010-07-01T10:18:37Z</time>
      </trkpt>
      <trkpt lat="42.41977" lon="2.15063">
        <ele>2669</ele>
        <time>2010-07-01T10:18:47Z</time>
      </trkpt>
      <trkpt lat="42.41977" lon="2.15063">
        <ele>2669</ele>
        <time>2010-07-01T10:18:57Z</time>
      </trkpt>
      <trkpt lat="42.41977" lon="2.15063">
        <ele>2669</ele>
        <time>2010-07-01T10:19:07Z</time>
      </trkpt>
      <trkpt lat="42.41977" lon="2.15062">
        <ele>2669</ele>
        <time>2010-07-01T10:19:17Z</time>
      </trkpt>
      <trkpt lat="42.41977" lon="2.1506">
        <ele>2670</ele>
        <time>2010-07-01T10:19:27Z</time>
      </trkpt>
      <trkpt lat="42.41977" lon="2.15059">
        <ele>2671</ele>
        <time>2010-07-01T10:19:37Z</time>
      </trkpt>
      <trkpt lat="42.41977" lon="2.15059">
        <ele>2671</ele>
        <time>2010-07-01T10:19:47Z</time>
      </trkpt>
      <trkpt lat="42.41977" lon="2.15059">
        <ele>2672</ele>
        <time>2010-07-01T10:19:57Z</time>
      </trkpt>
      <trkpt lat="42.41977" lon="2.15059">
        <ele>2672</ele>
        <time>2010-07-01T10:20:07Z</time>
      </trkpt>
      <trkpt lat="42.41978" lon="2.15059">
        <ele>2672</ele>
        <time>2010-07-01T10:20:17Z</time>
      </trkpt>
      <trkpt lat="42.41978" lon="2.15059">
        <ele>2672</ele>
        <time>2010-07-01T10:20:27Z</time>
      </trkpt>
      <trkpt lat="42.41977" lon="2.15059">
        <ele>2673</ele>
        <time>2010-07-01T10:20:37Z</time>
      </trkpt>
      <trkpt lat="42.41977" lon="2.15059">
        <ele>2673</ele>
        <time>2010-07-01T10:20:47Z</time>
      </trkpt>
      <trkpt lat="42.41977" lon="2.15059">
        <ele>2673</ele>
        <time>2010-07-01T10:20:57Z</time>
      </trkpt>
      <trkpt lat="42.41977" lon="2.15059">
        <ele>2674</ele>
        <time>2010-07-01T10:21:07Z</time>
      </trkpt>
      <trkpt lat="42.41977" lon="2.15059">
        <ele>2674</ele>
        <time>2010-07-01T10:21:17Z</time>
      </trkpt>
      <trkpt lat="42.41977" lon="2.15059">
        <ele>2674</ele>
        <time>2010-07-01T10:21:27Z</time>
      </trkpt>
      <trkpt lat="42.41977" lon="2.15059">
        <ele>2675</ele>
        <time>2010-07-01T10:21:37Z</time>
      </trkpt>
      <trkpt lat="42.41977" lon="2.15057">
        <ele>2675</ele>
        <time>2010-07-01T10:21:47Z</time>
      </trkpt>
      <trkpt lat="42.41976" lon="2.15055">
        <ele>2675</ele>
        <time>2010-07-01T10:21:57Z</time>
      </trkpt>
      <trkpt lat="42.41975" lon="2.15056">
        <ele>2675</ele>
        <time>2010-07-01T10:22:07Z</time>
      </trkpt>
      <trkpt lat="42.41975" lon="2.15056">
        <ele>2675</ele>
        <time>2010-07-01T10:22:17Z</time>
      </trkpt>
      <trkpt lat="42.41976" lon="2.15057">
        <ele>2674</ele>
        <time>2010-07-01T10:22:27Z</time>
      </trkpt>
      <trkpt lat="42.41976" lon="2.15057">
        <ele>2674</ele>
        <time>2010-07-01T10:22:37Z</time>
      </trkpt>
      <trkpt lat="42.41976" lon="2.15057">
        <ele>2674</ele>
        <time>2010-07-01T10:22:47Z</time>
      </trkpt>
      <trkpt lat="42.41976" lon="2.15057">
        <ele>2675</ele>
        <time>2010-07-01T10:22:57Z</time>
      </trkpt>
      <trkpt lat="42.41976" lon="2.15058">
        <ele>2675</ele>
        <time>2010-07-01T10:23:07Z</time>
      </trkpt>
      <trkpt lat="42.41976" lon="2.15057">
        <ele>2675</ele>
        <time>2010-07-01T10:23:17Z</time>
      </trkpt>
      <trkpt lat="42.41976" lon="2.15056">
        <ele>2675</ele>
        <time>2010-07-01T10:23:27Z</time>
      </trkpt>
      <trkpt lat="42.41976" lon="2.15056">
        <ele>2676</ele>
        <time>2010-07-01T10:23:37Z</time>
      </trkpt>
      <trkpt lat="42.41975" lon="2.15057">
        <ele>2676</ele>
        <time>2010-07-01T10:23:47Z</time>
      </trkpt>
      <trkpt lat="42.41976" lon="2.15058">
        <ele>2676</ele>
        <time>2010-07-01T10:23:57Z</time>
      </trkpt>
      <trkpt lat="42.41976" lon="2.15059">
        <ele>2676</ele>
        <time>2010-07-01T10:24:07Z</time>
      </trkpt>
      <trkpt lat="42.41976" lon="2.1506">
        <ele>2676</ele>
        <time>2010-07-01T10:24:17Z</time>
      </trkpt>
      <trkpt lat="42.41976" lon="2.15059">
        <ele>2676</ele>
        <time>2010-07-01T10:24:27Z</time>
      </trkpt>
      <trkpt lat="42.41976" lon="2.15059">
        <ele>2677</ele>
        <time>2010-07-01T10:24:37Z</time>
      </trkpt>
      <trkpt lat="42.41976" lon="2.15058">
        <ele>2678</ele>
        <time>2010-07-01T10:24:47Z</time>
      </trkpt>
      <trkpt lat="42.41976" lon="2.15057">
        <ele>2679</ele>
        <time>2010-07-01T10:24:57Z</time>
      </trkpt>
      <trkpt lat="42.41976" lon="2.15057">
        <ele>2679</ele>
        <time>2010-07-01T10:25:07Z</time>
      </trkpt>
      <trkpt lat="42.41976" lon="2.15057">
        <ele>2679</ele>
        <time>2010-07-01T10:25:07Z</time>
      </trkpt>
      <trkpt lat="42.41977" lon="2.15057">
        <ele>2680</ele>
        <time>2010-07-01T10:25:17Z</time>
      </trkpt>
      <trkpt lat="42.41977" lon="2.15057">
        <ele>2680</ele>
        <time>2010-07-01T10:25:27Z</time>
      </trkpt>
      <trkpt lat="42.41976" lon="2.15057">
        <ele>2681</ele>
        <time>2010-07-01T10:25:37Z</time>
      </trkpt>
      <trkpt lat="42.41976" lon="2.15058">
        <ele>2684</ele>
        <time>2010-07-01T10:25:47Z</time>
      </trkpt>
      <trkpt lat="42.41976" lon="2.15058">
        <ele>2684</ele>
        <time>2010-07-01T10:25:57Z</time>
      </trkpt>
      <trkpt lat="42.41976" lon="2.15058">
        <ele>2684</ele>
        <time>2010-07-01T10:26:07Z</time>
      </trkpt>
      <trkpt lat="42.41976" lon="2.15058">
        <ele>2683</ele>
        <time>2010-07-01T10:26:17Z</time>
      </trkpt>
      <trkpt lat="42.41976" lon="2.15058">
        <ele>2683</ele>
        <time>2010-07-01T10:26:27Z</time>
      </trkpt>
      <trkpt lat="42.41977" lon="2.15058">
        <ele>2683</ele>
        <time>2010-07-01T10:26:37Z</time>
      </trkpt>
      <trkpt lat="42.41978" lon="2.1506">
        <ele>2681</ele>
        <time>2010-07-01T10:26:47Z</time>
      </trkpt>
      <trkpt lat="42.41978" lon="2.15059">
        <ele>2681</ele>
        <time>2010-07-01T10:26:57Z</time>
      </trkpt>
      <trkpt lat="42.41977" lon="2.15057">
        <ele>2679</ele>
        <time>2010-07-01T10:27:07Z</time>
      </trkpt>
      <trkpt lat="42.41977" lon="2.15056">
        <ele>2679</ele>
        <time>2010-07-01T10:27:17Z</time>
      </trkpt>
      <trkpt lat="42.41977" lon="2.15056">
        <ele>2679</ele>
        <time>2010-07-01T10:27:27Z</time>
      </trkpt>
      <trkpt lat="42.41977" lon="2.15057">
        <ele>2679</ele>
        <time>2010-07-01T10:27:37Z</time>
      </trkpt>
      <trkpt lat="42.41977" lon="2.15058">
        <ele>2678</ele>
        <time>2010-07-01T10:27:47Z</time>
      </trkpt>
      <trkpt lat="42.41978" lon="2.15058">
        <ele>2677</ele>
        <time>2010-07-01T10:27:57Z</time>
      </trkpt>
      <trkpt lat="42.41978" lon="2.15058">
        <ele>2677</ele>
        <time>2010-07-01T10:28:07Z</time>
      </trkpt>
      <trkpt lat="42.41978" lon="2.15058">
        <ele>2676</ele>
        <time>2010-07-01T10:28:17Z</time>
      </trkpt>
      <trkpt lat="42.41978" lon="2.15057">
        <ele>2676</ele>
        <time>2010-07-01T10:28:27Z</time>
      </trkpt>
      <trkpt lat="42.41978" lon="2.15057">
        <ele>2676</ele>
        <time>2010-07-01T10:28:37Z</time>
      </trkpt>
      <trkpt lat="42.41978" lon="2.15058">
        <ele>2677</ele>
        <time>2010-07-01T10:28:47Z</time>
      </trkpt>
      <trkpt lat="42.41977" lon="2.15059">
        <ele>2677</ele>
        <time>2010-07-01T10:28:57Z</time>
      </trkpt>
      <trkpt lat="42.41977" lon="2.15057">
        <ele>2677</ele>
        <time>2010-07-01T10:29:07Z</time>
      </trkpt>
      <trkpt lat="42.41977" lon="2.15058">
        <ele>2678</ele>
        <time>2010-07-01T10:29:17Z</time>
      </trkpt>
      <trkpt lat="42.41977" lon="2.15058">
        <ele>2678</ele>
        <time>2010-07-01T10:29:27Z</time>
      </trkpt>
      <trkpt lat="42.41977" lon="2.15058">
        <ele>2678</ele>
        <time>2010-07-01T10:29:37Z</time>
      </trkpt>
      <trkpt lat="42.41977" lon="2.1506">
        <ele>2678</ele>
        <time>2010-07-01T10:29:47Z</time>
      </trkpt>
      <trkpt lat="42.41977" lon="2.1506">
        <ele>2678</ele>
        <time>2010-07-01T10:29:57Z</time>
      </trkpt>
      <trkpt lat="42.41977" lon="2.1506">
        <ele>2678</ele>
        <time>2010-07-01T10:30:07Z</time>
      </trkpt>
      <trkpt lat="42.41977" lon="2.1506">
        <ele>2678</ele>
        <time>2010-07-01T10:30:17Z</time>
      </trkpt>
      <trkpt lat="42.41977" lon="2.15059">
        <ele>2679</ele>
        <time>2010-07-01T10:30:27Z</time>
      </trkpt>
      <trkpt lat="42.41977" lon="2.15058">
        <ele>2680</ele>
        <time>2010-07-01T10:30:37Z</time>
      </trkpt>
      <trkpt lat="42.41977" lon="2.15057">
        <ele>2681</ele>
        <time>2010-07-01T10:30:47Z</time>
      </trkpt>
      <trkpt lat="42.41977" lon="2.15058">
        <ele>2681</ele>
        <time>2010-07-01T10:30:57Z</time>
      </trkpt>
      <trkpt lat="42.41977" lon="2.15059">
        <ele>2681</ele>
        <time>2010-07-01T10:31:07Z</time>
      </trkpt>
      <trkpt lat="42.41977" lon="2.15059">
        <ele>2681</ele>
        <time>2010-07-01T10:31:17Z</time>
      </trkpt>
      <trkpt lat="42.41977" lon="2.15058">
        <ele>2681</ele>
        <time>2010-07-01T10:31:27Z</time>
      </trkpt>
      <trkpt lat="42.41976" lon="2.15056">
        <ele>2681</ele>
        <time>2010-07-01T10:31:37Z</time>
      </trkpt>
      <trkpt lat="42.41977" lon="2.15059">
        <ele>2679</ele>
        <time>2010-07-01T10:31:47Z</time>
      </trkpt>
      <trkpt lat="42.41979" lon="2.1506">
        <ele>2678</ele>
        <time>2010-07-01T10:31:57Z</time>
      </trkpt>
      <trkpt lat="42.41979" lon="2.15059">
        <ele>2677</ele>
        <time>2010-07-01T10:32:07Z</time>
      </trkpt>
      <trkpt lat="42.41979" lon="2.15059">
        <ele>2677</ele>
        <time>2010-07-01T10:32:17Z</time>
      </trkpt>
      <trkpt lat="42.41979" lon="2.15058">
        <ele>2676</ele>
        <time>2010-07-01T10:32:27Z</time>
      </trkpt>
      <trkpt lat="42.4198" lon="2.15058">
        <ele>2676</ele>
        <time>2010-07-01T10:32:37Z</time>
      </trkpt>
      <trkpt lat="42.41981" lon="2.15057">
        <ele>2676</ele>
        <time>2010-07-01T10:32:47Z</time>
      </trkpt>
      <trkpt lat="42.4198" lon="2.15056">
        <ele>2677</ele>
        <time>2010-07-01T10:32:57Z</time>
      </trkpt>
      <trkpt lat="42.41979" lon="2.15056">
        <ele>2678</ele>
        <time>2010-07-01T10:33:07Z</time>
      </trkpt>
      <trkpt lat="42.41979" lon="2.15055">
        <ele>2678</ele>
        <time>2010-07-01T10:33:17Z</time>
      </trkpt>
      <trkpt lat="42.41979" lon="2.15054">
        <ele>2679</ele>
        <time>2010-07-01T10:33:27Z</time>
      </trkpt>
      <trkpt lat="42.41979" lon="2.15055">
        <ele>2678</ele>
        <time>2010-07-01T10:33:37Z</time>
      </trkpt>
      <trkpt lat="42.41979" lon="2.15057">
        <ele>2678</ele>
        <time>2010-07-01T10:33:47Z</time>
      </trkpt>
      <trkpt lat="42.4198" lon="2.15059">
        <ele>2678</ele>
        <time>2010-07-01T10:33:57Z</time>
      </trkpt>
      <trkpt lat="42.4198" lon="2.1506">
        <ele>2678</ele>
        <time>2010-07-01T10:34:07Z</time>
      </trkpt>
      <trkpt lat="42.4198" lon="2.1506">
        <ele>2678</ele>
        <time>2010-07-01T10:34:17Z</time>
      </trkpt>
      <trkpt lat="42.41979" lon="2.15058">
        <ele>2678</ele>
        <time>2010-07-01T10:34:27Z</time>
      </trkpt>
      <trkpt lat="42.41978" lon="2.15056">
        <ele>2678</ele>
        <time>2010-07-01T10:34:37Z</time>
      </trkpt>
      <trkpt lat="42.41978" lon="2.15057">
        <ele>2678</ele>
        <time>2010-07-01T10:34:47Z</time>
      </trkpt>
      <trkpt lat="42.41978" lon="2.15057">
        <ele>2678</ele>
        <time>2010-07-01T10:34:57Z</time>
      </trkpt>
      <trkpt lat="42.41977" lon="2.15056">
        <ele>2678</ele>
        <time>2010-07-01T10:35:08Z</time>
      </trkpt>
      <trkpt lat="42.41978" lon="2.15058">
        <ele>2680</ele>
        <time>2010-07-01T10:35:18Z</time>
      </trkpt>
      <trkpt lat="42.41977" lon="2.1506">
        <ele>2681</ele>
        <time>2010-07-01T10:35:28Z</time>
      </trkpt>
      <trkpt lat="42.41976" lon="2.1506">
        <ele>2682</ele>
        <time>2010-07-01T10:35:38Z</time>
      </trkpt>
      <trkpt lat="42.41976" lon="2.15061">
        <ele>2683</ele>
        <time>2010-07-01T10:35:48Z</time>
      </trkpt>
      <trkpt lat="42.41976" lon="2.15061">
        <ele>2683</ele>
        <time>2010-07-01T10:35:58Z</time>
      </trkpt>
      <trkpt lat="42.41977" lon="2.15061">
        <ele>2683</ele>
        <time>2010-07-01T10:36:08Z</time>
      </trkpt>
      <trkpt lat="42.41979" lon="2.15063">
        <ele>2683</ele>
        <time>2010-07-01T10:36:18Z</time>
      </trkpt>
      <trkpt lat="42.41982" lon="2.15064">
        <ele>2683</ele>
        <time>2010-07-01T10:36:28Z</time>
      </trkpt>
      <trkpt lat="42.41989" lon="2.15066">
        <ele>2683</ele>
        <time>2010-07-01T10:36:38Z</time>
      </trkpt>
      <trkpt lat="42.41993" lon="2.1506">
        <ele>2683</ele>
        <time>2010-07-01T10:36:48Z</time>
      </trkpt>
      <trkpt lat="42.41996" lon="2.15056">
        <ele>2683</ele>
        <time>2010-07-01T10:36:58Z</time>
      </trkpt>
      <trkpt lat="42.42002" lon="2.15052">
        <ele>2684</ele>
        <time>2010-07-01T10:37:08Z</time>
      </trkpt>
      <trkpt lat="42.42011" lon="2.15052">
        <ele>2685</ele>
        <time>2010-07-01T10:37:18Z</time>
      </trkpt>
      <trkpt lat="42.42019" lon="2.15053">
        <ele>2686</ele>
        <time>2010-07-01T10:37:28Z</time>
      </trkpt>
      <trkpt lat="42.42027" lon="2.15057">
        <ele>2687</ele>
        <time>2010-07-01T10:37:38Z</time>
      </trkpt>
      <trkpt lat="42.42034" lon="2.15059">
        <ele>2687</ele>
        <time>2010-07-01T10:37:48Z</time>
      </trkpt>
      <trkpt lat="42.42039" lon="2.1506">
        <ele>2687</ele>
        <time>2010-07-01T10:37:58Z</time>
      </trkpt>
      <trkpt lat="42.42046" lon="2.15064">
        <ele>2687</ele>
        <time>2010-07-01T10:38:08Z</time>
      </trkpt>
      <trkpt lat="42.42052" lon="2.15066">
        <ele>2687</ele>
        <time>2010-07-01T10:38:18Z</time>
      </trkpt>
      <trkpt lat="42.42058" lon="2.15071">
        <ele>2687</ele>
        <time>2010-07-01T10:38:28Z</time>
      </trkpt>
      <trkpt lat="42.42065" lon="2.15073">
        <ele>2688</ele>
        <time>2010-07-01T10:38:38Z</time>
      </trkpt>
      <trkpt lat="42.4207" lon="2.15074">
        <ele>2688</ele>
        <time>2010-07-01T10:38:48Z</time>
      </trkpt>
      <trkpt lat="42.42077" lon="2.15077">
        <ele>2689</ele>
        <time>2010-07-01T10:38:58Z</time>
      </trkpt>
      <trkpt lat="42.42082" lon="2.15078">
        <ele>2689</ele>
        <time>2010-07-01T10:39:08Z</time>
      </trkpt>
      <trkpt lat="42.42087" lon="2.15082">
        <ele>2690</ele>
        <time>2010-07-01T10:39:18Z</time>
      </trkpt>
      <trkpt lat="42.42092" lon="2.15085">
        <ele>2691</ele>
        <time>2010-07-01T10:39:28Z</time>
      </trkpt>
      <trkpt lat="42.42097" lon="2.15087">
        <ele>2692</ele>
        <time>2010-07-01T10:39:38Z</time>
      </trkpt>
      <trkpt lat="42.42099" lon="2.15093">
        <ele>2693</ele>
        <time>2010-07-01T10:39:48Z</time>
      </trkpt>
      <trkpt lat="42.42101" lon="2.151">
        <ele>2694</ele>
        <time>2010-07-01T10:39:58Z</time>
      </trkpt>
      <trkpt lat="42.42103" lon="2.15108">
        <ele>2695</ele>
        <time>2010-07-01T10:40:08Z</time>
      </trkpt>
      <trkpt lat="42.42103" lon="2.15114">
        <ele>2696</ele>
        <time>2010-07-01T10:40:18Z</time>
      </trkpt>
      <trkpt lat="42.42105" lon="2.1512">
        <ele>2697</ele>
        <time>2010-07-01T10:40:28Z</time>
      </trkpt>
      <trkpt lat="42.42107" lon="2.15126">
        <ele>2698</ele>
        <time>2010-07-01T10:40:38Z</time>
      </trkpt>
      <trkpt lat="42.42111" lon="2.1513">
        <ele>2699</ele>
        <time>2010-07-01T10:40:48Z</time>
      </trkpt>
      <trkpt lat="42.42112" lon="2.15135">
        <ele>2700</ele>
        <time>2010-07-01T10:40:58Z</time>
      </trkpt>
      <trkpt lat="42.42115" lon="2.15141">
        <ele>2701</ele>
        <time>2010-07-01T10:41:08Z</time>
      </trkpt>
      <trkpt lat="42.42118" lon="2.15149">
        <ele>2702</ele>
        <time>2010-07-01T10:41:18Z</time>
      </trkpt>
      <trkpt lat="42.42121" lon="2.15157">
        <ele>2703</ele>
        <time>2010-07-01T10:41:28Z</time>
      </trkpt>
      <trkpt lat="42.42123" lon="2.15166">
        <ele>2704</ele>
        <time>2010-07-01T10:41:38Z</time>
      </trkpt>
      <trkpt lat="42.42126" lon="2.15172">
        <ele>2705</ele>
        <time>2010-07-01T10:41:48Z</time>
      </trkpt>
      <trkpt lat="42.4213" lon="2.1518">
        <ele>2706</ele>
        <time>2010-07-01T10:41:58Z</time>
      </trkpt>
      <trkpt lat="42.42131" lon="2.15182">
        <ele>2706</ele>
        <time>2010-07-01T10:42:08Z</time>
      </trkpt>
      <trkpt lat="42.42133" lon="2.15189">
        <ele>2707</ele>
        <time>2010-07-01T10:42:18Z</time>
      </trkpt>
      <trkpt lat="42.42136" lon="2.15196">
        <ele>2708</ele>
        <time>2010-07-01T10:42:28Z</time>
      </trkpt>
      <trkpt lat="42.42137" lon="2.15205">
        <ele>2709</ele>
        <time>2010-07-01T10:42:38Z</time>
      </trkpt>
      <trkpt lat="42.42139" lon="2.15217">
        <ele>2710</ele>
        <time>2010-07-01T10:42:48Z</time>
      </trkpt>
      <trkpt lat="42.42141" lon="2.15227">
        <ele>2710</ele>
        <time>2010-07-01T10:42:58Z</time>
      </trkpt>
      <trkpt lat="42.42141" lon="2.15237">
        <ele>2711</ele>
        <time>2010-07-01T10:43:08Z</time>
      </trkpt>
      <trkpt lat="42.42142" lon="2.15248">
        <ele>2712</ele>
        <time>2010-07-01T10:43:18Z</time>
      </trkpt>
      <trkpt lat="42.42142" lon="2.15259">
        <ele>2713</ele>
        <time>2010-07-01T10:43:28Z</time>
      </trkpt>
      <trkpt lat="42.42144" lon="2.15268">
        <ele>2714</ele>
        <time>2010-07-01T10:43:38Z</time>
      </trkpt>
      <trkpt lat="42.42144" lon="2.15269">
        <ele>2714</ele>
        <time>2010-07-01T10:43:48Z</time>
      </trkpt>
      <trkpt lat="42.42144" lon="2.15274">
        <ele>2714</ele>
        <time>2010-07-01T10:43:58Z</time>
      </trkpt>
      <trkpt lat="42.42146" lon="2.15283">
        <ele>2715</ele>
        <time>2010-07-01T10:44:08Z</time>
      </trkpt>
      <trkpt lat="42.42148" lon="2.1529">
        <ele>2716</ele>
        <time>2010-07-01T10:44:18Z</time>
      </trkpt>
      <trkpt lat="42.42151" lon="2.15297">
        <ele>2717</ele>
        <time>2010-07-01T10:44:28Z</time>
      </trkpt>
      <trkpt lat="42.42154" lon="2.15304">
        <ele>2719</ele>
        <time>2010-07-01T10:44:38Z</time>
      </trkpt>
      <trkpt lat="42.42155" lon="2.15306">
        <ele>2719</ele>
        <time>2010-07-01T10:44:48Z</time>
      </trkpt>
      <trkpt lat="42.42155" lon="2.15313">
        <ele>2720</ele>
        <time>2010-07-01T10:44:58Z</time>
      </trkpt>
      <trkpt lat="42.42156" lon="2.15318">
        <ele>2721</ele>
        <time>2010-07-01T10:45:08Z</time>
      </trkpt>
      <trkpt lat="42.42157" lon="2.1533">
        <ele>2722</ele>
        <time>2010-07-01T10:45:18Z</time>
      </trkpt>
      <trkpt lat="42.42155" lon="2.15338">
        <ele>2723</ele>
        <time>2010-07-01T10:45:28Z</time>
      </trkpt>
      <trkpt lat="42.42157" lon="2.15348">
        <ele>2724</ele>
        <time>2010-07-01T10:45:38Z</time>
      </trkpt>
      <trkpt lat="42.4216" lon="2.15356">
        <ele>2725</ele>
        <time>2010-07-01T10:45:48Z</time>
      </trkpt>
      <trkpt lat="42.4216" lon="2.15365">
        <ele>2726</ele>
        <time>2010-07-01T10:45:58Z</time>
      </trkpt>
      <trkpt lat="42.42159" lon="2.15375">
        <ele>2727</ele>
        <time>2010-07-01T10:46:08Z</time>
      </trkpt>
      <trkpt lat="42.42159" lon="2.15385">
        <ele>2728</ele>
        <time>2010-07-01T10:46:18Z</time>
      </trkpt>
      <trkpt lat="42.42159" lon="2.15393">
        <ele>2728</ele>
        <time>2010-07-01T10:46:28Z</time>
      </trkpt>
      <trkpt lat="42.4216" lon="2.15403">
        <ele>2729</ele>
        <time>2010-07-01T10:46:38Z</time>
      </trkpt>
      <trkpt lat="42.42163" lon="2.15412">
        <ele>2729</ele>
        <time>2010-07-01T10:46:48Z</time>
      </trkpt>
      <trkpt lat="42.42165" lon="2.15422">
        <ele>2728</ele>
        <time>2010-07-01T10:46:58Z</time>
      </trkpt>
      <trkpt lat="42.42165" lon="2.15424">
        <ele>2728</ele>
        <time>2010-07-01T10:47:08Z</time>
      </trkpt>
      <trkpt lat="42.42169" lon="2.15429">
        <ele>2727</ele>
        <time>2010-07-01T10:47:18Z</time>
      </trkpt>
      <trkpt lat="42.42171" lon="2.15435">
        <ele>2726</ele>
        <time>2010-07-01T10:47:28Z</time>
      </trkpt>
      <trkpt lat="42.42173" lon="2.15441">
        <ele>2726</ele>
        <time>2010-07-01T10:47:38Z</time>
      </trkpt>
      <trkpt lat="42.42179" lon="2.15454">
        <ele>2726</ele>
        <time>2010-07-01T10:47:48Z</time>
      </trkpt>
      <trkpt lat="42.42185" lon="2.15467">
        <ele>2725</ele>
        <time>2010-07-01T10:47:58Z</time>
      </trkpt>
      <trkpt lat="42.42191" lon="2.15478">
        <ele>2725</ele>
        <time>2010-07-01T10:48:08Z</time>
      </trkpt>
      <trkpt lat="42.42197" lon="2.15485">
        <ele>2725</ele>
        <time>2010-07-01T10:48:18Z</time>
      </trkpt>
      <trkpt lat="42.42204" lon="2.15492">
        <ele>2725</ele>
        <time>2010-07-01T10:48:28Z</time>
      </trkpt>
      <trkpt lat="42.4221" lon="2.15497">
        <ele>2727</ele>
        <time>2010-07-01T10:48:38Z</time>
      </trkpt>
      <trkpt lat="42.42215" lon="2.155">
        <ele>2728</ele>
        <time>2010-07-01T10:48:48Z</time>
      </trkpt>
      <trkpt lat="42.42219" lon="2.15504">
        <ele>2729</ele>
        <time>2010-07-01T10:48:58Z</time>
      </trkpt>
      <trkpt lat="42.42222" lon="2.15509">
        <ele>2730</ele>
        <time>2010-07-01T10:49:08Z</time>
      </trkpt>
      <trkpt lat="42.42225" lon="2.15513">
        <ele>2731</ele>
        <time>2010-07-01T10:49:18Z</time>
      </trkpt>
      <trkpt lat="42.42226" lon="2.15519">
        <ele>2732</ele>
        <time>2010-07-01T10:49:28Z</time>
      </trkpt>
      <trkpt lat="42.42229" lon="2.15523">
        <ele>2734</ele>
        <time>2010-07-01T10:49:38Z</time>
      </trkpt>
      <trkpt lat="42.42232" lon="2.15528">
        <ele>2736</ele>
        <time>2010-07-01T10:49:48Z</time>
      </trkpt>
      <trkpt lat="42.42235" lon="2.15532">
        <ele>2737</ele>
        <time>2010-07-01T10:49:58Z</time>
      </trkpt>
      <trkpt lat="42.42238" lon="2.15535">
        <ele>2738</ele>
        <time>2010-07-01T10:50:08Z</time>
      </trkpt>
      <trkpt lat="42.42239" lon="2.1554">
        <ele>2739</ele>
        <time>2010-07-01T10:50:18Z</time>
      </trkpt>
      <trkpt lat="42.42242" lon="2.15543">
        <ele>2740</ele>
        <time>2010-07-01T10:50:28Z</time>
      </trkpt>
      <trkpt lat="42.42244" lon="2.15548">
        <ele>2742</ele>
        <time>2010-07-01T10:50:38Z</time>
      </trkpt>
      <trkpt lat="42.42245" lon="2.15554">
        <ele>2743</ele>
        <time>2010-07-01T10:50:48Z</time>
      </trkpt>
      <trkpt lat="42.42246" lon="2.15559">
        <ele>2744</ele>
        <time>2010-07-01T10:50:58Z</time>
      </trkpt>
      <trkpt lat="42.42246" lon="2.15565">
        <ele>2746</ele>
        <time>2010-07-01T10:51:08Z</time>
      </trkpt>
      <trkpt lat="42.42249" lon="2.1557">
        <ele>2747</ele>
        <time>2010-07-01T10:51:18Z</time>
      </trkpt>
      <trkpt lat="42.42251" lon="2.15575">
        <ele>2749</ele>
        <time>2010-07-01T10:51:28Z</time>
      </trkpt>
      <trkpt lat="42.42252" lon="2.15582">
        <ele>2750</ele>
        <time>2010-07-01T10:51:38Z</time>
      </trkpt>
      <trkpt lat="42.42253" lon="2.15589">
        <ele>2752</ele>
        <time>2010-07-01T10:51:48Z</time>
      </trkpt>
      <trkpt lat="42.42254" lon="2.15596">
        <ele>2753</ele>
        <time>2010-07-01T10:51:58Z</time>
      </trkpt>
      <trkpt lat="42.42257" lon="2.15602">
        <ele>2755</ele>
        <time>2010-07-01T10:52:08Z</time>
      </trkpt>
      <trkpt lat="42.4226" lon="2.15606">
        <ele>2756</ele>
        <time>2010-07-01T10:52:18Z</time>
      </trkpt>
      <trkpt lat="42.42264" lon="2.15605">
        <ele>2757</ele>
        <time>2010-07-01T10:52:28Z</time>
      </trkpt>
      <trkpt lat="42.42271" lon="2.15607">
        <ele>2759</ele>
        <time>2010-07-01T10:52:38Z</time>
      </trkpt>
      <trkpt lat="42.42276" lon="2.15615">
        <ele>2760</ele>
        <time>2010-07-01T10:52:48Z</time>
      </trkpt>
      <trkpt lat="42.42281" lon="2.1562">
        <ele>2762</ele>
        <time>2010-07-01T10:52:58Z</time>
      </trkpt>
      <trkpt lat="42.42284" lon="2.15624">
        <ele>2763</ele>
        <time>2010-07-01T10:53:08Z</time>
      </trkpt>
      <trkpt lat="42.42288" lon="2.15628">
        <ele>2764</ele>
        <time>2010-07-01T10:53:18Z</time>
      </trkpt>
      <trkpt lat="42.42291" lon="2.15631">
        <ele>2765</ele>
        <time>2010-07-01T10:53:28Z</time>
      </trkpt>
      <trkpt lat="42.42294" lon="2.15634">
        <ele>2766</ele>
        <time>2010-07-01T10:53:38Z</time>
      </trkpt>
      <trkpt lat="42.42298" lon="2.15633">
        <ele>2767</ele>
        <time>2010-07-01T10:53:48Z</time>
      </trkpt>
      <trkpt lat="42.42299" lon="2.15637">
        <ele>2768</ele>
        <time>2010-07-01T10:53:58Z</time>
      </trkpt>
      <trkpt lat="42.423" lon="2.1564">
        <ele>2769</ele>
        <time>2010-07-01T10:54:08Z</time>
      </trkpt>
      <trkpt lat="42.423" lon="2.15641">
        <ele>2769</ele>
        <time>2010-07-01T10:54:18Z</time>
      </trkpt>
      <trkpt lat="42.42306" lon="2.15642">
        <ele>2772</ele>
        <time>2010-07-01T10:54:28Z</time>
      </trkpt>
      <trkpt lat="42.42308" lon="2.15646">
        <ele>2773</ele>
        <time>2010-07-01T10:54:38Z</time>
      </trkpt>
      <trkpt lat="42.42311" lon="2.1565">
        <ele>2775</ele>
        <time>2010-07-01T10:54:48Z</time>
      </trkpt>
      <trkpt lat="42.42312" lon="2.15654">
        <ele>2777</ele>
        <time>2010-07-01T10:54:58Z</time>
      </trkpt>
      <trkpt lat="42.42315" lon="2.15656">
        <ele>2778</ele>
        <time>2010-07-01T10:55:08Z</time>
      </trkpt>
      <trkpt lat="42.42314" lon="2.15659">
        <ele>2779</ele>
        <time>2010-07-01T10:55:18Z</time>
      </trkpt>
      <trkpt lat="42.42316" lon="2.15661">
        <ele>2780</ele>
        <time>2010-07-01T10:55:28Z</time>
      </trkpt>
      <trkpt lat="42.42319" lon="2.15661">
        <ele>2781</ele>
        <time>2010-07-01T10:55:38Z</time>
      </trkpt>
      <trkpt lat="42.42318" lon="2.15664">
        <ele>2782</ele>
        <time>2010-07-01T10:55:48Z</time>
      </trkpt>
      <trkpt lat="42.4232" lon="2.15664">
        <ele>2783</ele>
        <time>2010-07-01T10:55:58Z</time>
      </trkpt>
      <trkpt lat="42.42323" lon="2.15663">
        <ele>2785</ele>
        <time>2010-07-01T10:56:08Z</time>
      </trkpt>
      <trkpt lat="42.42325" lon="2.15665">
        <ele>2785</ele>
        <time>2010-07-01T10:56:18Z</time>
      </trkpt>
      <trkpt lat="42.42326" lon="2.15668">
        <ele>2786</ele>
        <time>2010-07-01T10:56:28Z</time>
      </trkpt>
      <trkpt lat="42.42329" lon="2.15671">
        <ele>2788</ele>
        <time>2010-07-01T10:56:38Z</time>
      </trkpt>
      <trkpt lat="42.42333" lon="2.15675">
        <ele>2790</ele>
        <time>2010-07-01T10:56:48Z</time>
      </trkpt>
      <trkpt lat="42.42335" lon="2.15679">
        <ele>2791</ele>
        <time>2010-07-01T10:56:58Z</time>
      </trkpt>
      <trkpt lat="42.42338" lon="2.15683">
        <ele>2792</ele>
        <time>2010-07-01T10:57:08Z</time>
      </trkpt>
      <trkpt lat="42.42342" lon="2.15686">
        <ele>2793</ele>
        <time>2010-07-01T10:57:18Z</time>
      </trkpt>
      <trkpt lat="42.42346" lon="2.1569">
        <ele>2794</ele>
        <time>2010-07-01T10:57:28Z</time>
      </trkpt>
      <trkpt lat="42.42347" lon="2.15692">
        <ele>2795</ele>
        <time>2010-07-01T10:57:38Z</time>
      </trkpt>
      <trkpt lat="42.42347" lon="2.15693">
        <ele>2795</ele>
        <time>2010-07-01T10:57:48Z</time>
      </trkpt>
      <trkpt lat="42.42347" lon="2.15694">
        <ele>2795</ele>
        <time>2010-07-01T10:57:58Z</time>
      </trkpt>
      <trkpt lat="42.42347" lon="2.15694">
        <ele>2795</ele>
        <time>2010-07-01T10:58:08Z</time>
      </trkpt>
      <trkpt lat="42.42353" lon="2.15695">
        <ele>2796</ele>
        <time>2010-07-01T10:58:18Z</time>
      </trkpt>
      <trkpt lat="42.42353" lon="2.15698">
        <ele>2796</ele>
        <time>2010-07-01T10:58:28Z</time>
      </trkpt>
      <trkpt lat="42.42355" lon="2.15698">
        <ele>2795</ele>
        <time>2010-07-01T10:58:38Z</time>
      </trkpt>
      <trkpt lat="42.42354" lon="2.15698">
        <ele>2795</ele>
        <time>2010-07-01T10:58:48Z</time>
      </trkpt>
      <trkpt lat="42.42354" lon="2.15697">
        <ele>2795</ele>
        <time>2010-07-01T10:58:58Z</time>
      </trkpt>
      <trkpt lat="42.42356" lon="2.15697">
        <ele>2795</ele>
        <time>2010-07-01T10:59:08Z</time>
      </trkpt>
      <trkpt lat="42.42361" lon="2.15697">
        <ele>2794</ele>
        <time>2010-07-01T10:59:18Z</time>
      </trkpt>
      <trkpt lat="42.42367" lon="2.15698">
        <ele>2793</ele>
        <time>2010-07-01T10:59:28Z</time>
      </trkpt>
      <trkpt lat="42.42372" lon="2.15699">
        <ele>2793</ele>
        <time>2010-07-01T10:59:38Z</time>
      </trkpt>
      <trkpt lat="42.42378" lon="2.15699">
        <ele>2792</ele>
        <time>2010-07-01T10:59:48Z</time>
      </trkpt>
      <trkpt lat="42.42382" lon="2.15698">
        <ele>2791</ele>
        <time>2010-07-01T10:59:58Z</time>
      </trkpt>
      <trkpt lat="42.42384" lon="2.15698">
        <ele>2791</ele>
        <time>2010-07-01T11:00:08Z</time>
      </trkpt>
      <trkpt lat="42.42391" lon="2.15701">
        <ele>2789</ele>
        <time>2010-07-01T11:00:18Z</time>
      </trkpt>
      <trkpt lat="42.42395" lon="2.15702">
        <ele>2788</ele>
        <time>2010-07-01T11:00:28Z</time>
      </trkpt>
      <trkpt lat="42.42401" lon="2.15704">
        <ele>2787</ele>
        <time>2010-07-01T11:00:38Z</time>
      </trkpt>
      <trkpt lat="42.42407" lon="2.15707">
        <ele>2786</ele>
        <time>2010-07-01T11:00:48Z</time>
      </trkpt>
      <trkpt lat="42.42414" lon="2.15712">
        <ele>2784</ele>
        <time>2010-07-01T11:00:58Z</time>
      </trkpt>
      <trkpt lat="42.42421" lon="2.15712">
        <ele>2783</ele>
        <time>2010-07-01T11:01:08Z</time>
      </trkpt>
      <trkpt lat="42.42427" lon="2.1571">
        <ele>2782</ele>
        <time>2010-07-01T11:01:18Z</time>
      </trkpt>
      <trkpt lat="42.42434" lon="2.15711">
        <ele>2781</ele>
        <time>2010-07-01T11:01:28Z</time>
      </trkpt>
      <trkpt lat="42.4244" lon="2.1571">
        <ele>2780</ele>
        <time>2010-07-01T11:01:38Z</time>
      </trkpt>
      <trkpt lat="42.42446" lon="2.15711">
        <ele>2779</ele>
        <time>2010-07-01T11:01:48Z</time>
      </trkpt>
      <trkpt lat="42.42449" lon="2.15708">
        <ele>2779</ele>
        <time>2010-07-01T11:01:58Z</time>
      </trkpt>
      <trkpt lat="42.42454" lon="2.15708">
        <ele>2778</ele>
        <time>2010-07-01T11:02:08Z</time>
      </trkpt>
      <trkpt lat="42.42459" lon="2.15706">
        <ele>2777</ele>
        <time>2010-07-01T11:02:18Z</time>
      </trkpt>
      <trkpt lat="42.42463" lon="2.15707">
        <ele>2776</ele>
        <time>2010-07-01T11:02:28Z</time>
      </trkpt>
      <trkpt lat="42.4246" lon="2.15712">
        <ele>2775</ele>
        <time>2010-07-01T11:02:38Z</time>
      </trkpt>
      <trkpt lat="42.42463" lon="2.15712">
        <ele>2774</ele>
        <time>2010-07-01T11:02:48Z</time>
      </trkpt>
      <trkpt lat="42.42466" lon="2.15714">
        <ele>2773</ele>
        <time>2010-07-01T11:02:58Z</time>
      </trkpt>
      <trkpt lat="42.42471" lon="2.15712">
        <ele>2772</ele>
        <time>2010-07-01T11:03:08Z</time>
      </trkpt>
      <trkpt lat="42.42474" lon="2.1571">
        <ele>2771</ele>
        <time>2010-07-01T11:03:18Z</time>
      </trkpt>
      <trkpt lat="42.42478" lon="2.15705">
        <ele>2769</ele>
        <time>2010-07-01T11:03:28Z</time>
      </trkpt>
      <trkpt lat="42.42483" lon="2.15702">
        <ele>2768</ele>
        <time>2010-07-01T11:03:38Z</time>
      </trkpt>
      <trkpt lat="42.42489" lon="2.15698">
        <ele>2766</ele>
        <time>2010-07-01T11:03:48Z</time>
      </trkpt>
      <trkpt lat="42.42495" lon="2.15695">
        <ele>2764</ele>
        <time>2010-07-01T11:03:58Z</time>
      </trkpt>
      <trkpt lat="42.42504" lon="2.15695">
        <ele>2761</ele>
        <time>2010-07-01T11:04:08Z</time>
      </trkpt>
      <trkpt lat="42.42512" lon="2.15689">
        <ele>2760</ele>
        <time>2010-07-01T11:04:18Z</time>
      </trkpt>
      <trkpt lat="42.42523" lon="2.15688">
        <ele>2759</ele>
        <time>2010-07-01T11:04:28Z</time>
      </trkpt>
      <trkpt lat="42.42534" lon="2.15682">
        <ele>2758</ele>
        <time>2010-07-01T11:04:38Z</time>
      </trkpt>
      <trkpt lat="42.42543" lon="2.15675">
        <ele>2757</ele>
        <time>2010-07-01T11:04:48Z</time>
      </trkpt>
      <trkpt lat="42.4255" lon="2.1567">
        <ele>2757</ele>
        <time>2010-07-01T11:04:58Z</time>
      </trkpt>
      <trkpt lat="42.42553" lon="2.15669">
        <ele>2756</ele>
        <time>2010-07-01T11:05:08Z</time>
      </trkpt>
      <trkpt lat="42.42556" lon="2.15666">
        <ele>2755</ele>
        <time>2010-07-01T11:05:18Z</time>
      </trkpt>
      <trkpt lat="42.42561" lon="2.15664">
        <ele>2754</ele>
        <time>2010-07-01T11:05:28Z</time>
      </trkpt>
      <trkpt lat="42.42567" lon="2.15659">
        <ele>2752</ele>
        <time>2010-07-01T11:05:38Z</time>
      </trkpt>
      <trkpt lat="42.42571" lon="2.15651">
        <ele>2750</ele>
        <time>2010-07-01T11:05:48Z</time>
      </trkpt>
      <trkpt lat="42.42577" lon="2.15646">
        <ele>2748</ele>
        <time>2010-07-01T11:05:58Z</time>
      </trkpt>
      <trkpt lat="42.42581" lon="2.15641">
        <ele>2748</ele>
        <time>2010-07-01T11:06:08Z</time>
      </trkpt>
      <trkpt lat="42.42588" lon="2.15631">
        <ele>2747</ele>
        <time>2010-07-01T11:06:18Z</time>
      </trkpt>
      <trkpt lat="42.42593" lon="2.15621">
        <ele>2746</ele>
        <time>2010-07-01T11:06:28Z</time>
      </trkpt>
      <trkpt lat="42.42598" lon="2.15617">
        <ele>2745</ele>
        <time>2010-07-01T11:06:38Z</time>
      </trkpt>
      <trkpt lat="42.42602" lon="2.1561">
        <ele>2744</ele>
        <time>2010-07-01T11:06:48Z</time>
      </trkpt>
      <trkpt lat="42.42605" lon="2.15603">
        <ele>2742</ele>
        <time>2010-07-01T11:06:58Z</time>
      </trkpt>
      <trkpt lat="42.42607" lon="2.15598">
        <ele>2740</ele>
        <time>2010-07-01T11:07:08Z</time>
      </trkpt>
      <trkpt lat="42.42607" lon="2.15594">
        <ele>2739</ele>
        <time>2010-07-01T11:07:18Z</time>
      </trkpt>
      <trkpt lat="42.42608" lon="2.15588">
        <ele>2738</ele>
        <time>2010-07-01T11:07:28Z</time>
      </trkpt>
      <trkpt lat="42.4261" lon="2.15582">
        <ele>2736</ele>
        <time>2010-07-01T11:07:38Z</time>
      </trkpt>
      <trkpt lat="42.42615" lon="2.15577">
        <ele>2733</ele>
        <time>2010-07-01T11:07:48Z</time>
      </trkpt>
      <trkpt lat="42.42617" lon="2.15577">
        <ele>2732</ele>
        <time>2010-07-01T11:07:58Z</time>
      </trkpt>
      <trkpt lat="42.42617" lon="2.15578">
        <ele>2732</ele>
        <time>2010-07-01T11:08:08Z</time>
      </trkpt>
      <trkpt lat="42.42617" lon="2.15578">
        <ele>2732</ele>
        <time>2010-07-01T11:08:18Z</time>
      </trkpt>
      <trkpt lat="42.42617" lon="2.15578">
        <ele>2732</ele>
        <time>2010-07-01T11:08:28Z</time>
      </trkpt>
      <trkpt lat="42.42618" lon="2.15575">
        <ele>2732</ele>
        <time>2010-07-01T11:08:38Z</time>
      </trkpt>
      <trkpt lat="42.42618" lon="2.15571">
        <ele>2732</ele>
        <time>2010-07-01T11:08:48Z</time>
      </trkpt>
      <trkpt lat="42.42617" lon="2.15572">
        <ele>2733</ele>
        <time>2010-07-01T11:08:58Z</time>
      </trkpt>
      <trkpt lat="42.42617" lon="2.15572">
        <ele>2733</ele>
        <time>2010-07-01T11:09:08Z</time>
      </trkpt>
      <trkpt lat="42.42617" lon="2.15571">
        <ele>2733</ele>
        <time>2010-07-01T11:09:18Z</time>
      </trkpt>
      <trkpt lat="42.42618" lon="2.1557">
        <ele>2732</ele>
        <time>2010-07-01T11:09:28Z</time>
      </trkpt>
      <trkpt lat="42.42618" lon="2.15567">
        <ele>2732</ele>
        <time>2010-07-01T11:09:38Z</time>
      </trkpt>
      <trkpt lat="42.42618" lon="2.15568">
        <ele>2732</ele>
        <time>2010-07-01T11:09:48Z</time>
      </trkpt>
      <trkpt lat="42.42618" lon="2.15565">
        <ele>2732</ele>
        <time>2010-07-01T11:09:58Z</time>
      </trkpt>
      <trkpt lat="42.42618" lon="2.15562">
        <ele>2731</ele>
        <time>2010-07-01T11:10:08Z</time>
      </trkpt>
      <trkpt lat="42.42619" lon="2.15561">
        <ele>2731</ele>
        <time>2010-07-01T11:10:18Z</time>
      </trkpt>
      <trkpt lat="42.42619" lon="2.1556">
        <ele>2731</ele>
        <time>2010-07-01T11:10:28Z</time>
      </trkpt>
      <trkpt lat="42.42619" lon="2.15554">
        <ele>2729</ele>
        <time>2010-07-01T11:10:38Z</time>
      </trkpt>
      <trkpt lat="42.42618" lon="2.1555">
        <ele>2728</ele>
        <time>2010-07-01T11:10:48Z</time>
      </trkpt>
      <trkpt lat="42.42623" lon="2.15544">
        <ele>2726</ele>
        <time>2010-07-01T11:10:58Z</time>
      </trkpt>
      <trkpt lat="42.42627" lon="2.15533">
        <ele>2725</ele>
        <time>2010-07-01T11:11:08Z</time>
      </trkpt>
      <trkpt lat="42.42632" lon="2.15522">
        <ele>2723</ele>
        <time>2010-07-01T11:11:18Z</time>
      </trkpt>
      <trkpt lat="42.42638" lon="2.1551">
        <ele>2721</ele>
        <time>2010-07-01T11:11:28Z</time>
      </trkpt>
      <trkpt lat="42.42644" lon="2.15498">
        <ele>2720</ele>
        <time>2010-07-01T11:11:38Z</time>
      </trkpt>
      <trkpt lat="42.4265" lon="2.15487">
        <ele>2719</ele>
        <time>2010-07-01T11:11:48Z</time>
      </trkpt>
      <trkpt lat="42.42659" lon="2.15478">
        <ele>2718</ele>
        <time>2010-07-01T11:11:58Z</time>
      </trkpt>
      <trkpt lat="42.42666" lon="2.15467">
        <ele>2717</ele>
        <time>2010-07-01T11:12:08Z</time>
      </trkpt>
      <trkpt lat="42.42671" lon="2.15453">
        <ele>2716</ele>
        <time>2010-07-01T11:12:18Z</time>
      </trkpt>
      <trkpt lat="42.42677" lon="2.15442">
        <ele>2716</ele>
        <time>2010-07-01T11:12:28Z</time>
      </trkpt>
      <trkpt lat="42.42682" lon="2.15431">
        <ele>2715</ele>
        <time>2010-07-01T11:12:38Z</time>
      </trkpt>
      <trkpt lat="42.42685" lon="2.15421">
        <ele>2714</ele>
        <time>2010-07-01T11:12:48Z</time>
      </trkpt>
      <trkpt lat="42.42688" lon="2.1541">
        <ele>2712</ele>
        <time>2010-07-01T11:12:58Z</time>
      </trkpt>
      <trkpt lat="42.42694" lon="2.15401">
        <ele>2711</ele>
        <time>2010-07-01T11:13:08Z</time>
      </trkpt>
      <trkpt lat="42.42699" lon="2.15393">
        <ele>2710</ele>
        <time>2010-07-01T11:13:18Z</time>
      </trkpt>
      <trkpt lat="42.42704" lon="2.15386">
        <ele>2709</ele>
        <time>2010-07-01T11:13:28Z</time>
      </trkpt>
      <trkpt lat="42.42702" lon="2.15382">
        <ele>2709</ele>
        <time>2010-07-01T11:13:38Z</time>
      </trkpt>
      <trkpt lat="42.42703" lon="2.15375">
        <ele>2708</ele>
        <time>2010-07-01T11:13:48Z</time>
      </trkpt>
      <trkpt lat="42.42703" lon="2.15374">
        <ele>2708</ele>
        <time>2010-07-01T11:13:58Z</time>
      </trkpt>
      <trkpt lat="42.42704" lon="2.15371">
        <ele>2708</ele>
        <time>2010-07-01T11:14:08Z</time>
      </trkpt>
      <trkpt lat="42.42705" lon="2.15363">
        <ele>2706</ele>
        <time>2010-07-01T11:14:18Z</time>
      </trkpt>
      <trkpt lat="42.42708" lon="2.15357">
        <ele>2705</ele>
        <time>2010-07-01T11:14:28Z</time>
      </trkpt>
      <trkpt lat="42.42709" lon="2.15351">
        <ele>2704</ele>
        <time>2010-07-01T11:14:38Z</time>
      </trkpt>
      <trkpt lat="42.4271" lon="2.15345">
        <ele>2703</ele>
        <time>2010-07-01T11:14:48Z</time>
      </trkpt>
      <trkpt lat="42.42711" lon="2.15337">
        <ele>2701</ele>
        <time>2010-07-01T11:14:58Z</time>
      </trkpt>
      <trkpt lat="42.42712" lon="2.15329">
        <ele>2699</ele>
        <time>2010-07-01T11:15:08Z</time>
      </trkpt>
      <trkpt lat="42.42714" lon="2.15322">
        <ele>2697</ele>
        <time>2010-07-01T11:15:18Z</time>
      </trkpt>
      <trkpt lat="42.42714" lon="2.15315">
        <ele>2696</ele>
        <time>2010-07-01T11:15:28Z</time>
      </trkpt>
      <trkpt lat="42.42714" lon="2.1531">
        <ele>2694</ele>
        <time>2010-07-01T11:15:38Z</time>
      </trkpt>
      <trkpt lat="42.42714" lon="2.15304">
        <ele>2693</ele>
        <time>2010-07-01T11:15:48Z</time>
      </trkpt>
      <trkpt lat="42.42714" lon="2.15294">
        <ele>2690</ele>
        <time>2010-07-01T11:15:58Z</time>
      </trkpt>
      <trkpt lat="42.42716" lon="2.15288">
        <ele>2688</ele>
        <time>2010-07-01T11:16:08Z</time>
      </trkpt>
      <trkpt lat="42.42719" lon="2.15283">
        <ele>2687</ele>
        <time>2010-07-01T11:16:18Z</time>
      </trkpt>
      <trkpt lat="42.4272" lon="2.1528">
        <ele>2686</ele>
        <time>2010-07-01T11:16:28Z</time>
      </trkpt>
      <trkpt lat="42.42721" lon="2.15271">
        <ele>2683</ele>
        <time>2010-07-01T11:16:38Z</time>
      </trkpt>
      <trkpt lat="42.42724" lon="2.15261">
        <ele>2680</ele>
        <time>2010-07-01T11:16:48Z</time>
      </trkpt>
      <trkpt lat="42.42728" lon="2.15262">
        <ele>2679</ele>
        <time>2010-07-01T11:16:58Z</time>
      </trkpt>
      <trkpt lat="42.42731" lon="2.15257">
        <ele>2678</ele>
        <time>2010-07-01T11:17:08Z</time>
      </trkpt>
      <trkpt lat="42.42736" lon="2.15247">
        <ele>2676</ele>
        <time>2010-07-01T11:17:18Z</time>
      </trkpt>
      <trkpt lat="42.42741" lon="2.15236">
        <ele>2674</ele>
        <time>2010-07-01T11:17:28Z</time>
      </trkpt>
      <trkpt lat="42.42743" lon="2.15229">
        <ele>2674</ele>
        <time>2010-07-01T11:17:38Z</time>
      </trkpt>
      <trkpt lat="42.42745" lon="2.15223">
        <ele>2674</ele>
        <time>2010-07-01T11:17:48Z</time>
      </trkpt>
      <trkpt lat="42.42747" lon="2.15211">
        <ele>2675</ele>
        <time>2010-07-01T11:17:58Z</time>
      </trkpt>
      <trkpt lat="42.42752" lon="2.15202">
        <ele>2676</ele>
        <time>2010-07-01T11:18:08Z</time>
      </trkpt>
      <trkpt lat="42.42755" lon="2.15192">
        <ele>2677</ele>
        <time>2010-07-01T11:18:18Z</time>
      </trkpt>
      <trkpt lat="42.4276" lon="2.15184">
        <ele>2677</ele>
        <time>2010-07-01T11:18:28Z</time>
      </trkpt>
      <trkpt lat="42.42764" lon="2.15174">
        <ele>2678</ele>
        <time>2010-07-01T11:18:38Z</time>
      </trkpt>
      <trkpt lat="42.42769" lon="2.15167">
        <ele>2679</ele>
        <time>2010-07-01T11:18:48Z</time>
      </trkpt>
      <trkpt lat="42.42773" lon="2.15161">
        <ele>2680</ele>
        <time>2010-07-01T11:18:58Z</time>
      </trkpt>
      <trkpt lat="42.42776" lon="2.15155">
        <ele>2680</ele>
        <time>2010-07-01T11:19:08Z</time>
      </trkpt>
      <trkpt lat="42.42779" lon="2.15149">
        <ele>2681</ele>
        <time>2010-07-01T11:19:18Z</time>
      </trkpt>
      <trkpt lat="42.42782" lon="2.15143">
        <ele>2682</ele>
        <time>2010-07-01T11:19:28Z</time>
      </trkpt>
      <trkpt lat="42.42786" lon="2.15137">
        <ele>2683</ele>
        <time>2010-07-01T11:19:38Z</time>
      </trkpt>
      <trkpt lat="42.4279" lon="2.1513">
        <ele>2685</ele>
        <time>2010-07-01T11:19:48Z</time>
      </trkpt>
      <trkpt lat="42.42794" lon="2.15123">
        <ele>2686</ele>
        <time>2010-07-01T11:19:58Z</time>
      </trkpt>
      <trkpt lat="42.42796" lon="2.15117">
        <ele>2687</ele>
        <time>2010-07-01T11:20:08Z</time>
      </trkpt>
      <trkpt lat="42.428" lon="2.15111">
        <ele>2688</ele>
        <time>2010-07-01T11:20:18Z</time>
      </trkpt>
      <trkpt lat="42.42801" lon="2.15111">
        <ele>2689</ele>
        <time>2010-07-01T11:20:28Z</time>
      </trkpt>
      <trkpt lat="42.42801" lon="2.15111">
        <ele>2689</ele>
        <time>2010-07-01T11:20:38Z</time>
      </trkpt>
      <trkpt lat="42.42802" lon="2.15111">
        <ele>2689</ele>
        <time>2010-07-01T11:20:48Z</time>
      </trkpt>
      <trkpt lat="42.42802" lon="2.1511">
        <ele>2689</ele>
        <time>2010-07-01T11:20:58Z</time>
      </trkpt>
      <trkpt lat="42.42802" lon="2.1511">
        <ele>2689</ele>
        <time>2010-07-01T11:21:08Z</time>
      </trkpt>
      <trkpt lat="42.42802" lon="2.15109">
        <ele>2689</ele>
        <time>2010-07-01T11:21:18Z</time>
      </trkpt>
      <trkpt lat="42.42802" lon="2.15108">
        <ele>2689</ele>
        <time>2010-07-01T11:21:28Z</time>
      </trkpt>
      <trkpt lat="42.42802" lon="2.15108">
        <ele>2689</ele>
        <time>2010-07-01T11:21:38Z</time>
      </trkpt>
      <trkpt lat="42.42803" lon="2.15105">
        <ele>2690</ele>
        <time>2010-07-01T11:21:48Z</time>
      </trkpt>
      <trkpt lat="42.42807" lon="2.15102">
        <ele>2691</ele>
        <time>2010-07-01T11:21:58Z</time>
      </trkpt>
      <trkpt lat="42.42808" lon="2.15102">
        <ele>2691</ele>
        <time>2010-07-01T11:22:08Z</time>
      </trkpt>
      <trkpt lat="42.42808" lon="2.15102">
        <ele>2691</ele>
        <time>2010-07-01T11:22:18Z</time>
      </trkpt>
      <trkpt lat="42.42808" lon="2.15101">
        <ele>2691</ele>
        <time>2010-07-01T11:22:28Z</time>
      </trkpt>
      <trkpt lat="42.42809" lon="2.15102">
        <ele>2691</ele>
        <time>2010-07-01T11:22:38Z</time>
      </trkpt>
      <trkpt lat="42.42812" lon="2.15096">
        <ele>2692</ele>
        <time>2010-07-01T11:22:48Z</time>
      </trkpt>
      <trkpt lat="42.42815" lon="2.15089">
        <ele>2692</ele>
        <time>2010-07-01T11:22:58Z</time>
      </trkpt>
      <trkpt lat="42.4282" lon="2.15083">
        <ele>2693</ele>
        <time>2010-07-01T11:23:08Z</time>
      </trkpt>
      <trkpt lat="42.42822" lon="2.1508">
        <ele>2694</ele>
        <time>2010-07-01T11:23:18Z</time>
      </trkpt>
      <trkpt lat="42.42822" lon="2.1508">
        <ele>2694</ele>
        <time>2010-07-01T11:23:28Z</time>
      </trkpt>
      <trkpt lat="42.42823" lon="2.15079">
        <ele>2694</ele>
        <time>2010-07-01T11:23:38Z</time>
      </trkpt>
      <trkpt lat="42.42825" lon="2.15073">
        <ele>2695</ele>
        <time>2010-07-01T11:23:48Z</time>
      </trkpt>
      <trkpt lat="42.42828" lon="2.15065">
        <ele>2696</ele>
        <time>2010-07-01T11:23:58Z</time>
      </trkpt>
      <trkpt lat="42.42831" lon="2.1506">
        <ele>2697</ele>
        <time>2010-07-01T11:24:08Z</time>
      </trkpt>
      <trkpt lat="42.42832" lon="2.1506">
        <ele>2698</ele>
        <time>2010-07-01T11:24:18Z</time>
      </trkpt>
      <trkpt lat="42.42836" lon="2.15054">
        <ele>2699</ele>
        <time>2010-07-01T11:24:28Z</time>
      </trkpt>
      <trkpt lat="42.4284" lon="2.15049">
        <ele>2700</ele>
        <time>2010-07-01T11:24:38Z</time>
      </trkpt>
      <trkpt lat="42.42843" lon="2.15044">
        <ele>2701</ele>
        <time>2010-07-01T11:24:48Z</time>
      </trkpt>
      <trkpt lat="42.42846" lon="2.1504">
        <ele>2702</ele>
        <time>2010-07-01T11:24:58Z</time>
      </trkpt>
      <trkpt lat="42.4285" lon="2.15036">
        <ele>2703</ele>
        <time>2010-07-01T11:25:08Z</time>
      </trkpt>
      <trkpt lat="42.42854" lon="2.15033">
        <ele>2705</ele>
        <time>2010-07-01T11:25:18Z</time>
      </trkpt>
      <trkpt lat="42.42857" lon="2.15029">
        <ele>2706</ele>
        <time>2010-07-01T11:25:28Z</time>
      </trkpt>
      <trkpt lat="42.42858" lon="2.15024">
        <ele>2708</ele>
        <time>2010-07-01T11:25:38Z</time>
      </trkpt>
      <trkpt lat="42.4286" lon="2.1502">
        <ele>2709</ele>
        <time>2010-07-01T11:25:48Z</time>
      </trkpt>
      <trkpt lat="42.42862" lon="2.15014">
        <ele>2711</ele>
        <time>2010-07-01T11:25:58Z</time>
      </trkpt>
      <trkpt lat="42.42864" lon="2.1501">
        <ele>2713</ele>
        <time>2010-07-01T11:26:08Z</time>
      </trkpt>
      <trkpt lat="42.42865" lon="2.1501">
        <ele>2713</ele>
        <time>2010-07-01T11:26:18Z</time>
      </trkpt>
      <trkpt lat="42.42865" lon="2.15013">
        <ele>2714</ele>
        <time>2010-07-01T11:26:28Z</time>
      </trkpt>
      <trkpt lat="42.42866" lon="2.15013">
        <ele>2714</ele>
        <time>2010-07-01T11:26:38Z</time>
      </trkpt>
      <trkpt lat="42.42866" lon="2.15014">
        <ele>2715</ele>
        <time>2010-07-01T11:26:48Z</time>
      </trkpt>
      <trkpt lat="42.42866" lon="2.15012">
        <ele>2715</ele>
        <time>2010-07-01T11:26:58Z</time>
      </trkpt>
      <trkpt lat="42.42871" lon="2.15012">
        <ele>2715</ele>
        <time>2010-07-01T11:27:08Z</time>
      </trkpt>
      <trkpt lat="42.42874" lon="2.15009">
        <ele>2715</ele>
        <time>2010-07-01T11:27:18Z</time>
      </trkpt>
      <trkpt lat="42.42877" lon="2.15006">
        <ele>2716</ele>
        <time>2010-07-01T11:27:28Z</time>
      </trkpt>
      <trkpt lat="42.4288" lon="2.15003">
        <ele>2716</ele>
        <time>2010-07-01T11:27:38Z</time>
      </trkpt>
      <trkpt lat="42.42883" lon="2.14999">
        <ele>2717</ele>
        <time>2010-07-01T11:27:48Z</time>
      </trkpt>
      <trkpt lat="42.42886" lon="2.14995">
        <ele>2717</ele>
        <time>2010-07-01T11:27:58Z</time>
      </trkpt>
      <trkpt lat="42.4289" lon="2.14993">
        <ele>2718</ele>
        <time>2010-07-01T11:28:08Z</time>
      </trkpt>
      <trkpt lat="42.42894" lon="2.1499">
        <ele>2719</ele>
        <time>2010-07-01T11:28:18Z</time>
      </trkpt>
      <trkpt lat="42.429" lon="2.14987">
        <ele>2720</ele>
        <time>2010-07-01T11:28:28Z</time>
      </trkpt>
      <trkpt lat="42.42903" lon="2.14985">
        <ele>2721</ele>
        <time>2010-07-01T11:28:38Z</time>
      </trkpt>
      <trkpt lat="42.42906" lon="2.14981">
        <ele>2722</ele>
        <time>2010-07-01T11:28:48Z</time>
      </trkpt>
      <trkpt lat="42.4291" lon="2.14979">
        <ele>2723</ele>
        <time>2010-07-01T11:28:58Z</time>
      </trkpt>
      <trkpt lat="42.42914" lon="2.14976">
        <ele>2724</ele>
        <time>2010-07-01T11:29:08Z</time>
      </trkpt>
      <trkpt lat="42.4292" lon="2.14972">
        <ele>2726</ele>
        <time>2010-07-01T11:29:18Z</time>
      </trkpt>
      <trkpt lat="42.42923" lon="2.14969">
        <ele>2727</ele>
        <time>2010-07-01T11:29:28Z</time>
      </trkpt>
      <trkpt lat="42.42925" lon="2.14966">
        <ele>2728</ele>
        <time>2010-07-01T11:29:38Z</time>
      </trkpt>
      <trkpt lat="42.42926" lon="2.14963">
        <ele>2729</ele>
        <time>2010-07-01T11:29:48Z</time>
      </trkpt>
      <trkpt lat="42.4293" lon="2.1496">
        <ele>2731</ele>
        <time>2010-07-01T11:29:58Z</time>
      </trkpt>
      <trkpt lat="42.42933" lon="2.14957">
        <ele>2732</ele>
        <time>2010-07-01T11:30:08Z</time>
      </trkpt>
      <trkpt lat="42.42936" lon="2.14954">
        <ele>2733</ele>
        <time>2010-07-01T11:30:18Z</time>
      </trkpt>
      <trkpt lat="42.4294" lon="2.14952">
        <ele>2734</ele>
        <time>2010-07-01T11:30:28Z</time>
      </trkpt>
      <trkpt lat="42.42944" lon="2.14949">
        <ele>2734</ele>
        <time>2010-07-01T11:30:38Z</time>
      </trkpt>
      <trkpt lat="42.42948" lon="2.14946">
        <ele>2735</ele>
        <time>2010-07-01T11:30:48Z</time>
      </trkpt>
      <trkpt lat="42.4295" lon="2.14944">
        <ele>2736</ele>
        <time>2010-07-01T11:30:58Z</time>
      </trkpt>
      <trkpt lat="42.4295" lon="2.14941">
        <ele>2737</ele>
        <time>2010-07-01T11:31:08Z</time>
      </trkpt>
      <trkpt lat="42.42952" lon="2.14938">
        <ele>2738</ele>
        <time>2010-07-01T11:31:18Z</time>
      </trkpt>
      <trkpt lat="42.42954" lon="2.14934">
        <ele>2739</ele>
        <time>2010-07-01T11:31:28Z</time>
      </trkpt>
      <trkpt lat="42.42955" lon="2.14933">
        <ele>2740</ele>
        <time>2010-07-01T11:31:38Z</time>
      </trkpt>
      <trkpt lat="42.42958" lon="2.14927">
        <ele>2740</ele>
        <time>2010-07-01T11:31:48Z</time>
      </trkpt>
      <trkpt lat="42.42958" lon="2.14922">
        <ele>2739</ele>
        <time>2010-07-01T11:31:58Z</time>
      </trkpt>
      <trkpt lat="42.42958" lon="2.14917">
        <ele>2739</ele>
        <time>2010-07-01T11:32:08Z</time>
      </trkpt>
      <trkpt lat="42.42958" lon="2.14913">
        <ele>2738</ele>
        <time>2010-07-01T11:32:18Z</time>
      </trkpt>
      <trkpt lat="42.4296" lon="2.14907">
        <ele>2737</ele>
        <time>2010-07-01T11:32:28Z</time>
      </trkpt>
      <trkpt lat="42.42965" lon="2.14901">
        <ele>2737</ele>
        <time>2010-07-01T11:32:38Z</time>
      </trkpt>
      <trkpt lat="42.42968" lon="2.14899">
        <ele>2738</ele>
        <time>2010-07-01T11:32:48Z</time>
      </trkpt>
      <trkpt lat="42.42972" lon="2.14897">
        <ele>2739</ele>
        <time>2010-07-01T11:32:58Z</time>
      </trkpt>
      <trkpt lat="42.42975" lon="2.14896">
        <ele>2740</ele>
        <time>2010-07-01T11:33:08Z</time>
      </trkpt>
      <trkpt lat="42.42978" lon="2.14896">
        <ele>2741</ele>
        <time>2010-07-01T11:33:18Z</time>
      </trkpt>
      <trkpt lat="42.42981" lon="2.14891">
        <ele>2742</ele>
        <time>2010-07-01T11:33:28Z</time>
      </trkpt>
      <trkpt lat="42.42986" lon="2.14888">
        <ele>2743</ele>
        <time>2010-07-01T11:33:38Z</time>
      </trkpt>
      <trkpt lat="42.42991" lon="2.14887">
        <ele>2745</ele>
        <time>2010-07-01T11:33:48Z</time>
      </trkpt>
      <trkpt lat="42.42995" lon="2.14886">
        <ele>2746</ele>
        <time>2010-07-01T11:33:58Z</time>
      </trkpt>
      <trkpt lat="42.42999" lon="2.14884">
        <ele>2747</ele>
        <time>2010-07-01T11:34:08Z</time>
      </trkpt>
      <trkpt lat="42.43004" lon="2.14881">
        <ele>2748</ele>
        <time>2010-07-01T11:34:18Z</time>
      </trkpt>
      <trkpt lat="42.43008" lon="2.14879">
        <ele>2749</ele>
        <time>2010-07-01T11:34:28Z</time>
      </trkpt>
      <trkpt lat="42.43012" lon="2.14878">
        <ele>2750</ele>
        <time>2010-07-01T11:34:38Z</time>
      </trkpt>
      <trkpt lat="42.43015" lon="2.14881">
        <ele>2751</ele>
        <time>2010-07-01T11:34:48Z</time>
      </trkpt>
      <trkpt lat="42.43019" lon="2.14876">
        <ele>2752</ele>
        <time>2010-07-01T11:34:58Z</time>
      </trkpt>
      <trkpt lat="42.43024" lon="2.14871">
        <ele>2753</ele>
        <time>2010-07-01T11:35:08Z</time>
      </trkpt>
      <trkpt lat="42.43029" lon="2.1487">
        <ele>2753</ele>
        <time>2010-07-01T11:35:18Z</time>
      </trkpt>
      <trkpt lat="42.43031" lon="2.1487">
        <ele>2753</ele>
        <time>2010-07-01T11:35:28Z</time>
      </trkpt>
      <trkpt lat="42.43033" lon="2.1487">
        <ele>2754</ele>
        <time>2010-07-01T11:35:38Z</time>
      </trkpt>
      <trkpt lat="42.43037" lon="2.14866">
        <ele>2754</ele>
        <time>2010-07-01T11:35:48Z</time>
      </trkpt>
      <trkpt lat="42.43042" lon="2.14866">
        <ele>2754</ele>
        <time>2010-07-01T11:35:58Z</time>
      </trkpt>
      <trkpt lat="42.43046" lon="2.14869">
        <ele>2755</ele>
        <time>2010-07-01T11:36:08Z</time>
      </trkpt>
      <trkpt lat="42.43049" lon="2.14865">
        <ele>2756</ele>
        <time>2010-07-01T11:36:18Z</time>
      </trkpt>
      <trkpt lat="42.43054" lon="2.14861">
        <ele>2757</ele>
        <time>2010-07-01T11:36:28Z</time>
      </trkpt>
      <trkpt lat="42.43059" lon="2.14856">
        <ele>2758</ele>
        <time>2010-07-01T11:36:38Z</time>
      </trkpt>
      <trkpt lat="42.43065" lon="2.14854">
        <ele>2758</ele>
        <time>2010-07-01T11:36:48Z</time>
      </trkpt>
      <trkpt lat="42.4307" lon="2.14853">
        <ele>2758</ele>
        <time>2010-07-01T11:36:58Z</time>
      </trkpt>
      <trkpt lat="42.43075" lon="2.14852">
        <ele>2759</ele>
        <time>2010-07-01T11:37:08Z</time>
      </trkpt>
      <trkpt lat="42.4308" lon="2.14852">
        <ele>2759</ele>
        <time>2010-07-01T11:37:18Z</time>
      </trkpt>
      <trkpt lat="42.43085" lon="2.1485">
        <ele>2759</ele>
        <time>2010-07-01T11:37:28Z</time>
      </trkpt>
      <trkpt lat="42.43091" lon="2.14846">
        <ele>2760</ele>
        <time>2010-07-01T11:37:38Z</time>
      </trkpt>
      <trkpt lat="42.43096" lon="2.14845">
        <ele>2761</ele>
        <time>2010-07-01T11:37:48Z</time>
      </trkpt>
      <trkpt lat="42.43101" lon="2.14843">
        <ele>2762</ele>
        <time>2010-07-01T11:37:58Z</time>
      </trkpt>
      <trkpt lat="42.43105" lon="2.1484">
        <ele>2762</ele>
        <time>2010-07-01T11:38:08Z</time>
      </trkpt>
      <trkpt lat="42.43109" lon="2.14837">
        <ele>2763</ele>
        <time>2010-07-01T11:38:18Z</time>
      </trkpt>
      <trkpt lat="42.43112" lon="2.14835">
        <ele>2764</ele>
        <time>2010-07-01T11:38:28Z</time>
      </trkpt>
      <trkpt lat="42.43112" lon="2.14836">
        <ele>2764</ele>
        <time>2010-07-01T11:38:38Z</time>
      </trkpt>
      <trkpt lat="42.43116" lon="2.14837">
        <ele>2764</ele>
        <time>2010-07-01T11:38:48Z</time>
      </trkpt>
      <trkpt lat="42.43123" lon="2.14836">
        <ele>2766</ele>
        <time>2010-07-01T11:38:58Z</time>
      </trkpt>
      <trkpt lat="42.43129" lon="2.14832">
        <ele>2767</ele>
        <time>2010-07-01T11:39:08Z</time>
      </trkpt>
      <trkpt lat="42.43135" lon="2.14828">
        <ele>2768</ele>
        <time>2010-07-01T11:39:18Z</time>
      </trkpt>
      <trkpt lat="42.43139" lon="2.14827">
        <ele>2769</ele>
        <time>2010-07-01T11:39:28Z</time>
      </trkpt>
      <trkpt lat="42.43142" lon="2.14824">
        <ele>2770</ele>
        <time>2010-07-01T11:39:38Z</time>
      </trkpt>
      <trkpt lat="42.43146" lon="2.14823">
        <ele>2771</ele>
        <time>2010-07-01T11:39:48Z</time>
      </trkpt>
      <trkpt lat="42.43149" lon="2.14821">
        <ele>2771</ele>
        <time>2010-07-01T11:39:58Z</time>
      </trkpt>
      <trkpt lat="42.43152" lon="2.14819">
        <ele>2772</ele>
        <time>2010-07-01T11:40:08Z</time>
      </trkpt>
      <trkpt lat="42.43155" lon="2.14816">
        <ele>2772</ele>
        <time>2010-07-01T11:40:18Z</time>
      </trkpt>
      <trkpt lat="42.43159" lon="2.14813">
        <ele>2772</ele>
        <time>2010-07-01T11:40:28Z</time>
      </trkpt>
      <trkpt lat="42.43163" lon="2.14809">
        <ele>2773</ele>
        <time>2010-07-01T11:40:38Z</time>
      </trkpt>
      <trkpt lat="42.43166" lon="2.14804">
        <ele>2773</ele>
        <time>2010-07-01T11:40:48Z</time>
      </trkpt>
      <trkpt lat="42.43171" lon="2.14801">
        <ele>2774</ele>
        <time>2010-07-01T11:40:58Z</time>
      </trkpt>
      <trkpt lat="42.43174" lon="2.14799">
        <ele>2775</ele>
        <time>2010-07-01T11:41:08Z</time>
      </trkpt>
      <trkpt lat="42.43178" lon="2.148">
        <ele>2777</ele>
        <time>2010-07-01T11:41:18Z</time>
      </trkpt>
      <trkpt lat="42.43182" lon="2.14802">
        <ele>2778</ele>
        <time>2010-07-01T11:41:28Z</time>
      </trkpt>
      <trkpt lat="42.43185" lon="2.14801">
        <ele>2779</ele>
        <time>2010-07-01T11:41:38Z</time>
      </trkpt>
      <trkpt lat="42.43187" lon="2.14801">
        <ele>2779</ele>
        <time>2010-07-01T11:41:48Z</time>
      </trkpt>
      <trkpt lat="42.43189" lon="2.14798">
        <ele>2780</ele>
        <time>2010-07-01T11:41:58Z</time>
      </trkpt>
      <trkpt lat="42.43192" lon="2.148">
        <ele>2781</ele>
        <time>2010-07-01T11:42:08Z</time>
      </trkpt>
      <trkpt lat="42.43195" lon="2.14799">
        <ele>2782</ele>
        <time>2010-07-01T11:42:18Z</time>
      </trkpt>
      <trkpt lat="42.43201" lon="2.14799">
        <ele>2783</ele>
        <time>2010-07-01T11:42:28Z</time>
      </trkpt>
      <trkpt lat="42.43207" lon="2.14799">
        <ele>2785</ele>
        <time>2010-07-01T11:42:38Z</time>
      </trkpt>
      <trkpt lat="42.43211" lon="2.148">
        <ele>2786</ele>
        <time>2010-07-01T11:42:48Z</time>
      </trkpt>
      <trkpt lat="42.43216" lon="2.14799">
        <ele>2787</ele>
        <time>2010-07-01T11:42:58Z</time>
      </trkpt>
      <trkpt lat="42.43221" lon="2.14797">
        <ele>2788</ele>
        <time>2010-07-01T11:43:08Z</time>
      </trkpt>
      <trkpt lat="42.43226" lon="2.14797">
        <ele>2789</ele>
        <time>2010-07-01T11:43:18Z</time>
      </trkpt>
      <trkpt lat="42.43232" lon="2.14796">
        <ele>2790</ele>
        <time>2010-07-01T11:43:28Z</time>
      </trkpt>
      <trkpt lat="42.43235" lon="2.14799">
        <ele>2791</ele>
        <time>2010-07-01T11:43:38Z</time>
      </trkpt>
      <trkpt lat="42.43239" lon="2.14802">
        <ele>2793</ele>
        <time>2010-07-01T11:43:48Z</time>
      </trkpt>
      <trkpt lat="42.43241" lon="2.14807">
        <ele>2794</ele>
        <time>2010-07-01T11:43:58Z</time>
      </trkpt>
      <trkpt lat="42.43243" lon="2.1481">
        <ele>2795</ele>
        <time>2010-07-01T11:44:08Z</time>
      </trkpt>
      <trkpt lat="42.43243" lon="2.14809">
        <ele>2795</ele>
        <time>2010-07-01T11:44:18Z</time>
      </trkpt>
      <trkpt lat="42.43243" lon="2.14808">
        <ele>2794</ele>
        <time>2010-07-01T11:44:28Z</time>
      </trkpt>
      <trkpt lat="42.43242" lon="2.14808">
        <ele>2793</ele>
        <time>2010-07-01T11:44:38Z</time>
      </trkpt>
      <trkpt lat="42.43242" lon="2.14808">
        <ele>2793</ele>
        <time>2010-07-01T11:44:48Z</time>
      </trkpt>
      <trkpt lat="42.43243" lon="2.14807">
        <ele>2791</ele>
        <time>2010-07-01T11:44:58Z</time>
      </trkpt>
      <trkpt lat="42.43243" lon="2.14807">
        <ele>2791</ele>
        <time>2010-07-01T11:45:08Z</time>
      </trkpt>
      <trkpt lat="42.43243" lon="2.14807">
        <ele>2792</ele>
        <time>2010-07-01T11:45:18Z</time>
      </trkpt>
      <trkpt lat="42.43243" lon="2.14808">
        <ele>2792</ele>
        <time>2010-07-01T11:45:28Z</time>
      </trkpt>
      <trkpt lat="42.43242" lon="2.14808">
        <ele>2793</ele>
        <time>2010-07-01T11:45:38Z</time>
      </trkpt>
      <trkpt lat="42.4324" lon="2.1481">
        <ele>2796</ele>
        <time>2010-07-01T11:45:48Z</time>
      </trkpt>
      <trkpt lat="42.43247" lon="2.14805">
        <ele>2798</ele>
        <time>2010-07-01T11:45:58Z</time>
      </trkpt>
      <trkpt lat="42.4325" lon="2.14802">
        <ele>2798</ele>
        <time>2010-07-01T11:46:08Z</time>
      </trkpt>
      <trkpt lat="42.43255" lon="2.14799">
        <ele>2797</ele>
        <time>2010-07-01T11:46:18Z</time>
      </trkpt>
      <trkpt lat="42.43259" lon="2.14794">
        <ele>2796</ele>
        <time>2010-07-01T11:46:28Z</time>
      </trkpt>
      <trkpt lat="42.4326" lon="2.14794">
        <ele>2796</ele>
        <time>2010-07-01T11:46:38Z</time>
      </trkpt>
      <trkpt lat="42.43264" lon="2.14789">
        <ele>2795</ele>
        <time>2010-07-01T11:46:48Z</time>
      </trkpt>
      <trkpt lat="42.43266" lon="2.14783">
        <ele>2795</ele>
        <time>2010-07-01T11:46:58Z</time>
      </trkpt>
      <trkpt lat="42.43272" lon="2.1478">
        <ele>2795</ele>
        <time>2010-07-01T11:47:08Z</time>
      </trkpt>
      <trkpt lat="42.43278" lon="2.14781">
        <ele>2795</ele>
        <time>2010-07-01T11:47:18Z</time>
      </trkpt>
      <trkpt lat="42.43284" lon="2.14781">
        <ele>2794</ele>
        <time>2010-07-01T11:47:28Z</time>
      </trkpt>
      <trkpt lat="42.43288" lon="2.14783">
        <ele>2795</ele>
        <time>2010-07-01T11:47:38Z</time>
      </trkpt>
      <trkpt lat="42.43294" lon="2.1478">
        <ele>2796</ele>
        <time>2010-07-01T11:47:48Z</time>
      </trkpt>
      <trkpt lat="42.433" lon="2.14777">
        <ele>2797</ele>
        <time>2010-07-01T11:47:58Z</time>
      </trkpt>
      <trkpt lat="42.43306" lon="2.14775">
        <ele>2798</ele>
        <time>2010-07-01T11:48:08Z</time>
      </trkpt>
      <trkpt lat="42.43312" lon="2.14772">
        <ele>2799</ele>
        <time>2010-07-01T11:48:18Z</time>
      </trkpt>
      <trkpt lat="42.43316" lon="2.14775">
        <ele>2800</ele>
        <time>2010-07-01T11:48:28Z</time>
      </trkpt>
      <trkpt lat="42.43316" lon="2.14775">
        <ele>2800</ele>
        <time>2010-07-01T11:48:38Z</time>
      </trkpt>
      <trkpt lat="42.43316" lon="2.14775">
        <ele>2800</ele>
        <time>2010-07-01T11:48:48Z</time>
      </trkpt>
      <trkpt lat="42.43317" lon="2.14773">
        <ele>2800</ele>
        <time>2010-07-01T11:48:58Z</time>
      </trkpt>
      <trkpt lat="42.43321" lon="2.1477">
        <ele>2801</ele>
        <time>2010-07-01T11:49:08Z</time>
      </trkpt>
      <trkpt lat="42.43326" lon="2.14765">
        <ele>2802</ele>
        <time>2010-07-01T11:49:18Z</time>
      </trkpt>
      <trkpt lat="42.43332" lon="2.14763">
        <ele>2803</ele>
        <time>2010-07-01T11:49:28Z</time>
      </trkpt>
      <trkpt lat="42.43335" lon="2.1476">
        <ele>2803</ele>
        <time>2010-07-01T11:49:38Z</time>
      </trkpt>
      <trkpt lat="42.43335" lon="2.1476">
        <ele>2803</ele>
        <time>2010-07-01T11:49:48Z</time>
      </trkpt>
      <trkpt lat="42.43342" lon="2.14755">
        <ele>2804</ele>
        <time>2010-07-01T11:49:58Z</time>
      </trkpt>
      <trkpt lat="42.43347" lon="2.14754">
        <ele>2805</ele>
        <time>2010-07-01T11:50:08Z</time>
      </trkpt>
      <trkpt lat="42.43351" lon="2.14752">
        <ele>2806</ele>
        <time>2010-07-01T11:50:18Z</time>
      </trkpt>
      <trkpt lat="42.43351" lon="2.14753">
        <ele>2806</ele>
        <time>2010-07-01T11:50:28Z</time>
      </trkpt>
      <trkpt lat="42.43355" lon="2.14753">
        <ele>2808</ele>
        <time>2010-07-01T11:50:38Z</time>
      </trkpt>
      <trkpt lat="42.4336" lon="2.14753">
        <ele>2809</ele>
        <time>2010-07-01T11:50:48Z</time>
      </trkpt>
      <trkpt lat="42.43364" lon="2.14753">
        <ele>2810</ele>
        <time>2010-07-01T11:50:58Z</time>
      </trkpt>
      <trkpt lat="42.43366" lon="2.1475">
        <ele>2811</ele>
        <time>2010-07-01T11:51:08Z</time>
      </trkpt>
      <trkpt lat="42.4337" lon="2.14749">
        <ele>2813</ele>
        <time>2010-07-01T11:51:18Z</time>
      </trkpt>
      <trkpt lat="42.43374" lon="2.14748">
        <ele>2814</ele>
        <time>2010-07-01T11:51:28Z</time>
      </trkpt>
      <trkpt lat="42.43378" lon="2.14746">
        <ele>2816</ele>
        <time>2010-07-01T11:51:38Z</time>
      </trkpt>
      <trkpt lat="42.43382" lon="2.14745">
        <ele>2817</ele>
        <time>2010-07-01T11:51:48Z</time>
      </trkpt>
      <trkpt lat="42.43385" lon="2.14745">
        <ele>2818</ele>
        <time>2010-07-01T11:51:58Z</time>
      </trkpt>
      <trkpt lat="42.43389" lon="2.14744">
        <ele>2819</ele>
        <time>2010-07-01T11:52:08Z</time>
      </trkpt>
      <trkpt lat="42.43393" lon="2.14743">
        <ele>2819</ele>
        <time>2010-07-01T11:52:18Z</time>
      </trkpt>
      <trkpt lat="42.43397" lon="2.1474">
        <ele>2820</ele>
        <time>2010-07-01T11:52:28Z</time>
      </trkpt>
      <trkpt lat="42.43402" lon="2.14737">
        <ele>2822</ele>
        <time>2010-07-01T11:52:38Z</time>
      </trkpt>
      <trkpt lat="42.43406" lon="2.14736">
        <ele>2823</ele>
        <time>2010-07-01T11:52:48Z</time>
      </trkpt>
      <trkpt lat="42.4341" lon="2.14734">
        <ele>2824</ele>
        <time>2010-07-01T11:52:58Z</time>
      </trkpt>
      <trkpt lat="42.43413" lon="2.14735">
        <ele>2825</ele>
        <time>2010-07-01T11:53:08Z</time>
      </trkpt>
      <trkpt lat="42.43416" lon="2.14738">
        <ele>2827</ele>
        <time>2010-07-01T11:53:18Z</time>
      </trkpt>
      <trkpt lat="42.43419" lon="2.14738">
        <ele>2827</ele>
        <time>2010-07-01T11:53:28Z</time>
      </trkpt>
      <trkpt lat="42.43421" lon="2.14737">
        <ele>2828</ele>
        <time>2010-07-01T11:53:38Z</time>
      </trkpt>
      <trkpt lat="42.43425" lon="2.14733">
        <ele>2829</ele>
        <time>2010-07-01T11:53:48Z</time>
      </trkpt>
      <trkpt lat="42.43428" lon="2.14731">
        <ele>2830</ele>
        <time>2010-07-01T11:53:58Z</time>
      </trkpt>
      <trkpt lat="42.43433" lon="2.14727">
        <ele>2831</ele>
        <time>2010-07-01T11:54:08Z</time>
      </trkpt>
      <trkpt lat="42.43438" lon="2.14724">
        <ele>2832</ele>
        <time>2010-07-01T11:54:18Z</time>
      </trkpt>
      <trkpt lat="42.43443" lon="2.14718">
        <ele>2833</ele>
        <time>2010-07-01T11:54:28Z</time>
      </trkpt>
      <trkpt lat="42.43445" lon="2.14717">
        <ele>2833</ele>
        <time>2010-07-01T11:54:38Z</time>
      </trkpt>
      <trkpt lat="42.43446" lon="2.14715">
        <ele>2833</ele>
        <time>2010-07-01T11:54:48Z</time>
      </trkpt>
      <trkpt lat="42.43446" lon="2.14715">
        <ele>2833</ele>
        <time>2010-07-01T11:54:58Z</time>
      </trkpt>
      <trkpt lat="42.43446" lon="2.14714">
        <ele>2833</ele>
        <time>2010-07-01T11:55:08Z</time>
      </trkpt>
      <trkpt lat="42.43446" lon="2.14713">
        <ele>2832</ele>
        <time>2010-07-01T11:55:18Z</time>
      </trkpt>
      <trkpt lat="42.43447" lon="2.14713">
        <ele>2831</ele>
        <time>2010-07-01T11:55:28Z</time>
      </trkpt>
      <trkpt lat="42.43447" lon="2.14713">
        <ele>2831</ele>
        <time>2010-07-01T11:55:38Z</time>
      </trkpt>
      <trkpt lat="42.43447" lon="2.14712">
        <ele>2831</ele>
        <time>2010-07-01T11:55:48Z</time>
      </trkpt>
      <trkpt lat="42.43447" lon="2.14712">
        <ele>2831</ele>
        <time>2010-07-01T11:55:58Z</time>
      </trkpt>
      <trkpt lat="42.43448" lon="2.14713">
        <ele>2831</ele>
        <time>2010-07-01T11:56:08Z</time>
      </trkpt>
      <trkpt lat="42.43448" lon="2.14709">
        <ele>2832</ele>
        <time>2010-07-01T11:56:18Z</time>
      </trkpt>
      <trkpt lat="42.43449" lon="2.14709">
        <ele>2832</ele>
        <time>2010-07-01T11:56:28Z</time>
      </trkpt>
      <trkpt lat="42.43449" lon="2.14708">
        <ele>2832</ele>
        <time>2010-07-01T11:56:38Z</time>
      </trkpt>
      <trkpt lat="42.4345" lon="2.14708">
        <ele>2832</ele>
        <time>2010-07-01T11:56:48Z</time>
      </trkpt>
      <trkpt lat="42.43449" lon="2.1471">
        <ele>2832</ele>
        <time>2010-07-01T11:56:58Z</time>
      </trkpt>
      <trkpt lat="42.43449" lon="2.14711">
        <ele>2832</ele>
        <time>2010-07-01T11:57:08Z</time>
      </trkpt>
      <trkpt lat="42.43449" lon="2.14711">
        <ele>2832</ele>
        <time>2010-07-01T11:57:18Z</time>
      </trkpt>
      <trkpt lat="42.43448" lon="2.14711">
        <ele>2832</ele>
        <time>2010-07-01T11:57:28Z</time>
      </trkpt>
      <trkpt lat="42.43449" lon="2.14712">
        <ele>2832</ele>
        <time>2010-07-01T11:57:38Z</time>
      </trkpt>
      <trkpt lat="42.43448" lon="2.14712">
        <ele>2833</ele>
        <time>2010-07-01T11:57:48Z</time>
      </trkpt>
      <trkpt lat="42.43448" lon="2.14713">
        <ele>2833</ele>
        <time>2010-07-01T11:57:58Z</time>
      </trkpt>
      <trkpt lat="42.43448" lon="2.14713">
        <ele>2833</ele>
        <time>2010-07-01T11:58:08Z</time>
      </trkpt>
      <trkpt lat="42.43448" lon="2.1471">
        <ele>2834</ele>
        <time>2010-07-01T11:58:18Z</time>
      </trkpt>
      <trkpt lat="42.43448" lon="2.1471">
        <ele>2834</ele>
        <time>2010-07-01T11:58:28Z</time>
      </trkpt>
      <trkpt lat="42.43448" lon="2.1471">
        <ele>2834</ele>
        <time>2010-07-01T11:58:38Z</time>
      </trkpt>
      <trkpt lat="42.43448" lon="2.1471">
        <ele>2834</ele>
        <time>2010-07-01T11:58:48Z</time>
      </trkpt>
      <trkpt lat="42.43448" lon="2.1471">
        <ele>2834</ele>
        <time>2010-07-01T11:58:58Z</time>
      </trkpt>
      <trkpt lat="42.43447" lon="2.14711">
        <ele>2835</ele>
        <time>2010-07-01T11:59:08Z</time>
      </trkpt>
      <trkpt lat="42.43446" lon="2.14711">
        <ele>2836</ele>
        <time>2010-07-01T11:59:18Z</time>
      </trkpt>
      <trkpt lat="42.43446" lon="2.14712">
        <ele>2835</ele>
        <time>2010-07-01T11:59:28Z</time>
      </trkpt>
      <trkpt lat="42.43446" lon="2.14712">
        <ele>2835</ele>
        <time>2010-07-01T11:59:38Z</time>
      </trkpt>
      <trkpt lat="42.43447" lon="2.14712">
        <ele>2835</ele>
        <time>2010-07-01T11:59:48Z</time>
      </trkpt>
      <trkpt lat="42.43447" lon="2.14712">
        <ele>2835</ele>
        <time>2010-07-01T11:59:58Z</time>
      </trkpt>
      <trkpt lat="42.43447" lon="2.14711">
        <ele>2835</ele>
        <time>2010-07-01T12:00:08Z</time>
      </trkpt>
      <trkpt lat="42.43447" lon="2.14709">
        <ele>2835</ele>
        <time>2010-07-01T12:00:18Z</time>
      </trkpt>
      <trkpt lat="42.4345" lon="2.14709">
        <ele>2834</ele>
        <time>2010-07-01T12:00:28Z</time>
      </trkpt>
      <trkpt lat="42.4345" lon="2.14709">
        <ele>2834</ele>
        <time>2010-07-01T12:00:38Z</time>
      </trkpt>
      <trkpt lat="42.43448" lon="2.14705">
        <ele>2834</ele>
        <time>2010-07-01T12:00:48Z</time>
      </trkpt>
      <trkpt lat="42.43447" lon="2.14699">
        <ele>2833</ele>
        <time>2010-07-01T12:00:58Z</time>
      </trkpt>
      <trkpt lat="42.43446" lon="2.1469">
        <ele>2831</ele>
        <time>2010-07-01T12:01:08Z</time>
      </trkpt>
      <trkpt lat="42.43446" lon="2.14681">
        <ele>2830</ele>
        <time>2010-07-01T12:01:18Z</time>
      </trkpt>
      <trkpt lat="42.43447" lon="2.14671">
        <ele>2828</ele>
        <time>2010-07-01T12:01:28Z</time>
      </trkpt>
      <trkpt lat="42.43448" lon="2.1466">
        <ele>2826</ele>
        <time>2010-07-01T12:01:38Z</time>
      </trkpt>
      <trkpt lat="42.43448" lon="2.14651">
        <ele>2825</ele>
        <time>2010-07-01T12:01:48Z</time>
      </trkpt>
      <trkpt lat="42.43448" lon="2.14644">
        <ele>2824</ele>
        <time>2010-07-01T12:01:58Z</time>
      </trkpt>
      <trkpt lat="42.43449" lon="2.14637">
        <ele>2823</ele>
        <time>2010-07-01T12:02:08Z</time>
      </trkpt>
      <trkpt lat="42.4345" lon="2.14629">
        <ele>2822</ele>
        <time>2010-07-01T12:02:18Z</time>
      </trkpt>
      <trkpt lat="42.43451" lon="2.14619">
        <ele>2820</ele>
        <time>2010-07-01T12:02:28Z</time>
      </trkpt>
      <trkpt lat="42.43452" lon="2.14616">
        <ele>2820</ele>
        <time>2010-07-01T12:02:38Z</time>
      </trkpt>
      <trkpt lat="42.43452" lon="2.1461">
        <ele>2819</ele>
        <time>2010-07-01T12:02:48Z</time>
      </trkpt>
      <trkpt lat="42.43453" lon="2.14609">
        <ele>2819</ele>
        <time>2010-07-01T12:02:58Z</time>
      </trkpt>
      <trkpt lat="42.43453" lon="2.14598">
        <ele>2818</ele>
        <time>2010-07-01T12:03:08Z</time>
      </trkpt>
      <trkpt lat="42.43452" lon="2.14591">
        <ele>2817</ele>
        <time>2010-07-01T12:03:18Z</time>
      </trkpt>
      <trkpt lat="42.43454" lon="2.1458">
        <ele>2815</ele>
        <time>2010-07-01T12:03:28Z</time>
      </trkpt>
      <trkpt lat="42.43452" lon="2.14568">
        <ele>2814</ele>
        <time>2010-07-01T12:03:38Z</time>
      </trkpt>
      <trkpt lat="42.43453" lon="2.14564">
        <ele>2813</ele>
        <time>2010-07-01T12:03:48Z</time>
      </trkpt>
      <trkpt lat="42.43453" lon="2.14563">
        <ele>2813</ele>
        <time>2010-07-01T12:03:58Z</time>
      </trkpt>
      <trkpt lat="42.43452" lon="2.14556">
        <ele>2812</ele>
        <time>2010-07-01T12:04:08Z</time>
      </trkpt>
      <trkpt lat="42.43454" lon="2.14545">
        <ele>2812</ele>
        <time>2010-07-01T12:04:18Z</time>
      </trkpt>
      <trkpt lat="42.43456" lon="2.14533">
        <ele>2812</ele>
        <time>2010-07-01T12:04:28Z</time>
      </trkpt>
      <trkpt lat="42.43459" lon="2.14522">
        <ele>2812</ele>
        <time>2010-07-01T12:04:38Z</time>
      </trkpt>
      <trkpt lat="42.43461" lon="2.14512">
        <ele>2812</ele>
        <time>2010-07-01T12:04:48Z</time>
      </trkpt>
      <trkpt lat="42.43462" lon="2.14502">
        <ele>2813</ele>
        <time>2010-07-01T12:04:58Z</time>
      </trkpt>
      <trkpt lat="42.43464" lon="2.14497">
        <ele>2813</ele>
        <time>2010-07-01T12:05:08Z</time>
      </trkpt>
      <trkpt lat="42.43464" lon="2.14497">
        <ele>2812</ele>
        <time>2010-07-01T12:05:18Z</time>
      </trkpt>
      <trkpt lat="42.43466" lon="2.14488">
        <ele>2812</ele>
        <time>2010-07-01T12:05:28Z</time>
      </trkpt>
      <trkpt lat="42.4347" lon="2.14479">
        <ele>2812</ele>
        <time>2010-07-01T12:05:38Z</time>
      </trkpt>
      <trkpt lat="42.43473" lon="2.14467">
        <ele>2812</ele>
        <time>2010-07-01T12:05:48Z</time>
      </trkpt>
      <trkpt lat="42.43476" lon="2.14453">
        <ele>2812</ele>
        <time>2010-07-01T12:05:58Z</time>
      </trkpt>
      <trkpt lat="42.4348" lon="2.14442">
        <ele>2813</ele>
        <time>2010-07-01T12:06:08Z</time>
      </trkpt>
      <trkpt lat="42.43483" lon="2.14432">
        <ele>2814</ele>
        <time>2010-07-01T12:06:18Z</time>
      </trkpt>
      <trkpt lat="42.43487" lon="2.14422">
        <ele>2814</ele>
        <time>2010-07-01T12:06:28Z</time>
      </trkpt>
      <trkpt lat="42.4349" lon="2.14412">
        <ele>2815</ele>
        <time>2010-07-01T12:06:38Z</time>
      </trkpt>
      <trkpt lat="42.43496" lon="2.14404">
        <ele>2815</ele>
        <time>2010-07-01T12:06:48Z</time>
      </trkpt>
      <trkpt lat="42.43503" lon="2.14401">
        <ele>2814</ele>
        <time>2010-07-01T12:06:58Z</time>
      </trkpt>
      <trkpt lat="42.43503" lon="2.14401">
        <ele>2814</ele>
        <time>2010-07-01T12:07:08Z</time>
      </trkpt>
      <trkpt lat="42.43501" lon="2.14397">
        <ele>2814</ele>
        <time>2010-07-01T12:07:18Z</time>
      </trkpt>
      <trkpt lat="42.43501" lon="2.14396">
        <ele>2813</ele>
        <time>2010-07-01T12:07:28Z</time>
      </trkpt>
      <trkpt lat="42.435" lon="2.14395">
        <ele>2813</ele>
        <time>2010-07-01T12:07:38Z</time>
      </trkpt>
      <trkpt lat="42.43498" lon="2.14392">
        <ele>2812</ele>
        <time>2010-07-01T12:07:48Z</time>
      </trkpt>
      <trkpt lat="42.43498" lon="2.14392">
        <ele>2812</ele>
        <time>2010-07-01T12:07:58Z</time>
      </trkpt>
      <trkpt lat="42.43496" lon="2.14392">
        <ele>2810</ele>
        <time>2010-07-01T12:08:08Z</time>
      </trkpt>
      <trkpt lat="42.43501" lon="2.14387">
        <ele>2807</ele>
        <time>2010-07-01T12:08:18Z</time>
      </trkpt>
      <trkpt lat="42.43507" lon="2.14386">
        <ele>2804</ele>
        <time>2010-07-01T12:08:28Z</time>
      </trkpt>
      <trkpt lat="42.43507" lon="2.14385">
        <ele>2803</ele>
        <time>2010-07-01T12:08:38Z</time>
      </trkpt>
      <trkpt lat="42.43513" lon="2.14382">
        <ele>2801</ele>
        <time>2010-07-01T12:08:48Z</time>
      </trkpt>
      <trkpt lat="42.43516" lon="2.14379">
        <ele>2799</ele>
        <time>2010-07-01T12:08:58Z</time>
      </trkpt>
      <trkpt lat="42.43519" lon="2.14379">
        <ele>2799</ele>
        <time>2010-07-01T12:09:08Z</time>
      </trkpt>
      <trkpt lat="42.43521" lon="2.14378">
        <ele>2798</ele>
        <time>2010-07-01T12:09:18Z</time>
      </trkpt>
      <trkpt lat="42.43521" lon="2.14376">
        <ele>2797</ele>
        <time>2010-07-01T12:09:28Z</time>
      </trkpt>
      <trkpt lat="42.43522" lon="2.14376">
        <ele>2797</ele>
        <time>2010-07-01T12:09:38Z</time>
      </trkpt>
      <trkpt lat="42.43525" lon="2.14375">
        <ele>2796</ele>
        <time>2010-07-01T12:09:48Z</time>
      </trkpt>
      <trkpt lat="42.43525" lon="2.1437">
        <ele>2794</ele>
        <time>2010-07-01T12:09:58Z</time>
      </trkpt>
      <trkpt lat="42.43528" lon="2.1437">
        <ele>2793</ele>
        <time>2010-07-01T12:10:08Z</time>
      </trkpt>
      <trkpt lat="42.43533" lon="2.14372">
        <ele>2793</ele>
        <time>2010-07-01T12:10:18Z</time>
      </trkpt>
      <trkpt lat="42.43538" lon="2.1437">
        <ele>2792</ele>
        <time>2010-07-01T12:10:28Z</time>
      </trkpt>
      <trkpt lat="42.4354" lon="2.14363">
        <ele>2791</ele>
        <time>2010-07-01T12:10:38Z</time>
      </trkpt>
      <trkpt lat="42.43543" lon="2.14358">
        <ele>2790</ele>
        <time>2010-07-01T12:10:48Z</time>
      </trkpt>
      <trkpt lat="42.43544" lon="2.14354">
        <ele>2789</ele>
        <time>2010-07-01T12:10:58Z</time>
      </trkpt>
      <trkpt lat="42.43547" lon="2.14348">
        <ele>2787</ele>
        <time>2010-07-01T12:11:08Z</time>
      </trkpt>
      <trkpt lat="42.43554" lon="2.14344">
        <ele>2785</ele>
        <time>2010-07-01T12:11:18Z</time>
      </trkpt>
      <trkpt lat="42.43557" lon="2.14344">
        <ele>2784</ele>
        <time>2010-07-01T12:11:28Z</time>
      </trkpt>
      <trkpt lat="42.4356" lon="2.14342">
        <ele>2783</ele>
        <time>2010-07-01T12:11:38Z</time>
      </trkpt>
      <trkpt lat="42.43562" lon="2.14339">
        <ele>2782</ele>
        <time>2010-07-01T12:11:48Z</time>
      </trkpt>
      <trkpt lat="42.43562" lon="2.14337">
        <ele>2781</ele>
        <time>2010-07-01T12:11:58Z</time>
      </trkpt>
      <trkpt lat="42.43563" lon="2.14335">
        <ele>2780</ele>
        <time>2010-07-01T12:12:08Z</time>
      </trkpt>
      <trkpt lat="42.43565" lon="2.14329">
        <ele>2777</ele>
        <time>2010-07-01T12:12:18Z</time>
      </trkpt>
      <trkpt lat="42.43569" lon="2.14329">
        <ele>2775</ele>
        <time>2010-07-01T12:12:28Z</time>
      </trkpt>
      <trkpt lat="42.4357" lon="2.14328">
        <ele>2774</ele>
        <time>2010-07-01T12:12:38Z</time>
      </trkpt>
      <trkpt lat="42.43572" lon="2.14327">
        <ele>2773</ele>
        <time>2010-07-01T12:12:48Z</time>
      </trkpt>
      <trkpt lat="42.43572" lon="2.14326">
        <ele>2772</ele>
        <time>2010-07-01T12:12:58Z</time>
      </trkpt>
      <trkpt lat="42.43575" lon="2.14324">
        <ele>2770</ele>
        <time>2010-07-01T12:13:08Z</time>
      </trkpt>
      <trkpt lat="42.43574" lon="2.14321">
        <ele>2769</ele>
        <time>2010-07-01T12:13:18Z</time>
      </trkpt>
      <trkpt lat="42.43577" lon="2.1432">
        <ele>2768</ele>
        <time>2010-07-01T12:13:28Z</time>
      </trkpt>
      <trkpt lat="42.43578" lon="2.14317">
        <ele>2767</ele>
        <time>2010-07-01T12:13:38Z</time>
      </trkpt>
      <trkpt lat="42.43581" lon="2.14314">
        <ele>2766</ele>
        <time>2010-07-01T12:13:48Z</time>
      </trkpt>
      <trkpt lat="42.43584" lon="2.14313">
        <ele>2766</ele>
        <time>2010-07-01T12:13:58Z</time>
      </trkpt>
      <trkpt lat="42.43587" lon="2.14309">
        <ele>2765</ele>
        <time>2010-07-01T12:14:08Z</time>
      </trkpt>
      <trkpt lat="42.43591" lon="2.14307">
        <ele>2763</ele>
        <time>2010-07-01T12:14:18Z</time>
      </trkpt>
      <trkpt lat="42.43597" lon="2.14305">
        <ele>2761</ele>
        <time>2010-07-01T12:14:28Z</time>
      </trkpt>
      <trkpt lat="42.43601" lon="2.14302">
        <ele>2760</ele>
        <time>2010-07-01T12:14:38Z</time>
      </trkpt>
      <trkpt lat="42.43603" lon="2.14299">
        <ele>2759</ele>
        <time>2010-07-01T12:14:48Z</time>
      </trkpt>
      <trkpt lat="42.43607" lon="2.14297">
        <ele>2757</ele>
        <time>2010-07-01T12:14:58Z</time>
      </trkpt>
      <trkpt lat="42.43609" lon="2.14294">
        <ele>2756</ele>
        <time>2010-07-01T12:15:08Z</time>
      </trkpt>
      <trkpt lat="42.43612" lon="2.1429">
        <ele>2755</ele>
        <time>2010-07-01T12:15:18Z</time>
      </trkpt>
      <trkpt lat="42.43617" lon="2.14285">
        <ele>2753</ele>
        <time>2010-07-01T12:15:28Z</time>
      </trkpt>
      <trkpt lat="42.43622" lon="2.14282">
        <ele>2752</ele>
        <time>2010-07-01T12:15:38Z</time>
      </trkpt>
      <trkpt lat="42.43627" lon="2.14279">
        <ele>2750</ele>
        <time>2010-07-01T12:15:48Z</time>
      </trkpt>
      <trkpt lat="42.43631" lon="2.14274">
        <ele>2748</ele>
        <time>2010-07-01T12:15:58Z</time>
      </trkpt>
      <trkpt lat="42.43634" lon="2.14268">
        <ele>2746</ele>
        <time>2010-07-01T12:16:08Z</time>
      </trkpt>
      <trkpt lat="42.43638" lon="2.14264">
        <ele>2745</ele>
        <time>2010-07-01T12:16:18Z</time>
      </trkpt>
      <trkpt lat="42.43639" lon="2.14261">
        <ele>2744</ele>
        <time>2010-07-01T12:16:28Z</time>
      </trkpt>
      <trkpt lat="42.43642" lon="2.14258">
        <ele>2742</ele>
        <time>2010-07-01T12:16:38Z</time>
      </trkpt>
      <trkpt lat="42.43648" lon="2.14254">
        <ele>2741</ele>
        <time>2010-07-01T12:16:48Z</time>
      </trkpt>
      <trkpt lat="42.43652" lon="2.14252">
        <ele>2740</ele>
        <time>2010-07-01T12:16:58Z</time>
      </trkpt>
      <trkpt lat="42.43653" lon="2.14252">
        <ele>2740</ele>
        <time>2010-07-01T12:17:08Z</time>
      </trkpt>
      <trkpt lat="42.43656" lon="2.14253">
        <ele>2740</ele>
        <time>2010-07-01T12:17:18Z</time>
      </trkpt>
      <trkpt lat="42.43664" lon="2.14251">
        <ele>2740</ele>
        <time>2010-07-01T12:17:28Z</time>
      </trkpt>
      <trkpt lat="42.4367" lon="2.14251">
        <ele>2740</ele>
        <time>2010-07-01T12:17:38Z</time>
      </trkpt>
      <trkpt lat="42.43673" lon="2.14248">
        <ele>2740</ele>
        <time>2010-07-01T12:17:48Z</time>
      </trkpt>
      <trkpt lat="42.43679" lon="2.14239">
        <ele>2741</ele>
        <time>2010-07-01T12:17:58Z</time>
      </trkpt>
      <trkpt lat="42.4368" lon="2.1424">
        <ele>2741</ele>
        <time>2010-07-01T12:18:08Z</time>
      </trkpt>
      <trkpt lat="42.43683" lon="2.14237">
        <ele>2741</ele>
        <time>2010-07-01T12:18:18Z</time>
      </trkpt>
      <trkpt lat="42.43684" lon="2.14234">
        <ele>2741</ele>
        <time>2010-07-01T12:18:28Z</time>
      </trkpt>
      <trkpt lat="42.4369" lon="2.14231">
        <ele>2740</ele>
        <time>2010-07-01T12:18:38Z</time>
      </trkpt>
      <trkpt lat="42.43697" lon="2.14227">
        <ele>2739</ele>
        <time>2010-07-01T12:18:48Z</time>
      </trkpt>
      <trkpt lat="42.43702" lon="2.14222">
        <ele>2738</ele>
        <time>2010-07-01T12:18:58Z</time>
      </trkpt>
      <trkpt lat="42.43706" lon="2.1422">
        <ele>2737</ele>
        <time>2010-07-01T12:19:08Z</time>
      </trkpt>
      <trkpt lat="42.4371" lon="2.14217">
        <ele>2736</ele>
        <time>2010-07-01T12:19:18Z</time>
      </trkpt>
      <trkpt lat="42.43711" lon="2.14217">
        <ele>2736</ele>
        <time>2010-07-01T12:19:28Z</time>
      </trkpt>
      <trkpt lat="42.43713" lon="2.14215">
        <ele>2736</ele>
        <time>2010-07-01T12:19:38Z</time>
      </trkpt>
      <trkpt lat="42.43713" lon="2.14216">
        <ele>2736</ele>
        <time>2010-07-01T12:19:48Z</time>
      </trkpt>
      <trkpt lat="42.43715" lon="2.14215">
        <ele>2736</ele>
        <time>2010-07-01T12:19:58Z</time>
      </trkpt>
      <trkpt lat="42.43714" lon="2.14214">
        <ele>2736</ele>
        <time>2010-07-01T12:20:08Z</time>
      </trkpt>
      <trkpt lat="42.43713" lon="2.14215">
        <ele>2735</ele>
        <time>2010-07-01T12:20:18Z</time>
      </trkpt>
      <trkpt lat="42.43716" lon="2.14212">
        <ele>2735</ele>
        <time>2010-07-01T12:20:28Z</time>
      </trkpt>
      <trkpt lat="42.43722" lon="2.1421">
        <ele>2734</ele>
        <time>2010-07-01T12:20:38Z</time>
      </trkpt>
      <trkpt lat="42.43729" lon="2.14209">
        <ele>2733</ele>
        <time>2010-07-01T12:20:48Z</time>
      </trkpt>
      <trkpt lat="42.43736" lon="2.14206">
        <ele>2732</ele>
        <time>2010-07-01T12:20:58Z</time>
      </trkpt>
      <trkpt lat="42.43743" lon="2.14205">
        <ele>2731</ele>
        <time>2010-07-01T12:21:08Z</time>
      </trkpt>
      <trkpt lat="42.43751" lon="2.14205">
        <ele>2729</ele>
        <time>2010-07-01T12:21:18Z</time>
      </trkpt>
      <trkpt lat="42.43757" lon="2.14203">
        <ele>2728</ele>
        <time>2010-07-01T12:21:28Z</time>
      </trkpt>
      <trkpt lat="42.43757" lon="2.14203">
        <ele>2728</ele>
        <time>2010-07-01T12:21:38Z</time>
      </trkpt>
      <trkpt lat="42.43758" lon="2.14203">
        <ele>2728</ele>
        <time>2010-07-01T12:21:48Z</time>
      </trkpt>
      <trkpt lat="42.43765" lon="2.14201">
        <ele>2727</ele>
        <time>2010-07-01T12:21:58Z</time>
      </trkpt>
      <trkpt lat="42.43774" lon="2.14199">
        <ele>2725</ele>
        <time>2010-07-01T12:22:08Z</time>
      </trkpt>
      <trkpt lat="42.43781" lon="2.14196">
        <ele>2724</ele>
        <time>2010-07-01T12:22:18Z</time>
      </trkpt>
      <trkpt lat="42.43788" lon="2.14193">
        <ele>2722</ele>
        <time>2010-07-01T12:22:28Z</time>
      </trkpt>
      <trkpt lat="42.43795" lon="2.14188">
        <ele>2721</ele>
        <time>2010-07-01T12:22:38Z</time>
      </trkpt>
      <trkpt lat="42.43802" lon="2.14183">
        <ele>2721</ele>
        <time>2010-07-01T12:22:48Z</time>
      </trkpt>
      <trkpt lat="42.43807" lon="2.14179">
        <ele>2720</ele>
        <time>2010-07-01T12:22:58Z</time>
      </trkpt>
      <trkpt lat="42.43815" lon="2.14174">
        <ele>2719</ele>
        <time>2010-07-01T12:23:08Z</time>
      </trkpt>
      <trkpt lat="42.43823" lon="2.14172">
        <ele>2718</ele>
        <time>2010-07-01T12:23:18Z</time>
      </trkpt>
      <trkpt lat="42.43825" lon="2.14172">
        <ele>2718</ele>
        <time>2010-07-01T12:23:28Z</time>
      </trkpt>
      <trkpt lat="42.43827" lon="2.14174">
        <ele>2717</ele>
        <time>2010-07-01T12:23:38Z</time>
      </trkpt>
      <trkpt lat="42.4383" lon="2.14173">
        <ele>2716</ele>
        <time>2010-07-01T12:23:48Z</time>
      </trkpt>
      <trkpt lat="42.43832" lon="2.14174">
        <ele>2715</ele>
        <time>2010-07-01T12:23:58Z</time>
      </trkpt>
      <trkpt lat="42.43831" lon="2.14175">
        <ele>2714</ele>
        <time>2010-07-01T12:24:08Z</time>
      </trkpt>
      <trkpt lat="42.4383" lon="2.14175">
        <ele>2714</ele>
        <time>2010-07-01T12:24:18Z</time>
      </trkpt>
      <trkpt lat="42.43829" lon="2.14173">
        <ele>2715</ele>
        <time>2010-07-01T12:24:28Z</time>
      </trkpt>
      <trkpt lat="42.43832" lon="2.14168">
        <ele>2718</ele>
        <time>2010-07-01T12:24:38Z</time>
      </trkpt>
      <trkpt lat="42.43838" lon="2.14169">
        <ele>2721</ele>
        <time>2010-07-01T12:24:48Z</time>
      </trkpt>
      <trkpt lat="42.43841" lon="2.1417">
        <ele>2722</ele>
        <time>2010-07-01T12:24:58Z</time>
      </trkpt>
      <trkpt lat="42.43845" lon="2.14173">
        <ele>2724</ele>
        <time>2010-07-01T12:25:08Z</time>
      </trkpt>
      <trkpt lat="42.43847" lon="2.14175">
        <ele>2725</ele>
        <time>2010-07-01T12:25:18Z</time>
      </trkpt>
      <trkpt lat="42.4385" lon="2.14176">
        <ele>2726</ele>
        <time>2010-07-01T12:25:28Z</time>
      </trkpt>
      <trkpt lat="42.43853" lon="2.14175">
        <ele>2727</ele>
        <time>2010-07-01T12:25:38Z</time>
      </trkpt>
      <trkpt lat="42.43857" lon="2.14175">
        <ele>2729</ele>
        <time>2010-07-01T12:25:48Z</time>
      </trkpt>
      <trkpt lat="42.43861" lon="2.14174">
        <ele>2730</ele>
        <time>2010-07-01T12:25:58Z</time>
      </trkpt>
      <trkpt lat="42.43865" lon="2.14174">
        <ele>2731</ele>
        <time>2010-07-01T12:26:08Z</time>
      </trkpt>
      <trkpt lat="42.43868" lon="2.14175">
        <ele>2732</ele>
        <time>2010-07-01T12:26:18Z</time>
      </trkpt>
      <trkpt lat="42.43873" lon="2.14176">
        <ele>2733</ele>
        <time>2010-07-01T12:26:28Z</time>
      </trkpt>
      <trkpt lat="42.43877" lon="2.14175">
        <ele>2734</ele>
        <time>2010-07-01T12:26:38Z</time>
      </trkpt>
      <trkpt lat="42.43882" lon="2.14174">
        <ele>2735</ele>
        <time>2010-07-01T12:26:48Z</time>
      </trkpt>
      <trkpt lat="42.43883" lon="2.14175">
        <ele>2735</ele>
        <time>2010-07-01T12:26:58Z</time>
      </trkpt>
      <trkpt lat="42.43882" lon="2.14176">
        <ele>2735</ele>
        <time>2010-07-01T12:27:08Z</time>
      </trkpt>
      <trkpt lat="42.43883" lon="2.14173">
        <ele>2735</ele>
        <time>2010-07-01T12:27:18Z</time>
      </trkpt>
      <trkpt lat="42.43889" lon="2.1417">
        <ele>2736</ele>
        <time>2010-07-01T12:27:28Z</time>
      </trkpt>
      <trkpt lat="42.43893" lon="2.14171">
        <ele>2737</ele>
        <time>2010-07-01T12:27:38Z</time>
      </trkpt>
      <trkpt lat="42.43897" lon="2.14171">
        <ele>2738</ele>
        <time>2010-07-01T12:27:48Z</time>
      </trkpt>
      <trkpt lat="42.43902" lon="2.1417">
        <ele>2740</ele>
        <time>2010-07-01T12:27:58Z</time>
      </trkpt>
      <trkpt lat="42.43904" lon="2.14169">
        <ele>2741</ele>
        <time>2010-07-01T12:28:08Z</time>
      </trkpt>
      <trkpt lat="42.43907" lon="2.14168">
        <ele>2742</ele>
        <time>2010-07-01T12:28:18Z</time>
      </trkpt>
      <trkpt lat="42.43911" lon="2.14167">
        <ele>2744</ele>
        <time>2010-07-01T12:28:28Z</time>
      </trkpt>
      <trkpt lat="42.43917" lon="2.14168">
        <ele>2745</ele>
        <time>2010-07-01T12:28:38Z</time>
      </trkpt>
      <trkpt lat="42.43923" lon="2.14169">
        <ele>2747</ele>
        <time>2010-07-01T12:28:48Z</time>
      </trkpt>
      <trkpt lat="42.43927" lon="2.14169">
        <ele>2748</ele>
        <time>2010-07-01T12:28:58Z</time>
      </trkpt>
      <trkpt lat="42.43931" lon="2.1417">
        <ele>2749</ele>
        <time>2010-07-01T12:29:08Z</time>
      </trkpt>
      <trkpt lat="42.43936" lon="2.14169">
        <ele>2750</ele>
        <time>2010-07-01T12:29:18Z</time>
      </trkpt>
      <trkpt lat="42.43941" lon="2.14168">
        <ele>2751</ele>
        <time>2010-07-01T12:29:28Z</time>
      </trkpt>
      <trkpt lat="42.43946" lon="2.14165">
        <ele>2752</ele>
        <time>2010-07-01T12:29:38Z</time>
      </trkpt>
      <trkpt lat="42.4395" lon="2.14163">
        <ele>2752</ele>
        <time>2010-07-01T12:29:48Z</time>
      </trkpt>
      <trkpt lat="42.43955" lon="2.14162">
        <ele>2753</ele>
        <time>2010-07-01T12:29:58Z</time>
      </trkpt>
      <trkpt lat="42.43961" lon="2.14158">
        <ele>2754</ele>
        <time>2010-07-01T12:30:08Z</time>
      </trkpt>
      <trkpt lat="42.43967" lon="2.14153">
        <ele>2755</ele>
        <time>2010-07-01T12:30:18Z</time>
      </trkpt>
      <trkpt lat="42.43974" lon="2.14147">
        <ele>2756</ele>
        <time>2010-07-01T12:30:28Z</time>
      </trkpt>
      <trkpt lat="42.43981" lon="2.14144">
        <ele>2757</ele>
        <time>2010-07-01T12:30:38Z</time>
      </trkpt>
      <trkpt lat="42.43986" lon="2.14142">
        <ele>2757</ele>
        <time>2010-07-01T12:30:48Z</time>
      </trkpt>
      <trkpt lat="42.43992" lon="2.14138">
        <ele>2758</ele>
        <time>2010-07-01T12:30:58Z</time>
      </trkpt>
      <trkpt lat="42.43995" lon="2.14135">
        <ele>2759</ele>
        <time>2010-07-01T12:31:08Z</time>
      </trkpt>
      <trkpt lat="42.43995" lon="2.14134">
        <ele>2759</ele>
        <time>2010-07-01T12:31:18Z</time>
      </trkpt>
      <trkpt lat="42.43993" lon="2.14133">
        <ele>2759</ele>
        <time>2010-07-01T12:31:28Z</time>
      </trkpt>
      <trkpt lat="42.43996" lon="2.14132">
        <ele>2760</ele>
        <time>2010-07-01T12:31:38Z</time>
      </trkpt>
      <trkpt lat="42.43999" lon="2.1413">
        <ele>2761</ele>
        <time>2010-07-01T12:31:48Z</time>
      </trkpt>
      <trkpt lat="42.44005" lon="2.14127">
        <ele>2762</ele>
        <time>2010-07-01T12:31:58Z</time>
      </trkpt>
      <trkpt lat="42.44009" lon="2.14124">
        <ele>2763</ele>
        <time>2010-07-01T12:32:08Z</time>
      </trkpt>
      <trkpt lat="42.44014" lon="2.14123">
        <ele>2764</ele>
        <time>2010-07-01T12:32:18Z</time>
      </trkpt>
      <trkpt lat="42.4402" lon="2.14118">
        <ele>2766</ele>
        <time>2010-07-01T12:32:28Z</time>
      </trkpt>
      <trkpt lat="42.44025" lon="2.14112">
        <ele>2767</ele>
        <time>2010-07-01T12:32:38Z</time>
      </trkpt>
      <trkpt lat="42.44025" lon="2.14109">
        <ele>2767</ele>
        <time>2010-07-01T12:32:48Z</time>
      </trkpt>
      <trkpt lat="42.44025" lon="2.14109">
        <ele>2767</ele>
        <time>2010-07-01T12:32:58Z</time>
      </trkpt>
      <trkpt lat="42.44031" lon="2.14112">
        <ele>2768</ele>
        <time>2010-07-01T12:33:08Z</time>
      </trkpt>
      <trkpt lat="42.44035" lon="2.14116">
        <ele>2768</ele>
        <time>2010-07-01T12:33:18Z</time>
      </trkpt>
      <trkpt lat="42.44035" lon="2.14116">
        <ele>2768</ele>
        <time>2010-07-01T12:33:28Z</time>
      </trkpt>
      <trkpt lat="42.44036" lon="2.14118">
        <ele>2768</ele>
        <time>2010-07-01T12:33:38Z</time>
      </trkpt>
      <trkpt lat="42.44035" lon="2.14118">
        <ele>2768</ele>
        <time>2010-07-01T12:33:48Z</time>
      </trkpt>
      <trkpt lat="42.44035" lon="2.14118">
        <ele>2768</ele>
        <time>2010-07-01T12:33:58Z</time>
      </trkpt>
      <trkpt lat="42.44035" lon="2.14118">
        <ele>2768</ele>
        <time>2010-07-01T12:34:08Z</time>
      </trkpt>
      <trkpt lat="42.44035" lon="2.14118">
        <ele>2768</ele>
        <time>2010-07-01T12:34:18Z</time>
      </trkpt>
      <trkpt lat="42.44035" lon="2.14118">
        <ele>2768</ele>
        <time>2010-07-01T12:34:28Z</time>
      </trkpt>
      <trkpt lat="42.44035" lon="2.14117">
        <ele>2768</ele>
        <time>2010-07-01T12:34:38Z</time>
      </trkpt>
      <trkpt lat="42.44035" lon="2.14117">
        <ele>2768</ele>
        <time>2010-07-01T12:34:48Z</time>
      </trkpt>
      <trkpt lat="42.44035" lon="2.14116">
        <ele>2769</ele>
        <time>2010-07-01T12:34:58Z</time>
      </trkpt>
      <trkpt lat="42.44035" lon="2.14116">
        <ele>2769</ele>
        <time>2010-07-01T12:35:08Z</time>
      </trkpt>
      <trkpt lat="42.44035" lon="2.14117">
        <ele>2769</ele>
        <time>2010-07-01T12:35:18Z</time>
      </trkpt>
      <trkpt lat="42.44033" lon="2.14117">
        <ele>2768</ele>
        <time>2010-07-01T12:35:28Z</time>
      </trkpt>
      <trkpt lat="42.44034" lon="2.14117">
        <ele>2768</ele>
        <time>2010-07-01T12:35:38Z</time>
      </trkpt>
      <trkpt lat="42.44034" lon="2.14117">
        <ele>2768</ele>
        <time>2010-07-01T12:35:48Z</time>
      </trkpt>
      <trkpt lat="42.44035" lon="2.14117">
        <ele>2768</ele>
        <time>2010-07-01T12:35:58Z</time>
      </trkpt>
      <trkpt lat="42.44036" lon="2.14116">
        <ele>2768</ele>
        <time>2010-07-01T12:36:08Z</time>
      </trkpt>
      <trkpt lat="42.44035" lon="2.14117">
        <ele>2768</ele>
        <time>2010-07-01T12:36:18Z</time>
      </trkpt>
      <trkpt lat="42.44035" lon="2.14117">
        <ele>2768</ele>
        <time>2010-07-01T12:36:28Z</time>
      </trkpt>
      <trkpt lat="42.44035" lon="2.14117">
        <ele>2768</ele>
        <time>2010-07-01T12:36:38Z</time>
      </trkpt>
      <trkpt lat="42.44034" lon="2.14119">
        <ele>2768</ele>
        <time>2010-07-01T12:36:48Z</time>
      </trkpt>
      <trkpt lat="42.44034" lon="2.14119">
        <ele>2768</ele>
        <time>2010-07-01T12:36:58Z</time>
      </trkpt>
      <trkpt lat="42.44034" lon="2.14118">
        <ele>2768</ele>
        <time>2010-07-01T12:37:08Z</time>
      </trkpt>
      <trkpt lat="42.44035" lon="2.14116">
        <ele>2768</ele>
        <time>2010-07-01T12:37:18Z</time>
      </trkpt>
      <trkpt lat="42.44034" lon="2.14111">
        <ele>2767</ele>
        <time>2010-07-01T12:37:28Z</time>
      </trkpt>
      <trkpt lat="42.44034" lon="2.14102">
        <ele>2766</ele>
        <time>2010-07-01T12:37:38Z</time>
      </trkpt>
      <trkpt lat="42.44034" lon="2.14093">
        <ele>2765</ele>
        <time>2010-07-01T12:37:48Z</time>
      </trkpt>
      <trkpt lat="42.44032" lon="2.14083">
        <ele>2763</ele>
        <time>2010-07-01T12:37:58Z</time>
      </trkpt>
      <trkpt lat="42.44035" lon="2.14072">
        <ele>2761</ele>
        <time>2010-07-01T12:38:08Z</time>
      </trkpt>
      <trkpt lat="42.4404" lon="2.14063">
        <ele>2759</ele>
        <time>2010-07-01T12:38:18Z</time>
      </trkpt>
      <trkpt lat="42.44046" lon="2.14053">
        <ele>2758</ele>
        <time>2010-07-01T12:38:28Z</time>
      </trkpt>
      <trkpt lat="42.44052" lon="2.14044">
        <ele>2757</ele>
        <time>2010-07-01T12:38:38Z</time>
      </trkpt>
      <trkpt lat="42.44058" lon="2.14038">
        <ele>2757</ele>
        <time>2010-07-01T12:38:48Z</time>
      </trkpt>
      <trkpt lat="42.44064" lon="2.14031">
        <ele>2756</ele>
        <time>2010-07-01T12:38:58Z</time>
      </trkpt>
      <trkpt lat="42.44069" lon="2.14024">
        <ele>2756</ele>
        <time>2010-07-01T12:39:08Z</time>
      </trkpt>
      <trkpt lat="42.44075" lon="2.14016">
        <ele>2755</ele>
        <time>2010-07-01T12:39:18Z</time>
      </trkpt>
      <trkpt lat="42.4408" lon="2.14009">
        <ele>2754</ele>
        <time>2010-07-01T12:39:28Z</time>
      </trkpt>
      <trkpt lat="42.44087" lon="2.14002">
        <ele>2752</ele>
        <time>2010-07-01T12:39:38Z</time>
      </trkpt>
      <trkpt lat="42.44093" lon="2.13994">
        <ele>2751</ele>
        <time>2010-07-01T12:39:48Z</time>
      </trkpt>
      <trkpt lat="42.44098" lon="2.1399">
        <ele>2750</ele>
        <time>2010-07-01T12:39:58Z</time>
      </trkpt>
      <trkpt lat="42.44101" lon="2.13983">
        <ele>2748</ele>
        <time>2010-07-01T12:40:08Z</time>
      </trkpt>
      <trkpt lat="42.44106" lon="2.13978">
        <ele>2746</ele>
        <time>2010-07-01T12:40:18Z</time>
      </trkpt>
      <trkpt lat="42.4411" lon="2.13972">
        <ele>2745</ele>
        <time>2010-07-01T12:40:28Z</time>
      </trkpt>
      <trkpt lat="42.44112" lon="2.13967">
        <ele>2743</ele>
        <time>2010-07-01T12:40:38Z</time>
      </trkpt>
      <trkpt lat="42.44116" lon="2.13962">
        <ele>2742</ele>
        <time>2010-07-01T12:40:48Z</time>
      </trkpt>
      <trkpt lat="42.4412" lon="2.13956">
        <ele>2740</ele>
        <time>2010-07-01T12:40:58Z</time>
      </trkpt>
      <trkpt lat="42.44126" lon="2.1395">
        <ele>2739</ele>
        <time>2010-07-01T12:41:08Z</time>
      </trkpt>
      <trkpt lat="42.44134" lon="2.13944">
        <ele>2737</ele>
        <time>2010-07-01T12:41:18Z</time>
      </trkpt>
      <trkpt lat="42.44137" lon="2.13937">
        <ele>2736</ele>
        <time>2010-07-01T12:41:28Z</time>
      </trkpt>
      <trkpt lat="42.44142" lon="2.1393">
        <ele>2735</ele>
        <time>2010-07-01T12:41:38Z</time>
      </trkpt>
      <trkpt lat="42.44151" lon="2.13927">
        <ele>2734</ele>
        <time>2010-07-01T12:41:48Z</time>
      </trkpt>
      <trkpt lat="42.44158" lon="2.13922">
        <ele>2733</ele>
        <time>2010-07-01T12:41:58Z</time>
      </trkpt>
      <trkpt lat="42.44166" lon="2.13917">
        <ele>2732</ele>
        <time>2010-07-01T12:42:08Z</time>
      </trkpt>
      <trkpt lat="42.44174" lon="2.13913">
        <ele>2732</ele>
        <time>2010-07-01T12:42:18Z</time>
      </trkpt>
      <trkpt lat="42.44181" lon="2.13906">
        <ele>2731</ele>
        <time>2010-07-01T12:42:28Z</time>
      </trkpt>
      <trkpt lat="42.44188" lon="2.13901">
        <ele>2730</ele>
        <time>2010-07-01T12:42:38Z</time>
      </trkpt>
      <trkpt lat="42.44194" lon="2.13895">
        <ele>2729</ele>
        <time>2010-07-01T12:42:48Z</time>
      </trkpt>
      <trkpt lat="42.44199" lon="2.13886">
        <ele>2727</ele>
        <time>2010-07-01T12:42:58Z</time>
      </trkpt>
      <trkpt lat="42.44207" lon="2.13879">
        <ele>2726</ele>
        <time>2010-07-01T12:43:08Z</time>
      </trkpt>
      <trkpt lat="42.44214" lon="2.1387">
        <ele>2724</ele>
        <time>2010-07-01T12:43:18Z</time>
      </trkpt>
      <trkpt lat="42.44218" lon="2.13862">
        <ele>2723</ele>
        <time>2010-07-01T12:43:28Z</time>
      </trkpt>
      <trkpt lat="42.44226" lon="2.13854">
        <ele>2722</ele>
        <time>2010-07-01T12:43:38Z</time>
      </trkpt>
      <trkpt lat="42.44231" lon="2.13846">
        <ele>2721</ele>
        <time>2010-07-01T12:43:48Z</time>
      </trkpt>
      <trkpt lat="42.44238" lon="2.13838">
        <ele>2719</ele>
        <time>2010-07-01T12:43:58Z</time>
      </trkpt>
      <trkpt lat="42.44245" lon="2.13833">
        <ele>2718</ele>
        <time>2010-07-01T12:44:08Z</time>
      </trkpt>
      <trkpt lat="42.44253" lon="2.13828">
        <ele>2717</ele>
        <time>2010-07-01T12:44:18Z</time>
      </trkpt>
      <trkpt lat="42.44258" lon="2.13822">
        <ele>2717</ele>
        <time>2010-07-01T12:44:28Z</time>
      </trkpt>
      <trkpt lat="42.44266" lon="2.13814">
        <ele>2716</ele>
        <time>2010-07-01T12:44:38Z</time>
      </trkpt>
      <trkpt lat="42.44272" lon="2.13809">
        <ele>2716</ele>
        <time>2010-07-01T12:44:48Z</time>
      </trkpt>
      <trkpt lat="42.44278" lon="2.13803">
        <ele>2715</ele>
        <time>2010-07-01T12:44:58Z</time>
      </trkpt>
      <trkpt lat="42.44288" lon="2.13797">
        <ele>2714</ele>
        <time>2010-07-01T12:45:08Z</time>
      </trkpt>
      <trkpt lat="42.44297" lon="2.13795">
        <ele>2714</ele>
        <time>2010-07-01T12:45:18Z</time>
      </trkpt>
      <trkpt lat="42.44307" lon="2.13794">
        <ele>2714</ele>
        <time>2010-07-01T12:45:28Z</time>
      </trkpt>
      <trkpt lat="42.44317" lon="2.13797">
        <ele>2713</ele>
        <time>2010-07-01T12:45:38Z</time>
      </trkpt>
      <trkpt lat="42.44325" lon="2.13798">
        <ele>2713</ele>
        <time>2010-07-01T12:45:48Z</time>
      </trkpt>
      <trkpt lat="42.44334" lon="2.13799">
        <ele>2712</ele>
        <time>2010-07-01T12:45:58Z</time>
      </trkpt>
      <trkpt lat="42.44343" lon="2.13796">
        <ele>2711</ele>
        <time>2010-07-01T12:46:08Z</time>
      </trkpt>
      <trkpt lat="42.44352" lon="2.13792">
        <ele>2709</ele>
        <time>2010-07-01T12:46:18Z</time>
      </trkpt>
      <trkpt lat="42.4436" lon="2.13788">
        <ele>2708</ele>
        <time>2010-07-01T12:46:28Z</time>
      </trkpt>
      <trkpt lat="42.44369" lon="2.13786">
        <ele>2707</ele>
        <time>2010-07-01T12:46:38Z</time>
      </trkpt>
      <trkpt lat="42.44377" lon="2.13782">
        <ele>2705</ele>
        <time>2010-07-01T12:46:48Z</time>
      </trkpt>
      <trkpt lat="42.44386" lon="2.13775">
        <ele>2703</ele>
        <time>2010-07-01T12:46:58Z</time>
      </trkpt>
      <trkpt lat="42.44393" lon="2.13766">
        <ele>2701</ele>
        <time>2010-07-01T12:47:08Z</time>
      </trkpt>
      <trkpt lat="42.44398" lon="2.13757">
        <ele>2700</ele>
        <time>2010-07-01T12:47:18Z</time>
      </trkpt>
      <trkpt lat="42.44402" lon="2.13745">
        <ele>2698</ele>
        <time>2010-07-01T12:47:28Z</time>
      </trkpt>
      <trkpt lat="42.44405" lon="2.13732">
        <ele>2697</ele>
        <time>2010-07-01T12:47:38Z</time>
      </trkpt>
      <trkpt lat="42.44409" lon="2.13717">
        <ele>2696</ele>
        <time>2010-07-01T12:47:48Z</time>
      </trkpt>
      <trkpt lat="42.44412" lon="2.13703">
        <ele>2695</ele>
        <time>2010-07-01T12:47:58Z</time>
      </trkpt>
      <trkpt lat="42.44417" lon="2.1369">
        <ele>2693</ele>
        <time>2010-07-01T12:48:08Z</time>
      </trkpt>
      <trkpt lat="42.4442" lon="2.13679">
        <ele>2693</ele>
        <time>2010-07-01T12:48:18Z</time>
      </trkpt>
      <trkpt lat="42.44425" lon="2.1367">
        <ele>2692</ele>
        <time>2010-07-01T12:48:28Z</time>
      </trkpt>
      <trkpt lat="42.4443" lon="2.13662">
        <ele>2691</ele>
        <time>2010-07-01T12:48:38Z</time>
      </trkpt>
      <trkpt lat="42.44433" lon="2.13653">
        <ele>2690</ele>
        <time>2010-07-01T12:48:48Z</time>
      </trkpt>
      <trkpt lat="42.44439" lon="2.13643">
        <ele>2688</ele>
        <time>2010-07-01T12:48:58Z</time>
      </trkpt>
      <trkpt lat="42.44443" lon="2.13632">
        <ele>2687</ele>
        <time>2010-07-01T12:49:08Z</time>
      </trkpt>
      <trkpt lat="42.44449" lon="2.1362">
        <ele>2687</ele>
        <time>2010-07-01T12:49:18Z</time>
      </trkpt>
      <trkpt lat="42.44452" lon="2.13618">
        <ele>2688</ele>
        <time>2010-07-01T12:49:28Z</time>
      </trkpt>
      <trkpt lat="42.44452" lon="2.13618">
        <ele>2688</ele>
        <time>2010-07-01T12:49:38Z</time>
      </trkpt>
      <trkpt lat="42.44452" lon="2.13618">
        <ele>2688</ele>
        <time>2010-07-01T12:49:48Z</time>
      </trkpt>
      <trkpt lat="42.44452" lon="2.13618">
        <ele>2688</ele>
        <time>2010-07-01T12:49:58Z</time>
      </trkpt>
      <trkpt lat="42.44451" lon="2.13618">
        <ele>2688</ele>
        <time>2010-07-01T12:50:08Z</time>
      </trkpt>
      <trkpt lat="42.44451" lon="2.13618">
        <ele>2688</ele>
        <time>2010-07-01T12:50:18Z</time>
      </trkpt>
      <trkpt lat="42.44451" lon="2.13618">
        <ele>2688</ele>
        <time>2010-07-01T12:50:28Z</time>
      </trkpt>
      <trkpt lat="42.44452" lon="2.13618">
        <ele>2688</ele>
        <time>2010-07-01T12:50:38Z</time>
      </trkpt>
      <trkpt lat="42.4445" lon="2.13619">
        <ele>2688</ele>
        <time>2010-07-01T12:50:48Z</time>
      </trkpt>
      <trkpt lat="42.44448" lon="2.13613">
        <ele>2687</ele>
        <time>2010-07-01T12:50:58Z</time>
      </trkpt>
      <trkpt lat="42.44448" lon="2.13603">
        <ele>2685</ele>
        <time>2010-07-01T12:51:08Z</time>
      </trkpt>
      <trkpt lat="42.44449" lon="2.13594">
        <ele>2684</ele>
        <time>2010-07-01T12:51:18Z</time>
      </trkpt>
      <trkpt lat="42.44455" lon="2.13583">
        <ele>2682</ele>
        <time>2010-07-01T12:51:28Z</time>
      </trkpt>
      <trkpt lat="42.44459" lon="2.1357">
        <ele>2680</ele>
        <time>2010-07-01T12:51:38Z</time>
      </trkpt>
      <trkpt lat="42.44463" lon="2.1356">
        <ele>2679</ele>
        <time>2010-07-01T12:51:48Z</time>
      </trkpt>
      <trkpt lat="42.44467" lon="2.13549">
        <ele>2678</ele>
        <time>2010-07-01T12:51:58Z</time>
      </trkpt>
      <trkpt lat="42.44472" lon="2.13539">
        <ele>2676</ele>
        <time>2010-07-01T12:52:08Z</time>
      </trkpt>
      <trkpt lat="42.44475" lon="2.13531">
        <ele>2676</ele>
        <time>2010-07-01T12:52:18Z</time>
      </trkpt>
      <trkpt lat="42.44481" lon="2.13521">
        <ele>2675</ele>
        <time>2010-07-01T12:52:28Z</time>
      </trkpt>
      <trkpt lat="42.44486" lon="2.13513">
        <ele>2674</ele>
        <time>2010-07-01T12:52:38Z</time>
      </trkpt>
      <trkpt lat="42.44491" lon="2.13505">
        <ele>2673</ele>
        <time>2010-07-01T12:52:48Z</time>
      </trkpt>
      <trkpt lat="42.44499" lon="2.13495">
        <ele>2672</ele>
        <time>2010-07-01T12:52:58Z</time>
      </trkpt>
      <trkpt lat="42.44507" lon="2.13487">
        <ele>2672</ele>
        <time>2010-07-01T12:53:08Z</time>
      </trkpt>
      <trkpt lat="42.44516" lon="2.13479">
        <ele>2671</ele>
        <time>2010-07-01T12:53:18Z</time>
      </trkpt>
      <trkpt lat="42.44524" lon="2.13472">
        <ele>2670</ele>
        <time>2010-07-01T12:53:28Z</time>
      </trkpt>
      <trkpt lat="42.44525" lon="2.13471">
        <ele>2670</ele>
        <time>2010-07-01T12:53:38Z</time>
      </trkpt>
      <trkpt lat="42.44528" lon="2.1347">
        <ele>2670</ele>
        <time>2010-07-01T12:53:48Z</time>
      </trkpt>
      <trkpt lat="42.44534" lon="2.13465">
        <ele>2669</ele>
        <time>2010-07-01T12:53:58Z</time>
      </trkpt>
      <trkpt lat="42.4454" lon="2.1346">
        <ele>2669</ele>
        <time>2010-07-01T12:54:08Z</time>
      </trkpt>
      <trkpt lat="42.44547" lon="2.13452">
        <ele>2668</ele>
        <time>2010-07-01T12:54:18Z</time>
      </trkpt>
      <trkpt lat="42.44553" lon="2.13446">
        <ele>2668</ele>
        <time>2010-07-01T12:54:28Z</time>
      </trkpt>
      <trkpt lat="42.44559" lon="2.13438">
        <ele>2668</ele>
        <time>2010-07-01T12:54:38Z</time>
      </trkpt>
      <trkpt lat="42.44566" lon="2.13429">
        <ele>2668</ele>
        <time>2010-07-01T12:54:48Z</time>
      </trkpt>
      <trkpt lat="42.44574" lon="2.13421">
        <ele>2668</ele>
        <time>2010-07-01T12:54:58Z</time>
      </trkpt>
      <trkpt lat="42.44581" lon="2.13414">
        <ele>2668</ele>
        <time>2010-07-01T12:55:08Z</time>
      </trkpt>
      <trkpt lat="42.44589" lon="2.13411">
        <ele>2669</ele>
        <time>2010-07-01T12:55:18Z</time>
      </trkpt>
      <trkpt lat="42.44594" lon="2.13407">
        <ele>2669</ele>
        <time>2010-07-01T12:55:28Z</time>
      </trkpt>
      <trkpt lat="42.44601" lon="2.13403">
        <ele>2670</ele>
        <time>2010-07-01T12:55:38Z</time>
      </trkpt>
      <trkpt lat="42.44608" lon="2.134">
        <ele>2671</ele>
        <time>2010-07-01T12:55:48Z</time>
      </trkpt>
      <trkpt lat="42.44616" lon="2.13399">
        <ele>2671</ele>
        <time>2010-07-01T12:55:58Z</time>
      </trkpt>
      <trkpt lat="42.44624" lon="2.13396">
        <ele>2671</ele>
        <time>2010-07-01T12:56:08Z</time>
      </trkpt>
      <trkpt lat="42.44632" lon="2.13395">
        <ele>2670</ele>
        <time>2010-07-01T12:56:18Z</time>
      </trkpt>
      <trkpt lat="42.44639" lon="2.13391">
        <ele>2670</ele>
        <time>2010-07-01T12:56:28Z</time>
      </trkpt>
      <trkpt lat="42.44646" lon="2.13386">
        <ele>2670</ele>
        <time>2010-07-01T12:56:38Z</time>
      </trkpt>
      <trkpt lat="42.44653" lon="2.13381">
        <ele>2671</ele>
        <time>2010-07-01T12:56:48Z</time>
      </trkpt>
      <trkpt lat="42.4466" lon="2.13378">
        <ele>2672</ele>
        <time>2010-07-01T12:56:58Z</time>
      </trkpt>
      <trkpt lat="42.44666" lon="2.13373">
        <ele>2673</ele>
        <time>2010-07-01T12:57:08Z</time>
      </trkpt>
      <trkpt lat="42.44671" lon="2.13368">
        <ele>2675</ele>
        <time>2010-07-01T12:57:18Z</time>
      </trkpt>
      <trkpt lat="42.44672" lon="2.13361">
        <ele>2676</ele>
        <time>2010-07-01T12:57:28Z</time>
      </trkpt>
      <trkpt lat="42.44675" lon="2.13359">
        <ele>2675</ele>
        <time>2010-07-01T12:57:38Z</time>
      </trkpt>
      <trkpt lat="42.44682" lon="2.13359">
        <ele>2673</ele>
        <time>2010-07-01T12:57:48Z</time>
      </trkpt>
      <trkpt lat="42.4469" lon="2.13356">
        <ele>2671</ele>
        <time>2010-07-01T12:57:58Z</time>
      </trkpt>
      <trkpt lat="42.44697" lon="2.13354">
        <ele>2669</ele>
        <time>2010-07-01T12:58:08Z</time>
      </trkpt>
      <trkpt lat="42.44703" lon="2.13351">
        <ele>2667</ele>
        <time>2010-07-01T12:58:18Z</time>
      </trkpt>
      <trkpt lat="42.44708" lon="2.13346">
        <ele>2667</ele>
        <time>2010-07-01T12:58:28Z</time>
      </trkpt>
      <trkpt lat="42.44713" lon="2.13339">
        <ele>2669</ele>
        <time>2010-07-01T12:58:38Z</time>
      </trkpt>
      <trkpt lat="42.44719" lon="2.13331">
        <ele>2671</ele>
        <time>2010-07-01T12:58:48Z</time>
      </trkpt>
      <trkpt lat="42.44726" lon="2.13323">
        <ele>2673</ele>
        <time>2010-07-01T12:58:58Z</time>
      </trkpt>
      <trkpt lat="42.44733" lon="2.1332">
        <ele>2674</ele>
        <time>2010-07-01T12:59:08Z</time>
      </trkpt>
      <trkpt lat="42.44742" lon="2.13318">
        <ele>2674</ele>
        <time>2010-07-01T12:59:18Z</time>
      </trkpt>
      <trkpt lat="42.44748" lon="2.13317">
        <ele>2672</ele>
        <time>2010-07-01T12:59:28Z</time>
      </trkpt>
      <trkpt lat="42.44753" lon="2.13313">
        <ele>2671</ele>
        <time>2010-07-01T12:59:38Z</time>
      </trkpt>
      <trkpt lat="42.4476" lon="2.13308">
        <ele>2669</ele>
        <time>2010-07-01T12:59:48Z</time>
      </trkpt>
      <trkpt lat="42.44768" lon="2.13306">
        <ele>2666</ele>
        <time>2010-07-01T12:59:58Z</time>
      </trkpt>
      <trkpt lat="42.44775" lon="2.13303">
        <ele>2665</ele>
        <time>2010-07-01T13:00:08Z</time>
      </trkpt>
      <trkpt lat="42.44781" lon="2.13299">
        <ele>2666</ele>
        <time>2010-07-01T13:00:18Z</time>
      </trkpt>
      <trkpt lat="42.44783" lon="2.13301">
        <ele>2666</ele>
        <time>2010-07-01T13:00:28Z</time>
      </trkpt>
      <trkpt lat="42.44786" lon="2.13301">
        <ele>2666</ele>
        <time>2010-07-01T13:00:38Z</time>
      </trkpt>
      <trkpt lat="42.44791" lon="2.133">
        <ele>2666</ele>
        <time>2010-07-01T13:00:48Z</time>
      </trkpt>
      <trkpt lat="42.44793" lon="2.13303">
        <ele>2666</ele>
        <time>2010-07-01T13:00:58Z</time>
      </trkpt>
      <trkpt lat="42.44796" lon="2.13303">
        <ele>2666</ele>
        <time>2010-07-01T13:01:08Z</time>
      </trkpt>
      <trkpt lat="42.44803" lon="2.13302">
        <ele>2666</ele>
        <time>2010-07-01T13:01:18Z</time>
      </trkpt>
      <trkpt lat="42.44809" lon="2.133">
        <ele>2667</ele>
        <time>2010-07-01T13:01:28Z</time>
      </trkpt>
      <trkpt lat="42.44815" lon="2.13296">
        <ele>2667</ele>
        <time>2010-07-01T13:01:38Z</time>
      </trkpt>
      <trkpt lat="42.44822" lon="2.13296">
        <ele>2668</ele>
        <time>2010-07-01T13:01:48Z</time>
      </trkpt>
      <trkpt lat="42.44827" lon="2.13295">
        <ele>2668</ele>
        <time>2010-07-01T13:01:58Z</time>
      </trkpt>
      <trkpt lat="42.44832" lon="2.13292">
        <ele>2669</ele>
        <time>2010-07-01T13:02:08Z</time>
      </trkpt>
      <trkpt lat="42.44838" lon="2.13291">
        <ele>2670</ele>
        <time>2010-07-01T13:02:18Z</time>
      </trkpt>
      <trkpt lat="42.44843" lon="2.13289">
        <ele>2670</ele>
        <time>2010-07-01T13:02:28Z</time>
      </trkpt>
      <trkpt lat="42.44847" lon="2.13288">
        <ele>2670</ele>
        <time>2010-07-01T13:02:38Z</time>
      </trkpt>
      <trkpt lat="42.44849" lon="2.1329">
        <ele>2670</ele>
        <time>2010-07-01T13:02:48Z</time>
      </trkpt>
      <trkpt lat="42.44851" lon="2.13287">
        <ele>2670</ele>
        <time>2010-07-01T13:02:58Z</time>
      </trkpt>
      <trkpt lat="42.4485" lon="2.13286">
        <ele>2670</ele>
        <time>2010-07-01T13:03:08Z</time>
      </trkpt>
      <trkpt lat="42.44849" lon="2.13288">
        <ele>2670</ele>
        <time>2010-07-01T13:03:18Z</time>
      </trkpt>
      <trkpt lat="42.44848" lon="2.13291">
        <ele>2670</ele>
        <time>2010-07-01T13:03:28Z</time>
      </trkpt>
      <trkpt lat="42.44847" lon="2.13295">
        <ele>2672</ele>
        <time>2010-07-01T13:03:38Z</time>
      </trkpt>
      <trkpt lat="42.44847" lon="2.13294">
        <ele>2672</ele>
        <time>2010-07-01T13:03:48Z</time>
      </trkpt>
      <trkpt lat="42.44849" lon="2.13291">
        <ele>2673</ele>
        <time>2010-07-01T13:03:58Z</time>
      </trkpt>
      <trkpt lat="42.44851" lon="2.13286">
        <ele>2676</ele>
        <time>2010-07-01T13:04:08Z</time>
      </trkpt>
      <trkpt lat="42.44851" lon="2.13285">
        <ele>2676</ele>
        <time>2010-07-01T13:04:18Z</time>
      </trkpt>
      <trkpt lat="42.44851" lon="2.13286">
        <ele>2676</ele>
        <time>2010-07-01T13:04:28Z</time>
      </trkpt>
      <trkpt lat="42.44851" lon="2.13285">
        <ele>2675</ele>
        <time>2010-07-01T13:04:38Z</time>
      </trkpt>
      <trkpt lat="42.44851" lon="2.13284">
        <ele>2675</ele>
        <time>2010-07-01T13:04:48Z</time>
      </trkpt>
      <trkpt lat="42.44851" lon="2.13285">
        <ele>2675</ele>
        <time>2010-07-01T13:04:58Z</time>
      </trkpt>
      <trkpt lat="42.44852" lon="2.13284">
        <ele>2675</ele>
        <time>2010-07-01T13:05:08Z</time>
      </trkpt>
      <trkpt lat="42.44853" lon="2.13285">
        <ele>2675</ele>
        <time>2010-07-01T13:05:18Z</time>
      </trkpt>
      <trkpt lat="42.44853" lon="2.13285">
        <ele>2675</ele>
        <time>2010-07-01T13:05:28Z</time>
      </trkpt>
      <trkpt lat="42.44854" lon="2.13288">
        <ele>2675</ele>
        <time>2010-07-01T13:05:38Z</time>
      </trkpt>
      <trkpt lat="42.44857" lon="2.1329">
        <ele>2675</ele>
        <time>2010-07-01T13:05:48Z</time>
      </trkpt>
      <trkpt lat="42.44861" lon="2.13288">
        <ele>2675</ele>
        <time>2010-07-01T13:05:58Z</time>
      </trkpt>
      <trkpt lat="42.44864" lon="2.1329">
        <ele>2676</ele>
        <time>2010-07-01T13:06:08Z</time>
      </trkpt>
      <trkpt lat="42.44867" lon="2.13291">
        <ele>2677</ele>
        <time>2010-07-01T13:06:18Z</time>
      </trkpt>
      <trkpt lat="42.44869" lon="2.13293">
        <ele>2678</ele>
        <time>2010-07-01T13:06:28Z</time>
      </trkpt>
      <trkpt lat="42.44874" lon="2.13293">
        <ele>2680</ele>
        <time>2010-07-01T13:06:38Z</time>
      </trkpt>
      <trkpt lat="42.44878" lon="2.13292">
        <ele>2681</ele>
        <time>2010-07-01T13:06:48Z</time>
      </trkpt>
      <trkpt lat="42.44884" lon="2.13288">
        <ele>2682</ele>
        <time>2010-07-01T13:06:58Z</time>
      </trkpt>
      <trkpt lat="42.44889" lon="2.13282">
        <ele>2683</ele>
        <time>2010-07-01T13:07:08Z</time>
      </trkpt>
      <trkpt lat="42.44895" lon="2.13278">
        <ele>2685</ele>
        <time>2010-07-01T13:07:18Z</time>
      </trkpt>
      <trkpt lat="42.44901" lon="2.13274">
        <ele>2686</ele>
        <time>2010-07-01T13:07:28Z</time>
      </trkpt>
      <trkpt lat="42.44905" lon="2.13271">
        <ele>2687</ele>
        <time>2010-07-01T13:07:38Z</time>
      </trkpt>
      <trkpt lat="42.4491" lon="2.13268">
        <ele>2689</ele>
        <time>2010-07-01T13:07:48Z</time>
      </trkpt>
      <trkpt lat="42.44915" lon="2.13264">
        <ele>2691</ele>
        <time>2010-07-01T13:07:58Z</time>
      </trkpt>
      <trkpt lat="42.44919" lon="2.13258">
        <ele>2692</ele>
        <time>2010-07-01T13:08:08Z</time>
      </trkpt>
      <trkpt lat="42.44926" lon="2.13255">
        <ele>2695</ele>
        <time>2010-07-01T13:08:18Z</time>
      </trkpt>
      <trkpt lat="42.44929" lon="2.13253">
        <ele>2696</ele>
        <time>2010-07-01T13:08:28Z</time>
      </trkpt>
      <trkpt lat="42.44933" lon="2.1325">
        <ele>2697</ele>
        <time>2010-07-01T13:08:38Z</time>
      </trkpt>
      <trkpt lat="42.44939" lon="2.13251">
        <ele>2699</ele>
        <time>2010-07-01T13:08:48Z</time>
      </trkpt>
      <trkpt lat="42.4494" lon="2.13252">
        <ele>2700</ele>
        <time>2010-07-01T13:08:58Z</time>
      </trkpt>
      <trkpt lat="42.44943" lon="2.13247">
        <ele>2701</ele>
        <time>2010-07-01T13:09:08Z</time>
      </trkpt>
      <trkpt lat="42.44947" lon="2.13244">
        <ele>2702</ele>
        <time>2010-07-01T13:09:18Z</time>
      </trkpt>
      <trkpt lat="42.44951" lon="2.13238">
        <ele>2703</ele>
        <time>2010-07-01T13:09:28Z</time>
      </trkpt>
      <trkpt lat="42.44955" lon="2.13234">
        <ele>2705</ele>
        <time>2010-07-01T13:09:38Z</time>
      </trkpt>
      <trkpt lat="42.44958" lon="2.13229">
        <ele>2705</ele>
        <time>2010-07-01T13:09:48Z</time>
      </trkpt>
      <trkpt lat="42.44962" lon="2.13224">
        <ele>2707</ele>
        <time>2010-07-01T13:09:58Z</time>
      </trkpt>
      <trkpt lat="42.44967" lon="2.13221">
        <ele>2708</ele>
        <time>2010-07-01T13:10:08Z</time>
      </trkpt>
      <trkpt lat="42.44971" lon="2.13217">
        <ele>2709</ele>
        <time>2010-07-01T13:10:18Z</time>
      </trkpt>
      <trkpt lat="42.44976" lon="2.13214">
        <ele>2711</ele>
        <time>2010-07-01T13:10:28Z</time>
      </trkpt>
      <trkpt lat="42.4498" lon="2.13211">
        <ele>2712</ele>
        <time>2010-07-01T13:10:38Z</time>
      </trkpt>
      <trkpt lat="42.44983" lon="2.13209">
        <ele>2713</ele>
        <time>2010-07-01T13:10:48Z</time>
      </trkpt>
      <trkpt lat="42.44987" lon="2.13206">
        <ele>2714</ele>
        <time>2010-07-01T13:10:58Z</time>
      </trkpt>
      <trkpt lat="42.44991" lon="2.132">
        <ele>2714</ele>
        <time>2010-07-01T13:11:08Z</time>
      </trkpt>
      <trkpt lat="42.44996" lon="2.13195">
        <ele>2715</ele>
        <time>2010-07-01T13:11:18Z</time>
      </trkpt>
      <trkpt lat="42.45001" lon="2.13193">
        <ele>2716</ele>
        <time>2010-07-01T13:11:28Z</time>
      </trkpt>
      <trkpt lat="42.45005" lon="2.13192">
        <ele>2717</ele>
        <time>2010-07-01T13:11:38Z</time>
      </trkpt>
      <trkpt lat="42.45009" lon="2.13187">
        <ele>2718</ele>
        <time>2010-07-01T13:11:48Z</time>
      </trkpt>
      <trkpt lat="42.45015" lon="2.13181">
        <ele>2718</ele>
        <time>2010-07-01T13:11:58Z</time>
      </trkpt>
      <trkpt lat="42.45021" lon="2.13177">
        <ele>2719</ele>
        <time>2010-07-01T13:12:08Z</time>
      </trkpt>
      <trkpt lat="42.45026" lon="2.13174">
        <ele>2720</ele>
        <time>2010-07-01T13:12:18Z</time>
      </trkpt>
      <trkpt lat="42.45029" lon="2.13172">
        <ele>2720</ele>
        <time>2010-07-01T13:12:28Z</time>
      </trkpt>
      <trkpt lat="42.45032" lon="2.1317">
        <ele>2721</ele>
        <time>2010-07-01T13:12:38Z</time>
      </trkpt>
      <trkpt lat="42.45035" lon="2.13167">
        <ele>2722</ele>
        <time>2010-07-01T13:12:48Z</time>
      </trkpt>
      <trkpt lat="42.45039" lon="2.13165">
        <ele>2723</ele>
        <time>2010-07-01T13:12:58Z</time>
      </trkpt>
      <trkpt lat="42.45043" lon="2.13163">
        <ele>2724</ele>
        <time>2010-07-01T13:13:08Z</time>
      </trkpt>
      <trkpt lat="42.45045" lon="2.1316">
        <ele>2724</ele>
        <time>2010-07-01T13:13:18Z</time>
      </trkpt>
      <trkpt lat="42.45049" lon="2.13158">
        <ele>2725</ele>
        <time>2010-07-01T13:13:28Z</time>
      </trkpt>
      <trkpt lat="42.45051" lon="2.13155">
        <ele>2726</ele>
        <time>2010-07-01T13:13:38Z</time>
      </trkpt>
      <trkpt lat="42.45053" lon="2.1315">
        <ele>2727</ele>
        <time>2010-07-01T13:13:48Z</time>
      </trkpt>
      <trkpt lat="42.45055" lon="2.13144">
        <ele>2728</ele>
        <time>2010-07-01T13:13:58Z</time>
      </trkpt>
      <trkpt lat="42.45058" lon="2.13138">
        <ele>2730</ele>
        <time>2010-07-01T13:14:08Z</time>
      </trkpt>
      <trkpt lat="42.4506" lon="2.13133">
        <ele>2730</ele>
        <time>2010-07-01T13:14:18Z</time>
      </trkpt>
      <trkpt lat="42.45064" lon="2.13123">
        <ele>2731</ele>
        <time>2010-07-01T13:14:28Z</time>
      </trkpt>
      <trkpt lat="42.45065" lon="2.13116">
        <ele>2731</ele>
        <time>2010-07-01T13:14:38Z</time>
      </trkpt>
      <trkpt lat="42.45069" lon="2.13109">
        <ele>2732</ele>
        <time>2010-07-01T13:14:48Z</time>
      </trkpt>
      <trkpt lat="42.45071" lon="2.13101">
        <ele>2732</ele>
        <time>2010-07-01T13:14:58Z</time>
      </trkpt>
      <trkpt lat="42.45076" lon="2.13091">
        <ele>2733</ele>
        <time>2010-07-01T13:15:08Z</time>
      </trkpt>
      <trkpt lat="42.4508" lon="2.13083">
        <ele>2733</ele>
        <time>2010-07-01T13:15:18Z</time>
      </trkpt>
      <trkpt lat="42.45083" lon="2.13078">
        <ele>2732</ele>
        <time>2010-07-01T13:15:28Z</time>
      </trkpt>
      <trkpt lat="42.45087" lon="2.13071">
        <ele>2732</ele>
        <time>2010-07-01T13:15:38Z</time>
      </trkpt>
      <trkpt lat="42.45092" lon="2.13068">
        <ele>2732</ele>
        <time>2010-07-01T13:15:48Z</time>
      </trkpt>
      <trkpt lat="42.45091" lon="2.13061">
        <ele>2731</ele>
        <time>2010-07-01T13:15:58Z</time>
      </trkpt>
      <trkpt lat="42.45094" lon="2.13058">
        <ele>2729</ele>
        <time>2010-07-01T13:16:08Z</time>
      </trkpt>
      <trkpt lat="42.45094" lon="2.1306">
        <ele>2728</ele>
        <time>2010-07-01T13:16:18Z</time>
      </trkpt>
      <trkpt lat="42.45094" lon="2.13063">
        <ele>2727</ele>
        <time>2010-07-01T13:16:28Z</time>
      </trkpt>
      <trkpt lat="42.45094" lon="2.13062">
        <ele>2726</ele>
        <time>2010-07-01T13:16:38Z</time>
      </trkpt>
      <trkpt lat="42.45094" lon="2.13063">
        <ele>2726</ele>
        <time>2010-07-01T13:16:48Z</time>
      </trkpt>
      <trkpt lat="42.45094" lon="2.13063">
        <ele>2726</ele>
        <time>2010-07-01T13:16:58Z</time>
      </trkpt>
      <trkpt lat="42.45094" lon="2.13062">
        <ele>2726</ele>
        <time>2010-07-01T13:17:08Z</time>
      </trkpt>
      <trkpt lat="42.45091" lon="2.1306">
        <ele>2726</ele>
        <time>2010-07-01T13:17:18Z</time>
      </trkpt>
      <trkpt lat="42.45089" lon="2.13058">
        <ele>2726</ele>
        <time>2010-07-01T13:17:28Z</time>
      </trkpt>
      <trkpt lat="42.45089" lon="2.13054">
        <ele>2726</ele>
        <time>2010-07-01T13:17:38Z</time>
      </trkpt>
      <trkpt lat="42.4509" lon="2.13046">
        <ele>2726</ele>
        <time>2010-07-01T13:17:48Z</time>
      </trkpt>
      <trkpt lat="42.45095" lon="2.13036">
        <ele>2726</ele>
        <time>2010-07-01T13:17:58Z</time>
      </trkpt>
      <trkpt lat="42.451" lon="2.13025">
        <ele>2727</ele>
        <time>2010-07-01T13:18:08Z</time>
      </trkpt>
      <trkpt lat="42.45105" lon="2.13015">
        <ele>2727</ele>
        <time>2010-07-01T13:18:18Z</time>
      </trkpt>
      <trkpt lat="42.4511" lon="2.13005">
        <ele>2728</ele>
        <time>2010-07-01T13:18:28Z</time>
      </trkpt>
      <trkpt lat="42.45115" lon="2.12995">
        <ele>2728</ele>
        <time>2010-07-01T13:18:38Z</time>
      </trkpt>
      <trkpt lat="42.45118" lon="2.12983">
        <ele>2729</ele>
        <time>2010-07-01T13:18:48Z</time>
      </trkpt>
      <trkpt lat="42.45121" lon="2.12971">
        <ele>2730</ele>
        <time>2010-07-01T13:18:58Z</time>
      </trkpt>
      <trkpt lat="42.45125" lon="2.12962">
        <ele>2730</ele>
        <time>2010-07-01T13:19:08Z</time>
      </trkpt>
      <trkpt lat="42.45129" lon="2.12952">
        <ele>2730</ele>
        <time>2010-07-01T13:19:18Z</time>
      </trkpt>
      <trkpt lat="42.45132" lon="2.12942">
        <ele>2730</ele>
        <time>2010-07-01T13:19:28Z</time>
      </trkpt>
      <trkpt lat="42.45134" lon="2.12931">
        <ele>2729</ele>
        <time>2010-07-01T13:19:38Z</time>
      </trkpt>
      <trkpt lat="42.45137" lon="2.12921">
        <ele>2729</ele>
        <time>2010-07-01T13:19:48Z</time>
      </trkpt>
      <trkpt lat="42.4514" lon="2.12911">
        <ele>2728</ele>
        <time>2010-07-01T13:19:58Z</time>
      </trkpt>
      <trkpt lat="42.4514" lon="2.12912">
        <ele>2728</ele>
        <time>2010-07-01T13:20:08Z</time>
      </trkpt>
      <trkpt lat="42.45139" lon="2.12912">
        <ele>2727</ele>
        <time>2010-07-01T13:20:18Z</time>
      </trkpt>
      <trkpt lat="42.45139" lon="2.12912">
        <ele>2726</ele>
        <time>2010-07-01T13:20:28Z</time>
      </trkpt>
      <trkpt lat="42.45138" lon="2.12912">
        <ele>2725</ele>
        <time>2010-07-01T13:20:38Z</time>
      </trkpt>
      <trkpt lat="42.45137" lon="2.12911">
        <ele>2724</ele>
        <time>2010-07-01T13:20:48Z</time>
      </trkpt>
      <trkpt lat="42.45137" lon="2.12908">
        <ele>2723</ele>
        <time>2010-07-01T13:20:58Z</time>
      </trkpt>
      <trkpt lat="42.45137" lon="2.12907">
        <ele>2722</ele>
        <time>2010-07-01T13:21:08Z</time>
      </trkpt>
      <trkpt lat="42.45137" lon="2.12902">
        <ele>2722</ele>
        <time>2010-07-01T13:21:18Z</time>
      </trkpt>
      <trkpt lat="42.45139" lon="2.12893">
        <ele>2722</ele>
        <time>2010-07-01T13:21:28Z</time>
      </trkpt>
      <trkpt lat="42.45141" lon="2.12888">
        <ele>2721</ele>
        <time>2010-07-01T13:21:38Z</time>
      </trkpt>
      <trkpt lat="42.45143" lon="2.12878">
        <ele>2720</ele>
        <time>2010-07-01T13:21:48Z</time>
      </trkpt>
      <trkpt lat="42.45147" lon="2.12866">
        <ele>2719</ele>
        <time>2010-07-01T13:21:58Z</time>
      </trkpt>
      <trkpt lat="42.45147" lon="2.1286">
        <ele>2718</ele>
        <time>2010-07-01T13:22:08Z</time>
      </trkpt>
      <trkpt lat="42.45147" lon="2.12854">
        <ele>2717</ele>
        <time>2010-07-01T13:22:18Z</time>
      </trkpt>
      <trkpt lat="42.45149" lon="2.12849">
        <ele>2717</ele>
        <time>2010-07-01T13:22:28Z</time>
      </trkpt>
      <trkpt lat="42.45152" lon="2.12843">
        <ele>2715</ele>
        <time>2010-07-01T13:22:38Z</time>
      </trkpt>
      <trkpt lat="42.45156" lon="2.12835">
        <ele>2712</ele>
        <time>2010-07-01T13:22:48Z</time>
      </trkpt>
      <trkpt lat="42.45158" lon="2.1283">
        <ele>2710</ele>
        <time>2010-07-01T13:22:58Z</time>
      </trkpt>
      <trkpt lat="42.45159" lon="2.12824">
        <ele>2709</ele>
        <time>2010-07-01T13:23:08Z</time>
      </trkpt>
      <trkpt lat="42.45159" lon="2.12819">
        <ele>2707</ele>
        <time>2010-07-01T13:23:18Z</time>
      </trkpt>
      <trkpt lat="42.45157" lon="2.12816">
        <ele>2706</ele>
        <time>2010-07-01T13:23:28Z</time>
      </trkpt>
      <trkpt lat="42.45158" lon="2.12809">
        <ele>2703</ele>
        <time>2010-07-01T13:23:38Z</time>
      </trkpt>
      <trkpt lat="42.45161" lon="2.12804">
        <ele>2700</ele>
        <time>2010-07-01T13:23:48Z</time>
      </trkpt>
      <trkpt lat="42.45164" lon="2.12802">
        <ele>2698</ele>
        <time>2010-07-01T13:23:58Z</time>
      </trkpt>
      <trkpt lat="42.45164" lon="2.12802">
        <ele>2698</ele>
        <time>2010-07-01T13:24:08Z</time>
      </trkpt>
      <trkpt lat="42.45163" lon="2.12801">
        <ele>2698</ele>
        <time>2010-07-01T13:24:18Z</time>
      </trkpt>
      <trkpt lat="42.45165" lon="2.12797">
        <ele>2697</ele>
        <time>2010-07-01T13:24:28Z</time>
      </trkpt>
      <trkpt lat="42.45163" lon="2.12793">
        <ele>2696</ele>
        <time>2010-07-01T13:24:38Z</time>
      </trkpt>
      <trkpt lat="42.45164" lon="2.12786">
        <ele>2695</ele>
        <time>2010-07-01T13:24:48Z</time>
      </trkpt>
      <trkpt lat="42.45163" lon="2.12779">
        <ele>2694</ele>
        <time>2010-07-01T13:24:58Z</time>
      </trkpt>
      <trkpt lat="42.45164" lon="2.12771">
        <ele>2692</ele>
        <time>2010-07-01T13:25:08Z</time>
      </trkpt>
      <trkpt lat="42.45162" lon="2.12767">
        <ele>2691</ele>
        <time>2010-07-01T13:25:18Z</time>
      </trkpt>
      <trkpt lat="42.45162" lon="2.1276">
        <ele>2690</ele>
        <time>2010-07-01T13:25:28Z</time>
      </trkpt>
      <trkpt lat="42.45159" lon="2.12757">
        <ele>2689</ele>
        <time>2010-07-01T13:25:38Z</time>
      </trkpt>
      <trkpt lat="42.45162" lon="2.12749">
        <ele>2687</ele>
        <time>2010-07-01T13:25:48Z</time>
      </trkpt>
      <trkpt lat="42.45163" lon="2.12737">
        <ele>2686</ele>
        <time>2010-07-01T13:25:58Z</time>
      </trkpt>
      <trkpt lat="42.45164" lon="2.12726">
        <ele>2686</ele>
        <time>2010-07-01T13:26:08Z</time>
      </trkpt>
      <trkpt lat="42.45165" lon="2.12718">
        <ele>2686</ele>
        <time>2010-07-01T13:26:18Z</time>
      </trkpt>
      <trkpt lat="42.45168" lon="2.12708">
        <ele>2687</ele>
        <time>2010-07-01T13:26:28Z</time>
      </trkpt>
      <trkpt lat="42.45171" lon="2.12696">
        <ele>2687</ele>
        <time>2010-07-01T13:26:38Z</time>
      </trkpt>
      <trkpt lat="42.45175" lon="2.12686">
        <ele>2688</ele>
        <time>2010-07-01T13:26:48Z</time>
      </trkpt>
      <trkpt lat="42.45179" lon="2.12675">
        <ele>2688</ele>
        <time>2010-07-01T13:26:58Z</time>
      </trkpt>
      <trkpt lat="42.45182" lon="2.12662">
        <ele>2689</ele>
        <time>2010-07-01T13:27:08Z</time>
      </trkpt>
      <trkpt lat="42.45186" lon="2.12652">
        <ele>2689</ele>
        <time>2010-07-01T13:27:18Z</time>
      </trkpt>
      <trkpt lat="42.4519" lon="2.12643">
        <ele>2690</ele>
        <time>2010-07-01T13:27:28Z</time>
      </trkpt>
      <trkpt lat="42.45191" lon="2.12633">
        <ele>2690</ele>
        <time>2010-07-01T13:27:38Z</time>
      </trkpt>
      <trkpt lat="42.45191" lon="2.12633">
        <ele>2690</ele>
        <time>2010-07-01T13:27:48Z</time>
      </trkpt>
      <trkpt lat="42.45191" lon="2.12633">
        <ele>2690</ele>
        <time>2010-07-01T13:27:58Z</time>
      </trkpt>
      <trkpt lat="42.45192" lon="2.12628">
        <ele>2689</ele>
        <time>2010-07-01T13:28:08Z</time>
      </trkpt>
      <trkpt lat="42.45257" lon="2.12445">
        <ele>2673</ele>
        <time>2010-07-01T13:30:04Z</time>
      </trkpt>
      <trkpt lat="42.45359" lon="2.12273">
        <ele>2655</ele>
        <time>2010-07-01T13:32:00Z</time>
      </trkpt>
      <trkpt lat="42.45449" lon="2.12154">
        <ele>2641</ele>
        <time>2010-07-01T13:33:56Z</time>
      </trkpt>
      <trkpt lat="42.45522" lon="2.12026">
        <ele>2628</ele>
        <time>2010-07-01T13:35:52Z</time>
      </trkpt>
      <trkpt lat="42.45599" lon="2.11906">
        <ele>2615</ele>
        <time>2010-07-01T13:37:48Z</time>
      </trkpt>
      <trkpt lat="42.45637" lon="2.11695">
        <ele>2597</ele>
        <time>2010-07-01T13:39:44Z</time>
      </trkpt>
      <trkpt lat="42.45676" lon="2.11526">
        <ele>2583</ele>
        <time>2010-07-01T13:41:40Z</time>
      </trkpt>
      <trkpt lat="42.45695" lon="2.11341">
        <ele>2568</ele>
        <time>2010-07-01T13:43:37Z</time>
      </trkpt>
      <trkpt lat="42.45866" lon="2.11317">
        <ele>2550</ele>
        <time>2010-07-01T13:45:33Z</time>
      </trkpt>
      <trkpt lat="42.45887" lon="2.11023">
        <ele>2528</ele>
        <time>2010-07-01T13:47:29Z</time>
      </trkpt>
      <trkpt lat="42.46007" lon="2.11072">
        <ele>2515</ele>
        <time>2010-07-01T13:49:25Z</time>
      </trkpt>
      <trkpt lat="42.46035" lon="2.10913">
        <ele>2498</ele>
        <time>2010-07-01T13:51:21Z</time>
      </trkpt>
      <trkpt lat="42.46035" lon="2.10747">
        <ele>2477</ele>
        <time>2010-07-01T13:53:17Z</time>
      </trkpt>
      <trkpt lat="42.46143" lon="2.10708">
        <ele>2458</ele>
        <time>2010-07-01T13:55:13Z</time>
      </trkpt>
      <trkpt lat="42.46145" lon="2.10645">
        <ele>2450</ele>
        <time>2010-07-01T13:57:09Z</time>
      </trkpt>
      <trkpt lat="42.46139" lon="2.10554">
        <ele>2438</ele>
        <time>2010-07-01T13:59:06Z</time>
      </trkpt>
      <trkpt lat="42.46166" lon="2.10489">
        <ele>2426</ele>
        <time>2010-07-01T14:01:02Z</time>
      </trkpt>
      <trkpt lat="42.46185" lon="2.10384">
        <ele>2405</ele>
        <time>2010-07-01T14:02:58Z</time>
      </trkpt>
      <trkpt lat="42.46228" lon="2.10358">
        <ele>2392</ele>
        <time>2010-07-01T14:04:54Z</time>
      </trkpt>
      <trkpt lat="42.46279" lon="2.10345">
        <ele>2378</ele>
        <time>2010-07-01T14:06:50Z</time>
      </trkpt>
      <trkpt lat="42.4632" lon="2.10361">
        <ele>2367</ele>
        <time>2010-07-01T14:08:46Z</time>
      </trkpt>
      <trkpt lat="42.46362" lon="2.10311">
        <ele>2351</ele>
        <time>2010-07-01T14:10:42Z</time>
      </trkpt>
      <trkpt lat="42.46404" lon="2.10259">
        <ele>2335</ele>
        <time>2010-07-01T14:12:38Z</time>
      </trkpt>
      <trkpt lat="42.46462" lon="2.10265">
        <ele>2319</ele>
        <time>2010-07-01T14:14:35Z</time>
      </trkpt>
      <trkpt lat="42.46508" lon="2.10322">
        <ele>2301</ele>
        <time>2010-07-01T14:16:31Z</time>
      </trkpt>
      <trkpt lat="42.46527" lon="2.10383">
        <ele>2287</ele>
        <time>2010-07-01T14:18:27Z</time>
      </trkpt>
      <trkpt lat="42.46566" lon="2.10405">
        <ele>2273</ele>
        <time>2010-07-01T14:20:23Z</time>
      </trkpt>
      <trkpt lat="42.46608" lon="2.10416">
        <ele>2258</ele>
        <time>2010-07-01T14:22:19Z</time>
      </trkpt>
      <trkpt lat="42.46643" lon="2.10442">
        <ele>2244</ele>
        <time>2010-07-01T14:24:15Z</time>
      </trkpt>
      <trkpt lat="42.46681" lon="2.10452">
        <ele>2230</ele>
        <time>2010-07-01T14:26:11Z</time>
      </trkpt>
      <trkpt lat="42.46723" lon="2.10447">
        <ele>2215</ele>
        <time>2010-07-01T14:28:08Z</time>
      </trkpt>
      <trkpt lat="42.46766" lon="2.10426">
        <ele>2198</ele>
        <time>2010-07-01T14:30:04Z</time>
      </trkpt>
      <trkpt lat="42.46818" lon="2.10413">
        <ele>2179</ele>
        <time>2010-07-01T14:32:00Z</time>
      </trkpt>
      <trkpt lat="42.46853" lon="2.1039">
        <ele>2165</ele>
        <time>2010-07-01T14:33:56Z</time>
      </trkpt>
      <trkpt lat="42.46889" lon="2.10366">
        <ele>2150</ele>
        <time>2010-07-01T14:35:52Z</time>
      </trkpt>
      <trkpt lat="42.46924" lon="2.10343">
        <ele>2136</ele>
        <time>2010-07-01T14:37:48Z</time>
      </trkpt>
      <trkpt lat="42.4696" lon="2.10319">
        <ele>2121</ele>
        <time>2010-07-01T14:39:44Z</time>
      </trkpt>
      <trkpt lat="42.46994" lon="2.10329">
        <ele>2107</ele>
        <time>2010-07-01T14:41:40Z</time>
      </trkpt>
      <trkpt lat="42.47028" lon="2.10338">
        <ele>2093</ele>
        <time>2010-07-01T14:43:37Z</time>
      </trkpt>
      <trkpt lat="42.47062" lon="2.10348">
        <ele>2079</ele>
        <time>2010-07-01T14:45:33Z</time>
      </trkpt>
      <trkpt lat="42.47096" lon="2.1038">
        <ele>2063</ele>
        <time>2010-07-01T14:47:29Z</time>
      </trkpt>
      <trkpt lat="42.47131" lon="2.10412">
        <ele>2047</ele>
        <time>2010-07-01T14:49:25Z</time>
      </trkpt>
      <trkpt lat="42.47165" lon="2.10444">
        <ele>2032</ele>
        <time>2010-07-01T14:51:21Z</time>
      </trkpt>
      <trkpt lat="42.47205" lon="2.1047">
        <ele>2016</ele>
        <time>2010-07-01T14:53:17Z</time>
      </trkpt>
      <trkpt lat="42.47244" lon="2.10495">
        <ele>2001</ele>
        <time>2010-07-01T14:55:13Z</time>
      </trkpt>
      <trkpt lat="42.47283" lon="2.1052">
        <ele>1985</ele>
        <time>2010-07-01T14:57:09Z</time>
      </trkpt>
      <trkpt lat="42.47322" lon="2.10502">
        <ele>1972</ele>
        <time>2010-07-01T14:59:06Z</time>
      </trkpt>
      <trkpt lat="42.47361" lon="2.10485">
        <ele>1961</ele>
        <time>2010-07-01T15:01:02Z</time>
      </trkpt>
      <trkpt lat="42.47401" lon="2.10467">
        <ele>1949</ele>
        <time>2010-07-01T15:02:58Z</time>
      </trkpt>
      <trkpt lat="42.4744" lon="2.1045">
        <ele>1938</ele>
        <time>2010-07-01T15:04:54Z</time>
      </trkpt>
      <trkpt lat="42.47515" lon="2.10413">
        <ele>1916</ele>
        <time>2010-07-01T15:06:50Z</time>
      </trkpt>
      <trkpt lat="42.47606" lon="2.1039">
        <ele>1893</ele>
        <time>2010-07-01T15:08:46Z</time>
      </trkpt>
      <trkpt lat="42.4763" lon="2.1034">
        <ele>1884</ele>
        <time>2010-07-01T15:10:42Z</time>
      </trkpt>
      <trkpt lat="42.476" lon="2.10179">
        <ele>1858</ele>
        <time>2010-07-01T15:12:38Z</time>
      </trkpt>
      <trkpt lat="42.47565" lon="2.10098">
        <ele>1844</ele>
        <time>2010-07-01T15:14:35Z</time>
      </trkpt>
      <trkpt lat="42.47506" lon="2.10035">
        <ele>1828</ele>
        <time>2010-07-01T15:16:31Z</time>
      </trkpt>
      <trkpt lat="42.47475" lon="2.10014">
        <ele>1820</ele>
        <time>2010-07-01T15:18:27Z</time>
      </trkpt>
      <trkpt lat="42.47365" lon="2.09902">
        <ele>1790</ele>
        <time>2010-07-01T15:20:23Z</time>
      </trkpt>
      <trkpt lat="42.47409" lon="2.09827">
        <ele>1774</ele>
        <time>2010-07-01T15:22:19Z</time>
      </trkpt>
      <trkpt lat="42.47492" lon="2.0984">
        <ele>1755</ele>
        <time>2010-07-01T15:24:15Z</time>
      </trkpt>
      <trkpt lat="42.47521" lon="2.09837">
        <ele>1749</ele>
        <time>2010-07-01T15:26:11Z</time>
      </trkpt>
      <trkpt lat="42.4755" lon="2.09814">
        <ele>1740</ele>
        <time>2010-07-01T15:28:08Z</time>
      </trkpt>
    </trkseg>
  </trk>
</gpx>